<?xml version="1.0" encoding="UTF-8" standalone="no" ?>
<gpx xmlns="http://www.topografix.com/GPX/1/1" xmlns:xsi="http://www.w3.org/2001/XMLSchema-instance" xsi:schemaLocation="http://www.topografix.com/GPX/1/1 http://www.topografix.com/GPX/1/1/gpx.xsd" version="1.1" creator="VisuGPX - https://www.visugpx.com">
  <metadata>
    <name>Pornichet 19012020</name>
    <desc><![CDATA[Sortie VTT du dimanche 19 janvier 2020
 ]]></desc>
  </metadata>
  <trk>
    <name><![CDATA[Pornichet Cyclisme]]></name>
    <trkseg>
      <trkpt lat="47.26408" lon="-2.31541">
        <ele>10.2</ele>
        <time>2020-01-19T07:56:52.000Z</time>
      </trkpt>
      <trkpt lat="47.26407" lon="-2.31537">
        <ele>10.3</ele>
        <time>2020-01-19T07:56:53.000Z</time>
      </trkpt>
      <trkpt lat="47.26405" lon="-2.31528">
        <ele>10.6</ele>
        <time>2020-01-19T07:56:55.000Z</time>
      </trkpt>
      <trkpt lat="47.26405" lon="-2.31523">
        <ele>1.7999999523163</ele>
        <time>2020-01-19T07:56:56.000Z</time>
      </trkpt>
      <trkpt lat="47.26404" lon="-2.31518">
        <ele>3.2000000476837</ele>
        <time>2020-01-19T07:56:57.000Z</time>
      </trkpt>
      <trkpt lat="47.26396" lon="-2.31484">
        <ele>3.2000000476837</ele>
        <time>2020-01-19T07:57:03.000Z</time>
      </trkpt>
      <trkpt lat="47.26383" lon="-2.31446">
        <ele>3.2000000476837</ele>
        <time>2020-01-19T07:57:10.000Z</time>
      </trkpt>
      <trkpt lat="47.26363" lon="-2.31402">
        <ele>3.2000000476837</ele>
        <time>2020-01-19T07:57:19.000Z</time>
      </trkpt>
      <trkpt lat="47.26352" lon="-2.31374">
        <ele>3.2000000476837</ele>
        <time>2020-01-19T07:57:25.000Z</time>
      </trkpt>
      <trkpt lat="47.26339" lon="-2.31369">
        <ele>3.2000000476837</ele>
        <time>2020-01-19T07:57:28.000Z</time>
      </trkpt>
      <trkpt lat="47.26328" lon="-2.31375">
        <ele>3.2000000476837</ele>
        <time>2020-01-19T07:57:30.000Z</time>
      </trkpt>
      <trkpt lat="47.26316" lon="-2.31383">
        <ele>3.2000000476837</ele>
        <time>2020-01-19T07:57:32.000Z</time>
      </trkpt>
      <trkpt lat="47.2628" lon="-2.3141">
        <ele>3.2000000476837</ele>
        <time>2020-01-19T07:57:38.000Z</time>
      </trkpt>
      <trkpt lat="47.26275" lon="-2.31416">
        <ele>2.2000000476837</ele>
        <time>2020-01-19T07:57:39.000Z</time>
      </trkpt>
      <trkpt lat="47.2627" lon="-2.31423">
        <ele>1.3999999761581</ele>
        <time>2020-01-19T07:57:40.000Z</time>
      </trkpt>
      <trkpt lat="47.26266" lon="-2.3143">
        <ele>0.40000000596046</ele>
        <time>2020-01-19T07:57:41.000Z</time>
      </trkpt>
      <trkpt lat="47.26262" lon="-2.31437">
        <ele>-0.60000002384186</ele>
        <time>2020-01-19T07:57:42.000Z</time>
      </trkpt>
      <trkpt lat="47.26258" lon="-2.31444">
        <ele>-1.6000000238419</ele>
        <time>2020-01-19T07:57:43.000Z</time>
      </trkpt>
      <trkpt lat="47.26254" lon="-2.3145">
        <ele>-1.6000000238419</ele>
        <time>2020-01-19T07:57:44.000Z</time>
      </trkpt>
      <trkpt lat="47.26247" lon="-2.31462">
        <ele>-1.6000000238419</ele>
        <time>2020-01-19T07:57:46.000Z</time>
      </trkpt>
      <trkpt lat="47.26232" lon="-2.31476">
        <ele>-1.6000000238419</ele>
        <time>2020-01-19T07:57:49.000Z</time>
      </trkpt>
      <trkpt lat="47.26227" lon="-2.31479">
        <ele>-1.6000000238419</ele>
        <time>2020-01-19T07:57:50.000Z</time>
      </trkpt>
      <trkpt lat="47.26192" lon="-2.31493">
        <ele>-1.6000000238419</ele>
        <time>2020-01-19T07:57:56.000Z</time>
      </trkpt>
      <trkpt lat="47.26154" lon="-2.31507">
        <ele>-1.6000000238419</ele>
        <time>2020-01-19T07:58:03.000Z</time>
      </trkpt>
      <trkpt lat="47.26149" lon="-2.3151">
        <ele>-1.6000000238419</ele>
        <time>2020-01-19T07:58:04.000Z</time>
      </trkpt>
      <trkpt lat="47.26134" lon="-2.31521">
        <ele>-1.6000000238419</ele>
        <time>2020-01-19T07:58:07.000Z</time>
      </trkpt>
      <trkpt lat="47.26119" lon="-2.31537">
        <ele>-1.6000000238419</ele>
        <time>2020-01-19T07:58:10.000Z</time>
      </trkpt>
      <trkpt lat="47.26114" lon="-2.31542">
        <ele>-1.6000000238419</ele>
        <time>2020-01-19T07:58:11.000Z</time>
      </trkpt>
      <trkpt lat="47.26087" lon="-2.31576">
        <ele>-1.6000000238419</ele>
        <time>2020-01-19T07:58:16.000Z</time>
      </trkpt>
      <trkpt lat="47.2605" lon="-2.31624">
        <ele>-1.6000000238419</ele>
        <time>2020-01-19T07:58:23.000Z</time>
      </trkpt>
      <trkpt lat="47.26025" lon="-2.31652">
        <ele>-1.6000000238419</ele>
        <time>2020-01-19T07:58:28.000Z</time>
      </trkpt>
      <trkpt lat="47.26015" lon="-2.3166">
        <ele>-1.6000000238419</ele>
        <time>2020-01-19T07:58:30.000Z</time>
      </trkpt>
      <trkpt lat="47.2598" lon="-2.31682">
        <ele>-1.6000000238419</ele>
        <time>2020-01-19T07:58:37.000Z</time>
      </trkpt>
      <trkpt lat="47.25946" lon="-2.31707">
        <ele>-1.6000000238419</ele>
        <time>2020-01-19T07:58:44.000Z</time>
      </trkpt>
      <trkpt lat="47.25938" lon="-2.31719">
        <ele>-1.6000000238419</ele>
        <time>2020-01-19T07:58:46.000Z</time>
      </trkpt>
      <trkpt lat="47.25921" lon="-2.31746">
        <ele>-1.6000000238419</ele>
        <time>2020-01-19T07:58:50.000Z</time>
      </trkpt>
      <trkpt lat="47.25907" lon="-2.31774">
        <ele>-1.6000000238419</ele>
        <time>2020-01-19T07:58:54.000Z</time>
      </trkpt>
      <trkpt lat="47.25905" lon="-2.31782">
        <ele>-1.6000000238419</ele>
        <time>2020-01-19T07:58:55.000Z</time>
      </trkpt>
      <trkpt lat="47.25882" lon="-2.31834">
        <ele>-1.6000000238419</ele>
        <time>2020-01-19T07:59:02.000Z</time>
      </trkpt>
      <trkpt lat="47.2586" lon="-2.31873">
        <ele>-1.6000000238419</ele>
        <time>2020-01-19T07:59:08.000Z</time>
      </trkpt>
      <trkpt lat="47.25835" lon="-2.31894">
        <ele>-1.6000000238419</ele>
        <time>2020-01-19T07:59:13.000Z</time>
      </trkpt>
      <trkpt lat="47.25811" lon="-2.31912">
        <ele>-1.6000000238419</ele>
        <time>2020-01-19T07:59:18.000Z</time>
      </trkpt>
      <trkpt lat="47.25802" lon="-2.31918">
        <ele>-1.6000000238419</ele>
        <time>2020-01-19T07:59:20.000Z</time>
      </trkpt>
      <trkpt lat="47.25778" lon="-2.3194">
        <ele>-1.6000000238419</ele>
        <time>2020-01-19T07:59:26.000Z</time>
      </trkpt>
      <trkpt lat="47.25747" lon="-2.31968">
        <ele>-1.2000000476837</ele>
        <time>2020-01-19T07:59:34.000Z</time>
      </trkpt>
      <trkpt lat="47.25743" lon="-2.31972">
        <ele>-0.80000001192093</ele>
        <time>2020-01-19T07:59:35.000Z</time>
      </trkpt>
      <trkpt lat="47.25739" lon="-2.31974">
        <ele>-0.40000000596046</ele>
        <time>2020-01-19T07:59:36.000Z</time>
      </trkpt>
      <trkpt lat="47.25735" lon="-2.31977">
        <ele>11.7</ele>
        <time>2020-01-19T07:59:37.000Z</time>
      </trkpt>
      <trkpt lat="47.25731" lon="-2.31979">
        <ele>0.40000000596046</ele>
        <time>2020-01-19T07:59:38.000Z</time>
      </trkpt>
      <trkpt lat="47.2572" lon="-2.31987">
        <ele>0.40000000596046</ele>
        <time>2020-01-19T07:59:41.000Z</time>
      </trkpt>
      <trkpt lat="47.25702" lon="-2.31994">
        <ele>0.80000001192093</ele>
        <time>2020-01-19T07:59:46.000Z</time>
      </trkpt>
      <trkpt lat="47.25699" lon="-2.31994">
        <ele>1.3999999761581</ele>
        <time>2020-01-19T07:59:47.000Z</time>
      </trkpt>
      <trkpt lat="47.25696" lon="-2.31994">
        <ele>2.2000000476837</ele>
        <time>2020-01-19T07:59:48.000Z</time>
      </trkpt>
      <trkpt lat="47.25693" lon="-2.31996">
        <ele>2.5999999046326</ele>
        <time>2020-01-19T07:59:49.000Z</time>
      </trkpt>
      <trkpt lat="47.25688" lon="-2.32001">
        <ele>2.5999999046326</ele>
        <time>2020-01-19T07:59:51.000Z</time>
      </trkpt>
      <trkpt lat="47.25687" lon="-2.32005">
        <ele>2.5999999046326</ele>
        <time>2020-01-19T07:59:52.000Z</time>
      </trkpt>
      <trkpt lat="47.25683" lon="-2.32016">
        <ele>2.5999999046326</ele>
        <time>2020-01-19T07:59:54.000Z</time>
      </trkpt>
      <trkpt lat="47.2567" lon="-2.32031">
        <ele>2.5999999046326</ele>
        <time>2020-01-19T07:59:58.000Z</time>
      </trkpt>
      <trkpt lat="47.25653" lon="-2.32049">
        <ele>3</ele>
        <time>2020-01-19T08:00:03.000Z</time>
      </trkpt>
      <trkpt lat="47.25649" lon="-2.32052">
        <ele>3.4000000953674</ele>
        <time>2020-01-19T08:00:04.000Z</time>
      </trkpt>
      <trkpt lat="47.25645" lon="-2.32056">
        <ele>3.7999999523163</ele>
        <time>2020-01-19T08:00:05.000Z</time>
      </trkpt>
      <trkpt lat="47.25642" lon="-2.32061">
        <ele>4.4000000953674</ele>
        <time>2020-01-19T08:00:06.000Z</time>
      </trkpt>
      <trkpt lat="47.25638" lon="-2.32065">
        <ele>4.8000001907349</ele>
        <time>2020-01-19T08:00:07.000Z</time>
      </trkpt>
      <trkpt lat="47.2563" lon="-2.32071">
        <ele>4.8000001907349</ele>
        <time>2020-01-19T08:00:09.000Z</time>
      </trkpt>
      <trkpt lat="47.25622" lon="-2.32078">
        <ele>4.8000001907349</ele>
        <time>2020-01-19T08:00:11.000Z</time>
      </trkpt>
      <trkpt lat="47.25612" lon="-2.32089">
        <ele>4.8000001907349</ele>
        <time>2020-01-19T08:00:14.000Z</time>
      </trkpt>
      <trkpt lat="47.25612" lon="-2.32095">
        <ele>4.8000001907349</ele>
        <time>2020-01-19T08:00:15.000Z</time>
      </trkpt>
      <trkpt lat="47.25617" lon="-2.32114">
        <ele>4.8000001907349</ele>
        <time>2020-01-19T08:00:18.000Z</time>
      </trkpt>
      <trkpt lat="47.25628" lon="-2.32145">
        <ele>4.8000001907349</ele>
        <time>2020-01-19T08:00:23.000Z</time>
      </trkpt>
      <trkpt lat="47.25637" lon="-2.32179">
        <ele>4.8000001907349</ele>
        <time>2020-01-19T08:00:28.000Z</time>
      </trkpt>
      <trkpt lat="47.25641" lon="-2.32192">
        <ele>4.8000001907349</ele>
        <time>2020-01-19T08:00:30.000Z</time>
      </trkpt>
      <trkpt lat="47.25647" lon="-2.32236">
        <ele>4.8000001907349</ele>
        <time>2020-01-19T08:00:36.000Z</time>
      </trkpt>
      <trkpt lat="47.25653" lon="-2.32296">
        <ele>4.8000001907349</ele>
        <time>2020-01-19T08:00:42.000Z</time>
      </trkpt>
      <trkpt lat="47.25656" lon="-2.32357">
        <ele>4.4000000953674</ele>
        <time>2020-01-19T08:00:47.000Z</time>
      </trkpt>
      <trkpt lat="47.25657" lon="-2.32369">
        <ele>4</ele>
        <time>2020-01-19T08:00:48.000Z</time>
      </trkpt>
      <trkpt lat="47.25657" lon="-2.32379">
        <ele>3.5999999046326</ele>
        <time>2020-01-19T08:00:49.000Z</time>
      </trkpt>
      <trkpt lat="47.25658" lon="-2.32388">
        <ele>2.7999999523163</ele>
        <time>2020-01-19T08:00:50.000Z</time>
      </trkpt>
      <trkpt lat="47.25659" lon="-2.32395">
        <ele>2</ele>
        <time>2020-01-19T08:00:51.000Z</time>
      </trkpt>
      <trkpt lat="47.25658" lon="-2.32402">
        <ele>1</ele>
        <time>2020-01-19T08:00:52.000Z</time>
      </trkpt>
      <trkpt lat="47.25654" lon="-2.32408">
        <ele>5.3</ele>
        <time>2020-01-19T08:00:53.000Z</time>
      </trkpt>
      <trkpt lat="47.2565" lon="-2.32411">
        <ele>-1</ele>
        <time>2020-01-19T08:00:54.000Z</time>
      </trkpt>
      <trkpt lat="47.25645" lon="-2.32414">
        <ele>-2</ele>
        <time>2020-01-19T08:00:55.000Z</time>
      </trkpt>
      <trkpt lat="47.2564" lon="-2.32415">
        <ele>-3.2000000476837</ele>
        <time>2020-01-19T08:00:56.000Z</time>
      </trkpt>
      <trkpt lat="47.25635" lon="-2.3242">
        <ele>-3.2000000476837</ele>
        <time>2020-01-19T08:00:57.000Z</time>
      </trkpt>
      <trkpt lat="47.2563" lon="-2.32424">
        <ele>-3.2000000476837</ele>
        <time>2020-01-19T08:00:58.000Z</time>
      </trkpt>
      <trkpt lat="47.25602" lon="-2.3245">
        <ele>-3.2000000476837</ele>
        <time>2020-01-19T08:01:04.000Z</time>
      </trkpt>
      <trkpt lat="47.25579" lon="-2.32474">
        <ele>-3.2000000476837</ele>
        <time>2020-01-19T08:01:10.000Z</time>
      </trkpt>
      <trkpt lat="47.25571" lon="-2.32481">
        <ele>-3.2000000476837</ele>
        <time>2020-01-19T08:01:12.000Z</time>
      </trkpt>
      <trkpt lat="47.25563" lon="-2.32488">
        <ele>-3.2000000476837</ele>
        <time>2020-01-19T08:01:14.000Z</time>
      </trkpt>
      <trkpt lat="47.25552" lon="-2.32499">
        <ele>-3.2000000476837</ele>
        <time>2020-01-19T08:01:17.000Z</time>
      </trkpt>
      <trkpt lat="47.25547" lon="-2.32502">
        <ele>-2.5999999046326</ele>
        <time>2020-01-19T08:01:18.000Z</time>
      </trkpt>
      <trkpt lat="47.25544" lon="-2.32505">
        <ele>-2.2000000476837</ele>
        <time>2020-01-19T08:01:19.000Z</time>
      </trkpt>
      <trkpt lat="47.2554" lon="-2.32508">
        <ele>-1.7999999523163</ele>
        <time>2020-01-19T08:01:20.000Z</time>
      </trkpt>
      <trkpt lat="47.25536" lon="-2.32512">
        <ele>-1.3999999761581</ele>
        <time>2020-01-19T08:01:21.000Z</time>
      </trkpt>
      <trkpt lat="47.25532" lon="-2.32515">
        <ele>-1</ele>
        <time>2020-01-19T08:01:22.000Z</time>
      </trkpt>
      <trkpt lat="47.25528" lon="-2.32518">
        <ele>-1</ele>
        <time>2020-01-19T08:01:23.000Z</time>
      </trkpt>
      <trkpt lat="47.25524" lon="-2.32521">
        <ele>-1</ele>
        <time>2020-01-19T08:01:24.000Z</time>
      </trkpt>
      <trkpt lat="47.25509" lon="-2.32536">
        <ele>-0.60000002384186</ele>
        <time>2020-01-19T08:01:28.000Z</time>
      </trkpt>
      <trkpt lat="47.25505" lon="-2.3254">
        <ele>-0.20000000298023</ele>
        <time>2020-01-19T08:01:29.000Z</time>
      </trkpt>
      <trkpt lat="47.25501" lon="-2.32543">
        <ele>0.20000000298023</ele>
        <time>2020-01-19T08:01:30.000Z</time>
      </trkpt>
      <trkpt lat="47.25498" lon="-2.32546">
        <ele>0.60000002384186</ele>
        <time>2020-01-19T08:01:31.000Z</time>
      </trkpt>
      <trkpt lat="47.25494" lon="-2.3255">
        <ele>1</ele>
        <time>2020-01-19T08:01:32.000Z</time>
      </trkpt>
      <trkpt lat="47.2549" lon="-2.32554">
        <ele>1</ele>
        <time>2020-01-19T08:01:33.000Z</time>
      </trkpt>
      <trkpt lat="47.25481" lon="-2.32567">
        <ele>1</ele>
        <time>2020-01-19T08:01:36.000Z</time>
      </trkpt>
      <trkpt lat="47.25479" lon="-2.32572">
        <ele>1</ele>
        <time>2020-01-19T08:01:37.000Z</time>
      </trkpt>
      <trkpt lat="47.2548" lon="-2.32599">
        <ele>1</ele>
        <time>2020-01-19T08:01:41.000Z</time>
      </trkpt>
      <trkpt lat="47.25485" lon="-2.32636">
        <ele>1</ele>
        <time>2020-01-19T08:01:46.000Z</time>
      </trkpt>
      <trkpt lat="47.25487" lon="-2.32651">
        <ele>1</ele>
        <time>2020-01-19T08:01:48.000Z</time>
      </trkpt>
      <trkpt lat="47.25491" lon="-2.3268">
        <ele>1</ele>
        <time>2020-01-19T08:01:52.000Z</time>
      </trkpt>
      <trkpt lat="47.25488" lon="-2.32694">
        <ele>1</ele>
        <time>2020-01-19T08:01:54.000Z</time>
      </trkpt>
      <trkpt lat="47.25485" lon="-2.327">
        <ele>1</ele>
        <time>2020-01-19T08:01:55.000Z</time>
      </trkpt>
      <trkpt lat="47.25474" lon="-2.32717">
        <ele>1</ele>
        <time>2020-01-19T08:01:58.000Z</time>
      </trkpt>
      <trkpt lat="47.25442" lon="-2.32759">
        <ele>1</ele>
        <time>2020-01-19T08:02:06.000Z</time>
      </trkpt>
      <trkpt lat="47.25438" lon="-2.32764">
        <ele>1</ele>
        <time>2020-01-19T08:02:07.000Z</time>
      </trkpt>
      <trkpt lat="47.25436" lon="-2.32771">
        <ele>1</ele>
        <time>2020-01-19T08:02:08.000Z</time>
      </trkpt>
      <trkpt lat="47.25427" lon="-2.3279">
        <ele>1</ele>
        <time>2020-01-19T08:02:11.000Z</time>
      </trkpt>
      <trkpt lat="47.25423" lon="-2.32795">
        <ele>1</ele>
        <time>2020-01-19T08:02:12.000Z</time>
      </trkpt>
      <trkpt lat="47.25402" lon="-2.32825">
        <ele>1</ele>
        <time>2020-01-19T08:02:17.000Z</time>
      </trkpt>
      <trkpt lat="47.25362" lon="-2.32871">
        <ele>1</ele>
        <time>2020-01-19T08:02:25.000Z</time>
      </trkpt>
      <trkpt lat="47.25323" lon="-2.32911">
        <ele>1</ele>
        <time>2020-01-19T08:02:33.000Z</time>
      </trkpt>
      <trkpt lat="47.2531" lon="-2.32927">
        <ele>1</ele>
        <time>2020-01-19T08:02:36.000Z</time>
      </trkpt>
      <trkpt lat="47.25308" lon="-2.32934">
        <ele>1</ele>
        <time>2020-01-19T08:02:37.000Z</time>
      </trkpt>
      <trkpt lat="47.25312" lon="-2.32957">
        <ele>1</ele>
        <time>2020-01-19T08:02:40.000Z</time>
      </trkpt>
      <trkpt lat="47.25314" lon="-2.32964">
        <ele>1</ele>
        <time>2020-01-19T08:02:41.000Z</time>
      </trkpt>
      <trkpt lat="47.25329" lon="-2.33006">
        <ele>1</ele>
        <time>2020-01-19T08:02:47.000Z</time>
      </trkpt>
      <trkpt lat="47.25338" lon="-2.33031">
        <ele>1</ele>
        <time>2020-01-19T08:02:51.000Z</time>
      </trkpt>
      <trkpt lat="47.25344" lon="-2.33043">
        <ele>1</ele>
        <time>2020-01-19T08:02:53.000Z</time>
      </trkpt>
      <trkpt lat="47.25353" lon="-2.33068">
        <ele>1</ele>
        <time>2020-01-19T08:02:57.000Z</time>
      </trkpt>
      <trkpt lat="47.25357" lon="-2.3308">
        <ele>1</ele>
        <time>2020-01-19T08:02:59.000Z</time>
      </trkpt>
      <trkpt lat="47.25359" lon="-2.33086">
        <ele>0.60000002384186</ele>
        <time>2020-01-19T08:03:00.000Z</time>
      </trkpt>
      <trkpt lat="47.2536" lon="-2.33091">
        <ele>0.20000000298023</ele>
        <time>2020-01-19T08:03:01.000Z</time>
      </trkpt>
      <trkpt lat="47.25361" lon="-2.33093">
        <ele>-0.20000000298023</ele>
        <time>2020-01-19T08:03:02.000Z</time>
      </trkpt>
      <trkpt lat="47.25362" lon="-2.33096">
        <ele>-0.60000002384186</ele>
        <time>2020-01-19T08:03:03.000Z</time>
      </trkpt>
      <trkpt lat="47.25363" lon="-2.33098">
        <ele>-1</ele>
        <time>2020-01-19T08:03:04.000Z</time>
      </trkpt>
      <trkpt lat="47.25364" lon="-2.33102">
        <ele>-1</ele>
        <time>2020-01-19T08:03:08.000Z</time>
      </trkpt>
      <trkpt lat="47.25369" lon="-2.33101">
        <ele>-1</ele>
        <time>2020-01-19T08:03:15.000Z</time>
      </trkpt>
      <trkpt lat="47.2537" lon="-2.33101">
        <ele>-1</ele>
        <time>2020-01-19T08:03:16.000Z</time>
      </trkpt>
      <trkpt lat="47.25373" lon="-2.33109">
        <ele>-1</ele>
        <time>2020-01-19T08:11:34.000Z</time>
      </trkpt>
      <trkpt lat="47.25376" lon="-2.33117">
        <ele>-1</ele>
        <time>2020-01-19T08:11:38.000Z</time>
      </trkpt>
      <trkpt lat="47.25377" lon="-2.33122">
        <ele>-1</ele>
        <time>2020-01-19T08:11:40.000Z</time>
      </trkpt>
      <trkpt lat="47.25386" lon="-2.33141">
        <ele>-1</ele>
        <time>2020-01-19T08:11:46.000Z</time>
      </trkpt>
      <trkpt lat="47.25403" lon="-2.33177">
        <ele>-1</ele>
        <time>2020-01-19T08:11:54.000Z</time>
      </trkpt>
      <trkpt lat="47.25417" lon="-2.33211">
        <ele>-1</ele>
        <time>2020-01-19T08:12:01.000Z</time>
      </trkpt>
      <trkpt lat="47.2543" lon="-2.33243">
        <ele>-1</ele>
        <time>2020-01-19T08:12:08.000Z</time>
      </trkpt>
      <trkpt lat="47.25441" lon="-2.33269">
        <ele>-1</ele>
        <time>2020-01-19T08:12:14.000Z</time>
      </trkpt>
      <trkpt lat="47.25448" lon="-2.33295">
        <ele>-1</ele>
        <time>2020-01-19T08:12:19.000Z</time>
      </trkpt>
      <trkpt lat="47.25447" lon="-2.33301">
        <ele>-1</ele>
        <time>2020-01-19T08:12:20.000Z</time>
      </trkpt>
      <trkpt lat="47.25444" lon="-2.33312">
        <ele>-1</ele>
        <time>2020-01-19T08:12:22.000Z</time>
      </trkpt>
      <trkpt lat="47.25438" lon="-2.33329">
        <ele>-1</ele>
        <time>2020-01-19T08:12:25.000Z</time>
      </trkpt>
      <trkpt lat="47.25432" lon="-2.33345">
        <ele>-1</ele>
        <time>2020-01-19T08:12:28.000Z</time>
      </trkpt>
      <trkpt lat="47.25431" lon="-2.33365">
        <ele>-1</ele>
        <time>2020-01-19T08:12:31.000Z</time>
      </trkpt>
      <trkpt lat="47.25431" lon="-2.33377">
        <ele>-1</ele>
        <time>2020-01-19T08:12:33.000Z</time>
      </trkpt>
      <trkpt lat="47.25431" lon="-2.33423">
        <ele>-1</ele>
        <time>2020-01-19T08:12:40.000Z</time>
      </trkpt>
      <trkpt lat="47.25431" lon="-2.33456">
        <ele>-1</ele>
        <time>2020-01-19T08:12:45.000Z</time>
      </trkpt>
      <trkpt lat="47.25432" lon="-2.33462">
        <ele>-1</ele>
        <time>2020-01-19T08:12:46.000Z</time>
      </trkpt>
      <trkpt lat="47.25438" lon="-2.33487">
        <ele>-1</ele>
        <time>2020-01-19T08:12:51.000Z</time>
      </trkpt>
      <trkpt lat="47.25443" lon="-2.33507">
        <ele>-1</ele>
        <time>2020-01-19T08:12:56.000Z</time>
      </trkpt>
      <trkpt lat="47.25449" lon="-2.33536">
        <ele>-1</ele>
        <time>2020-01-19T08:13:02.000Z</time>
      </trkpt>
      <trkpt lat="47.25455" lon="-2.3357">
        <ele>-1</ele>
        <time>2020-01-19T08:13:08.000Z</time>
      </trkpt>
      <trkpt lat="47.25456" lon="-2.33575">
        <ele>-1.3999999761581</ele>
        <time>2020-01-19T08:13:09.000Z</time>
      </trkpt>
      <trkpt lat="47.25454" lon="-2.33578">
        <ele>-1.7999999523163</ele>
        <time>2020-01-19T08:13:10.000Z</time>
      </trkpt>
      <trkpt lat="47.25451" lon="-2.33579">
        <ele>-2.2000000476837</ele>
        <time>2020-01-19T08:13:11.000Z</time>
      </trkpt>
      <trkpt lat="47.25447" lon="-2.33579">
        <ele>-2.5999999046326</ele>
        <time>2020-01-19T08:13:12.000Z</time>
      </trkpt>
      <trkpt lat="47.25444" lon="-2.33581">
        <ele>-3</ele>
        <time>2020-01-19T08:13:13.000Z</time>
      </trkpt>
      <trkpt lat="47.25439" lon="-2.33587">
        <ele>-3</ele>
        <time>2020-01-19T08:13:15.000Z</time>
      </trkpt>
      <trkpt lat="47.2544" lon="-2.33604">
        <ele>-3</ele>
        <time>2020-01-19T08:13:18.000Z</time>
      </trkpt>
      <trkpt lat="47.25443" lon="-2.33638">
        <ele>-3</ele>
        <time>2020-01-19T08:13:24.000Z</time>
      </trkpt>
      <trkpt lat="47.25447" lon="-2.33675">
        <ele>-3</ele>
        <time>2020-01-19T08:13:30.000Z</time>
      </trkpt>
      <trkpt lat="47.25452" lon="-2.33709">
        <ele>-3</ele>
        <time>2020-01-19T08:13:36.000Z</time>
      </trkpt>
      <trkpt lat="47.25458" lon="-2.33741">
        <ele>-3</ele>
        <time>2020-01-19T08:13:42.000Z</time>
      </trkpt>
      <trkpt lat="47.2547" lon="-2.33751">
        <ele>-3</ele>
        <time>2020-01-19T08:13:46.000Z</time>
      </trkpt>
      <trkpt lat="47.25488" lon="-2.33755">
        <ele>-3</ele>
        <time>2020-01-19T08:13:51.000Z</time>
      </trkpt>
      <trkpt lat="47.25505" lon="-2.33755">
        <ele>-3</ele>
        <time>2020-01-19T08:13:56.000Z</time>
      </trkpt>
      <trkpt lat="47.25522" lon="-2.33754">
        <ele>-3</ele>
        <time>2020-01-19T08:14:02.000Z</time>
      </trkpt>
      <trkpt lat="47.25535" lon="-2.33755">
        <ele>-3</ele>
        <time>2020-01-19T08:14:07.000Z</time>
      </trkpt>
      <trkpt lat="47.25545" lon="-2.33755">
        <ele>-3</ele>
        <time>2020-01-19T08:14:11.000Z</time>
      </trkpt>
      <trkpt lat="47.25562" lon="-2.33756">
        <ele>-3</ele>
        <time>2020-01-19T08:14:18.000Z</time>
      </trkpt>
      <trkpt lat="47.25573" lon="-2.33754">
        <ele>-2.5999999046326</ele>
        <time>2020-01-19T08:14:21.000Z</time>
      </trkpt>
      <trkpt lat="47.25577" lon="-2.33753">
        <ele>-2.2000000476837</ele>
        <time>2020-01-19T08:14:22.000Z</time>
      </trkpt>
      <trkpt lat="47.25582" lon="-2.33754">
        <ele>-1.7999999523163</ele>
        <time>2020-01-19T08:14:23.000Z</time>
      </trkpt>
      <trkpt lat="47.25586" lon="-2.33754">
        <ele>-1.3999999761581</ele>
        <time>2020-01-19T08:14:24.000Z</time>
      </trkpt>
      <trkpt lat="47.25589" lon="-2.33754">
        <ele>-1</ele>
        <time>2020-01-19T08:14:25.000Z</time>
      </trkpt>
      <trkpt lat="47.25598" lon="-2.33754">
        <ele>-1</ele>
        <time>2020-01-19T08:14:27.000Z</time>
      </trkpt>
      <trkpt lat="47.2562" lon="-2.33764">
        <ele>-1</ele>
        <time>2020-01-19T08:14:33.000Z</time>
      </trkpt>
      <trkpt lat="47.2563" lon="-2.33786">
        <ele>-1</ele>
        <time>2020-01-19T08:14:37.000Z</time>
      </trkpt>
      <trkpt lat="47.25638" lon="-2.33825">
        <ele>-1</ele>
        <time>2020-01-19T08:14:42.000Z</time>
      </trkpt>
      <trkpt lat="47.25646" lon="-2.33869">
        <ele>-1</ele>
        <time>2020-01-19T08:14:48.000Z</time>
      </trkpt>
      <trkpt lat="47.25648" lon="-2.33876">
        <ele>-1</ele>
        <time>2020-01-19T08:14:49.000Z</time>
      </trkpt>
      <trkpt lat="47.2565" lon="-2.33889">
        <ele>-1</ele>
        <time>2020-01-19T08:14:51.000Z</time>
      </trkpt>
      <trkpt lat="47.25654" lon="-2.33911">
        <ele>-1</ele>
        <time>2020-01-19T08:14:54.000Z</time>
      </trkpt>
      <trkpt lat="47.25659" lon="-2.33944">
        <ele>-1</ele>
        <time>2020-01-19T08:14:59.000Z</time>
      </trkpt>
      <trkpt lat="47.2566" lon="-2.33951">
        <ele>-1</ele>
        <time>2020-01-19T08:15:00.000Z</time>
      </trkpt>
      <trkpt lat="47.2566" lon="-2.33964">
        <ele>-1</ele>
        <time>2020-01-19T08:15:02.000Z</time>
      </trkpt>
      <trkpt lat="47.25657" lon="-2.33984">
        <ele>-1</ele>
        <time>2020-01-19T08:15:05.000Z</time>
      </trkpt>
      <trkpt lat="47.2565" lon="-2.34023">
        <ele>-1</ele>
        <time>2020-01-19T08:15:11.000Z</time>
      </trkpt>
      <trkpt lat="47.25642" lon="-2.34069">
        <ele>-1</ele>
        <time>2020-01-19T08:15:18.000Z</time>
      </trkpt>
      <trkpt lat="47.2564" lon="-2.34094">
        <ele>-1</ele>
        <time>2020-01-19T08:15:22.000Z</time>
      </trkpt>
      <trkpt lat="47.25641" lon="-2.34108">
        <ele>-1</ele>
        <time>2020-01-19T08:15:24.000Z</time>
      </trkpt>
      <trkpt lat="47.2565" lon="-2.3415">
        <ele>-1</ele>
        <time>2020-01-19T08:15:30.000Z</time>
      </trkpt>
      <trkpt lat="47.25653" lon="-2.34155">
        <ele>-1</ele>
        <time>2020-01-19T08:15:31.000Z</time>
      </trkpt>
      <trkpt lat="47.25665" lon="-2.34179">
        <ele>-1</ele>
        <time>2020-01-19T08:15:35.000Z</time>
      </trkpt>
      <trkpt lat="47.25672" lon="-2.34189">
        <ele>-1</ele>
        <time>2020-01-19T08:15:37.000Z</time>
      </trkpt>
      <trkpt lat="47.25677" lon="-2.34192">
        <ele>-1</ele>
        <time>2020-01-19T08:15:38.000Z</time>
      </trkpt>
      <trkpt lat="47.25686" lon="-2.34193">
        <ele>-1</ele>
        <time>2020-01-19T08:15:40.000Z</time>
      </trkpt>
      <trkpt lat="47.25708" lon="-2.34191">
        <ele>-1.3999999761581</ele>
        <time>2020-01-19T08:15:44.000Z</time>
      </trkpt>
      <trkpt lat="47.25713" lon="-2.34189">
        <ele>-1.7999999523163</ele>
        <time>2020-01-19T08:15:45.000Z</time>
      </trkpt>
      <trkpt lat="47.25719" lon="-2.34187">
        <ele>-2.2000000476837</ele>
        <time>2020-01-19T08:15:46.000Z</time>
      </trkpt>
      <trkpt lat="47.25724" lon="-2.34185">
        <ele>-2.5999999046326</ele>
        <time>2020-01-19T08:15:47.000Z</time>
      </trkpt>
      <trkpt lat="47.25729" lon="-2.34184">
        <ele>-3</ele>
        <time>2020-01-19T08:15:48.000Z</time>
      </trkpt>
      <trkpt lat="47.2575" lon="-2.3418">
        <ele>-3</ele>
        <time>2020-01-19T08:15:52.000Z</time>
      </trkpt>
      <trkpt lat="47.25786" lon="-2.34176">
        <ele>-3</ele>
        <time>2020-01-19T08:15:59.000Z</time>
      </trkpt>
      <trkpt lat="47.25814" lon="-2.34177">
        <ele>-3</ele>
        <time>2020-01-19T08:16:06.000Z</time>
      </trkpt>
      <trkpt lat="47.25825" lon="-2.34178">
        <ele>-3</ele>
        <time>2020-01-19T08:16:09.000Z</time>
      </trkpt>
      <trkpt lat="47.25833" lon="-2.34173">
        <ele>-3</ele>
        <time>2020-01-19T08:16:11.000Z</time>
      </trkpt>
      <trkpt lat="47.25835" lon="-2.34159">
        <ele>-3</ele>
        <time>2020-01-19T08:16:14.000Z</time>
      </trkpt>
      <trkpt lat="47.25841" lon="-2.34155">
        <ele>-3</ele>
        <time>2020-01-19T08:16:17.000Z</time>
      </trkpt>
      <trkpt lat="47.25846" lon="-2.34158">
        <ele>-3</ele>
        <time>2020-01-19T08:16:19.000Z</time>
      </trkpt>
      <trkpt lat="47.25853" lon="-2.34162">
        <ele>-3</ele>
        <time>2020-01-19T08:16:21.000Z</time>
      </trkpt>
      <trkpt lat="47.25861" lon="-2.34164">
        <ele>-3</ele>
        <time>2020-01-19T08:16:23.000Z</time>
      </trkpt>
      <trkpt lat="47.25864" lon="-2.34165">
        <ele>-3.4000000953674</ele>
        <time>2020-01-19T08:16:24.000Z</time>
      </trkpt>
      <trkpt lat="47.25867" lon="-2.34167">
        <ele>-3.7999999523163</ele>
        <time>2020-01-19T08:16:25.000Z</time>
      </trkpt>
      <trkpt lat="47.25868" lon="-2.34168">
        <ele>-4.1999998092651</ele>
        <time>2020-01-19T08:16:26.000Z</time>
      </trkpt>
      <trkpt lat="47.2587" lon="-2.34166">
        <ele>-4.5999999046326</ele>
        <time>2020-01-19T08:16:27.000Z</time>
      </trkpt>
      <trkpt lat="47.25871" lon="-2.34163">
        <ele>-5</ele>
        <time>2020-01-19T08:16:28.000Z</time>
      </trkpt>
      <trkpt lat="47.25877" lon="-2.34155">
        <ele>-5</ele>
        <time>2020-01-19T08:16:32.000Z</time>
      </trkpt>
      <trkpt lat="47.2588" lon="-2.34152">
        <ele>-5</ele>
        <time>2020-01-19T08:16:33.000Z</time>
      </trkpt>
      <trkpt lat="47.2589" lon="-2.34148">
        <ele>-5</ele>
        <time>2020-01-19T08:16:37.000Z</time>
      </trkpt>
      <trkpt lat="47.2591" lon="-2.34138">
        <ele>-5</ele>
        <time>2020-01-19T08:16:42.000Z</time>
      </trkpt>
      <trkpt lat="47.25936" lon="-2.34124">
        <ele>-5</ele>
        <time>2020-01-19T08:16:49.000Z</time>
      </trkpt>
      <trkpt lat="47.25961" lon="-2.34109">
        <ele>-5</ele>
        <time>2020-01-19T08:16:56.000Z</time>
      </trkpt>
      <trkpt lat="47.25965" lon="-2.34109">
        <ele>-5</ele>
        <time>2020-01-19T08:16:57.000Z</time>
      </trkpt>
      <trkpt lat="47.25991" lon="-2.34116">
        <ele>-5</ele>
        <time>2020-01-19T08:17:03.000Z</time>
      </trkpt>
      <trkpt lat="47.26028" lon="-2.34131">
        <ele>-5</ele>
        <time>2020-01-19T08:17:11.000Z</time>
      </trkpt>
      <trkpt lat="47.26062" lon="-2.34147">
        <ele>-5</ele>
        <time>2020-01-19T08:17:18.000Z</time>
      </trkpt>
      <trkpt lat="47.26097" lon="-2.34166">
        <ele>-5</ele>
        <time>2020-01-19T08:17:26.000Z</time>
      </trkpt>
      <trkpt lat="47.26114" lon="-2.34169">
        <ele>-5</ele>
        <time>2020-01-19T08:17:31.000Z</time>
      </trkpt>
      <trkpt lat="47.26116" lon="-2.34158">
        <ele>-5</ele>
        <time>2020-01-19T08:17:34.000Z</time>
      </trkpt>
      <trkpt lat="47.26123" lon="-2.34149">
        <ele>-5</ele>
        <time>2020-01-19T08:17:38.000Z</time>
      </trkpt>
      <trkpt lat="47.26134" lon="-2.34154">
        <ele>-5</ele>
        <time>2020-01-19T08:17:41.000Z</time>
      </trkpt>
      <trkpt lat="47.26142" lon="-2.34159">
        <ele>-5</ele>
        <time>2020-01-19T08:17:43.000Z</time>
      </trkpt>
      <trkpt lat="47.26154" lon="-2.34172">
        <ele>-5</ele>
        <time>2020-01-19T08:17:46.000Z</time>
      </trkpt>
      <trkpt lat="47.26158" lon="-2.34176">
        <ele>-5</ele>
        <time>2020-01-19T08:17:47.000Z</time>
      </trkpt>
      <trkpt lat="47.26185" lon="-2.34203">
        <ele>-5</ele>
        <time>2020-01-19T08:17:53.000Z</time>
      </trkpt>
      <trkpt lat="47.26228" lon="-2.34248">
        <ele>-5</ele>
        <time>2020-01-19T08:18:02.000Z</time>
      </trkpt>
      <trkpt lat="47.26261" lon="-2.34284">
        <ele>-5</ele>
        <time>2020-01-19T08:18:09.000Z</time>
      </trkpt>
      <trkpt lat="47.26301" lon="-2.34328">
        <ele>-5</ele>
        <time>2020-01-19T08:18:18.000Z</time>
      </trkpt>
      <trkpt lat="47.2633" lon="-2.34351">
        <ele>-5</ele>
        <time>2020-01-19T08:18:24.000Z</time>
      </trkpt>
      <trkpt lat="47.26335" lon="-2.34355">
        <ele>-5</ele>
        <time>2020-01-19T08:18:25.000Z</time>
      </trkpt>
      <trkpt lat="47.26347" lon="-2.34372">
        <ele>-5</ele>
        <time>2020-01-19T08:18:28.000Z</time>
      </trkpt>
      <trkpt lat="47.26352" lon="-2.34376">
        <ele>-5</ele>
        <time>2020-01-19T08:18:29.000Z</time>
      </trkpt>
      <trkpt lat="47.26382" lon="-2.344">
        <ele>-5</ele>
        <time>2020-01-19T08:18:35.000Z</time>
      </trkpt>
      <trkpt lat="47.2643" lon="-2.3444">
        <ele>-5</ele>
        <time>2020-01-19T08:18:45.000Z</time>
      </trkpt>
      <trkpt lat="47.26471" lon="-2.34469">
        <ele>-5</ele>
        <time>2020-01-19T08:18:53.000Z</time>
      </trkpt>
      <trkpt lat="47.26507" lon="-2.34495">
        <ele>-4.5999999046326</ele>
        <time>2020-01-19T08:19:01.000Z</time>
      </trkpt>
      <trkpt lat="47.26512" lon="-2.34498">
        <ele>-4.1999998092651</ele>
        <time>2020-01-19T08:19:02.000Z</time>
      </trkpt>
      <trkpt lat="47.26517" lon="-2.34502">
        <ele>-3.5999999046326</ele>
        <time>2020-01-19T08:19:03.000Z</time>
      </trkpt>
      <trkpt lat="47.26521" lon="-2.34506">
        <ele>-3.2000000476837</ele>
        <time>2020-01-19T08:19:04.000Z</time>
      </trkpt>
      <trkpt lat="47.26526" lon="-2.3451">
        <ele>-2.5999999046326</ele>
        <time>2020-01-19T08:19:05.000Z</time>
      </trkpt>
      <trkpt lat="47.26541" lon="-2.3452">
        <ele>-2.5999999046326</ele>
        <time>2020-01-19T08:19:08.000Z</time>
      </trkpt>
      <trkpt lat="47.26545" lon="-2.34526">
        <ele>-2.5999999046326</ele>
        <time>2020-01-19T08:19:09.000Z</time>
      </trkpt>
      <trkpt lat="47.26582" lon="-2.34567">
        <ele>-2.5999999046326</ele>
        <time>2020-01-19T08:19:17.000Z</time>
      </trkpt>
      <trkpt lat="47.26621" lon="-2.34612">
        <ele>-2.5999999046326</ele>
        <time>2020-01-19T08:19:26.000Z</time>
      </trkpt>
      <trkpt lat="47.26652" lon="-2.3465">
        <ele>-2.5999999046326</ele>
        <time>2020-01-19T08:19:33.000Z</time>
      </trkpt>
      <trkpt lat="47.26687" lon="-2.34693">
        <ele>-2.5999999046326</ele>
        <time>2020-01-19T08:19:41.000Z</time>
      </trkpt>
      <trkpt lat="47.26721" lon="-2.34734">
        <ele>-2.5999999046326</ele>
        <time>2020-01-19T08:19:49.000Z</time>
      </trkpt>
      <trkpt lat="47.2675" lon="-2.34771">
        <ele>-2.5999999046326</ele>
        <time>2020-01-19T08:19:56.000Z</time>
      </trkpt>
      <trkpt lat="47.2678" lon="-2.34808">
        <ele>-2.5999999046326</ele>
        <time>2020-01-19T08:20:03.000Z</time>
      </trkpt>
      <trkpt lat="47.26815" lon="-2.34864">
        <ele>-2.5999999046326</ele>
        <time>2020-01-19T08:20:12.000Z</time>
      </trkpt>
      <trkpt lat="47.26832" lon="-2.34892">
        <ele>-2.5999999046326</ele>
        <time>2020-01-19T08:20:17.000Z</time>
      </trkpt>
      <trkpt lat="47.26843" lon="-2.34907">
        <ele>-2.5999999046326</ele>
        <time>2020-01-19T08:20:20.000Z</time>
      </trkpt>
      <trkpt lat="47.26854" lon="-2.3492">
        <ele>-2.5999999046326</ele>
        <time>2020-01-19T08:20:23.000Z</time>
      </trkpt>
      <trkpt lat="47.26881" lon="-2.34957">
        <ele>-2.5999999046326</ele>
        <time>2020-01-19T08:20:30.000Z</time>
      </trkpt>
      <trkpt lat="47.26903" lon="-2.34992">
        <ele>-2.5999999046326</ele>
        <time>2020-01-19T08:20:36.000Z</time>
      </trkpt>
      <trkpt lat="47.26932" lon="-2.35036">
        <ele>-2.5999999046326</ele>
        <time>2020-01-19T08:20:44.000Z</time>
      </trkpt>
      <trkpt lat="47.26962" lon="-2.35082">
        <ele>-2.5999999046326</ele>
        <time>2020-01-19T08:20:52.000Z</time>
      </trkpt>
      <trkpt lat="47.26984" lon="-2.35117">
        <ele>-2.5999999046326</ele>
        <time>2020-01-19T08:20:58.000Z</time>
      </trkpt>
      <trkpt lat="47.27009" lon="-2.35155">
        <ele>-2.5999999046326</ele>
        <time>2020-01-19T08:21:05.000Z</time>
      </trkpt>
      <trkpt lat="47.27041" lon="-2.35205">
        <ele>-2.5999999046326</ele>
        <time>2020-01-19T08:21:14.000Z</time>
      </trkpt>
      <trkpt lat="47.27074" lon="-2.35255">
        <ele>-2.5999999046326</ele>
        <time>2020-01-19T08:21:23.000Z</time>
      </trkpt>
      <trkpt lat="47.27105" lon="-2.35305">
        <ele>-2.5999999046326</ele>
        <time>2020-01-19T08:21:32.000Z</time>
      </trkpt>
      <trkpt lat="47.27127" lon="-2.3534">
        <ele>-2.5999999046326</ele>
        <time>2020-01-19T08:21:38.000Z</time>
      </trkpt>
      <trkpt lat="47.27151" lon="-2.35382">
        <ele>-2.5999999046326</ele>
        <time>2020-01-19T08:21:45.000Z</time>
      </trkpt>
      <trkpt lat="47.27174" lon="-2.35426">
        <ele>-2.5999999046326</ele>
        <time>2020-01-19T08:21:52.000Z</time>
      </trkpt>
      <trkpt lat="47.27202" lon="-2.35477">
        <ele>-2.5999999046326</ele>
        <time>2020-01-19T08:22:00.000Z</time>
      </trkpt>
      <trkpt lat="47.27224" lon="-2.35525">
        <ele>-2.5999999046326</ele>
        <time>2020-01-19T08:22:07.000Z</time>
      </trkpt>
      <trkpt lat="47.27243" lon="-2.35568">
        <ele>-2.5999999046326</ele>
        <time>2020-01-19T08:22:13.000Z</time>
      </trkpt>
      <trkpt lat="47.27262" lon="-2.35612">
        <ele>-2.5999999046326</ele>
        <time>2020-01-19T08:22:19.000Z</time>
      </trkpt>
      <trkpt lat="47.27285" lon="-2.35663">
        <ele>-2.5999999046326</ele>
        <time>2020-01-19T08:22:26.000Z</time>
      </trkpt>
      <trkpt lat="47.27309" lon="-2.35713">
        <ele>-2.5999999046326</ele>
        <time>2020-01-19T08:22:33.000Z</time>
      </trkpt>
      <trkpt lat="47.27315" lon="-2.35724">
        <ele>-2.5999999046326</ele>
        <time>2020-01-19T08:22:35.000Z</time>
      </trkpt>
      <trkpt lat="47.27318" lon="-2.35727">
        <ele>-3.2000000476837</ele>
        <time>2020-01-19T08:22:36.000Z</time>
      </trkpt>
      <trkpt lat="47.27323" lon="-2.35726">
        <ele>-3.5999999046326</ele>
        <time>2020-01-19T08:22:37.000Z</time>
      </trkpt>
      <trkpt lat="47.27328" lon="-2.35722">
        <ele>-4</ele>
        <time>2020-01-19T08:22:38.000Z</time>
      </trkpt>
      <trkpt lat="47.27333" lon="-2.35716">
        <ele>-4.4000000953674</ele>
        <time>2020-01-19T08:22:39.000Z</time>
      </trkpt>
      <trkpt lat="47.27338" lon="-2.35712">
        <ele>-4.8000001907349</ele>
        <time>2020-01-19T08:22:40.000Z</time>
      </trkpt>
      <trkpt lat="47.27375" lon="-2.35678">
        <ele>-4.8000001907349</ele>
        <time>2020-01-19T08:22:47.000Z</time>
      </trkpt>
      <trkpt lat="47.2738" lon="-2.35675">
        <ele>-4.8000001907349</ele>
        <time>2020-01-19T08:22:48.000Z</time>
      </trkpt>
      <trkpt lat="47.27406" lon="-2.35656">
        <ele>-4.8000001907349</ele>
        <time>2020-01-19T08:22:53.000Z</time>
      </trkpt>
      <trkpt lat="47.27424" lon="-2.35655">
        <ele>-4.8000001907349</ele>
        <time>2020-01-19T08:22:57.000Z</time>
      </trkpt>
      <trkpt lat="47.27444" lon="-2.35664">
        <ele>-4.8000001907349</ele>
        <time>2020-01-19T08:23:01.000Z</time>
      </trkpt>
      <trkpt lat="47.27449" lon="-2.35665">
        <ele>-4.8000001907349</ele>
        <time>2020-01-19T08:23:02.000Z</time>
      </trkpt>
      <trkpt lat="47.2747" lon="-2.35671">
        <ele>-4.8000001907349</ele>
        <time>2020-01-19T08:23:06.000Z</time>
      </trkpt>
      <trkpt lat="47.27481" lon="-2.35675">
        <ele>-4.8000001907349</ele>
        <time>2020-01-19T08:23:08.000Z</time>
      </trkpt>
      <trkpt lat="47.27523" lon="-2.35684">
        <ele>-4.8000001907349</ele>
        <time>2020-01-19T08:23:16.000Z</time>
      </trkpt>
      <trkpt lat="47.27538" lon="-2.35688">
        <ele>-4.4000000953674</ele>
        <time>2020-01-19T08:23:19.000Z</time>
      </trkpt>
      <trkpt lat="47.27543" lon="-2.35689">
        <ele>-3.7999999523163</ele>
        <time>2020-01-19T08:23:20.000Z</time>
      </trkpt>
      <trkpt lat="47.27548" lon="-2.3569">
        <ele>-3.4000000953674</ele>
        <time>2020-01-19T08:23:21.000Z</time>
      </trkpt>
      <trkpt lat="47.27552" lon="-2.35691">
        <ele>-3</ele>
        <time>2020-01-19T08:23:22.000Z</time>
      </trkpt>
      <trkpt lat="47.27557" lon="-2.35692">
        <ele>-2.5999999046326</ele>
        <time>2020-01-19T08:23:23.000Z</time>
      </trkpt>
      <trkpt lat="47.27563" lon="-2.35693">
        <ele>-2.5999999046326</ele>
        <time>2020-01-19T08:23:24.000Z</time>
      </trkpt>
      <trkpt lat="47.27605" lon="-2.35705">
        <ele>-2.5999999046326</ele>
        <time>2020-01-19T08:23:32.000Z</time>
      </trkpt>
      <trkpt lat="47.27625" lon="-2.35712">
        <ele>-2.5999999046326</ele>
        <time>2020-01-19T08:23:36.000Z</time>
      </trkpt>
      <trkpt lat="47.27635" lon="-2.35714">
        <ele>-2.5999999046326</ele>
        <time>2020-01-19T08:23:38.000Z</time>
      </trkpt>
      <trkpt lat="47.27656" lon="-2.3572">
        <ele>-2.5999999046326</ele>
        <time>2020-01-19T08:23:43.000Z</time>
      </trkpt>
      <trkpt lat="47.27661" lon="-2.35722">
        <ele>-2.5999999046326</ele>
        <time>2020-01-19T08:23:44.000Z</time>
      </trkpt>
      <trkpt lat="47.2767" lon="-2.35724">
        <ele>-2.2000000476837</ele>
        <time>2020-01-19T08:23:46.000Z</time>
      </trkpt>
      <trkpt lat="47.27675" lon="-2.35724">
        <ele>-1.7999999523163</ele>
        <time>2020-01-19T08:23:47.000Z</time>
      </trkpt>
      <trkpt lat="47.2768" lon="-2.35725">
        <ele>-1.2000000476837</ele>
        <time>2020-01-19T08:23:48.000Z</time>
      </trkpt>
      <trkpt lat="47.27685" lon="-2.35725">
        <ele>-0.80000001192093</ele>
        <time>2020-01-19T08:23:49.000Z</time>
      </trkpt>
      <trkpt lat="47.2769" lon="-2.35724">
        <ele>-0.40000000596046</ele>
        <time>2020-01-19T08:23:50.000Z</time>
      </trkpt>
      <trkpt lat="47.27698" lon="-2.35719">
        <ele>-0.40000000596046</ele>
        <time>2020-01-19T08:23:52.000Z</time>
      </trkpt>
      <trkpt lat="47.27702" lon="-2.35716">
        <ele>-0.40000000596046</ele>
        <time>2020-01-19T08:23:53.000Z</time>
      </trkpt>
      <trkpt lat="47.27724" lon="-2.35693">
        <ele>12.1</ele>
        <time>2020-01-19T08:23:59.000Z</time>
      </trkpt>
      <trkpt lat="47.27727" lon="-2.35688">
        <ele>0.40000000596046</ele>
        <time>2020-01-19T08:24:00.000Z</time>
      </trkpt>
      <trkpt lat="47.2773" lon="-2.35684">
        <ele>0.80000001192093</ele>
        <time>2020-01-19T08:24:01.000Z</time>
      </trkpt>
      <trkpt lat="47.27733" lon="-2.3568">
        <ele>1.2000000476837</ele>
        <time>2020-01-19T08:24:02.000Z</time>
      </trkpt>
      <trkpt lat="47.27736" lon="-2.35675">
        <ele>1.6000000238419</ele>
        <time>2020-01-19T08:24:03.000Z</time>
      </trkpt>
      <trkpt lat="47.27739" lon="-2.3567">
        <ele>1.6000000238419</ele>
        <time>2020-01-19T08:24:04.000Z</time>
      </trkpt>
      <trkpt lat="47.27755" lon="-2.35644">
        <ele>1.6000000238419</ele>
        <time>2020-01-19T08:24:09.000Z</time>
      </trkpt>
      <trkpt lat="47.27763" lon="-2.35637">
        <ele>1.6000000238419</ele>
        <time>2020-01-19T08:24:11.000Z</time>
      </trkpt>
      <trkpt lat="47.27783" lon="-2.35619">
        <ele>2</ele>
        <time>2020-01-19T08:24:16.000Z</time>
      </trkpt>
      <trkpt lat="47.27787" lon="-2.35616">
        <ele>2.4000000953674</ele>
        <time>2020-01-19T08:24:17.000Z</time>
      </trkpt>
      <trkpt lat="47.27791" lon="-2.35614">
        <ele>2.7999999523163</ele>
        <time>2020-01-19T08:24:18.000Z</time>
      </trkpt>
      <trkpt lat="47.27795" lon="-2.35612">
        <ele>3.2000000476837</ele>
        <time>2020-01-19T08:24:19.000Z</time>
      </trkpt>
      <trkpt lat="47.278" lon="-2.3561">
        <ele>3.5999999046326</ele>
        <time>2020-01-19T08:24:20.000Z</time>
      </trkpt>
      <trkpt lat="47.27804" lon="-2.3561">
        <ele>3.5999999046326</ele>
        <time>2020-01-19T08:24:21.000Z</time>
      </trkpt>
      <trkpt lat="47.27817" lon="-2.35606">
        <ele>3.5999999046326</ele>
        <time>2020-01-19T08:24:24.000Z</time>
      </trkpt>
      <trkpt lat="47.27845" lon="-2.35595">
        <ele>3.5999999046326</ele>
        <time>2020-01-19T08:24:31.000Z</time>
      </trkpt>
      <trkpt lat="47.27862" lon="-2.3559">
        <ele>4</ele>
        <time>2020-01-19T08:24:35.000Z</time>
      </trkpt>
      <trkpt lat="47.27867" lon="-2.3559">
        <ele>4.4000000953674</ele>
        <time>2020-01-19T08:24:36.000Z</time>
      </trkpt>
      <trkpt lat="47.27872" lon="-2.35589">
        <ele>4.8000001907349</ele>
        <time>2020-01-19T08:24:37.000Z</time>
      </trkpt>
      <trkpt lat="47.27877" lon="-2.35588">
        <ele>5.1999998092651</ele>
        <time>2020-01-19T08:24:38.000Z</time>
      </trkpt>
      <trkpt lat="47.27881" lon="-2.35587">
        <ele>5.5999999046326</ele>
        <time>2020-01-19T08:24:39.000Z</time>
      </trkpt>
      <trkpt lat="47.2789" lon="-2.35586">
        <ele>5.5999999046326</ele>
        <time>2020-01-19T08:24:41.000Z</time>
      </trkpt>
      <trkpt lat="47.27922" lon="-2.3558">
        <ele>6</ele>
        <time>2020-01-19T08:24:48.000Z</time>
      </trkpt>
      <trkpt lat="47.27926" lon="-2.35579">
        <ele>6.5999999046326</ele>
        <time>2020-01-19T08:24:49.000Z</time>
      </trkpt>
      <trkpt lat="47.27931" lon="-2.35579">
        <ele>7</ele>
        <time>2020-01-19T08:24:50.000Z</time>
      </trkpt>
      <trkpt lat="47.27936" lon="-2.35578">
        <ele>7.4000000953674</ele>
        <time>2020-01-19T08:24:51.000Z</time>
      </trkpt>
      <trkpt lat="47.2794" lon="-2.35578">
        <ele>7.8000001907349</ele>
        <time>2020-01-19T08:24:52.000Z</time>
      </trkpt>
      <trkpt lat="47.27949" lon="-2.35577">
        <ele>7.8000001907349</ele>
        <time>2020-01-19T08:24:54.000Z</time>
      </trkpt>
      <trkpt lat="47.27963" lon="-2.35579">
        <ele>7.8000001907349</ele>
        <time>2020-01-19T08:24:58.000Z</time>
      </trkpt>
      <trkpt lat="47.27986" lon="-2.35582">
        <ele>7.8000001907349</ele>
        <time>2020-01-19T08:25:04.000Z</time>
      </trkpt>
      <trkpt lat="47.28004" lon="-2.35577">
        <ele>7.8000001907349</ele>
        <time>2020-01-19T08:25:08.000Z</time>
      </trkpt>
      <trkpt lat="47.28012" lon="-2.35574">
        <ele>7.8000001907349</ele>
        <time>2020-01-19T08:25:10.000Z</time>
      </trkpt>
      <trkpt lat="47.2802" lon="-2.35572">
        <ele>8.1999998092651</ele>
        <time>2020-01-19T08:25:12.000Z</time>
      </trkpt>
      <trkpt lat="47.28024" lon="-2.35572">
        <ele>8.6000003814697</ele>
        <time>2020-01-19T08:25:13.000Z</time>
      </trkpt>
      <trkpt lat="47.28029" lon="-2.35572">
        <ele>9</ele>
        <time>2020-01-19T08:25:14.000Z</time>
      </trkpt>
      <trkpt lat="47.28033" lon="-2.35572">
        <ele>9.3999996185303</ele>
        <time>2020-01-19T08:25:15.000Z</time>
      </trkpt>
      <trkpt lat="47.28037" lon="-2.35572">
        <ele>9.8000001907349</ele>
        <time>2020-01-19T08:25:16.000Z</time>
      </trkpt>
      <trkpt lat="47.28063" lon="-2.35581">
        <ele>9.8000001907349</ele>
        <time>2020-01-19T08:25:23.000Z</time>
      </trkpt>
      <trkpt lat="47.28071" lon="-2.35598">
        <ele>9.8000001907349</ele>
        <time>2020-01-19T08:25:27.000Z</time>
      </trkpt>
      <trkpt lat="47.28077" lon="-2.35624">
        <ele>10.199999809265</ele>
        <time>2020-01-19T08:25:32.000Z</time>
      </trkpt>
      <trkpt lat="47.28078" lon="-2.35628">
        <ele>10.60000038147</ele>
        <time>2020-01-19T08:25:33.000Z</time>
      </trkpt>
      <trkpt lat="47.28078" lon="-2.35631">
        <ele>11</ele>
        <time>2020-01-19T08:25:34.000Z</time>
      </trkpt>
      <trkpt lat="47.28078" lon="-2.35634">
        <ele>11.60000038147</ele>
        <time>2020-01-19T08:25:35.000Z</time>
      </trkpt>
      <trkpt lat="47.28078" lon="-2.35636">
        <ele>12</ele>
        <time>2020-01-19T08:25:36.000Z</time>
      </trkpt>
      <trkpt lat="47.2808" lon="-2.35643">
        <ele>12.39999961853</ele>
        <time>2020-01-19T08:25:38.000Z</time>
      </trkpt>
      <trkpt lat="47.28081" lon="-2.35647">
        <ele>12.800000190735</ele>
        <time>2020-01-19T08:25:39.000Z</time>
      </trkpt>
      <trkpt lat="47.28081" lon="-2.35651">
        <ele>13.199999809265</ele>
        <time>2020-01-19T08:25:40.000Z</time>
      </trkpt>
      <trkpt lat="47.28082" lon="-2.35653">
        <ele>13.60000038147</ele>
        <time>2020-01-19T08:25:41.000Z</time>
      </trkpt>
      <trkpt lat="47.28082" lon="-2.35656">
        <ele>14</ele>
        <time>2020-01-19T08:25:42.000Z</time>
      </trkpt>
      <trkpt lat="47.28085" lon="-2.35666">
        <ele>14.39999961853</ele>
        <time>2020-01-19T08:25:45.000Z</time>
      </trkpt>
      <trkpt lat="47.28086" lon="-2.3567">
        <ele>14.800000190735</ele>
        <time>2020-01-19T08:25:46.000Z</time>
      </trkpt>
      <trkpt lat="47.28087" lon="-2.35674">
        <ele>15.199999809265</ele>
        <time>2020-01-19T08:25:47.000Z</time>
      </trkpt>
      <trkpt lat="47.28087" lon="-2.35677">
        <ele>15.60000038147</ele>
        <time>2020-01-19T08:25:48.000Z</time>
      </trkpt>
      <trkpt lat="47.28088" lon="-2.3568">
        <ele>16</ele>
        <time>2020-01-19T08:25:49.000Z</time>
      </trkpt>
      <trkpt lat="47.28089" lon="-2.35682">
        <ele>16</ele>
        <time>2020-01-19T08:25:50.000Z</time>
      </trkpt>
      <trkpt lat="47.28089" lon="-2.35687">
        <ele>16</ele>
        <time>2020-01-19T08:25:52.000Z</time>
      </trkpt>
      <trkpt lat="47.28094" lon="-2.35698">
        <ele>16</ele>
        <time>2020-01-19T08:25:58.000Z</time>
      </trkpt>
      <trkpt lat="47.28094" lon="-2.35697">
        <ele>16.39999961853</ele>
        <time>2020-01-19T08:25:59.000Z</time>
      </trkpt>
      <trkpt lat="47.28095" lon="-2.35696">
        <ele>16.799999237061</ele>
        <time>2020-01-19T08:26:00.000Z</time>
      </trkpt>
      <trkpt lat="47.28096" lon="-2.35695">
        <ele>17.200000762939</ele>
        <time>2020-01-19T08:26:01.000Z</time>
      </trkpt>
      <trkpt lat="47.28097" lon="-2.35694">
        <ele>17.60000038147</ele>
        <time>2020-01-19T08:26:02.000Z</time>
      </trkpt>
      <trkpt lat="47.28097" lon="-2.35692">
        <ele>18</ele>
        <time>2020-01-19T08:26:03.000Z</time>
      </trkpt>
      <trkpt lat="47.281" lon="-2.35689">
        <ele>18</ele>
        <time>2020-01-19T08:26:05.000Z</time>
      </trkpt>
      <trkpt lat="47.28106" lon="-2.35683">
        <ele>18.60000038147</ele>
        <time>2020-01-19T08:26:09.000Z</time>
      </trkpt>
      <trkpt lat="47.28108" lon="-2.35682">
        <ele>19</ele>
        <time>2020-01-19T08:26:10.000Z</time>
      </trkpt>
      <trkpt lat="47.2811" lon="-2.35681">
        <ele>19.39999961853</ele>
        <time>2020-01-19T08:26:11.000Z</time>
      </trkpt>
      <trkpt lat="47.28112" lon="-2.35681">
        <ele>19.799999237061</ele>
        <time>2020-01-19T08:26:12.000Z</time>
      </trkpt>
      <trkpt lat="47.28114" lon="-2.35681">
        <ele>20.200000762939</ele>
        <time>2020-01-19T08:26:13.000Z</time>
      </trkpt>
      <trkpt lat="47.28116" lon="-2.35681">
        <ele>20.60000038147</ele>
        <time>2020-01-19T08:26:14.000Z</time>
      </trkpt>
      <trkpt lat="47.28118" lon="-2.3568">
        <ele>21</ele>
        <time>2020-01-19T08:26:15.000Z</time>
      </trkpt>
      <trkpt lat="47.28119" lon="-2.35679">
        <ele>21.39999961853</ele>
        <time>2020-01-19T08:26:16.000Z</time>
      </trkpt>
      <trkpt lat="47.28121" lon="-2.35679">
        <ele>21.799999237061</ele>
        <time>2020-01-19T08:26:17.000Z</time>
      </trkpt>
      <trkpt lat="47.28122" lon="-2.35678">
        <ele>22.200000762939</ele>
        <time>2020-01-19T08:26:18.000Z</time>
      </trkpt>
      <trkpt lat="47.28124" lon="-2.35676">
        <ele>22.200000762939</ele>
        <time>2020-01-19T08:26:19.000Z</time>
      </trkpt>
      <trkpt lat="47.2813" lon="-2.35674">
        <ele>22.200000762939</ele>
        <time>2020-01-19T08:26:22.000Z</time>
      </trkpt>
      <trkpt lat="47.28131" lon="-2.35673">
        <ele>22.200000762939</ele>
        <time>2020-01-19T08:26:23.000Z</time>
      </trkpt>
      <trkpt lat="47.28133" lon="-2.35672">
        <ele>22.60000038147</ele>
        <time>2020-01-19T08:26:24.000Z</time>
      </trkpt>
      <trkpt lat="47.28135" lon="-2.35671">
        <ele>23</ele>
        <time>2020-01-19T08:26:25.000Z</time>
      </trkpt>
      <trkpt lat="47.28136" lon="-2.3567">
        <ele>23.39999961853</ele>
        <time>2020-01-19T08:26:26.000Z</time>
      </trkpt>
      <trkpt lat="47.28137" lon="-2.35669">
        <ele>23.799999237061</ele>
        <time>2020-01-19T08:26:27.000Z</time>
      </trkpt>
      <trkpt lat="47.28139" lon="-2.35668">
        <ele>24.200000762939</ele>
        <time>2020-01-19T08:26:28.000Z</time>
      </trkpt>
      <trkpt lat="47.28142" lon="-2.35668">
        <ele>24.200000762939</ele>
        <time>2020-01-19T08:26:30.000Z</time>
      </trkpt>
      <trkpt lat="47.28146" lon="-2.35671">
        <ele>24.200000762939</ele>
        <time>2020-01-19T08:26:33.000Z</time>
      </trkpt>
      <trkpt lat="47.2815" lon="-2.35673">
        <ele>24.200000762939</ele>
        <time>2020-01-19T08:26:35.000Z</time>
      </trkpt>
      <trkpt lat="47.28155" lon="-2.35677">
        <ele>24.200000762939</ele>
        <time>2020-01-19T08:26:37.000Z</time>
      </trkpt>
      <trkpt lat="47.28159" lon="-2.3568">
        <ele>24.200000762939</ele>
        <time>2020-01-19T08:26:39.000Z</time>
      </trkpt>
      <trkpt lat="47.28162" lon="-2.35678">
        <ele>24.200000762939</ele>
        <time>2020-01-19T08:26:41.000Z</time>
      </trkpt>
      <trkpt lat="47.28162" lon="-2.35678">
        <ele>23.799999237061</ele>
        <time>2020-01-19T08:26:42.000Z</time>
      </trkpt>
      <trkpt lat="47.28163" lon="-2.35678">
        <ele>23.39999961853</ele>
        <time>2020-01-19T08:26:43.000Z</time>
      </trkpt>
      <trkpt lat="47.28164" lon="-2.35678">
        <ele>23</ele>
        <time>2020-01-19T08:26:44.000Z</time>
      </trkpt>
      <trkpt lat="47.28165" lon="-2.35681">
        <ele>22.60000038147</ele>
        <time>2020-01-19T08:26:45.000Z</time>
      </trkpt>
      <trkpt lat="47.28167" lon="-2.35684">
        <ele>22.200000762939</ele>
        <time>2020-01-19T08:26:46.000Z</time>
      </trkpt>
      <trkpt lat="47.28173" lon="-2.35696">
        <ele>21.60000038147</ele>
        <time>2020-01-19T08:26:49.000Z</time>
      </trkpt>
      <trkpt lat="47.28175" lon="-2.357">
        <ele>21.200000762939</ele>
        <time>2020-01-19T08:26:50.000Z</time>
      </trkpt>
      <trkpt lat="47.28175" lon="-2.35704">
        <ele>20.60000038147</ele>
        <time>2020-01-19T08:26:51.000Z</time>
      </trkpt>
      <trkpt lat="47.28177" lon="-2.35707">
        <ele>20.200000762939</ele>
        <time>2020-01-19T08:26:52.000Z</time>
      </trkpt>
      <trkpt lat="47.2818" lon="-2.35709">
        <ele>19.799999237061</ele>
        <time>2020-01-19T08:26:53.000Z</time>
      </trkpt>
      <trkpt lat="47.28183" lon="-2.35709">
        <ele>19.200000762939</ele>
        <time>2020-01-19T08:26:54.000Z</time>
      </trkpt>
      <trkpt lat="47.28185" lon="-2.35709">
        <ele>18.799999237061</ele>
        <time>2020-01-19T08:26:55.000Z</time>
      </trkpt>
      <trkpt lat="47.28188" lon="-2.35708">
        <ele>18.200000762939</ele>
        <time>2020-01-19T08:26:56.000Z</time>
      </trkpt>
      <trkpt lat="47.2819" lon="-2.35707">
        <ele>17.799999237061</ele>
        <time>2020-01-19T08:26:57.000Z</time>
      </trkpt>
      <trkpt lat="47.28193" lon="-2.35705">
        <ele>16.60000038147</ele>
        <time>2020-01-19T08:26:58.000Z</time>
      </trkpt>
      <trkpt lat="47.28195" lon="-2.35704">
        <ele>16.200000762939</ele>
        <time>2020-01-19T08:26:59.000Z</time>
      </trkpt>
      <trkpt lat="47.28198" lon="-2.35703">
        <ele>15.60000038147</ele>
        <time>2020-01-19T08:27:00.000Z</time>
      </trkpt>
      <trkpt lat="47.282" lon="-2.35702">
        <ele>15</ele>
        <time>2020-01-19T08:27:01.000Z</time>
      </trkpt>
      <trkpt lat="47.28208" lon="-2.357">
        <ele>15</ele>
        <time>2020-01-19T08:27:05.000Z</time>
      </trkpt>
      <trkpt lat="47.2821" lon="-2.35708">
        <ele>15</ele>
        <time>2020-01-19T08:27:31.000Z</time>
      </trkpt>
      <trkpt lat="47.28212" lon="-2.35714">
        <ele>15</ele>
        <time>2020-01-19T08:27:34.000Z</time>
      </trkpt>
      <trkpt lat="47.28211" lon="-2.35715">
        <ele>15</ele>
        <time>2020-01-19T08:27:35.000Z</time>
      </trkpt>
      <trkpt lat="47.28208" lon="-2.3572">
        <ele>15</ele>
        <time>2020-01-19T08:27:38.000Z</time>
      </trkpt>
      <trkpt lat="47.28207" lon="-2.35722">
        <ele>15</ele>
        <time>2020-01-19T08:27:39.000Z</time>
      </trkpt>
      <trkpt lat="47.28207" lon="-2.35725">
        <ele>15</ele>
        <time>2020-01-19T08:27:41.000Z</time>
      </trkpt>
      <trkpt lat="47.28208" lon="-2.35742">
        <ele>15</ele>
        <time>2020-01-19T08:27:46.000Z</time>
      </trkpt>
      <trkpt lat="47.28208" lon="-2.35746">
        <ele>16</ele>
        <time>2020-01-19T08:27:47.000Z</time>
      </trkpt>
      <trkpt lat="47.28207" lon="-2.3575">
        <ele>16.39999961853</ele>
        <time>2020-01-19T08:27:48.000Z</time>
      </trkpt>
      <trkpt lat="47.28207" lon="-2.35755">
        <ele>16.799999237061</ele>
        <time>2020-01-19T08:27:49.000Z</time>
      </trkpt>
      <trkpt lat="47.28207" lon="-2.35759">
        <ele>17.200000762939</ele>
        <time>2020-01-19T08:27:50.000Z</time>
      </trkpt>
      <trkpt lat="47.28207" lon="-2.35766">
        <ele>17.60000038147</ele>
        <time>2020-01-19T08:27:52.000Z</time>
      </trkpt>
      <trkpt lat="47.28207" lon="-2.35769">
        <ele>18</ele>
        <time>2020-01-19T08:27:53.000Z</time>
      </trkpt>
      <trkpt lat="47.28208" lon="-2.35773">
        <ele>18.39999961853</ele>
        <time>2020-01-19T08:27:54.000Z</time>
      </trkpt>
      <trkpt lat="47.28209" lon="-2.35776">
        <ele>18.799999237061</ele>
        <time>2020-01-19T08:27:55.000Z</time>
      </trkpt>
      <trkpt lat="47.28209" lon="-2.35779">
        <ele>19.39999961853</ele>
        <time>2020-01-19T08:27:56.000Z</time>
      </trkpt>
      <trkpt lat="47.2821" lon="-2.35783">
        <ele>19.39999961853</ele>
        <time>2020-01-19T08:27:58.000Z</time>
      </trkpt>
      <trkpt lat="47.28214" lon="-2.35785">
        <ele>19.39999961853</ele>
        <time>2020-01-19T08:28:02.000Z</time>
      </trkpt>
      <trkpt lat="47.28217" lon="-2.35786">
        <ele>19.39999961853</ele>
        <time>2020-01-19T08:28:05.000Z</time>
      </trkpt>
      <trkpt lat="47.28222" lon="-2.35778">
        <ele>18.799999237061</ele>
        <time>2020-01-19T08:28:09.000Z</time>
      </trkpt>
      <trkpt lat="47.28224" lon="-2.35777">
        <ele>18.39999961853</ele>
        <time>2020-01-19T08:28:10.000Z</time>
      </trkpt>
      <trkpt lat="47.28226" lon="-2.35776">
        <ele>18</ele>
        <time>2020-01-19T08:28:11.000Z</time>
      </trkpt>
      <trkpt lat="47.28228" lon="-2.35776">
        <ele>17.200000762939</ele>
        <time>2020-01-19T08:28:12.000Z</time>
      </trkpt>
      <trkpt lat="47.28238" lon="-2.35781">
        <ele>17.200000762939</ele>
        <time>2020-01-19T08:28:16.000Z</time>
      </trkpt>
      <trkpt lat="47.2825" lon="-2.35788">
        <ele>17.200000762939</ele>
        <time>2020-01-19T08:28:20.000Z</time>
      </trkpt>
      <trkpt lat="47.28252" lon="-2.35791">
        <ele>17.200000762939</ele>
        <time>2020-01-19T08:28:21.000Z</time>
      </trkpt>
      <trkpt lat="47.28257" lon="-2.35799">
        <ele>17.200000762939</ele>
        <time>2020-01-19T08:28:24.000Z</time>
      </trkpt>
      <trkpt lat="47.28262" lon="-2.35818">
        <ele>17.200000762939</ele>
        <time>2020-01-19T08:28:29.000Z</time>
      </trkpt>
      <trkpt lat="47.28265" lon="-2.3584">
        <ele>17.200000762939</ele>
        <time>2020-01-19T08:28:34.000Z</time>
      </trkpt>
      <trkpt lat="47.2827" lon="-2.35852">
        <ele>17.200000762939</ele>
        <time>2020-01-19T08:28:38.000Z</time>
      </trkpt>
      <trkpt lat="47.28278" lon="-2.3586">
        <ele>17.200000762939</ele>
        <time>2020-01-19T08:28:41.000Z</time>
      </trkpt>
      <trkpt lat="47.28284" lon="-2.35859">
        <ele>17.200000762939</ele>
        <time>2020-01-19T08:28:44.000Z</time>
      </trkpt>
      <trkpt lat="47.28295" lon="-2.3585">
        <ele>17.200000762939</ele>
        <time>2020-01-19T08:28:48.000Z</time>
      </trkpt>
      <trkpt lat="47.28297" lon="-2.35848">
        <ele>17.200000762939</ele>
        <time>2020-01-19T08:28:49.000Z</time>
      </trkpt>
      <trkpt lat="47.28308" lon="-2.35842">
        <ele>17.200000762939</ele>
        <time>2020-01-19T08:28:54.000Z</time>
      </trkpt>
      <trkpt lat="47.28314" lon="-2.3584">
        <ele>17.60000038147</ele>
        <time>2020-01-19T08:28:57.000Z</time>
      </trkpt>
      <trkpt lat="47.28315" lon="-2.35839">
        <ele>18</ele>
        <time>2020-01-19T08:28:58.000Z</time>
      </trkpt>
      <trkpt lat="47.28317" lon="-2.35838">
        <ele>18.39999961853</ele>
        <time>2020-01-19T08:28:59.000Z</time>
      </trkpt>
      <trkpt lat="47.28318" lon="-2.35836">
        <ele>18.799999237061</ele>
        <time>2020-01-19T08:29:00.000Z</time>
      </trkpt>
      <trkpt lat="47.28321" lon="-2.35833">
        <ele>19.200000762939</ele>
        <time>2020-01-19T08:29:01.000Z</time>
      </trkpt>
      <trkpt lat="47.28338" lon="-2.35813">
        <ele>19.200000762939</ele>
        <time>2020-01-19T08:29:08.000Z</time>
      </trkpt>
      <trkpt lat="47.28353" lon="-2.35799">
        <ele>19.200000762939</ele>
        <time>2020-01-19T08:29:14.000Z</time>
      </trkpt>
      <trkpt lat="47.28364" lon="-2.35792">
        <ele>19.200000762939</ele>
        <time>2020-01-19T08:29:19.000Z</time>
      </trkpt>
      <trkpt lat="47.28375" lon="-2.35794">
        <ele>19.200000762939</ele>
        <time>2020-01-19T08:29:24.000Z</time>
      </trkpt>
      <trkpt lat="47.28377" lon="-2.35795">
        <ele>19.200000762939</ele>
        <time>2020-01-19T08:29:25.000Z</time>
      </trkpt>
      <trkpt lat="47.28383" lon="-2.35805">
        <ele>19.200000762939</ele>
        <time>2020-01-19T08:29:28.000Z</time>
      </trkpt>
      <trkpt lat="47.28392" lon="-2.35813">
        <ele>19.200000762939</ele>
        <time>2020-01-19T08:29:31.000Z</time>
      </trkpt>
      <trkpt lat="47.28395" lon="-2.35815">
        <ele>19.200000762939</ele>
        <time>2020-01-19T08:29:32.000Z</time>
      </trkpt>
      <trkpt lat="47.28403" lon="-2.35825">
        <ele>19.200000762939</ele>
        <time>2020-01-19T08:29:36.000Z</time>
      </trkpt>
      <trkpt lat="47.28415" lon="-2.35846">
        <ele>19.200000762939</ele>
        <time>2020-01-19T08:29:41.000Z</time>
      </trkpt>
      <trkpt lat="47.28428" lon="-2.35871">
        <ele>19.200000762939</ele>
        <time>2020-01-19T08:29:47.000Z</time>
      </trkpt>
      <trkpt lat="47.28434" lon="-2.35875">
        <ele>19.60000038147</ele>
        <time>2020-01-19T08:29:49.000Z</time>
      </trkpt>
      <trkpt lat="47.28437" lon="-2.35876">
        <ele>20</ele>
        <time>2020-01-19T08:29:50.000Z</time>
      </trkpt>
      <trkpt lat="47.2844" lon="-2.35877">
        <ele>20.799999237061</ele>
        <time>2020-01-19T08:29:51.000Z</time>
      </trkpt>
      <trkpt lat="47.28442" lon="-2.35879">
        <ele>21.200000762939</ele>
        <time>2020-01-19T08:29:52.000Z</time>
      </trkpt>
      <trkpt lat="47.28448" lon="-2.35881">
        <ele>21.200000762939</ele>
        <time>2020-01-19T08:29:54.000Z</time>
      </trkpt>
      <trkpt lat="47.2845" lon="-2.35882">
        <ele>21.200000762939</ele>
        <time>2020-01-19T08:29:55.000Z</time>
      </trkpt>
      <trkpt lat="47.28458" lon="-2.35882">
        <ele>21.200000762939</ele>
        <time>2020-01-19T08:30:00.000Z</time>
      </trkpt>
      <trkpt lat="47.28461" lon="-2.35881">
        <ele>21.200000762939</ele>
        <time>2020-01-19T08:30:02.000Z</time>
      </trkpt>
      <trkpt lat="47.28461" lon="-2.35875">
        <ele>21.200000762939</ele>
        <time>2020-01-19T08:30:04.000Z</time>
      </trkpt>
      <trkpt lat="47.28464" lon="-2.35865">
        <ele>21.200000762939</ele>
        <time>2020-01-19T08:30:07.000Z</time>
      </trkpt>
      <trkpt lat="47.2847" lon="-2.35851">
        <ele>21.200000762939</ele>
        <time>2020-01-19T08:30:11.000Z</time>
      </trkpt>
      <trkpt lat="47.28474" lon="-2.3584">
        <ele>21.200000762939</ele>
        <time>2020-01-19T08:30:17.000Z</time>
      </trkpt>
      <trkpt lat="47.28475" lon="-2.35841">
        <ele>21.200000762939</ele>
        <time>2020-01-19T08:30:18.000Z</time>
      </trkpt>
      <trkpt lat="47.28476" lon="-2.35846">
        <ele>21.200000762939</ele>
        <time>2020-01-19T08:30:21.000Z</time>
      </trkpt>
      <trkpt lat="47.2848" lon="-2.35855">
        <ele>21.200000762939</ele>
        <time>2020-01-19T08:30:24.000Z</time>
      </trkpt>
      <trkpt lat="47.28485" lon="-2.35858">
        <ele>21.200000762939</ele>
        <time>2020-01-19T08:30:26.000Z</time>
      </trkpt>
      <trkpt lat="47.28497" lon="-2.35869">
        <ele>21.200000762939</ele>
        <time>2020-01-19T08:30:30.000Z</time>
      </trkpt>
      <trkpt lat="47.2851" lon="-2.35876">
        <ele>21.60000038147</ele>
        <time>2020-01-19T08:30:36.000Z</time>
      </trkpt>
      <trkpt lat="47.28512" lon="-2.35877">
        <ele>22.200000762939</ele>
        <time>2020-01-19T08:30:37.000Z</time>
      </trkpt>
      <trkpt lat="47.28514" lon="-2.35879">
        <ele>22.60000038147</ele>
        <time>2020-01-19T08:30:38.000Z</time>
      </trkpt>
      <trkpt lat="47.28515" lon="-2.3588">
        <ele>23</ele>
        <time>2020-01-19T08:30:39.000Z</time>
      </trkpt>
      <trkpt lat="47.28517" lon="-2.35881">
        <ele>23.39999961853</ele>
        <time>2020-01-19T08:30:40.000Z</time>
      </trkpt>
      <trkpt lat="47.28519" lon="-2.35883">
        <ele>23.799999237061</ele>
        <time>2020-01-19T08:30:41.000Z</time>
      </trkpt>
      <trkpt lat="47.2852" lon="-2.35886">
        <ele>24.799999237061</ele>
        <time>2020-01-19T08:30:42.000Z</time>
      </trkpt>
      <trkpt lat="47.28521" lon="-2.35887">
        <ele>25.200000762939</ele>
        <time>2020-01-19T08:30:43.000Z</time>
      </trkpt>
      <trkpt lat="47.28522" lon="-2.35887">
        <ele>25.799999237061</ele>
        <time>2020-01-19T08:30:44.000Z</time>
      </trkpt>
      <trkpt lat="47.28523" lon="-2.35888">
        <ele>26.200000762939</ele>
        <time>2020-01-19T08:30:45.000Z</time>
      </trkpt>
      <trkpt lat="47.28525" lon="-2.35888">
        <ele>26.60000038147</ele>
        <time>2020-01-19T08:30:46.000Z</time>
      </trkpt>
      <trkpt lat="47.28527" lon="-2.35888">
        <ele>27</ele>
        <time>2020-01-19T08:30:47.000Z</time>
      </trkpt>
      <trkpt lat="47.28528" lon="-2.35888">
        <ele>27.39999961853</ele>
        <time>2020-01-19T08:30:48.000Z</time>
      </trkpt>
      <trkpt lat="47.2853" lon="-2.35889">
        <ele>27.799999237061</ele>
        <time>2020-01-19T08:30:49.000Z</time>
      </trkpt>
      <trkpt lat="47.28531" lon="-2.35891">
        <ele>27.799999237061</ele>
        <time>2020-01-19T08:30:51.000Z</time>
      </trkpt>
      <trkpt lat="47.28539" lon="-2.359">
        <ele>27.799999237061</ele>
        <time>2020-01-19T08:31:08.000Z</time>
      </trkpt>
      <trkpt lat="47.28546" lon="-2.35905">
        <ele>27.799999237061</ele>
        <time>2020-01-19T08:31:13.000Z</time>
      </trkpt>
      <trkpt lat="47.28557" lon="-2.35916">
        <ele>27.799999237061</ele>
        <time>2020-01-19T08:31:19.000Z</time>
      </trkpt>
      <trkpt lat="47.28566" lon="-2.35917">
        <ele>27.799999237061</ele>
        <time>2020-01-19T08:31:22.000Z</time>
      </trkpt>
      <trkpt lat="47.28571" lon="-2.35916">
        <ele>27.799999237061</ele>
        <time>2020-01-19T08:31:23.000Z</time>
      </trkpt>
      <trkpt lat="47.28575" lon="-2.35916">
        <ele>27.39999961853</ele>
        <time>2020-01-19T08:31:24.000Z</time>
      </trkpt>
      <trkpt lat="47.28579" lon="-2.35917">
        <ele>26.799999237061</ele>
        <time>2020-01-19T08:31:25.000Z</time>
      </trkpt>
      <trkpt lat="47.28581" lon="-2.3592">
        <ele>26.39999961853</ele>
        <time>2020-01-19T08:31:26.000Z</time>
      </trkpt>
      <trkpt lat="47.28584" lon="-2.35924">
        <ele>26</ele>
        <time>2020-01-19T08:31:27.000Z</time>
      </trkpt>
      <trkpt lat="47.28585" lon="-2.35927">
        <ele>25.39999961853</ele>
        <time>2020-01-19T08:31:28.000Z</time>
      </trkpt>
      <trkpt lat="47.2859" lon="-2.3594">
        <ele>25.39999961853</ele>
        <time>2020-01-19T08:31:31.000Z</time>
      </trkpt>
      <trkpt lat="47.28598" lon="-2.35953">
        <ele>25.39999961853</ele>
        <time>2020-01-19T08:31:35.000Z</time>
      </trkpt>
      <trkpt lat="47.28603" lon="-2.35963">
        <ele>25.39999961853</ele>
        <time>2020-01-19T08:31:37.000Z</time>
      </trkpt>
      <trkpt lat="47.28606" lon="-2.35969">
        <ele>25.39999961853</ele>
        <time>2020-01-19T08:31:38.000Z</time>
      </trkpt>
      <trkpt lat="47.28618" lon="-2.35998">
        <ele>25.39999961853</ele>
        <time>2020-01-19T08:31:43.000Z</time>
      </trkpt>
      <trkpt lat="47.28632" lon="-2.36033">
        <ele>25.39999961853</ele>
        <time>2020-01-19T08:31:49.000Z</time>
      </trkpt>
      <trkpt lat="47.28636" lon="-2.36045">
        <ele>25.39999961853</ele>
        <time>2020-01-19T08:31:51.000Z</time>
      </trkpt>
      <trkpt lat="47.28643" lon="-2.36072">
        <ele>25.39999961853</ele>
        <time>2020-01-19T08:31:56.000Z</time>
      </trkpt>
      <trkpt lat="47.28654" lon="-2.36089">
        <ele>25.799999237061</ele>
        <time>2020-01-19T08:32:00.000Z</time>
      </trkpt>
      <trkpt lat="47.28656" lon="-2.36095">
        <ele>26.39999961853</ele>
        <time>2020-01-19T08:32:01.000Z</time>
      </trkpt>
      <trkpt lat="47.28658" lon="-2.361">
        <ele>26.799999237061</ele>
        <time>2020-01-19T08:32:02.000Z</time>
      </trkpt>
      <trkpt lat="47.28661" lon="-2.36106">
        <ele>27.200000762939</ele>
        <time>2020-01-19T08:32:03.000Z</time>
      </trkpt>
      <trkpt lat="47.28663" lon="-2.36112">
        <ele>27.60000038147</ele>
        <time>2020-01-19T08:32:04.000Z</time>
      </trkpt>
      <trkpt lat="47.28665" lon="-2.36118">
        <ele>27.60000038147</ele>
        <time>2020-01-19T08:32:05.000Z</time>
      </trkpt>
      <trkpt lat="47.28666" lon="-2.36125">
        <ele>27.60000038147</ele>
        <time>2020-01-19T08:32:06.000Z</time>
      </trkpt>
      <trkpt lat="47.28672" lon="-2.36147">
        <ele>27.60000038147</ele>
        <time>2020-01-19T08:32:10.000Z</time>
      </trkpt>
      <trkpt lat="47.28675" lon="-2.36156">
        <ele>27.60000038147</ele>
        <time>2020-01-19T08:32:13.000Z</time>
      </trkpt>
      <trkpt lat="47.28676" lon="-2.36157">
        <ele>27.60000038147</ele>
        <time>2020-01-19T08:32:14.000Z</time>
      </trkpt>
      <trkpt lat="47.28677" lon="-2.36159">
        <ele>27.60000038147</ele>
        <time>2020-01-19T08:32:16.000Z</time>
      </trkpt>
      <trkpt lat="47.28682" lon="-2.36168">
        <ele>27.60000038147</ele>
        <time>2020-01-19T08:32:23.000Z</time>
      </trkpt>
      <trkpt lat="47.28684" lon="-2.3617">
        <ele>27.60000038147</ele>
        <time>2020-01-19T08:32:24.000Z</time>
      </trkpt>
      <trkpt lat="47.28689" lon="-2.36187">
        <ele>27.60000038147</ele>
        <time>2020-01-19T08:32:28.000Z</time>
      </trkpt>
      <trkpt lat="47.28694" lon="-2.362">
        <ele>27.60000038147</ele>
        <time>2020-01-19T08:32:31.000Z</time>
      </trkpt>
      <trkpt lat="47.28696" lon="-2.36202">
        <ele>27.60000038147</ele>
        <time>2020-01-19T08:32:32.000Z</time>
      </trkpt>
      <trkpt lat="47.287" lon="-2.36203">
        <ele>27.60000038147</ele>
        <time>2020-01-19T08:32:33.000Z</time>
      </trkpt>
      <trkpt lat="47.2871" lon="-2.36203">
        <ele>27.60000038147</ele>
        <time>2020-01-19T08:32:36.000Z</time>
      </trkpt>
      <trkpt lat="47.28714" lon="-2.36203">
        <ele>27.60000038147</ele>
        <time>2020-01-19T08:32:38.000Z</time>
      </trkpt>
      <trkpt lat="47.28717" lon="-2.36208">
        <ele>27.60000038147</ele>
        <time>2020-01-19T08:32:40.000Z</time>
      </trkpt>
      <trkpt lat="47.28724" lon="-2.36224">
        <ele>27.60000038147</ele>
        <time>2020-01-19T08:32:44.000Z</time>
      </trkpt>
      <trkpt lat="47.28726" lon="-2.36225">
        <ele>27.60000038147</ele>
        <time>2020-01-19T08:32:45.000Z</time>
      </trkpt>
      <trkpt lat="47.28731" lon="-2.36224">
        <ele>27.60000038147</ele>
        <time>2020-01-19T08:32:48.000Z</time>
      </trkpt>
      <trkpt lat="47.28743" lon="-2.36217">
        <ele>27.60000038147</ele>
        <time>2020-01-19T08:32:52.000Z</time>
      </trkpt>
      <trkpt lat="47.28748" lon="-2.36213">
        <ele>27.60000038147</ele>
        <time>2020-01-19T08:32:53.000Z</time>
      </trkpt>
      <trkpt lat="47.28784" lon="-2.36187">
        <ele>27.60000038147</ele>
        <time>2020-01-19T08:32:59.000Z</time>
      </trkpt>
      <trkpt lat="47.28801" lon="-2.36177">
        <ele>27.60000038147</ele>
        <time>2020-01-19T08:33:02.000Z</time>
      </trkpt>
      <trkpt lat="47.28815" lon="-2.36165">
        <ele>27.60000038147</ele>
        <time>2020-01-19T08:33:05.000Z</time>
      </trkpt>
      <trkpt lat="47.28836" lon="-2.36144">
        <ele>27.60000038147</ele>
        <time>2020-01-19T08:33:10.000Z</time>
      </trkpt>
      <trkpt lat="47.28848" lon="-2.3613">
        <ele>27.60000038147</ele>
        <time>2020-01-19T08:33:13.000Z</time>
      </trkpt>
      <trkpt lat="47.28861" lon="-2.36118">
        <ele>27.60000038147</ele>
        <time>2020-01-19T08:33:16.000Z</time>
      </trkpt>
      <trkpt lat="47.28892" lon="-2.36087">
        <ele>27.60000038147</ele>
        <time>2020-01-19T08:33:24.000Z</time>
      </trkpt>
      <trkpt lat="47.28908" lon="-2.36072">
        <ele>27.60000038147</ele>
        <time>2020-01-19T08:33:28.000Z</time>
      </trkpt>
      <trkpt lat="47.28916" lon="-2.36065">
        <ele>27.60000038147</ele>
        <time>2020-01-19T08:33:30.000Z</time>
      </trkpt>
      <trkpt lat="47.28941" lon="-2.36049">
        <ele>27.60000038147</ele>
        <time>2020-01-19T08:33:36.000Z</time>
      </trkpt>
      <trkpt lat="47.28945" lon="-2.36046">
        <ele>27.60000038147</ele>
        <time>2020-01-19T08:33:37.000Z</time>
      </trkpt>
      <trkpt lat="47.28957" lon="-2.36037">
        <ele>27.60000038147</ele>
        <time>2020-01-19T08:33:40.000Z</time>
      </trkpt>
      <trkpt lat="47.28968" lon="-2.36028">
        <ele>27.60000038147</ele>
        <time>2020-01-19T08:33:43.000Z</time>
      </trkpt>
      <trkpt lat="47.28996" lon="-2.36001">
        <ele>27.60000038147</ele>
        <time>2020-01-19T08:33:50.000Z</time>
      </trkpt>
      <trkpt lat="47.29019" lon="-2.35978">
        <ele>27.60000038147</ele>
        <time>2020-01-19T08:33:56.000Z</time>
      </trkpt>
      <trkpt lat="47.29027" lon="-2.35969">
        <ele>27.60000038147</ele>
        <time>2020-01-19T08:33:58.000Z</time>
      </trkpt>
      <trkpt lat="47.29043" lon="-2.35951">
        <ele>27.60000038147</ele>
        <time>2020-01-19T08:34:02.000Z</time>
      </trkpt>
      <trkpt lat="47.2907" lon="-2.3592">
        <ele>27.60000038147</ele>
        <time>2020-01-19T08:34:09.000Z</time>
      </trkpt>
      <trkpt lat="47.29095" lon="-2.35892">
        <ele>27.60000038147</ele>
        <time>2020-01-19T08:34:15.000Z</time>
      </trkpt>
      <trkpt lat="47.29099" lon="-2.35888">
        <ele>27.60000038147</ele>
        <time>2020-01-19T08:34:16.000Z</time>
      </trkpt>
      <trkpt lat="47.29135" lon="-2.35847">
        <ele>27.60000038147</ele>
        <time>2020-01-19T08:34:25.000Z</time>
      </trkpt>
      <trkpt lat="47.29168" lon="-2.35816">
        <ele>27.60000038147</ele>
        <time>2020-01-19T08:34:33.000Z</time>
      </trkpt>
      <trkpt lat="47.29209" lon="-2.35788">
        <ele>27.60000038147</ele>
        <time>2020-01-19T08:34:42.000Z</time>
      </trkpt>
      <trkpt lat="47.29217" lon="-2.35781">
        <ele>27.60000038147</ele>
        <time>2020-01-19T08:34:44.000Z</time>
      </trkpt>
      <trkpt lat="47.29237" lon="-2.35761">
        <ele>27.60000038147</ele>
        <time>2020-01-19T08:34:49.000Z</time>
      </trkpt>
      <trkpt lat="47.2925" lon="-2.35745">
        <ele>27.60000038147</ele>
        <time>2020-01-19T08:34:53.000Z</time>
      </trkpt>
      <trkpt lat="47.29257" lon="-2.35733">
        <ele>27.60000038147</ele>
        <time>2020-01-19T08:34:56.000Z</time>
      </trkpt>
      <trkpt lat="47.29261" lon="-2.35729">
        <ele>27.60000038147</ele>
        <time>2020-01-19T08:34:58.000Z</time>
      </trkpt>
      <trkpt lat="47.29264" lon="-2.3573">
        <ele>27.60000038147</ele>
        <time>2020-01-19T08:34:59.000Z</time>
      </trkpt>
      <trkpt lat="47.29275" lon="-2.35738">
        <ele>27.60000038147</ele>
        <time>2020-01-19T08:35:02.000Z</time>
      </trkpt>
      <trkpt lat="47.29279" lon="-2.35742">
        <ele>27.60000038147</ele>
        <time>2020-01-19T08:35:03.000Z</time>
      </trkpt>
      <trkpt lat="47.29308" lon="-2.3577">
        <ele>27.60000038147</ele>
        <time>2020-01-19T08:35:10.000Z</time>
      </trkpt>
      <trkpt lat="47.2935" lon="-2.3581">
        <ele>27.60000038147</ele>
        <time>2020-01-19T08:35:20.000Z</time>
      </trkpt>
      <trkpt lat="47.29383" lon="-2.35841">
        <ele>27.60000038147</ele>
        <time>2020-01-19T08:35:28.000Z</time>
      </trkpt>
      <trkpt lat="47.29406" lon="-2.35866">
        <ele>27.60000038147</ele>
        <time>2020-01-19T08:35:34.000Z</time>
      </trkpt>
      <trkpt lat="47.29431" lon="-2.35899">
        <ele>27.60000038147</ele>
        <time>2020-01-19T08:35:41.000Z</time>
      </trkpt>
      <trkpt lat="47.29436" lon="-2.35902">
        <ele>27.60000038147</ele>
        <time>2020-01-19T08:35:42.000Z</time>
      </trkpt>
      <trkpt lat="47.2944" lon="-2.35905">
        <ele>27.200000762939</ele>
        <time>2020-01-19T08:35:43.000Z</time>
      </trkpt>
      <trkpt lat="47.29444" lon="-2.35906">
        <ele>26.799999237061</ele>
        <time>2020-01-19T08:35:44.000Z</time>
      </trkpt>
      <trkpt lat="47.29449" lon="-2.35906">
        <ele>26.39999961853</ele>
        <time>2020-01-19T08:35:45.000Z</time>
      </trkpt>
      <trkpt lat="47.29454" lon="-2.35905">
        <ele>26</ele>
        <time>2020-01-19T08:35:46.000Z</time>
      </trkpt>
      <trkpt lat="47.29458" lon="-2.35904">
        <ele>25.60000038147</ele>
        <time>2020-01-19T08:35:47.000Z</time>
      </trkpt>
      <trkpt lat="47.29464" lon="-2.35903">
        <ele>25.60000038147</ele>
        <time>2020-01-19T08:35:48.000Z</time>
      </trkpt>
      <trkpt lat="47.29469" lon="-2.35903">
        <ele>25.60000038147</ele>
        <time>2020-01-19T08:35:49.000Z</time>
      </trkpt>
      <trkpt lat="47.29479" lon="-2.35903">
        <ele>25.60000038147</ele>
        <time>2020-01-19T08:35:51.000Z</time>
      </trkpt>
      <trkpt lat="47.29493" lon="-2.35901">
        <ele>25.60000038147</ele>
        <time>2020-01-19T08:35:54.000Z</time>
      </trkpt>
      <trkpt lat="47.29501" lon="-2.35909">
        <ele>25.60000038147</ele>
        <time>2020-01-19T08:35:57.000Z</time>
      </trkpt>
      <trkpt lat="47.29503" lon="-2.35914">
        <ele>25.60000038147</ele>
        <time>2020-01-19T08:35:58.000Z</time>
      </trkpt>
      <trkpt lat="47.29505" lon="-2.35919">
        <ele>25.60000038147</ele>
        <time>2020-01-19T08:35:59.000Z</time>
      </trkpt>
      <trkpt lat="47.29512" lon="-2.3594">
        <ele>25.60000038147</ele>
        <time>2020-01-19T08:36:03.000Z</time>
      </trkpt>
      <trkpt lat="47.29514" lon="-2.35943">
        <ele>25.60000038147</ele>
        <time>2020-01-19T08:36:04.000Z</time>
      </trkpt>
      <trkpt lat="47.29521" lon="-2.35942">
        <ele>25.60000038147</ele>
        <time>2020-01-19T08:36:06.000Z</time>
      </trkpt>
      <trkpt lat="47.29529" lon="-2.35938">
        <ele>25.60000038147</ele>
        <time>2020-01-19T08:36:08.000Z</time>
      </trkpt>
      <trkpt lat="47.29538" lon="-2.35932">
        <ele>25.60000038147</ele>
        <time>2020-01-19T08:36:10.000Z</time>
      </trkpt>
      <trkpt lat="47.29542" lon="-2.3593">
        <ele>25.60000038147</ele>
        <time>2020-01-19T08:36:11.000Z</time>
      </trkpt>
      <trkpt lat="47.2957" lon="-2.35915">
        <ele>25.60000038147</ele>
        <time>2020-01-19T08:36:17.000Z</time>
      </trkpt>
      <trkpt lat="47.29602" lon="-2.35894">
        <ele>25.60000038147</ele>
        <time>2020-01-19T08:36:24.000Z</time>
      </trkpt>
      <trkpt lat="47.29632" lon="-2.35874">
        <ele>25.60000038147</ele>
        <time>2020-01-19T08:36:30.000Z</time>
      </trkpt>
      <trkpt lat="47.29643" lon="-2.35867">
        <ele>25.60000038147</ele>
        <time>2020-01-19T08:36:32.000Z</time>
      </trkpt>
      <trkpt lat="47.29651" lon="-2.35856">
        <ele>26</ele>
        <time>2020-01-19T08:36:34.000Z</time>
      </trkpt>
      <trkpt lat="47.29653" lon="-2.35848">
        <ele>26.39999961853</ele>
        <time>2020-01-19T08:36:35.000Z</time>
      </trkpt>
      <trkpt lat="47.29655" lon="-2.3584">
        <ele>26.799999237061</ele>
        <time>2020-01-19T08:36:36.000Z</time>
      </trkpt>
      <trkpt lat="47.29659" lon="-2.35835">
        <ele>27.200000762939</ele>
        <time>2020-01-19T08:36:37.000Z</time>
      </trkpt>
      <trkpt lat="47.29664" lon="-2.35833">
        <ele>27.60000038147</ele>
        <time>2020-01-19T08:36:38.000Z</time>
      </trkpt>
      <trkpt lat="47.29675" lon="-2.35835">
        <ele>27.60000038147</ele>
        <time>2020-01-19T08:36:40.000Z</time>
      </trkpt>
      <trkpt lat="47.29682" lon="-2.35835">
        <ele>27.60000038147</ele>
        <time>2020-01-19T08:36:41.000Z</time>
      </trkpt>
      <trkpt lat="47.29713" lon="-2.35828">
        <ele>27.60000038147</ele>
        <time>2020-01-19T08:36:46.000Z</time>
      </trkpt>
      <trkpt lat="47.29718" lon="-2.35825">
        <ele>27.60000038147</ele>
        <time>2020-01-19T08:36:47.000Z</time>
      </trkpt>
      <trkpt lat="47.29737" lon="-2.35813">
        <ele>27.60000038147</ele>
        <time>2020-01-19T08:36:51.000Z</time>
      </trkpt>
      <trkpt lat="47.2976" lon="-2.35803">
        <ele>27.60000038147</ele>
        <time>2020-01-19T08:36:56.000Z</time>
      </trkpt>
      <trkpt lat="47.29765" lon="-2.35802">
        <ele>27.60000038147</ele>
        <time>2020-01-19T08:36:57.000Z</time>
      </trkpt>
      <trkpt lat="47.29794" lon="-2.35791">
        <ele>28</ele>
        <time>2020-01-19T08:37:03.000Z</time>
      </trkpt>
      <trkpt lat="47.29799" lon="-2.3579">
        <ele>28.39999961853</ele>
        <time>2020-01-19T08:37:04.000Z</time>
      </trkpt>
      <trkpt lat="47.29804" lon="-2.35789">
        <ele>28.799999237061</ele>
        <time>2020-01-19T08:37:05.000Z</time>
      </trkpt>
      <trkpt lat="47.2981" lon="-2.35787">
        <ele>29.200000762939</ele>
        <time>2020-01-19T08:37:06.000Z</time>
      </trkpt>
      <trkpt lat="47.29815" lon="-2.35785">
        <ele>29.60000038147</ele>
        <time>2020-01-19T08:37:07.000Z</time>
      </trkpt>
      <trkpt lat="47.29832" lon="-2.3578">
        <ele>29.60000038147</ele>
        <time>2020-01-19T08:37:10.000Z</time>
      </trkpt>
      <trkpt lat="47.29883" lon="-2.35761">
        <ele>29.200000762939</ele>
        <time>2020-01-19T08:37:18.000Z</time>
      </trkpt>
      <trkpt lat="47.29889" lon="-2.35759">
        <ele>28.799999237061</ele>
        <time>2020-01-19T08:37:19.000Z</time>
      </trkpt>
      <trkpt lat="47.29895" lon="-2.35756">
        <ele>28.39999961853</ele>
        <time>2020-01-19T08:37:20.000Z</time>
      </trkpt>
      <trkpt lat="47.29901" lon="-2.35753">
        <ele>28</ele>
        <time>2020-01-19T08:37:21.000Z</time>
      </trkpt>
      <trkpt lat="47.29906" lon="-2.3575">
        <ele>27.60000038147</ele>
        <time>2020-01-19T08:37:22.000Z</time>
      </trkpt>
      <trkpt lat="47.29915" lon="-2.35743">
        <ele>27.60000038147</ele>
        <time>2020-01-19T08:37:24.000Z</time>
      </trkpt>
      <trkpt lat="47.29937" lon="-2.35723">
        <ele>27.60000038147</ele>
        <time>2020-01-19T08:37:29.000Z</time>
      </trkpt>
      <trkpt lat="47.29946" lon="-2.35716">
        <ele>27.60000038147</ele>
        <time>2020-01-19T08:37:31.000Z</time>
      </trkpt>
      <trkpt lat="47.29974" lon="-2.35697">
        <ele>27.60000038147</ele>
        <time>2020-01-19T08:37:37.000Z</time>
      </trkpt>
      <trkpt lat="47.29988" lon="-2.35689">
        <ele>27.60000038147</ele>
        <time>2020-01-19T08:37:40.000Z</time>
      </trkpt>
      <trkpt lat="47.30002" lon="-2.35679">
        <ele>27.60000038147</ele>
        <time>2020-01-19T08:37:43.000Z</time>
      </trkpt>
      <trkpt lat="47.30035" lon="-2.3566">
        <ele>27.60000038147</ele>
        <time>2020-01-19T08:37:50.000Z</time>
      </trkpt>
      <trkpt lat="47.3004" lon="-2.35657">
        <ele>27.60000038147</ele>
        <time>2020-01-19T08:37:51.000Z</time>
      </trkpt>
      <trkpt lat="47.30059" lon="-2.35645">
        <ele>28</ele>
        <time>2020-01-19T08:37:55.000Z</time>
      </trkpt>
      <trkpt lat="47.30063" lon="-2.35642">
        <ele>28.39999961853</ele>
        <time>2020-01-19T08:37:56.000Z</time>
      </trkpt>
      <trkpt lat="47.30068" lon="-2.35639">
        <ele>28.799999237061</ele>
        <time>2020-01-19T08:37:57.000Z</time>
      </trkpt>
      <trkpt lat="47.30073" lon="-2.35636">
        <ele>29.200000762939</ele>
        <time>2020-01-19T08:37:58.000Z</time>
      </trkpt>
      <trkpt lat="47.30078" lon="-2.35633">
        <ele>29.60000038147</ele>
        <time>2020-01-19T08:37:59.000Z</time>
      </trkpt>
      <trkpt lat="47.30114" lon="-2.3561">
        <ele>29.60000038147</ele>
        <time>2020-01-19T08:38:07.000Z</time>
      </trkpt>
      <trkpt lat="47.30118" lon="-2.35607">
        <ele>29.60000038147</ele>
        <time>2020-01-19T08:38:08.000Z</time>
      </trkpt>
      <trkpt lat="47.30126" lon="-2.35595">
        <ele>29.60000038147</ele>
        <time>2020-01-19T08:38:11.000Z</time>
      </trkpt>
      <trkpt lat="47.3013" lon="-2.35594">
        <ele>29.60000038147</ele>
        <time>2020-01-19T08:38:12.000Z</time>
      </trkpt>
      <trkpt lat="47.30136" lon="-2.35602">
        <ele>29.60000038147</ele>
        <time>2020-01-19T08:38:14.000Z</time>
      </trkpt>
      <trkpt lat="47.30134" lon="-2.35623">
        <ele>29.60000038147</ele>
        <time>2020-01-19T08:38:17.000Z</time>
      </trkpt>
      <trkpt lat="47.30133" lon="-2.35631">
        <ele>29.60000038147</ele>
        <time>2020-01-19T08:38:18.000Z</time>
      </trkpt>
      <trkpt lat="47.30134" lon="-2.3566">
        <ele>29.60000038147</ele>
        <time>2020-01-19T08:38:22.000Z</time>
      </trkpt>
      <trkpt lat="47.30137" lon="-2.35722">
        <ele>29.60000038147</ele>
        <time>2020-01-19T08:38:30.000Z</time>
      </trkpt>
      <trkpt lat="47.3014" lon="-2.35776">
        <ele>29.60000038147</ele>
        <time>2020-01-19T08:38:36.000Z</time>
      </trkpt>
      <trkpt lat="47.30139" lon="-2.3583">
        <ele>29.60000038147</ele>
        <time>2020-01-19T08:38:41.000Z</time>
      </trkpt>
      <trkpt lat="47.30138" lon="-2.35841">
        <ele>29.60000038147</ele>
        <time>2020-01-19T08:38:42.000Z</time>
      </trkpt>
      <trkpt lat="47.30136" lon="-2.35852">
        <ele>29.200000762939</ele>
        <time>2020-01-19T08:38:43.000Z</time>
      </trkpt>
      <trkpt lat="47.30135" lon="-2.35864">
        <ele>28.799999237061</ele>
        <time>2020-01-19T08:38:44.000Z</time>
      </trkpt>
      <trkpt lat="47.30133" lon="-2.35875">
        <ele>28.39999961853</ele>
        <time>2020-01-19T08:38:45.000Z</time>
      </trkpt>
      <trkpt lat="47.3013" lon="-2.35886">
        <ele>28</ele>
        <time>2020-01-19T08:38:46.000Z</time>
      </trkpt>
      <trkpt lat="47.30128" lon="-2.35897">
        <ele>27.60000038147</ele>
        <time>2020-01-19T08:38:47.000Z</time>
      </trkpt>
      <trkpt lat="47.30124" lon="-2.35918">
        <ele>27.60000038147</ele>
        <time>2020-01-19T08:38:49.000Z</time>
      </trkpt>
      <trkpt lat="47.30119" lon="-2.35938">
        <ele>27.200000762939</ele>
        <time>2020-01-19T08:38:51.000Z</time>
      </trkpt>
      <trkpt lat="47.30117" lon="-2.35949">
        <ele>26.60000038147</ele>
        <time>2020-01-19T08:38:52.000Z</time>
      </trkpt>
      <trkpt lat="47.30114" lon="-2.35959">
        <ele>26.200000762939</ele>
        <time>2020-01-19T08:38:53.000Z</time>
      </trkpt>
      <trkpt lat="47.30113" lon="-2.35969">
        <ele>25.39999961853</ele>
        <time>2020-01-19T08:38:54.000Z</time>
      </trkpt>
      <trkpt lat="47.30108" lon="-2.35999">
        <ele>25.39999961853</ele>
        <time>2020-01-19T08:38:57.000Z</time>
      </trkpt>
      <trkpt lat="47.30106" lon="-2.36009">
        <ele>25</ele>
        <time>2020-01-19T08:38:58.000Z</time>
      </trkpt>
      <trkpt lat="47.30105" lon="-2.3602">
        <ele>24.60000038147</ele>
        <time>2020-01-19T08:38:59.000Z</time>
      </trkpt>
      <trkpt lat="47.30104" lon="-2.3603">
        <ele>24.200000762939</ele>
        <time>2020-01-19T08:39:00.000Z</time>
      </trkpt>
      <trkpt lat="47.30103" lon="-2.3604">
        <ele>23.799999237061</ele>
        <time>2020-01-19T08:39:01.000Z</time>
      </trkpt>
      <trkpt lat="47.30102" lon="-2.36049">
        <ele>23.39999961853</ele>
        <time>2020-01-19T08:39:02.000Z</time>
      </trkpt>
      <trkpt lat="47.301" lon="-2.36069">
        <ele>23.39999961853</ele>
        <time>2020-01-19T08:39:04.000Z</time>
      </trkpt>
      <trkpt lat="47.30092" lon="-2.36132">
        <ele>23.39999961853</ele>
        <time>2020-01-19T08:39:11.000Z</time>
      </trkpt>
      <trkpt lat="47.30087" lon="-2.36194">
        <ele>23.39999961853</ele>
        <time>2020-01-19T08:39:18.000Z</time>
      </trkpt>
      <trkpt lat="47.30086" lon="-2.36221">
        <ele>23.39999961853</ele>
        <time>2020-01-19T08:39:21.000Z</time>
      </trkpt>
      <trkpt lat="47.30088" lon="-2.36247">
        <ele>23.39999961853</ele>
        <time>2020-01-19T08:39:24.000Z</time>
      </trkpt>
      <trkpt lat="47.30091" lon="-2.36281">
        <ele>23.799999237061</ele>
        <time>2020-01-19T08:39:28.000Z</time>
      </trkpt>
      <trkpt lat="47.30092" lon="-2.3629">
        <ele>24.200000762939</ele>
        <time>2020-01-19T08:39:29.000Z</time>
      </trkpt>
      <trkpt lat="47.30093" lon="-2.36299">
        <ele>24.60000038147</ele>
        <time>2020-01-19T08:39:30.000Z</time>
      </trkpt>
      <trkpt lat="47.30093" lon="-2.36307">
        <ele>25</ele>
        <time>2020-01-19T08:39:31.000Z</time>
      </trkpt>
      <trkpt lat="47.30093" lon="-2.36316">
        <ele>25.39999961853</ele>
        <time>2020-01-19T08:39:32.000Z</time>
      </trkpt>
      <trkpt lat="47.30098" lon="-2.36367">
        <ele>25.39999961853</ele>
        <time>2020-01-19T08:39:38.000Z</time>
      </trkpt>
      <trkpt lat="47.30106" lon="-2.36437">
        <ele>25.799999237061</ele>
        <time>2020-01-19T08:39:46.000Z</time>
      </trkpt>
      <trkpt lat="47.30107" lon="-2.36445">
        <ele>26.39999961853</ele>
        <time>2020-01-19T08:39:47.000Z</time>
      </trkpt>
      <trkpt lat="47.30108" lon="-2.36453">
        <ele>26.799999237061</ele>
        <time>2020-01-19T08:39:48.000Z</time>
      </trkpt>
      <trkpt lat="47.30109" lon="-2.36462">
        <ele>27.200000762939</ele>
        <time>2020-01-19T08:39:49.000Z</time>
      </trkpt>
      <trkpt lat="47.3011" lon="-2.3647">
        <ele>27.60000038147</ele>
        <time>2020-01-19T08:39:50.000Z</time>
      </trkpt>
      <trkpt lat="47.30116" lon="-2.36513">
        <ele>27.60000038147</ele>
        <time>2020-01-19T08:39:55.000Z</time>
      </trkpt>
      <trkpt lat="47.30125" lon="-2.36579">
        <ele>27.60000038147</ele>
        <time>2020-01-19T08:40:03.000Z</time>
      </trkpt>
      <trkpt lat="47.30127" lon="-2.36587">
        <ele>27.60000038147</ele>
        <time>2020-01-19T08:40:04.000Z</time>
      </trkpt>
      <trkpt lat="47.30128" lon="-2.36596">
        <ele>28</ele>
        <time>2020-01-19T08:40:05.000Z</time>
      </trkpt>
      <trkpt lat="47.3013" lon="-2.36604">
        <ele>28.39999961853</ele>
        <time>2020-01-19T08:40:06.000Z</time>
      </trkpt>
      <trkpt lat="47.30132" lon="-2.36611">
        <ele>28.799999237061</ele>
        <time>2020-01-19T08:40:07.000Z</time>
      </trkpt>
      <trkpt lat="47.30134" lon="-2.3662">
        <ele>29.60000038147</ele>
        <time>2020-01-19T08:40:08.000Z</time>
      </trkpt>
      <trkpt lat="47.30137" lon="-2.36627">
        <ele>29.60000038147</ele>
        <time>2020-01-19T08:40:09.000Z</time>
      </trkpt>
      <trkpt lat="47.30154" lon="-2.36666">
        <ele>29.60000038147</ele>
        <time>2020-01-19T08:40:15.000Z</time>
      </trkpt>
      <trkpt lat="47.30167" lon="-2.36686">
        <ele>29.60000038147</ele>
        <time>2020-01-19T08:40:20.000Z</time>
      </trkpt>
      <trkpt lat="47.30171" lon="-2.36685">
        <ele>29.60000038147</ele>
        <time>2020-01-19T08:40:23.000Z</time>
      </trkpt>
      <trkpt lat="47.30173" lon="-2.36684">
        <ele>29.60000038147</ele>
        <time>2020-01-19T08:40:24.000Z</time>
      </trkpt>
      <trkpt lat="47.30174" lon="-2.36683">
        <ele>29.60000038147</ele>
        <time>2020-01-19T08:40:27.000Z</time>
      </trkpt>
      <trkpt lat="47.30185" lon="-2.36679">
        <ele>31.60000038147</ele>
        <time>2020-01-19T08:41:24.000Z</time>
      </trkpt>
      <trkpt lat="47.30194" lon="-2.36674">
        <ele>31.60000038147</ele>
        <time>2020-01-19T08:41:29.000Z</time>
      </trkpt>
      <trkpt lat="47.30202" lon="-2.36672">
        <ele>31.60000038147</ele>
        <time>2020-01-19T08:41:32.000Z</time>
      </trkpt>
      <trkpt lat="47.30209" lon="-2.36671">
        <ele>31.60000038147</ele>
        <time>2020-01-19T08:41:34.000Z</time>
      </trkpt>
      <trkpt lat="47.30236" lon="-2.36667">
        <ele>31.60000038147</ele>
        <time>2020-01-19T08:41:41.000Z</time>
      </trkpt>
      <trkpt lat="47.30254" lon="-2.36663">
        <ele>31.60000038147</ele>
        <time>2020-01-19T08:41:47.000Z</time>
      </trkpt>
      <trkpt lat="47.30276" lon="-2.36654">
        <ele>31.60000038147</ele>
        <time>2020-01-19T08:41:53.000Z</time>
      </trkpt>
      <trkpt lat="47.30294" lon="-2.36648">
        <ele>31.60000038147</ele>
        <time>2020-01-19T08:41:59.000Z</time>
      </trkpt>
      <trkpt lat="47.30313" lon="-2.36645">
        <ele>31.60000038147</ele>
        <time>2020-01-19T08:42:05.000Z</time>
      </trkpt>
      <trkpt lat="47.30334" lon="-2.3665">
        <ele>31.60000038147</ele>
        <time>2020-01-19T08:42:11.000Z</time>
      </trkpt>
      <trkpt lat="47.30358" lon="-2.36653">
        <ele>31.60000038147</ele>
        <time>2020-01-19T08:42:17.000Z</time>
      </trkpt>
      <trkpt lat="47.30376" lon="-2.36656">
        <ele>32.200000762939</ele>
        <time>2020-01-19T08:42:22.000Z</time>
      </trkpt>
      <trkpt lat="47.30379" lon="-2.36657">
        <ele>32.599998474121</ele>
        <time>2020-01-19T08:42:23.000Z</time>
      </trkpt>
      <trkpt lat="47.30382" lon="-2.36657">
        <ele>33</ele>
        <time>2020-01-19T08:42:24.000Z</time>
      </trkpt>
      <trkpt lat="47.30386" lon="-2.36657">
        <ele>33.400001525879</ele>
        <time>2020-01-19T08:42:25.000Z</time>
      </trkpt>
      <trkpt lat="47.30391" lon="-2.36657">
        <ele>33.799999237061</ele>
        <time>2020-01-19T08:42:26.000Z</time>
      </trkpt>
      <trkpt lat="47.30405" lon="-2.36656">
        <ele>33.799999237061</ele>
        <time>2020-01-19T08:42:30.000Z</time>
      </trkpt>
      <trkpt lat="47.30423" lon="-2.3665">
        <ele>34.200000762939</ele>
        <time>2020-01-19T08:42:35.000Z</time>
      </trkpt>
      <trkpt lat="47.30426" lon="-2.36648">
        <ele>35</ele>
        <time>2020-01-19T08:42:36.000Z</time>
      </trkpt>
      <trkpt lat="47.30429" lon="-2.36645">
        <ele>35.599998474121</ele>
        <time>2020-01-19T08:42:37.000Z</time>
      </trkpt>
      <trkpt lat="47.30432" lon="-2.36642">
        <ele>36</ele>
        <time>2020-01-19T08:42:38.000Z</time>
      </trkpt>
      <trkpt lat="47.30447" lon="-2.36628">
        <ele>36</ele>
        <time>2020-01-19T08:42:43.000Z</time>
      </trkpt>
      <trkpt lat="47.3046" lon="-2.36616">
        <ele>36</ele>
        <time>2020-01-19T08:42:48.000Z</time>
      </trkpt>
      <trkpt lat="47.30473" lon="-2.36607">
        <ele>36</ele>
        <time>2020-01-19T08:42:54.000Z</time>
      </trkpt>
      <trkpt lat="47.30487" lon="-2.36602">
        <ele>36</ele>
        <time>2020-01-19T08:43:01.000Z</time>
      </trkpt>
      <trkpt lat="47.305" lon="-2.36599">
        <ele>36</ele>
        <time>2020-01-19T08:43:07.000Z</time>
      </trkpt>
      <trkpt lat="47.30508" lon="-2.36597">
        <ele>36</ele>
        <time>2020-01-19T08:43:12.000Z</time>
      </trkpt>
      <trkpt lat="47.30523" lon="-2.36589">
        <ele>36</ele>
        <time>2020-01-19T08:43:18.000Z</time>
      </trkpt>
      <trkpt lat="47.30536" lon="-2.3658">
        <ele>36</ele>
        <time>2020-01-19T08:43:23.000Z</time>
      </trkpt>
      <trkpt lat="47.30545" lon="-2.36573">
        <ele>35.400001525879</ele>
        <time>2020-01-19T08:43:27.000Z</time>
      </trkpt>
      <trkpt lat="47.30547" lon="-2.36571">
        <ele>35</ele>
        <time>2020-01-19T08:43:28.000Z</time>
      </trkpt>
      <trkpt lat="47.3055" lon="-2.3657">
        <ele>34.599998474121</ele>
        <time>2020-01-19T08:43:29.000Z</time>
      </trkpt>
      <trkpt lat="47.30552" lon="-2.36568">
        <ele>34.200000762939</ele>
        <time>2020-01-19T08:43:30.000Z</time>
      </trkpt>
      <trkpt lat="47.30555" lon="-2.36566">
        <ele>33.799999237061</ele>
        <time>2020-01-19T08:43:31.000Z</time>
      </trkpt>
      <trkpt lat="47.30566" lon="-2.36557">
        <ele>33.799999237061</ele>
        <time>2020-01-19T08:43:37.000Z</time>
      </trkpt>
      <trkpt lat="47.30576" lon="-2.36552">
        <ele>33.799999237061</ele>
        <time>2020-01-19T08:43:42.000Z</time>
      </trkpt>
      <trkpt lat="47.30588" lon="-2.36548">
        <ele>33.799999237061</ele>
        <time>2020-01-19T08:43:48.000Z</time>
      </trkpt>
      <trkpt lat="47.30605" lon="-2.36543">
        <ele>33.799999237061</ele>
        <time>2020-01-19T08:43:54.000Z</time>
      </trkpt>
      <trkpt lat="47.30626" lon="-2.36537">
        <ele>33.799999237061</ele>
        <time>2020-01-19T08:44:00.000Z</time>
      </trkpt>
      <trkpt lat="47.30643" lon="-2.36525">
        <ele>33.799999237061</ele>
        <time>2020-01-19T08:44:06.000Z</time>
      </trkpt>
      <trkpt lat="47.30662" lon="-2.36514">
        <ele>33.799999237061</ele>
        <time>2020-01-19T08:44:11.000Z</time>
      </trkpt>
      <trkpt lat="47.30688" lon="-2.36507">
        <ele>33.799999237061</ele>
        <time>2020-01-19T08:44:17.000Z</time>
      </trkpt>
      <trkpt lat="47.30691" lon="-2.3651">
        <ele>33.799999237061</ele>
        <time>2020-01-19T08:44:18.000Z</time>
      </trkpt>
      <trkpt lat="47.30697" lon="-2.36518">
        <ele>33.799999237061</ele>
        <time>2020-01-19T08:44:21.000Z</time>
      </trkpt>
      <trkpt lat="47.30707" lon="-2.36514">
        <ele>33.799999237061</ele>
        <time>2020-01-19T08:44:25.000Z</time>
      </trkpt>
      <trkpt lat="47.30709" lon="-2.36511">
        <ele>33.799999237061</ele>
        <time>2020-01-19T08:44:26.000Z</time>
      </trkpt>
      <trkpt lat="47.30726" lon="-2.36498">
        <ele>33.799999237061</ele>
        <time>2020-01-19T08:44:31.000Z</time>
      </trkpt>
      <trkpt lat="47.3073" lon="-2.36496">
        <ele>33.799999237061</ele>
        <time>2020-01-19T08:44:32.000Z</time>
      </trkpt>
      <trkpt lat="47.30748" lon="-2.3649">
        <ele>33.400001525879</ele>
        <time>2020-01-19T08:44:36.000Z</time>
      </trkpt>
      <trkpt lat="47.30752" lon="-2.36488">
        <ele>33</ele>
        <time>2020-01-19T08:44:37.000Z</time>
      </trkpt>
      <trkpt lat="47.30757" lon="-2.36486">
        <ele>32.599998474121</ele>
        <time>2020-01-19T08:44:38.000Z</time>
      </trkpt>
      <trkpt lat="47.30761" lon="-2.36485">
        <ele>32.200000762939</ele>
        <time>2020-01-19T08:44:39.000Z</time>
      </trkpt>
      <trkpt lat="47.30766" lon="-2.36483">
        <ele>31.799999237061</ele>
        <time>2020-01-19T08:44:40.000Z</time>
      </trkpt>
      <trkpt lat="47.30785" lon="-2.36475">
        <ele>31.799999237061</ele>
        <time>2020-01-19T08:44:44.000Z</time>
      </trkpt>
      <trkpt lat="47.30799" lon="-2.3647">
        <ele>31.799999237061</ele>
        <time>2020-01-19T08:44:47.000Z</time>
      </trkpt>
      <trkpt lat="47.30808" lon="-2.36468">
        <ele>31.799999237061</ele>
        <time>2020-01-19T08:44:49.000Z</time>
      </trkpt>
      <trkpt lat="47.30821" lon="-2.36477">
        <ele>31.200000762939</ele>
        <time>2020-01-19T08:44:52.000Z</time>
      </trkpt>
      <trkpt lat="47.30824" lon="-2.3648">
        <ele>30.799999237061</ele>
        <time>2020-01-19T08:44:53.000Z</time>
      </trkpt>
      <trkpt lat="47.30826" lon="-2.36483">
        <ele>30.39999961853</ele>
        <time>2020-01-19T08:44:54.000Z</time>
      </trkpt>
      <trkpt lat="47.3083" lon="-2.36485">
        <ele>30</ele>
        <time>2020-01-19T08:44:55.000Z</time>
      </trkpt>
      <trkpt lat="47.30834" lon="-2.36487">
        <ele>29.60000038147</ele>
        <time>2020-01-19T08:44:56.000Z</time>
      </trkpt>
      <trkpt lat="47.30838" lon="-2.36487">
        <ele>29.60000038147</ele>
        <time>2020-01-19T08:44:57.000Z</time>
      </trkpt>
      <trkpt lat="47.30851" lon="-2.36485">
        <ele>29.60000038147</ele>
        <time>2020-01-19T08:45:00.000Z</time>
      </trkpt>
      <trkpt lat="47.30865" lon="-2.36483">
        <ele>29.60000038147</ele>
        <time>2020-01-19T08:45:03.000Z</time>
      </trkpt>
      <trkpt lat="47.30875" lon="-2.36481">
        <ele>29.60000038147</ele>
        <time>2020-01-19T08:45:05.000Z</time>
      </trkpt>
      <trkpt lat="47.30889" lon="-2.36477">
        <ele>29.60000038147</ele>
        <time>2020-01-19T08:45:08.000Z</time>
      </trkpt>
      <trkpt lat="47.30893" lon="-2.36476">
        <ele>29.60000038147</ele>
        <time>2020-01-19T08:45:09.000Z</time>
      </trkpt>
      <trkpt lat="47.30911" lon="-2.36469">
        <ele>29.60000038147</ele>
        <time>2020-01-19T08:45:13.000Z</time>
      </trkpt>
      <trkpt lat="47.30936" lon="-2.36459">
        <ele>29.60000038147</ele>
        <time>2020-01-19T08:45:19.000Z</time>
      </trkpt>
      <trkpt lat="47.3095" lon="-2.36455">
        <ele>29.60000038147</ele>
        <time>2020-01-19T08:45:22.000Z</time>
      </trkpt>
      <trkpt lat="47.30957" lon="-2.36452">
        <ele>29.60000038147</ele>
        <time>2020-01-19T08:45:24.000Z</time>
      </trkpt>
      <trkpt lat="47.30985" lon="-2.3644">
        <ele>29.60000038147</ele>
        <time>2020-01-19T08:45:31.000Z</time>
      </trkpt>
      <trkpt lat="47.30989" lon="-2.36438">
        <ele>29.60000038147</ele>
        <time>2020-01-19T08:45:32.000Z</time>
      </trkpt>
      <trkpt lat="47.30998" lon="-2.36433">
        <ele>29.60000038147</ele>
        <time>2020-01-19T08:45:34.000Z</time>
      </trkpt>
      <trkpt lat="47.31008" lon="-2.36429">
        <ele>29.60000038147</ele>
        <time>2020-01-19T08:45:36.000Z</time>
      </trkpt>
      <trkpt lat="47.31027" lon="-2.36424">
        <ele>29.60000038147</ele>
        <time>2020-01-19T08:45:40.000Z</time>
      </trkpt>
      <trkpt lat="47.31036" lon="-2.36421">
        <ele>29.60000038147</ele>
        <time>2020-01-19T08:45:42.000Z</time>
      </trkpt>
      <trkpt lat="47.31064" lon="-2.36416">
        <ele>29.60000038147</ele>
        <time>2020-01-19T08:45:48.000Z</time>
      </trkpt>
      <trkpt lat="47.31079" lon="-2.36415">
        <ele>29</ele>
        <time>2020-01-19T08:45:51.000Z</time>
      </trkpt>
      <trkpt lat="47.31083" lon="-2.36415">
        <ele>28.60000038147</ele>
        <time>2020-01-19T08:45:52.000Z</time>
      </trkpt>
      <trkpt lat="47.31087" lon="-2.36416">
        <ele>28.200000762939</ele>
        <time>2020-01-19T08:45:53.000Z</time>
      </trkpt>
      <trkpt lat="47.31091" lon="-2.36415">
        <ele>27.200000762939</ele>
        <time>2020-01-19T08:45:54.000Z</time>
      </trkpt>
      <trkpt lat="47.31106" lon="-2.36411">
        <ele>27.200000762939</ele>
        <time>2020-01-19T08:45:57.000Z</time>
      </trkpt>
      <trkpt lat="47.31111" lon="-2.36408">
        <ele>27.200000762939</ele>
        <time>2020-01-19T08:45:58.000Z</time>
      </trkpt>
      <trkpt lat="47.31139" lon="-2.36392">
        <ele>27.200000762939</ele>
        <time>2020-01-19T08:46:04.000Z</time>
      </trkpt>
      <trkpt lat="47.31163" lon="-2.36373">
        <ele>27.200000762939</ele>
        <time>2020-01-19T08:46:10.000Z</time>
      </trkpt>
      <trkpt lat="47.3119" lon="-2.36355">
        <ele>27.200000762939</ele>
        <time>2020-01-19T08:46:16.000Z</time>
      </trkpt>
      <trkpt lat="47.31207" lon="-2.36345">
        <ele>27.200000762939</ele>
        <time>2020-01-19T08:46:20.000Z</time>
      </trkpt>
      <trkpt lat="47.31215" lon="-2.36341">
        <ele>27.200000762939</ele>
        <time>2020-01-19T08:46:22.000Z</time>
      </trkpt>
      <trkpt lat="47.31223" lon="-2.36336">
        <ele>27.200000762939</ele>
        <time>2020-01-19T08:46:24.000Z</time>
      </trkpt>
      <trkpt lat="47.31238" lon="-2.36327">
        <ele>27.200000762939</ele>
        <time>2020-01-19T08:46:28.000Z</time>
      </trkpt>
      <trkpt lat="47.31257" lon="-2.36313">
        <ele>27.200000762939</ele>
        <time>2020-01-19T08:46:33.000Z</time>
      </trkpt>
      <trkpt lat="47.3127" lon="-2.36308">
        <ele>27.200000762939</ele>
        <time>2020-01-19T08:46:36.000Z</time>
      </trkpt>
      <trkpt lat="47.31278" lon="-2.36304">
        <ele>27.200000762939</ele>
        <time>2020-01-19T08:46:38.000Z</time>
      </trkpt>
      <trkpt lat="47.31307" lon="-2.36292">
        <ele>27.200000762939</ele>
        <time>2020-01-19T08:46:45.000Z</time>
      </trkpt>
      <trkpt lat="47.3131" lon="-2.36289">
        <ele>27.60000038147</ele>
        <time>2020-01-19T08:46:46.000Z</time>
      </trkpt>
      <trkpt lat="47.31313" lon="-2.36287">
        <ele>28</ele>
        <time>2020-01-19T08:46:47.000Z</time>
      </trkpt>
      <trkpt lat="47.31317" lon="-2.36284">
        <ele>28.39999961853</ele>
        <time>2020-01-19T08:46:48.000Z</time>
      </trkpt>
      <trkpt lat="47.3132" lon="-2.36282">
        <ele>28.799999237061</ele>
        <time>2020-01-19T08:46:49.000Z</time>
      </trkpt>
      <trkpt lat="47.31324" lon="-2.36278">
        <ele>29.200000762939</ele>
        <time>2020-01-19T08:46:50.000Z</time>
      </trkpt>
      <trkpt lat="47.31342" lon="-2.36259">
        <ele>29.200000762939</ele>
        <time>2020-01-19T08:46:56.000Z</time>
      </trkpt>
      <trkpt lat="47.31352" lon="-2.36246">
        <ele>29.200000762939</ele>
        <time>2020-01-19T08:47:01.000Z</time>
      </trkpt>
      <trkpt lat="47.31361" lon="-2.36231">
        <ele>29.200000762939</ele>
        <time>2020-01-19T08:47:05.000Z</time>
      </trkpt>
      <trkpt lat="47.31378" lon="-2.36215">
        <ele>29.200000762939</ele>
        <time>2020-01-19T08:47:11.000Z</time>
      </trkpt>
      <trkpt lat="47.31395" lon="-2.36209">
        <ele>29.200000762939</ele>
        <time>2020-01-19T08:47:17.000Z</time>
      </trkpt>
      <trkpt lat="47.31405" lon="-2.36206">
        <ele>29.200000762939</ele>
        <time>2020-01-19T08:47:23.000Z</time>
      </trkpt>
      <trkpt lat="47.31417" lon="-2.362">
        <ele>29.200000762939</ele>
        <time>2020-01-19T08:47:28.000Z</time>
      </trkpt>
      <trkpt lat="47.31437" lon="-2.36186">
        <ele>29.200000762939</ele>
        <time>2020-01-19T08:47:34.000Z</time>
      </trkpt>
      <trkpt lat="47.31447" lon="-2.36178">
        <ele>29.200000762939</ele>
        <time>2020-01-19T08:47:39.000Z</time>
      </trkpt>
      <trkpt lat="47.31452" lon="-2.36178">
        <ele>29.200000762939</ele>
        <time>2020-01-19T08:47:42.000Z</time>
      </trkpt>
      <trkpt lat="47.31456" lon="-2.36182">
        <ele>29.200000762939</ele>
        <time>2020-01-19T08:47:45.000Z</time>
      </trkpt>
      <trkpt lat="47.31458" lon="-2.36187">
        <ele>29.200000762939</ele>
        <time>2020-01-19T08:47:47.000Z</time>
      </trkpt>
      <trkpt lat="47.31462" lon="-2.36199">
        <ele>29.200000762939</ele>
        <time>2020-01-19T08:47:50.000Z</time>
      </trkpt>
      <trkpt lat="47.31471" lon="-2.36223">
        <ele>29.200000762939</ele>
        <time>2020-01-19T08:47:56.000Z</time>
      </trkpt>
      <trkpt lat="47.31472" lon="-2.36228">
        <ele>28.39999961853</ele>
        <time>2020-01-19T08:47:57.000Z</time>
      </trkpt>
      <trkpt lat="47.31473" lon="-2.36233">
        <ele>28</ele>
        <time>2020-01-19T08:47:58.000Z</time>
      </trkpt>
      <trkpt lat="47.31474" lon="-2.36238">
        <ele>27.60000038147</ele>
        <time>2020-01-19T08:47:59.000Z</time>
      </trkpt>
      <trkpt lat="47.31476" lon="-2.36242">
        <ele>27.200000762939</ele>
        <time>2020-01-19T08:48:00.000Z</time>
      </trkpt>
      <trkpt lat="47.31478" lon="-2.3625">
        <ele>27.200000762939</ele>
        <time>2020-01-19T08:48:02.000Z</time>
      </trkpt>
      <trkpt lat="47.31485" lon="-2.36276">
        <ele>27.200000762939</ele>
        <time>2020-01-19T08:48:08.000Z</time>
      </trkpt>
      <trkpt lat="47.31492" lon="-2.36305">
        <ele>27.200000762939</ele>
        <time>2020-01-19T08:48:14.000Z</time>
      </trkpt>
      <trkpt lat="47.31496" lon="-2.36327">
        <ele>26.799999237061</ele>
        <time>2020-01-19T08:48:19.000Z</time>
      </trkpt>
      <trkpt lat="47.31496" lon="-2.36331">
        <ele>26.39999961853</ele>
        <time>2020-01-19T08:48:20.000Z</time>
      </trkpt>
      <trkpt lat="47.31496" lon="-2.36335">
        <ele>25.60000038147</ele>
        <time>2020-01-19T08:48:21.000Z</time>
      </trkpt>
      <trkpt lat="47.31496" lon="-2.36339">
        <ele>25.200000762939</ele>
        <time>2020-01-19T08:48:22.000Z</time>
      </trkpt>
      <trkpt lat="47.31497" lon="-2.3635">
        <ele>25.200000762939</ele>
        <time>2020-01-19T08:48:25.000Z</time>
      </trkpt>
      <trkpt lat="47.31495" lon="-2.36369">
        <ele>25.200000762939</ele>
        <time>2020-01-19T08:48:30.000Z</time>
      </trkpt>
      <trkpt lat="47.31494" lon="-2.3639">
        <ele>24.799999237061</ele>
        <time>2020-01-19T08:48:36.000Z</time>
      </trkpt>
      <trkpt lat="47.31494" lon="-2.36393">
        <ele>24.39999961853</ele>
        <time>2020-01-19T08:48:37.000Z</time>
      </trkpt>
      <trkpt lat="47.31494" lon="-2.36396">
        <ele>24</ele>
        <time>2020-01-19T08:48:38.000Z</time>
      </trkpt>
      <trkpt lat="47.31494" lon="-2.364">
        <ele>23.60000038147</ele>
        <time>2020-01-19T08:48:39.000Z</time>
      </trkpt>
      <trkpt lat="47.31494" lon="-2.36402">
        <ele>23.200000762939</ele>
        <time>2020-01-19T08:48:40.000Z</time>
      </trkpt>
      <trkpt lat="47.31494" lon="-2.36404">
        <ele>23.200000762939</ele>
        <time>2020-01-19T08:48:41.000Z</time>
      </trkpt>
      <trkpt lat="47.31495" lon="-2.36418">
        <ele>23.200000762939</ele>
        <time>2020-01-19T08:48:46.000Z</time>
      </trkpt>
      <trkpt lat="47.31496" lon="-2.36437">
        <ele>22.799999237061</ele>
        <time>2020-01-19T08:48:51.000Z</time>
      </trkpt>
      <trkpt lat="47.31496" lon="-2.36441">
        <ele>22.39999961853</ele>
        <time>2020-01-19T08:48:52.000Z</time>
      </trkpt>
      <trkpt lat="47.31497" lon="-2.36444">
        <ele>22</ele>
        <time>2020-01-19T08:48:53.000Z</time>
      </trkpt>
      <trkpt lat="47.31497" lon="-2.36448">
        <ele>21.60000038147</ele>
        <time>2020-01-19T08:48:54.000Z</time>
      </trkpt>
      <trkpt lat="47.31497" lon="-2.36451">
        <ele>21.200000762939</ele>
        <time>2020-01-19T08:48:55.000Z</time>
      </trkpt>
      <trkpt lat="47.31497" lon="-2.36465">
        <ele>21.200000762939</ele>
        <time>2020-01-19T08:49:00.000Z</time>
      </trkpt>
      <trkpt lat="47.31497" lon="-2.36485">
        <ele>21.200000762939</ele>
        <time>2020-01-19T08:49:06.000Z</time>
      </trkpt>
      <trkpt lat="47.31496" lon="-2.36504">
        <ele>21.200000762939</ele>
        <time>2020-01-19T08:49:12.000Z</time>
      </trkpt>
      <trkpt lat="47.31499" lon="-2.36519">
        <ele>20.799999237061</ele>
        <time>2020-01-19T08:49:18.000Z</time>
      </trkpt>
      <trkpt lat="47.31499" lon="-2.36521">
        <ele>20.39999961853</ele>
        <time>2020-01-19T08:49:19.000Z</time>
      </trkpt>
      <trkpt lat="47.31499" lon="-2.36522">
        <ele>20</ele>
        <time>2020-01-19T08:49:20.000Z</time>
      </trkpt>
      <trkpt lat="47.31499" lon="-2.36523">
        <ele>19.60000038147</ele>
        <time>2020-01-19T08:49:21.000Z</time>
      </trkpt>
      <trkpt lat="47.31499" lon="-2.36524">
        <ele>19.200000762939</ele>
        <time>2020-01-19T08:49:22.000Z</time>
      </trkpt>
      <trkpt lat="47.31499" lon="-2.36525">
        <ele>19.200000762939</ele>
        <time>2020-01-19T08:49:23.000Z</time>
      </trkpt>
      <trkpt lat="47.3149" lon="-2.36537">
        <ele>19.200000762939</ele>
        <time>2020-01-19T08:50:12.000Z</time>
      </trkpt>
      <trkpt lat="47.31491" lon="-2.36546">
        <ele>19.200000762939</ele>
        <time>2020-01-19T08:50:17.000Z</time>
      </trkpt>
      <trkpt lat="47.3149" lon="-2.36547">
        <ele>19.200000762939</ele>
        <time>2020-01-19T08:50:18.000Z</time>
      </trkpt>
      <trkpt lat="47.31489" lon="-2.36552">
        <ele>19.200000762939</ele>
        <time>2020-01-19T08:50:22.000Z</time>
      </trkpt>
      <trkpt lat="47.3149" lon="-2.36561">
        <ele>19.200000762939</ele>
        <time>2020-01-19T08:50:28.000Z</time>
      </trkpt>
      <trkpt lat="47.3149" lon="-2.36563">
        <ele>19.200000762939</ele>
        <time>2020-01-19T08:50:29.000Z</time>
      </trkpt>
      <trkpt lat="47.31489" lon="-2.36572">
        <ele>19.200000762939</ele>
        <time>2020-01-19T08:50:36.000Z</time>
      </trkpt>
      <trkpt lat="47.31489" lon="-2.36573">
        <ele>19.200000762939</ele>
        <time>2020-01-19T08:50:38.000Z</time>
      </trkpt>
      <trkpt lat="47.31507" lon="-2.3663">
        <ele>19.200000762939</ele>
        <time>2020-01-19T08:52:06.000Z</time>
      </trkpt>
      <trkpt lat="47.31507" lon="-2.36635">
        <ele>19.200000762939</ele>
        <time>2020-01-19T08:52:08.000Z</time>
      </trkpt>
      <trkpt lat="47.31511" lon="-2.36643">
        <ele>19.200000762939</ele>
        <time>2020-01-19T08:52:11.000Z</time>
      </trkpt>
      <trkpt lat="47.31515" lon="-2.36651">
        <ele>19.200000762939</ele>
        <time>2020-01-19T08:52:14.000Z</time>
      </trkpt>
      <trkpt lat="47.31516" lon="-2.36655">
        <ele>19.200000762939</ele>
        <time>2020-01-19T08:52:16.000Z</time>
      </trkpt>
      <trkpt lat="47.31516" lon="-2.36658">
        <ele>19.200000762939</ele>
        <time>2020-01-19T08:52:19.000Z</time>
      </trkpt>
      <trkpt lat="47.31518" lon="-2.36665">
        <ele>19.200000762939</ele>
        <time>2020-01-19T08:52:27.000Z</time>
      </trkpt>
      <trkpt lat="47.31518" lon="-2.36667">
        <ele>19.200000762939</ele>
        <time>2020-01-19T08:52:28.000Z</time>
      </trkpt>
      <trkpt lat="47.31521" lon="-2.36684">
        <ele>19.200000762939</ele>
        <time>2020-01-19T08:52:34.000Z</time>
      </trkpt>
      <trkpt lat="47.31523" lon="-2.3669">
        <ele>19.200000762939</ele>
        <time>2020-01-19T08:52:36.000Z</time>
      </trkpt>
      <trkpt lat="47.31526" lon="-2.36702">
        <ele>19.200000762939</ele>
        <time>2020-01-19T08:52:39.000Z</time>
      </trkpt>
      <trkpt lat="47.31529" lon="-2.3672">
        <ele>19.60000038147</ele>
        <time>2020-01-19T08:52:44.000Z</time>
      </trkpt>
      <trkpt lat="47.3153" lon="-2.36723">
        <ele>20</ele>
        <time>2020-01-19T08:52:45.000Z</time>
      </trkpt>
      <trkpt lat="47.3153" lon="-2.36726">
        <ele>20.39999961853</ele>
        <time>2020-01-19T08:52:46.000Z</time>
      </trkpt>
      <trkpt lat="47.31531" lon="-2.36729">
        <ele>20.799999237061</ele>
        <time>2020-01-19T08:52:47.000Z</time>
      </trkpt>
      <trkpt lat="47.31533" lon="-2.36732">
        <ele>21.200000762939</ele>
        <time>2020-01-19T08:52:48.000Z</time>
      </trkpt>
      <trkpt lat="47.31534" lon="-2.36739">
        <ele>21.200000762939</ele>
        <time>2020-01-19T08:52:50.000Z</time>
      </trkpt>
      <trkpt lat="47.31538" lon="-2.36755">
        <ele>21.200000762939</ele>
        <time>2020-01-19T08:52:55.000Z</time>
      </trkpt>
      <trkpt lat="47.31543" lon="-2.36772">
        <ele>21.200000762939</ele>
        <time>2020-01-19T08:53:01.000Z</time>
      </trkpt>
      <trkpt lat="47.31548" lon="-2.36793">
        <ele>21.200000762939</ele>
        <time>2020-01-19T08:53:09.000Z</time>
      </trkpt>
      <trkpt lat="47.3155" lon="-2.368">
        <ele>21.60000038147</ele>
        <time>2020-01-19T08:53:12.000Z</time>
      </trkpt>
      <trkpt lat="47.31551" lon="-2.36803">
        <ele>22</ele>
        <time>2020-01-19T08:53:13.000Z</time>
      </trkpt>
      <trkpt lat="47.31551" lon="-2.36805">
        <ele>22.39999961853</ele>
        <time>2020-01-19T08:53:14.000Z</time>
      </trkpt>
      <trkpt lat="47.31552" lon="-2.36807">
        <ele>22.799999237061</ele>
        <time>2020-01-19T08:53:15.000Z</time>
      </trkpt>
      <trkpt lat="47.31553" lon="-2.36809">
        <ele>23.200000762939</ele>
        <time>2020-01-19T08:53:16.000Z</time>
      </trkpt>
      <trkpt lat="47.31555" lon="-2.36817">
        <ele>23.200000762939</ele>
        <time>2020-01-19T08:53:20.000Z</time>
      </trkpt>
      <trkpt lat="47.31554" lon="-2.36819">
        <ele>23.200000762939</ele>
        <time>2020-01-19T08:53:21.000Z</time>
      </trkpt>
      <trkpt lat="47.31555" lon="-2.3683">
        <ele>23.200000762939</ele>
        <time>2020-01-19T08:53:25.000Z</time>
      </trkpt>
      <trkpt lat="47.31559" lon="-2.36839">
        <ele>23.200000762939</ele>
        <time>2020-01-19T08:53:28.000Z</time>
      </trkpt>
      <trkpt lat="47.3156" lon="-2.36846">
        <ele>23.200000762939</ele>
        <time>2020-01-19T08:53:31.000Z</time>
      </trkpt>
      <trkpt lat="47.31564" lon="-2.36857">
        <ele>23.60000038147</ele>
        <time>2020-01-19T08:53:35.000Z</time>
      </trkpt>
      <trkpt lat="47.31565" lon="-2.36862">
        <ele>24</ele>
        <time>2020-01-19T08:53:36.000Z</time>
      </trkpt>
      <trkpt lat="47.31566" lon="-2.36866">
        <ele>24.39999961853</ele>
        <time>2020-01-19T08:53:37.000Z</time>
      </trkpt>
      <trkpt lat="47.31568" lon="-2.36871">
        <ele>24.799999237061</ele>
        <time>2020-01-19T08:53:38.000Z</time>
      </trkpt>
      <trkpt lat="47.31569" lon="-2.36875">
        <ele>25.200000762939</ele>
        <time>2020-01-19T08:53:39.000Z</time>
      </trkpt>
      <trkpt lat="47.31575" lon="-2.36894">
        <ele>25.200000762939</ele>
        <time>2020-01-19T08:53:44.000Z</time>
      </trkpt>
      <trkpt lat="47.31579" lon="-2.36908">
        <ele>25.60000038147</ele>
        <time>2020-01-19T08:53:48.000Z</time>
      </trkpt>
      <trkpt lat="47.31581" lon="-2.36912">
        <ele>26</ele>
        <time>2020-01-19T08:53:49.000Z</time>
      </trkpt>
      <trkpt lat="47.31582" lon="-2.36916">
        <ele>26.60000038147</ele>
        <time>2020-01-19T08:53:50.000Z</time>
      </trkpt>
      <trkpt lat="47.31583" lon="-2.3692">
        <ele>27</ele>
        <time>2020-01-19T08:53:51.000Z</time>
      </trkpt>
      <trkpt lat="47.31584" lon="-2.36923">
        <ele>27.39999961853</ele>
        <time>2020-01-19T08:53:52.000Z</time>
      </trkpt>
      <trkpt lat="47.3159" lon="-2.36947">
        <ele>27.39999961853</ele>
        <time>2020-01-19T08:53:58.000Z</time>
      </trkpt>
      <trkpt lat="47.31595" lon="-2.36965">
        <ele>27.39999961853</ele>
        <time>2020-01-19T08:54:03.000Z</time>
      </trkpt>
      <trkpt lat="47.31597" lon="-2.36971">
        <ele>27.799999237061</ele>
        <time>2020-01-19T08:54:05.000Z</time>
      </trkpt>
      <trkpt lat="47.31598" lon="-2.36975">
        <ele>28.60000038147</ele>
        <time>2020-01-19T08:54:06.000Z</time>
      </trkpt>
      <trkpt lat="47.31599" lon="-2.36978">
        <ele>29</ele>
        <time>2020-01-19T08:54:07.000Z</time>
      </trkpt>
      <trkpt lat="47.316" lon="-2.36982">
        <ele>29.39999961853</ele>
        <time>2020-01-19T08:54:08.000Z</time>
      </trkpt>
      <trkpt lat="47.31602" lon="-2.36993">
        <ele>29.39999961853</ele>
        <time>2020-01-19T08:54:11.000Z</time>
      </trkpt>
      <trkpt lat="47.3161" lon="-2.37018">
        <ele>29.39999961853</ele>
        <time>2020-01-19T08:54:17.000Z</time>
      </trkpt>
      <trkpt lat="47.31617" lon="-2.37037">
        <ele>29.39999961853</ele>
        <time>2020-01-19T08:54:22.000Z</time>
      </trkpt>
      <trkpt lat="47.31624" lon="-2.3705">
        <ele>29.799999237061</ele>
        <time>2020-01-19T08:54:27.000Z</time>
      </trkpt>
      <trkpt lat="47.31626" lon="-2.37053">
        <ele>30.200000762939</ele>
        <time>2020-01-19T08:54:28.000Z</time>
      </trkpt>
      <trkpt lat="47.31626" lon="-2.37056">
        <ele>30.60000038147</ele>
        <time>2020-01-19T08:54:29.000Z</time>
      </trkpt>
      <trkpt lat="47.31628" lon="-2.37059">
        <ele>31.200000762939</ele>
        <time>2020-01-19T08:54:30.000Z</time>
      </trkpt>
      <trkpt lat="47.31629" lon="-2.37062">
        <ele>31.60000038147</ele>
        <time>2020-01-19T08:54:31.000Z</time>
      </trkpt>
      <trkpt lat="47.31635" lon="-2.37073">
        <ele>31.60000038147</ele>
        <time>2020-01-19T08:54:36.000Z</time>
      </trkpt>
      <trkpt lat="47.31637" lon="-2.37076">
        <ele>31.60000038147</ele>
        <time>2020-01-19T08:54:40.000Z</time>
      </trkpt>
      <trkpt lat="47.3164" lon="-2.37082">
        <ele>31.60000038147</ele>
        <time>2020-01-19T08:55:26.000Z</time>
      </trkpt>
      <trkpt lat="47.31649" lon="-2.37096">
        <ele>31.60000038147</ele>
        <time>2020-01-19T08:55:31.000Z</time>
      </trkpt>
      <trkpt lat="47.31659" lon="-2.37118">
        <ele>31.60000038147</ele>
        <time>2020-01-19T08:55:36.000Z</time>
      </trkpt>
      <trkpt lat="47.31671" lon="-2.37141">
        <ele>31.60000038147</ele>
        <time>2020-01-19T08:55:41.000Z</time>
      </trkpt>
      <trkpt lat="47.31686" lon="-2.37172">
        <ele>31.60000038147</ele>
        <time>2020-01-19T08:55:47.000Z</time>
      </trkpt>
      <trkpt lat="47.31687" lon="-2.37178">
        <ele>31.60000038147</ele>
        <time>2020-01-19T08:55:48.000Z</time>
      </trkpt>
      <trkpt lat="47.31691" lon="-2.37192">
        <ele>31.60000038147</ele>
        <time>2020-01-19T08:55:50.000Z</time>
      </trkpt>
      <trkpt lat="47.31692" lon="-2.37206">
        <ele>31.60000038147</ele>
        <time>2020-01-19T08:55:52.000Z</time>
      </trkpt>
      <trkpt lat="47.31685" lon="-2.37231">
        <ele>31.60000038147</ele>
        <time>2020-01-19T08:55:56.000Z</time>
      </trkpt>
      <trkpt lat="47.31678" lon="-2.37241">
        <ele>31.60000038147</ele>
        <time>2020-01-19T08:55:58.000Z</time>
      </trkpt>
      <trkpt lat="47.31674" lon="-2.37245">
        <ele>31.60000038147</ele>
        <time>2020-01-19T08:55:59.000Z</time>
      </trkpt>
      <trkpt lat="47.31666" lon="-2.37252">
        <ele>31.60000038147</ele>
        <time>2020-01-19T08:56:01.000Z</time>
      </trkpt>
      <trkpt lat="47.31662" lon="-2.37255">
        <ele>31.60000038147</ele>
        <time>2020-01-19T08:56:02.000Z</time>
      </trkpt>
      <trkpt lat="47.31639" lon="-2.37273">
        <ele>31.60000038147</ele>
        <time>2020-01-19T08:56:08.000Z</time>
      </trkpt>
      <trkpt lat="47.31625" lon="-2.3729">
        <ele>31.60000038147</ele>
        <time>2020-01-19T08:56:13.000Z</time>
      </trkpt>
      <trkpt lat="47.31622" lon="-2.37296">
        <ele>31.60000038147</ele>
        <time>2020-01-19T08:56:14.000Z</time>
      </trkpt>
      <trkpt lat="47.3162" lon="-2.37323">
        <ele>31.60000038147</ele>
        <time>2020-01-19T08:56:18.000Z</time>
      </trkpt>
      <trkpt lat="47.31622" lon="-2.37338">
        <ele>31.60000038147</ele>
        <time>2020-01-19T08:56:20.000Z</time>
      </trkpt>
      <trkpt lat="47.31624" lon="-2.37346">
        <ele>31.60000038147</ele>
        <time>2020-01-19T08:56:21.000Z</time>
      </trkpt>
      <trkpt lat="47.31627" lon="-2.37359">
        <ele>31.60000038147</ele>
        <time>2020-01-19T08:56:23.000Z</time>
      </trkpt>
      <trkpt lat="47.31633" lon="-2.37392">
        <ele>31.60000038147</ele>
        <time>2020-01-19T08:56:28.000Z</time>
      </trkpt>
      <trkpt lat="47.31635" lon="-2.37407">
        <ele>31.60000038147</ele>
        <time>2020-01-19T08:56:30.000Z</time>
      </trkpt>
      <trkpt lat="47.31636" lon="-2.37431">
        <ele>31.60000038147</ele>
        <time>2020-01-19T08:56:33.000Z</time>
      </trkpt>
      <trkpt lat="47.31638" lon="-2.37457">
        <ele>31.60000038147</ele>
        <time>2020-01-19T08:56:36.000Z</time>
      </trkpt>
      <trkpt lat="47.31639" lon="-2.3749">
        <ele>31.60000038147</ele>
        <time>2020-01-19T08:56:40.000Z</time>
      </trkpt>
      <trkpt lat="47.31636" lon="-2.37506">
        <ele>31.60000038147</ele>
        <time>2020-01-19T08:56:42.000Z</time>
      </trkpt>
      <trkpt lat="47.31629" lon="-2.37529">
        <ele>31.60000038147</ele>
        <time>2020-01-19T08:56:45.000Z</time>
      </trkpt>
      <trkpt lat="47.31624" lon="-2.37542">
        <ele>31.60000038147</ele>
        <time>2020-01-19T08:56:47.000Z</time>
      </trkpt>
      <trkpt lat="47.31616" lon="-2.37578">
        <ele>31.60000038147</ele>
        <time>2020-01-19T08:56:52.000Z</time>
      </trkpt>
      <trkpt lat="47.31615" lon="-2.37585">
        <ele>31.60000038147</ele>
        <time>2020-01-19T08:56:53.000Z</time>
      </trkpt>
      <trkpt lat="47.31617" lon="-2.37628">
        <ele>31.200000762939</ele>
        <time>2020-01-19T08:56:59.000Z</time>
      </trkpt>
      <trkpt lat="47.3162" lon="-2.37636">
        <ele>30.39999961853</ele>
        <time>2020-01-19T08:57:00.000Z</time>
      </trkpt>
      <trkpt lat="47.31622" lon="-2.37643">
        <ele>30</ele>
        <time>2020-01-19T08:57:01.000Z</time>
      </trkpt>
      <trkpt lat="47.31626" lon="-2.3765">
        <ele>29.60000038147</ele>
        <time>2020-01-19T08:57:02.000Z</time>
      </trkpt>
      <trkpt lat="47.3163" lon="-2.37654">
        <ele>29.60000038147</ele>
        <time>2020-01-19T08:57:03.000Z</time>
      </trkpt>
      <trkpt lat="47.3165" lon="-2.37668">
        <ele>29.60000038147</ele>
        <time>2020-01-19T08:57:07.000Z</time>
      </trkpt>
      <trkpt lat="47.31672" lon="-2.37689">
        <ele>29.60000038147</ele>
        <time>2020-01-19T08:57:12.000Z</time>
      </trkpt>
      <trkpt lat="47.31691" lon="-2.37707">
        <ele>29.60000038147</ele>
        <time>2020-01-19T08:57:16.000Z</time>
      </trkpt>
      <trkpt lat="47.31702" lon="-2.37713">
        <ele>29.60000038147</ele>
        <time>2020-01-19T08:57:18.000Z</time>
      </trkpt>
      <trkpt lat="47.31719" lon="-2.37716">
        <ele>29.60000038147</ele>
        <time>2020-01-19T08:57:21.000Z</time>
      </trkpt>
      <trkpt lat="47.3173" lon="-2.37712">
        <ele>29.60000038147</ele>
        <time>2020-01-19T08:57:23.000Z</time>
      </trkpt>
      <trkpt lat="47.31763" lon="-2.37688">
        <ele>29.60000038147</ele>
        <time>2020-01-19T08:57:29.000Z</time>
      </trkpt>
      <trkpt lat="47.31797" lon="-2.37654">
        <ele>29.60000038147</ele>
        <time>2020-01-19T08:57:36.000Z</time>
      </trkpt>
      <trkpt lat="47.31802" lon="-2.37652">
        <ele>29.60000038147</ele>
        <time>2020-01-19T08:57:37.000Z</time>
      </trkpt>
      <trkpt lat="47.31812" lon="-2.37647">
        <ele>29.60000038147</ele>
        <time>2020-01-19T08:57:39.000Z</time>
      </trkpt>
      <trkpt lat="47.31818" lon="-2.37649">
        <ele>29.60000038147</ele>
        <time>2020-01-19T08:57:40.000Z</time>
      </trkpt>
      <trkpt lat="47.31826" lon="-2.37665">
        <ele>29.60000038147</ele>
        <time>2020-01-19T08:57:43.000Z</time>
      </trkpt>
      <trkpt lat="47.31821" lon="-2.37685">
        <ele>29.60000038147</ele>
        <time>2020-01-19T08:57:46.000Z</time>
      </trkpt>
      <trkpt lat="47.31819" lon="-2.377">
        <ele>29.60000038147</ele>
        <time>2020-01-19T08:57:48.000Z</time>
      </trkpt>
      <trkpt lat="47.31816" lon="-2.37727">
        <ele>29.60000038147</ele>
        <time>2020-01-19T08:57:52.000Z</time>
      </trkpt>
      <trkpt lat="47.31816" lon="-2.37733">
        <ele>29.60000038147</ele>
        <time>2020-01-19T08:57:53.000Z</time>
      </trkpt>
      <trkpt lat="47.31813" lon="-2.37768">
        <ele>29.60000038147</ele>
        <time>2020-01-19T08:57:58.000Z</time>
      </trkpt>
      <trkpt lat="47.31811" lon="-2.37796">
        <ele>29.60000038147</ele>
        <time>2020-01-19T08:58:02.000Z</time>
      </trkpt>
      <trkpt lat="47.31809" lon="-2.3781">
        <ele>29</ele>
        <time>2020-01-19T08:58:04.000Z</time>
      </trkpt>
      <trkpt lat="47.31808" lon="-2.37817">
        <ele>28.60000038147</ele>
        <time>2020-01-19T08:58:05.000Z</time>
      </trkpt>
      <trkpt lat="47.31807" lon="-2.37825">
        <ele>28.200000762939</ele>
        <time>2020-01-19T08:58:06.000Z</time>
      </trkpt>
      <trkpt lat="47.31807" lon="-2.37832">
        <ele>27.799999237061</ele>
        <time>2020-01-19T08:58:07.000Z</time>
      </trkpt>
      <trkpt lat="47.31806" lon="-2.37839">
        <ele>27.39999961853</ele>
        <time>2020-01-19T08:58:08.000Z</time>
      </trkpt>
      <trkpt lat="47.31803" lon="-2.3787">
        <ele>27.39999961853</ele>
        <time>2020-01-19T08:58:12.000Z</time>
      </trkpt>
      <trkpt lat="47.31799" lon="-2.3791">
        <ele>27</ele>
        <time>2020-01-19T08:58:17.000Z</time>
      </trkpt>
      <trkpt lat="47.31798" lon="-2.37918">
        <ele>26.60000038147</ele>
        <time>2020-01-19T08:58:18.000Z</time>
      </trkpt>
      <trkpt lat="47.31797" lon="-2.37926">
        <ele>26.200000762939</ele>
        <time>2020-01-19T08:58:19.000Z</time>
      </trkpt>
      <trkpt lat="47.31797" lon="-2.37934">
        <ele>25.799999237061</ele>
        <time>2020-01-19T08:58:20.000Z</time>
      </trkpt>
      <trkpt lat="47.31796" lon="-2.37943">
        <ele>25.39999961853</ele>
        <time>2020-01-19T08:58:21.000Z</time>
      </trkpt>
      <trkpt lat="47.31796" lon="-2.38002">
        <ele>25.39999961853</ele>
        <time>2020-01-19T08:58:27.000Z</time>
      </trkpt>
      <trkpt lat="47.318" lon="-2.38056">
        <ele>25</ele>
        <time>2020-01-19T08:58:32.000Z</time>
      </trkpt>
      <trkpt lat="47.31801" lon="-2.38066">
        <ele>24.60000038147</ele>
        <time>2020-01-19T08:58:33.000Z</time>
      </trkpt>
      <trkpt lat="47.31802" lon="-2.38076">
        <ele>24.200000762939</ele>
        <time>2020-01-19T08:58:34.000Z</time>
      </trkpt>
      <trkpt lat="47.31802" lon="-2.38086">
        <ele>23.799999237061</ele>
        <time>2020-01-19T08:58:35.000Z</time>
      </trkpt>
      <trkpt lat="47.31803" lon="-2.38096">
        <ele>23.200000762939</ele>
        <time>2020-01-19T08:58:36.000Z</time>
      </trkpt>
      <trkpt lat="47.31805" lon="-2.38124">
        <ele>23.200000762939</ele>
        <time>2020-01-19T08:58:39.000Z</time>
      </trkpt>
      <trkpt lat="47.31808" lon="-2.38199">
        <ele>23.200000762939</ele>
        <time>2020-01-19T08:58:47.000Z</time>
      </trkpt>
      <trkpt lat="47.31809" lon="-2.38254">
        <ele>23.200000762939</ele>
        <time>2020-01-19T08:58:53.000Z</time>
      </trkpt>
      <trkpt lat="47.31809" lon="-2.38263">
        <ele>23.799999237061</ele>
        <time>2020-01-19T08:58:54.000Z</time>
      </trkpt>
      <trkpt lat="47.31809" lon="-2.38271">
        <ele>24.200000762939</ele>
        <time>2020-01-19T08:58:55.000Z</time>
      </trkpt>
      <trkpt lat="47.31809" lon="-2.38279">
        <ele>24.60000038147</ele>
        <time>2020-01-19T08:58:56.000Z</time>
      </trkpt>
      <trkpt lat="47.31809" lon="-2.38287">
        <ele>25</ele>
        <time>2020-01-19T08:58:57.000Z</time>
      </trkpt>
      <trkpt lat="47.3181" lon="-2.38296">
        <ele>25.39999961853</ele>
        <time>2020-01-19T08:58:58.000Z</time>
      </trkpt>
      <trkpt lat="47.3181" lon="-2.38304">
        <ele>25.39999961853</ele>
        <time>2020-01-19T08:58:59.000Z</time>
      </trkpt>
      <trkpt lat="47.3181" lon="-2.38351">
        <ele>25.799999237061</ele>
        <time>2020-01-19T08:59:05.000Z</time>
      </trkpt>
      <trkpt lat="47.3181" lon="-2.38359">
        <ele>26.200000762939</ele>
        <time>2020-01-19T08:59:06.000Z</time>
      </trkpt>
      <trkpt lat="47.3181" lon="-2.38367">
        <ele>26.60000038147</ele>
        <time>2020-01-19T08:59:07.000Z</time>
      </trkpt>
      <trkpt lat="47.31811" lon="-2.38374">
        <ele>27</ele>
        <time>2020-01-19T08:59:08.000Z</time>
      </trkpt>
      <trkpt lat="47.31811" lon="-2.38381">
        <ele>27.39999961853</ele>
        <time>2020-01-19T08:59:09.000Z</time>
      </trkpt>
      <trkpt lat="47.31811" lon="-2.38433">
        <ele>27.39999961853</ele>
        <time>2020-01-19T08:59:16.000Z</time>
      </trkpt>
      <trkpt lat="47.31811" lon="-2.38462">
        <ele>27.799999237061</ele>
        <time>2020-01-19T08:59:20.000Z</time>
      </trkpt>
      <trkpt lat="47.31811" lon="-2.38469">
        <ele>28.200000762939</ele>
        <time>2020-01-19T08:59:21.000Z</time>
      </trkpt>
      <trkpt lat="47.31811" lon="-2.38476">
        <ele>28.60000038147</ele>
        <time>2020-01-19T08:59:22.000Z</time>
      </trkpt>
      <trkpt lat="47.31811" lon="-2.38483">
        <ele>29</ele>
        <time>2020-01-19T08:59:23.000Z</time>
      </trkpt>
      <trkpt lat="47.31811" lon="-2.3849">
        <ele>29.60000038147</ele>
        <time>2020-01-19T08:59:24.000Z</time>
      </trkpt>
      <trkpt lat="47.31811" lon="-2.38516">
        <ele>29.60000038147</ele>
        <time>2020-01-19T08:59:30.000Z</time>
      </trkpt>
      <trkpt lat="47.31811" lon="-2.38518">
        <ele>29.60000038147</ele>
        <time>2020-01-19T08:59:32.000Z</time>
      </trkpt>
      <trkpt lat="47.31809" lon="-2.38523">
        <ele>27.39999961853</ele>
        <time>2020-01-19T09:09:00.000Z</time>
      </trkpt>
      <trkpt lat="47.31808" lon="-2.38525">
        <ele>27.39999961853</ele>
        <time>2020-01-19T09:09:01.000Z</time>
      </trkpt>
      <trkpt lat="47.31804" lon="-2.38534">
        <ele>27.39999961853</ele>
        <time>2020-01-19T09:09:04.000Z</time>
      </trkpt>
      <trkpt lat="47.318" lon="-2.38536">
        <ele>27.39999961853</ele>
        <time>2020-01-19T09:09:05.000Z</time>
      </trkpt>
      <trkpt lat="47.31783" lon="-2.38546">
        <ele>27.39999961853</ele>
        <time>2020-01-19T09:09:10.000Z</time>
      </trkpt>
      <trkpt lat="47.31756" lon="-2.38562">
        <ele>27.39999961853</ele>
        <time>2020-01-19T09:09:17.000Z</time>
      </trkpt>
      <trkpt lat="47.31725" lon="-2.3858">
        <ele>27.39999961853</ele>
        <time>2020-01-19T09:09:24.000Z</time>
      </trkpt>
      <trkpt lat="47.31696" lon="-2.38597">
        <ele>27.39999961853</ele>
        <time>2020-01-19T09:09:30.000Z</time>
      </trkpt>
      <trkpt lat="47.31653" lon="-2.38628">
        <ele>27.39999961853</ele>
        <time>2020-01-19T09:09:38.000Z</time>
      </trkpt>
      <trkpt lat="47.31625" lon="-2.38663">
        <ele>27.39999961853</ele>
        <time>2020-01-19T09:09:44.000Z</time>
      </trkpt>
      <trkpt lat="47.316" lon="-2.387">
        <ele>27.39999961853</ele>
        <time>2020-01-19T09:09:50.000Z</time>
      </trkpt>
      <trkpt lat="47.31584" lon="-2.38726">
        <ele>27.39999961853</ele>
        <time>2020-01-19T09:09:54.000Z</time>
      </trkpt>
      <trkpt lat="47.31572" lon="-2.38743">
        <ele>27.39999961853</ele>
        <time>2020-01-19T09:09:57.000Z</time>
      </trkpt>
      <trkpt lat="47.31549" lon="-2.38778">
        <ele>27.39999961853</ele>
        <time>2020-01-19T09:10:03.000Z</time>
      </trkpt>
      <trkpt lat="47.31541" lon="-2.3879">
        <ele>27.39999961853</ele>
        <time>2020-01-19T09:10:05.000Z</time>
      </trkpt>
      <trkpt lat="47.31532" lon="-2.38807">
        <ele>27.39999961853</ele>
        <time>2020-01-19T09:10:08.000Z</time>
      </trkpt>
      <trkpt lat="47.3152" lon="-2.38829">
        <ele>27.39999961853</ele>
        <time>2020-01-19T09:10:12.000Z</time>
      </trkpt>
      <trkpt lat="47.31514" lon="-2.38841">
        <ele>27.39999961853</ele>
        <time>2020-01-19T09:10:14.000Z</time>
      </trkpt>
      <trkpt lat="47.31494" lon="-2.38878">
        <ele>28</ele>
        <time>2020-01-19T09:10:20.000Z</time>
      </trkpt>
      <trkpt lat="47.3149" lon="-2.38885">
        <ele>28.39999961853</ele>
        <time>2020-01-19T09:10:21.000Z</time>
      </trkpt>
      <trkpt lat="47.31487" lon="-2.38891">
        <ele>28.799999237061</ele>
        <time>2020-01-19T09:10:22.000Z</time>
      </trkpt>
      <trkpt lat="47.31484" lon="-2.38898">
        <ele>29.200000762939</ele>
        <time>2020-01-19T09:10:23.000Z</time>
      </trkpt>
      <trkpt lat="47.31481" lon="-2.38904">
        <ele>29.60000038147</ele>
        <time>2020-01-19T09:10:24.000Z</time>
      </trkpt>
      <trkpt lat="47.3147" lon="-2.38925">
        <ele>29.60000038147</ele>
        <time>2020-01-19T09:10:27.000Z</time>
      </trkpt>
      <trkpt lat="47.31448" lon="-2.38968">
        <ele>29.60000038147</ele>
        <time>2020-01-19T09:10:34.000Z</time>
      </trkpt>
      <trkpt lat="47.3143" lon="-2.39016">
        <ele>29.60000038147</ele>
        <time>2020-01-19T09:10:41.000Z</time>
      </trkpt>
      <trkpt lat="47.31418" lon="-2.39045">
        <ele>30</ele>
        <time>2020-01-19T09:10:45.000Z</time>
      </trkpt>
      <trkpt lat="47.31414" lon="-2.39052">
        <ele>30.39999961853</ele>
        <time>2020-01-19T09:10:46.000Z</time>
      </trkpt>
      <trkpt lat="47.31411" lon="-2.39058">
        <ele>30.799999237061</ele>
        <time>2020-01-19T09:10:47.000Z</time>
      </trkpt>
      <trkpt lat="47.31407" lon="-2.39064">
        <ele>31.200000762939</ele>
        <time>2020-01-19T09:10:48.000Z</time>
      </trkpt>
      <trkpt lat="47.31404" lon="-2.3907">
        <ele>31.60000038147</ele>
        <time>2020-01-19T09:10:49.000Z</time>
      </trkpt>
      <trkpt lat="47.31385" lon="-2.39095">
        <ele>31.60000038147</ele>
        <time>2020-01-19T09:10:54.000Z</time>
      </trkpt>
      <trkpt lat="47.31363" lon="-2.39119">
        <ele>31.60000038147</ele>
        <time>2020-01-19T09:11:00.000Z</time>
      </trkpt>
      <trkpt lat="47.31355" lon="-2.39127">
        <ele>31.60000038147</ele>
        <time>2020-01-19T09:11:02.000Z</time>
      </trkpt>
      <trkpt lat="47.31348" lon="-2.39135">
        <ele>32</ele>
        <time>2020-01-19T09:11:04.000Z</time>
      </trkpt>
      <trkpt lat="47.31343" lon="-2.39139">
        <ele>32.400001525879</ele>
        <time>2020-01-19T09:11:05.000Z</time>
      </trkpt>
      <trkpt lat="47.31339" lon="-2.39144">
        <ele>33</ele>
        <time>2020-01-19T09:11:06.000Z</time>
      </trkpt>
      <trkpt lat="47.31335" lon="-2.39148">
        <ele>33.400001525879</ele>
        <time>2020-01-19T09:11:07.000Z</time>
      </trkpt>
      <trkpt lat="47.3133" lon="-2.39153">
        <ele>33.799999237061</ele>
        <time>2020-01-19T09:11:08.000Z</time>
      </trkpt>
      <trkpt lat="47.31326" lon="-2.39158">
        <ele>33.799999237061</ele>
        <time>2020-01-19T09:11:09.000Z</time>
      </trkpt>
      <trkpt lat="47.31292" lon="-2.39194">
        <ele>33.799999237061</ele>
        <time>2020-01-19T09:11:17.000Z</time>
      </trkpt>
      <trkpt lat="47.31269" lon="-2.39225">
        <ele>33.799999237061</ele>
        <time>2020-01-19T09:11:23.000Z</time>
      </trkpt>
      <trkpt lat="47.31258" lon="-2.3924">
        <ele>33.799999237061</ele>
        <time>2020-01-19T09:11:26.000Z</time>
      </trkpt>
      <trkpt lat="47.31248" lon="-2.39255">
        <ele>33.799999237061</ele>
        <time>2020-01-19T09:11:29.000Z</time>
      </trkpt>
      <trkpt lat="47.31237" lon="-2.39271">
        <ele>33.799999237061</ele>
        <time>2020-01-19T09:11:32.000Z</time>
      </trkpt>
      <trkpt lat="47.31228" lon="-2.39281">
        <ele>33.799999237061</ele>
        <time>2020-01-19T09:11:34.000Z</time>
      </trkpt>
      <trkpt lat="47.31212" lon="-2.39296">
        <ele>33.799999237061</ele>
        <time>2020-01-19T09:11:37.000Z</time>
      </trkpt>
      <trkpt lat="47.312" lon="-2.39305">
        <ele>33.799999237061</ele>
        <time>2020-01-19T09:11:39.000Z</time>
      </trkpt>
      <trkpt lat="47.31151" lon="-2.39342">
        <ele>33.799999237061</ele>
        <time>2020-01-19T09:11:47.000Z</time>
      </trkpt>
      <trkpt lat="47.31145" lon="-2.39347">
        <ele>33.400001525879</ele>
        <time>2020-01-19T09:11:48.000Z</time>
      </trkpt>
      <trkpt lat="47.31139" lon="-2.39353">
        <ele>33</ele>
        <time>2020-01-19T09:11:49.000Z</time>
      </trkpt>
      <trkpt lat="47.31133" lon="-2.39358">
        <ele>32.200000762939</ele>
        <time>2020-01-19T09:11:50.000Z</time>
      </trkpt>
      <trkpt lat="47.31128" lon="-2.39364">
        <ele>31.799999237061</ele>
        <time>2020-01-19T09:11:51.000Z</time>
      </trkpt>
      <trkpt lat="47.31112" lon="-2.39382">
        <ele>31.799999237061</ele>
        <time>2020-01-19T09:11:54.000Z</time>
      </trkpt>
      <trkpt lat="47.31098" lon="-2.39401">
        <ele>31.200000762939</ele>
        <time>2020-01-19T09:11:57.000Z</time>
      </trkpt>
      <trkpt lat="47.31093" lon="-2.39407">
        <ele>30.799999237061</ele>
        <time>2020-01-19T09:11:58.000Z</time>
      </trkpt>
      <trkpt lat="47.31088" lon="-2.39414">
        <ele>30.39999961853</ele>
        <time>2020-01-19T09:11:59.000Z</time>
      </trkpt>
      <trkpt lat="47.31083" lon="-2.3942">
        <ele>30</ele>
        <time>2020-01-19T09:12:00.000Z</time>
      </trkpt>
      <trkpt lat="47.31078" lon="-2.39427">
        <ele>29.39999961853</ele>
        <time>2020-01-19T09:12:01.000Z</time>
      </trkpt>
      <trkpt lat="47.31056" lon="-2.39454">
        <ele>29.39999961853</ele>
        <time>2020-01-19T09:12:06.000Z</time>
      </trkpt>
      <trkpt lat="47.31047" lon="-2.39466">
        <ele>29.39999961853</ele>
        <time>2020-01-19T09:12:10.000Z</time>
      </trkpt>
      <trkpt lat="47.31047" lon="-2.39468">
        <ele>29</ele>
        <time>2020-01-19T09:12:11.000Z</time>
      </trkpt>
      <trkpt lat="47.31047" lon="-2.3947">
        <ele>28.60000038147</ele>
        <time>2020-01-19T09:12:12.000Z</time>
      </trkpt>
      <trkpt lat="47.31047" lon="-2.39472">
        <ele>28.200000762939</ele>
        <time>2020-01-19T09:12:13.000Z</time>
      </trkpt>
      <trkpt lat="47.31047" lon="-2.39476">
        <ele>27.799999237061</ele>
        <time>2020-01-19T09:12:14.000Z</time>
      </trkpt>
      <trkpt lat="47.31047" lon="-2.39479">
        <ele>27.39999961853</ele>
        <time>2020-01-19T09:12:15.000Z</time>
      </trkpt>
      <trkpt lat="47.31052" lon="-2.39497">
        <ele>27.39999961853</ele>
        <time>2020-01-19T09:12:20.000Z</time>
      </trkpt>
      <trkpt lat="47.31064" lon="-2.39535">
        <ele>27.799999237061</ele>
        <time>2020-01-19T09:12:27.000Z</time>
      </trkpt>
      <trkpt lat="47.31066" lon="-2.39541">
        <ele>28.200000762939</ele>
        <time>2020-01-19T09:12:28.000Z</time>
      </trkpt>
      <trkpt lat="47.31068" lon="-2.39547">
        <ele>28.799999237061</ele>
        <time>2020-01-19T09:12:29.000Z</time>
      </trkpt>
      <trkpt lat="47.3107" lon="-2.39554">
        <ele>29.200000762939</ele>
        <time>2020-01-19T09:12:30.000Z</time>
      </trkpt>
      <trkpt lat="47.31072" lon="-2.39561">
        <ele>29.60000038147</ele>
        <time>2020-01-19T09:12:31.000Z</time>
      </trkpt>
      <trkpt lat="47.31074" lon="-2.39567">
        <ele>29.60000038147</ele>
        <time>2020-01-19T09:12:32.000Z</time>
      </trkpt>
      <trkpt lat="47.31079" lon="-2.39579">
        <ele>29.60000038147</ele>
        <time>2020-01-19T09:12:34.000Z</time>
      </trkpt>
      <trkpt lat="47.31084" lon="-2.39592">
        <ele>30</ele>
        <time>2020-01-19T09:12:36.000Z</time>
      </trkpt>
      <trkpt lat="47.31086" lon="-2.39599">
        <ele>30.39999961853</ele>
        <time>2020-01-19T09:12:37.000Z</time>
      </trkpt>
      <trkpt lat="47.31089" lon="-2.39607">
        <ele>30.799999237061</ele>
        <time>2020-01-19T09:12:38.000Z</time>
      </trkpt>
      <trkpt lat="47.31092" lon="-2.39614">
        <ele>31.60000038147</ele>
        <time>2020-01-19T09:12:39.000Z</time>
      </trkpt>
      <trkpt lat="47.31095" lon="-2.39621">
        <ele>31.60000038147</ele>
        <time>2020-01-19T09:12:40.000Z</time>
      </trkpt>
      <trkpt lat="47.31112" lon="-2.3967">
        <ele>31.60000038147</ele>
        <time>2020-01-19T09:12:46.000Z</time>
      </trkpt>
      <trkpt lat="47.31135" lon="-2.39732">
        <ele>31.60000038147</ele>
        <time>2020-01-19T09:12:53.000Z</time>
      </trkpt>
      <trkpt lat="47.31157" lon="-2.39796">
        <ele>31.60000038147</ele>
        <time>2020-01-19T09:13:00.000Z</time>
      </trkpt>
      <trkpt lat="47.31169" lon="-2.3983">
        <ele>31.60000038147</ele>
        <time>2020-01-19T09:13:04.000Z</time>
      </trkpt>
      <trkpt lat="47.31173" lon="-2.39837">
        <ele>31.60000038147</ele>
        <time>2020-01-19T09:13:05.000Z</time>
      </trkpt>
      <trkpt lat="47.31181" lon="-2.39858">
        <ele>31.200000762939</ele>
        <time>2020-01-19T09:13:08.000Z</time>
      </trkpt>
      <trkpt lat="47.31183" lon="-2.39865">
        <ele>30.799999237061</ele>
        <time>2020-01-19T09:13:09.000Z</time>
      </trkpt>
      <trkpt lat="47.31184" lon="-2.39872">
        <ele>30.200000762939</ele>
        <time>2020-01-19T09:13:10.000Z</time>
      </trkpt>
      <trkpt lat="47.31185" lon="-2.39876">
        <ele>29.799999237061</ele>
        <time>2020-01-19T09:13:11.000Z</time>
      </trkpt>
      <trkpt lat="47.31187" lon="-2.3988">
        <ele>29.39999961853</ele>
        <time>2020-01-19T09:13:12.000Z</time>
      </trkpt>
      <trkpt lat="47.31193" lon="-2.39899">
        <ele>29.39999961853</ele>
        <time>2020-01-19T09:13:17.000Z</time>
      </trkpt>
      <trkpt lat="47.31196" lon="-2.39906">
        <ele>28.799999237061</ele>
        <time>2020-01-19T09:13:19.000Z</time>
      </trkpt>
      <trkpt lat="47.31197" lon="-2.39909">
        <ele>28.39999961853</ele>
        <time>2020-01-19T09:13:20.000Z</time>
      </trkpt>
      <trkpt lat="47.31198" lon="-2.39913">
        <ele>28</ele>
        <time>2020-01-19T09:13:21.000Z</time>
      </trkpt>
      <trkpt lat="47.312" lon="-2.39916">
        <ele>27.39999961853</ele>
        <time>2020-01-19T09:13:22.000Z</time>
      </trkpt>
      <trkpt lat="47.31202" lon="-2.3992">
        <ele>27</ele>
        <time>2020-01-19T09:13:23.000Z</time>
      </trkpt>
      <trkpt lat="47.31206" lon="-2.3993">
        <ele>27</ele>
        <time>2020-01-19T09:13:25.000Z</time>
      </trkpt>
      <trkpt lat="47.31215" lon="-2.39951">
        <ele>27</ele>
        <time>2020-01-19T09:13:30.000Z</time>
      </trkpt>
      <trkpt lat="47.31217" lon="-2.39955">
        <ele>26.60000038147</ele>
        <time>2020-01-19T09:13:31.000Z</time>
      </trkpt>
      <trkpt lat="47.31219" lon="-2.3996">
        <ele>26.200000762939</ele>
        <time>2020-01-19T09:13:32.000Z</time>
      </trkpt>
      <trkpt lat="47.3122" lon="-2.39965">
        <ele>25.799999237061</ele>
        <time>2020-01-19T09:13:33.000Z</time>
      </trkpt>
      <trkpt lat="47.31222" lon="-2.39969">
        <ele>25.39999961853</ele>
        <time>2020-01-19T09:13:34.000Z</time>
      </trkpt>
      <trkpt lat="47.31224" lon="-2.39974">
        <ele>25</ele>
        <time>2020-01-19T09:13:35.000Z</time>
      </trkpt>
      <trkpt lat="47.31226" lon="-2.39979">
        <ele>25</ele>
        <time>2020-01-19T09:13:36.000Z</time>
      </trkpt>
      <trkpt lat="47.31233" lon="-2.40002">
        <ele>24.39999961853</ele>
        <time>2020-01-19T09:13:40.000Z</time>
      </trkpt>
      <trkpt lat="47.31234" lon="-2.40008">
        <ele>24</ele>
        <time>2020-01-19T09:13:41.000Z</time>
      </trkpt>
      <trkpt lat="47.31235" lon="-2.40014">
        <ele>23.60000038147</ele>
        <time>2020-01-19T09:13:42.000Z</time>
      </trkpt>
      <trkpt lat="47.31237" lon="-2.40019">
        <ele>23.200000762939</ele>
        <time>2020-01-19T09:13:43.000Z</time>
      </trkpt>
      <trkpt lat="47.31238" lon="-2.40023">
        <ele>22.799999237061</ele>
        <time>2020-01-19T09:13:44.000Z</time>
      </trkpt>
      <trkpt lat="47.31241" lon="-2.40033">
        <ele>22.799999237061</ele>
        <time>2020-01-19T09:13:47.000Z</time>
      </trkpt>
      <trkpt lat="47.31242" lon="-2.40035">
        <ele>22.799999237061</ele>
        <time>2020-01-19T09:13:50.000Z</time>
      </trkpt>
      <trkpt lat="47.31243" lon="-2.40036">
        <ele>22.799999237061</ele>
        <time>2020-01-19T09:13:51.000Z</time>
      </trkpt>
      <trkpt lat="47.31243" lon="-2.40037">
        <ele>22.799999237061</ele>
        <time>2020-01-19T09:13:52.000Z</time>
      </trkpt>
      <trkpt lat="47.31244" lon="-2.40041">
        <ele>22.799999237061</ele>
        <time>2020-01-19T09:13:54.000Z</time>
      </trkpt>
      <trkpt lat="47.31246" lon="-2.40044">
        <ele>22.799999237061</ele>
        <time>2020-01-19T09:13:56.000Z</time>
      </trkpt>
      <trkpt lat="47.31259" lon="-2.40049">
        <ele>22.799999237061</ele>
        <time>2020-01-19T09:13:59.000Z</time>
      </trkpt>
      <trkpt lat="47.31269" lon="-2.40051">
        <ele>22.799999237061</ele>
        <time>2020-01-19T09:14:01.000Z</time>
      </trkpt>
      <trkpt lat="47.31291" lon="-2.40057">
        <ele>22.799999237061</ele>
        <time>2020-01-19T09:14:06.000Z</time>
      </trkpt>
      <trkpt lat="47.31297" lon="-2.40061">
        <ele>22.799999237061</ele>
        <time>2020-01-19T09:14:09.000Z</time>
      </trkpt>
      <trkpt lat="47.31309" lon="-2.40065">
        <ele>22.799999237061</ele>
        <time>2020-01-19T09:14:14.000Z</time>
      </trkpt>
      <trkpt lat="47.31333" lon="-2.40077">
        <ele>22.799999237061</ele>
        <time>2020-01-19T09:14:20.000Z</time>
      </trkpt>
      <trkpt lat="47.31373" lon="-2.40101">
        <ele>22.799999237061</ele>
        <time>2020-01-19T09:14:27.000Z</time>
      </trkpt>
      <trkpt lat="47.31378" lon="-2.40104">
        <ele>22.799999237061</ele>
        <time>2020-01-19T09:14:28.000Z</time>
      </trkpt>
      <trkpt lat="47.31393" lon="-2.40113">
        <ele>22.799999237061</ele>
        <time>2020-01-19T09:14:32.000Z</time>
      </trkpt>
      <trkpt lat="47.31414" lon="-2.40125">
        <ele>22.799999237061</ele>
        <time>2020-01-19T09:14:39.000Z</time>
      </trkpt>
      <trkpt lat="47.31433" lon="-2.40139">
        <ele>22.799999237061</ele>
        <time>2020-01-19T09:14:44.000Z</time>
      </trkpt>
      <trkpt lat="47.31451" lon="-2.40153">
        <ele>22.799999237061</ele>
        <time>2020-01-19T09:14:49.000Z</time>
      </trkpt>
      <trkpt lat="47.31466" lon="-2.40164">
        <ele>22.799999237061</ele>
        <time>2020-01-19T09:14:53.000Z</time>
      </trkpt>
      <trkpt lat="47.31472" lon="-2.40169">
        <ele>22.799999237061</ele>
        <time>2020-01-19T09:14:55.000Z</time>
      </trkpt>
      <trkpt lat="47.31481" lon="-2.40176">
        <ele>23.200000762939</ele>
        <time>2020-01-19T09:14:58.000Z</time>
      </trkpt>
      <trkpt lat="47.31485" lon="-2.40179">
        <ele>23.60000038147</ele>
        <time>2020-01-19T09:14:59.000Z</time>
      </trkpt>
      <trkpt lat="47.31488" lon="-2.40181">
        <ele>24</ele>
        <time>2020-01-19T09:15:00.000Z</time>
      </trkpt>
      <trkpt lat="47.31491" lon="-2.40184">
        <ele>24.39999961853</ele>
        <time>2020-01-19T09:15:01.000Z</time>
      </trkpt>
      <trkpt lat="47.31495" lon="-2.40187">
        <ele>24.799999237061</ele>
        <time>2020-01-19T09:15:02.000Z</time>
      </trkpt>
      <trkpt lat="47.31515" lon="-2.40202">
        <ele>24.799999237061</ele>
        <time>2020-01-19T09:15:08.000Z</time>
      </trkpt>
      <trkpt lat="47.31534" lon="-2.40217">
        <ele>24.799999237061</ele>
        <time>2020-01-19T09:15:14.000Z</time>
      </trkpt>
      <trkpt lat="47.31556" lon="-2.40234">
        <ele>24.799999237061</ele>
        <time>2020-01-19T09:15:20.000Z</time>
      </trkpt>
      <trkpt lat="47.31573" lon="-2.40249">
        <ele>25.200000762939</ele>
        <time>2020-01-19T09:15:25.000Z</time>
      </trkpt>
      <trkpt lat="47.31577" lon="-2.40251">
        <ele>25.60000038147</ele>
        <time>2020-01-19T09:15:26.000Z</time>
      </trkpt>
      <trkpt lat="47.31581" lon="-2.40255">
        <ele>26</ele>
        <time>2020-01-19T09:15:27.000Z</time>
      </trkpt>
      <trkpt lat="47.31585" lon="-2.40258">
        <ele>26.39999961853</ele>
        <time>2020-01-19T09:15:28.000Z</time>
      </trkpt>
      <trkpt lat="47.31589" lon="-2.40261">
        <ele>26.799999237061</ele>
        <time>2020-01-19T09:15:29.000Z</time>
      </trkpt>
      <trkpt lat="47.31602" lon="-2.4027">
        <ele>26.799999237061</ele>
        <time>2020-01-19T09:15:32.000Z</time>
      </trkpt>
      <trkpt lat="47.31627" lon="-2.40289">
        <ele>26.799999237061</ele>
        <time>2020-01-19T09:15:39.000Z</time>
      </trkpt>
      <trkpt lat="47.31644" lon="-2.40304">
        <ele>26.799999237061</ele>
        <time>2020-01-19T09:15:44.000Z</time>
      </trkpt>
      <trkpt lat="47.31657" lon="-2.40313">
        <ele>26.799999237061</ele>
        <time>2020-01-19T09:15:49.000Z</time>
      </trkpt>
      <trkpt lat="47.3166" lon="-2.40316">
        <ele>27.200000762939</ele>
        <time>2020-01-19T09:15:50.000Z</time>
      </trkpt>
      <trkpt lat="47.31662" lon="-2.40318">
        <ele>27.60000038147</ele>
        <time>2020-01-19T09:15:51.000Z</time>
      </trkpt>
      <trkpt lat="47.31665" lon="-2.40321">
        <ele>28</ele>
        <time>2020-01-19T09:15:52.000Z</time>
      </trkpt>
      <trkpt lat="47.31667" lon="-2.40323">
        <ele>28.39999961853</ele>
        <time>2020-01-19T09:15:53.000Z</time>
      </trkpt>
      <trkpt lat="47.31669" lon="-2.40325">
        <ele>28.799999237061</ele>
        <time>2020-01-19T09:15:54.000Z</time>
      </trkpt>
      <trkpt lat="47.3167" lon="-2.40327">
        <ele>28.799999237061</ele>
        <time>2020-01-19T09:15:55.000Z</time>
      </trkpt>
      <trkpt lat="47.31671" lon="-2.40328">
        <ele>28.799999237061</ele>
        <time>2020-01-19T09:15:56.000Z</time>
      </trkpt>
      <trkpt lat="47.31675" lon="-2.4033">
        <ele>28.799999237061</ele>
        <time>2020-01-19T09:15:58.000Z</time>
      </trkpt>
      <trkpt lat="47.3168" lon="-2.40326">
        <ele>28.799999237061</ele>
        <time>2020-01-19T09:16:01.000Z</time>
      </trkpt>
      <trkpt lat="47.31683" lon="-2.40329">
        <ele>28.799999237061</ele>
        <time>2020-01-19T09:16:05.000Z</time>
      </trkpt>
      <trkpt lat="47.31687" lon="-2.40331">
        <ele>28.799999237061</ele>
        <time>2020-01-19T09:18:50.000Z</time>
      </trkpt>
      <trkpt lat="47.3169" lon="-2.40335">
        <ele>28.799999237061</ele>
        <time>2020-01-19T09:18:52.000Z</time>
      </trkpt>
      <trkpt lat="47.31698" lon="-2.40342">
        <ele>28.799999237061</ele>
        <time>2020-01-19T09:18:55.000Z</time>
      </trkpt>
      <trkpt lat="47.31707" lon="-2.40348">
        <ele>28.799999237061</ele>
        <time>2020-01-19T09:18:59.000Z</time>
      </trkpt>
      <trkpt lat="47.31723" lon="-2.4036">
        <ele>28.799999237061</ele>
        <time>2020-01-19T09:19:04.000Z</time>
      </trkpt>
      <trkpt lat="47.31726" lon="-2.40363">
        <ele>29.200000762939</ele>
        <time>2020-01-19T09:19:05.000Z</time>
      </trkpt>
      <trkpt lat="47.31729" lon="-2.40365">
        <ele>29.60000038147</ele>
        <time>2020-01-19T09:19:06.000Z</time>
      </trkpt>
      <trkpt lat="47.31732" lon="-2.40368">
        <ele>30</ele>
        <time>2020-01-19T09:19:07.000Z</time>
      </trkpt>
      <trkpt lat="47.31736" lon="-2.40372">
        <ele>30.39999961853</ele>
        <time>2020-01-19T09:19:08.000Z</time>
      </trkpt>
      <trkpt lat="47.31739" lon="-2.40375">
        <ele>30.799999237061</ele>
        <time>2020-01-19T09:19:09.000Z</time>
      </trkpt>
      <trkpt lat="47.31743" lon="-2.40378">
        <ele>30.799999237061</ele>
        <time>2020-01-19T09:19:10.000Z</time>
      </trkpt>
      <trkpt lat="47.31765" lon="-2.40397">
        <ele>30.799999237061</ele>
        <time>2020-01-19T09:19:16.000Z</time>
      </trkpt>
      <trkpt lat="47.31783" lon="-2.40411">
        <ele>30.799999237061</ele>
        <time>2020-01-19T09:19:20.000Z</time>
      </trkpt>
      <trkpt lat="47.31792" lon="-2.40418">
        <ele>30.799999237061</ele>
        <time>2020-01-19T09:19:22.000Z</time>
      </trkpt>
      <trkpt lat="47.31817" lon="-2.4044">
        <ele>31.200000762939</ele>
        <time>2020-01-19T09:19:28.000Z</time>
      </trkpt>
      <trkpt lat="47.31822" lon="-2.40443">
        <ele>31.60000038147</ele>
        <time>2020-01-19T09:19:29.000Z</time>
      </trkpt>
      <trkpt lat="47.31825" lon="-2.40446">
        <ele>32</ele>
        <time>2020-01-19T09:19:30.000Z</time>
      </trkpt>
      <trkpt lat="47.3183" lon="-2.40448">
        <ele>32.400001525879</ele>
        <time>2020-01-19T09:19:31.000Z</time>
      </trkpt>
      <trkpt lat="47.31834" lon="-2.4045">
        <ele>32.799999237061</ele>
        <time>2020-01-19T09:19:32.000Z</time>
      </trkpt>
      <trkpt lat="47.31845" lon="-2.40457">
        <ele>32.799999237061</ele>
        <time>2020-01-19T09:19:35.000Z</time>
      </trkpt>
      <trkpt lat="47.31864" lon="-2.40471">
        <ele>32.799999237061</ele>
        <time>2020-01-19T09:19:40.000Z</time>
      </trkpt>
      <trkpt lat="47.31868" lon="-2.40474">
        <ele>32.799999237061</ele>
        <time>2020-01-19T09:19:41.000Z</time>
      </trkpt>
      <trkpt lat="47.31886" lon="-2.4049">
        <ele>32.799999237061</ele>
        <time>2020-01-19T09:19:46.000Z</time>
      </trkpt>
      <trkpt lat="47.319" lon="-2.405">
        <ele>32.799999237061</ele>
        <time>2020-01-19T09:19:49.000Z</time>
      </trkpt>
      <trkpt lat="47.31908" lon="-2.40507">
        <ele>32.799999237061</ele>
        <time>2020-01-19T09:19:51.000Z</time>
      </trkpt>
      <trkpt lat="47.31912" lon="-2.40511">
        <ele>33.200000762939</ele>
        <time>2020-01-19T09:19:52.000Z</time>
      </trkpt>
      <trkpt lat="47.31917" lon="-2.40514">
        <ele>33.599998474121</ele>
        <time>2020-01-19T09:19:53.000Z</time>
      </trkpt>
      <trkpt lat="47.31922" lon="-2.40516">
        <ele>34</ele>
        <time>2020-01-19T09:19:54.000Z</time>
      </trkpt>
      <trkpt lat="47.31926" lon="-2.40519">
        <ele>34.400001525879</ele>
        <time>2020-01-19T09:19:55.000Z</time>
      </trkpt>
      <trkpt lat="47.31931" lon="-2.40521">
        <ele>34.799999237061</ele>
        <time>2020-01-19T09:19:56.000Z</time>
      </trkpt>
      <trkpt lat="47.31935" lon="-2.40524">
        <ele>34.799999237061</ele>
        <time>2020-01-19T09:19:57.000Z</time>
      </trkpt>
      <trkpt lat="47.3196" lon="-2.40542">
        <ele>34.799999237061</ele>
        <time>2020-01-19T09:20:03.000Z</time>
      </trkpt>
      <trkpt lat="47.31987" lon="-2.40565">
        <ele>34.799999237061</ele>
        <time>2020-01-19T09:20:09.000Z</time>
      </trkpt>
      <trkpt lat="47.32015" lon="-2.40588">
        <ele>34.799999237061</ele>
        <time>2020-01-19T09:20:15.000Z</time>
      </trkpt>
      <trkpt lat="47.32043" lon="-2.40611">
        <ele>35.200000762939</ele>
        <time>2020-01-19T09:20:21.000Z</time>
      </trkpt>
      <trkpt lat="47.32049" lon="-2.40615">
        <ele>35.599998474121</ele>
        <time>2020-01-19T09:20:22.000Z</time>
      </trkpt>
      <trkpt lat="47.32053" lon="-2.4062">
        <ele>36</ele>
        <time>2020-01-19T09:20:23.000Z</time>
      </trkpt>
      <trkpt lat="47.32058" lon="-2.40624">
        <ele>36.599998474121</ele>
        <time>2020-01-19T09:20:24.000Z</time>
      </trkpt>
      <trkpt lat="47.32063" lon="-2.4063">
        <ele>37</ele>
        <time>2020-01-19T09:20:25.000Z</time>
      </trkpt>
      <trkpt lat="47.32069" lon="-2.40635">
        <ele>37</ele>
        <time>2020-01-19T09:20:26.000Z</time>
      </trkpt>
      <trkpt lat="47.32078" lon="-2.40644">
        <ele>37</ele>
        <time>2020-01-19T09:20:28.000Z</time>
      </trkpt>
      <trkpt lat="47.32092" lon="-2.40659">
        <ele>37</ele>
        <time>2020-01-19T09:20:31.000Z</time>
      </trkpt>
      <trkpt lat="47.32123" lon="-2.40693">
        <ele>37</ele>
        <time>2020-01-19T09:20:38.000Z</time>
      </trkpt>
      <trkpt lat="47.32149" lon="-2.40723">
        <ele>37.400001525879</ele>
        <time>2020-01-19T09:20:44.000Z</time>
      </trkpt>
      <trkpt lat="47.32153" lon="-2.40728">
        <ele>37.799999237061</ele>
        <time>2020-01-19T09:20:45.000Z</time>
      </trkpt>
      <trkpt lat="47.32157" lon="-2.40734">
        <ele>38.200000762939</ele>
        <time>2020-01-19T09:20:46.000Z</time>
      </trkpt>
      <trkpt lat="47.32162" lon="-2.40739">
        <ele>38.599998474121</ele>
        <time>2020-01-19T09:20:47.000Z</time>
      </trkpt>
      <trkpt lat="47.32166" lon="-2.40745">
        <ele>39</ele>
        <time>2020-01-19T09:20:48.000Z</time>
      </trkpt>
      <trkpt lat="47.32174" lon="-2.40755">
        <ele>39</ele>
        <time>2020-01-19T09:20:50.000Z</time>
      </trkpt>
      <trkpt lat="47.32194" lon="-2.40784">
        <ele>39</ele>
        <time>2020-01-19T09:20:56.000Z</time>
      </trkpt>
      <trkpt lat="47.32201" lon="-2.40792">
        <ele>39</ele>
        <time>2020-01-19T09:20:59.000Z</time>
      </trkpt>
      <trkpt lat="47.32206" lon="-2.40799">
        <ele>39</ele>
        <time>2020-01-19T09:21:02.000Z</time>
      </trkpt>
      <trkpt lat="47.32207" lon="-2.40802">
        <ele>39</ele>
        <time>2020-01-19T09:21:03.000Z</time>
      </trkpt>
      <trkpt lat="47.32216" lon="-2.40814">
        <ele>39</ele>
        <time>2020-01-19T09:21:06.000Z</time>
      </trkpt>
      <trkpt lat="47.32219" lon="-2.40817">
        <ele>39</ele>
        <time>2020-01-19T09:21:07.000Z</time>
      </trkpt>
      <trkpt lat="47.3223" lon="-2.40832">
        <ele>39</ele>
        <time>2020-01-19T09:21:10.000Z</time>
      </trkpt>
      <trkpt lat="47.32233" lon="-2.40838">
        <ele>39</ele>
        <time>2020-01-19T09:21:11.000Z</time>
      </trkpt>
      <trkpt lat="47.32262" lon="-2.40886">
        <ele>39</ele>
        <time>2020-01-19T09:21:19.000Z</time>
      </trkpt>
      <trkpt lat="47.32285" lon="-2.40928">
        <ele>39</ele>
        <time>2020-01-19T09:21:26.000Z</time>
      </trkpt>
      <trkpt lat="47.32319" lon="-2.40992">
        <ele>39</ele>
        <time>2020-01-19T09:21:36.000Z</time>
      </trkpt>
      <trkpt lat="47.32333" lon="-2.41017">
        <ele>39.400001525879</ele>
        <time>2020-01-19T09:21:40.000Z</time>
      </trkpt>
      <trkpt lat="47.32336" lon="-2.41023">
        <ele>39.799999237061</ele>
        <time>2020-01-19T09:21:41.000Z</time>
      </trkpt>
      <trkpt lat="47.32339" lon="-2.4103">
        <ele>40.200000762939</ele>
        <time>2020-01-19T09:21:42.000Z</time>
      </trkpt>
      <trkpt lat="47.32343" lon="-2.41037">
        <ele>40.599998474121</ele>
        <time>2020-01-19T09:21:43.000Z</time>
      </trkpt>
      <trkpt lat="47.32346" lon="-2.41043">
        <ele>41</ele>
        <time>2020-01-19T09:21:44.000Z</time>
      </trkpt>
      <trkpt lat="47.32349" lon="-2.41049">
        <ele>41</ele>
        <time>2020-01-19T09:21:45.000Z</time>
      </trkpt>
      <trkpt lat="47.32363" lon="-2.4108">
        <ele>41</ele>
        <time>2020-01-19T09:21:51.000Z</time>
      </trkpt>
      <trkpt lat="47.32368" lon="-2.41088">
        <ele>41</ele>
        <time>2020-01-19T09:21:54.000Z</time>
      </trkpt>
      <trkpt lat="47.32369" lon="-2.41092">
        <ele>41</ele>
        <time>2020-01-19T09:21:55.000Z</time>
      </trkpt>
      <trkpt lat="47.32381" lon="-2.41113">
        <ele>41</ele>
        <time>2020-01-19T09:22:00.000Z</time>
      </trkpt>
      <trkpt lat="47.32389" lon="-2.41128">
        <ele>41</ele>
        <time>2020-01-19T09:22:03.000Z</time>
      </trkpt>
      <trkpt lat="47.32397" lon="-2.41145">
        <ele>41</ele>
        <time>2020-01-19T09:22:06.000Z</time>
      </trkpt>
      <trkpt lat="47.32408" lon="-2.41166">
        <ele>41</ele>
        <time>2020-01-19T09:22:10.000Z</time>
      </trkpt>
      <trkpt lat="47.32413" lon="-2.41176">
        <ele>41</ele>
        <time>2020-01-19T09:22:12.000Z</time>
      </trkpt>
      <trkpt lat="47.32426" lon="-2.41199">
        <ele>41</ele>
        <time>2020-01-19T09:22:17.000Z</time>
      </trkpt>
      <trkpt lat="47.32429" lon="-2.41204">
        <ele>41</ele>
        <time>2020-01-19T09:22:18.000Z</time>
      </trkpt>
      <trkpt lat="47.32434" lon="-2.41216">
        <ele>41</ele>
        <time>2020-01-19T09:22:20.000Z</time>
      </trkpt>
      <trkpt lat="47.3244" lon="-2.41227">
        <ele>41</ele>
        <time>2020-01-19T09:22:22.000Z</time>
      </trkpt>
      <trkpt lat="47.32447" lon="-2.41239">
        <ele>41</ele>
        <time>2020-01-19T09:22:24.000Z</time>
      </trkpt>
      <trkpt lat="47.32473" lon="-2.41289">
        <ele>41</ele>
        <time>2020-01-19T09:22:33.000Z</time>
      </trkpt>
      <trkpt lat="47.32494" lon="-2.41329">
        <ele>41</ele>
        <time>2020-01-19T09:22:40.000Z</time>
      </trkpt>
      <trkpt lat="47.32518" lon="-2.41373">
        <ele>41</ele>
        <time>2020-01-19T09:22:47.000Z</time>
      </trkpt>
      <trkpt lat="47.32541" lon="-2.41416">
        <ele>41</ele>
        <time>2020-01-19T09:22:53.000Z</time>
      </trkpt>
      <trkpt lat="47.32544" lon="-2.41422">
        <ele>41</ele>
        <time>2020-01-19T09:22:54.000Z</time>
      </trkpt>
      <trkpt lat="47.32554" lon="-2.41443">
        <ele>41</ele>
        <time>2020-01-19T09:22:57.000Z</time>
      </trkpt>
      <trkpt lat="47.32556" lon="-2.41447">
        <ele>41</ele>
        <time>2020-01-19T09:22:58.000Z</time>
      </trkpt>
      <trkpt lat="47.32566" lon="-2.41466">
        <ele>41</ele>
        <time>2020-01-19T09:23:03.000Z</time>
      </trkpt>
      <trkpt lat="47.32568" lon="-2.41478">
        <ele>40.599998474121</ele>
        <time>2020-01-19T09:23:06.000Z</time>
      </trkpt>
      <trkpt lat="47.32569" lon="-2.41483">
        <ele>40.200000762939</ele>
        <time>2020-01-19T09:23:07.000Z</time>
      </trkpt>
      <trkpt lat="47.3257" lon="-2.41487">
        <ele>39.799999237061</ele>
        <time>2020-01-19T09:23:08.000Z</time>
      </trkpt>
      <trkpt lat="47.3257" lon="-2.41491">
        <ele>39.400001525879</ele>
        <time>2020-01-19T09:23:09.000Z</time>
      </trkpt>
      <trkpt lat="47.32572" lon="-2.41495">
        <ele>39</ele>
        <time>2020-01-19T09:23:10.000Z</time>
      </trkpt>
      <trkpt lat="47.32575" lon="-2.41512">
        <ele>39</ele>
        <time>2020-01-19T09:23:13.000Z</time>
      </trkpt>
      <trkpt lat="47.32587" lon="-2.41521">
        <ele>39</ele>
        <time>2020-01-19T09:23:16.000Z</time>
      </trkpt>
      <trkpt lat="47.32597" lon="-2.41522">
        <ele>39</ele>
        <time>2020-01-19T09:23:18.000Z</time>
      </trkpt>
      <trkpt lat="47.32617" lon="-2.41526">
        <ele>39</ele>
        <time>2020-01-19T09:23:22.000Z</time>
      </trkpt>
      <trkpt lat="47.32656" lon="-2.41534">
        <ele>39</ele>
        <time>2020-01-19T09:23:30.000Z</time>
      </trkpt>
      <trkpt lat="47.32683" lon="-2.41539">
        <ele>39</ele>
        <time>2020-01-19T09:23:35.000Z</time>
      </trkpt>
      <trkpt lat="47.32694" lon="-2.4154">
        <ele>39</ele>
        <time>2020-01-19T09:23:37.000Z</time>
      </trkpt>
      <trkpt lat="47.32702" lon="-2.41546">
        <ele>38.599998474121</ele>
        <time>2020-01-19T09:23:39.000Z</time>
      </trkpt>
      <trkpt lat="47.32703" lon="-2.41553">
        <ele>38.200000762939</ele>
        <time>2020-01-19T09:23:40.000Z</time>
      </trkpt>
      <trkpt lat="47.32702" lon="-2.41559">
        <ele>37.599998474121</ele>
        <time>2020-01-19T09:23:41.000Z</time>
      </trkpt>
      <trkpt lat="47.32702" lon="-2.41566">
        <ele>37.200000762939</ele>
        <time>2020-01-19T09:23:42.000Z</time>
      </trkpt>
      <trkpt lat="47.32701" lon="-2.41573">
        <ele>36.799999237061</ele>
        <time>2020-01-19T09:23:43.000Z</time>
      </trkpt>
      <trkpt lat="47.32701" lon="-2.41577">
        <ele>36.799999237061</ele>
        <time>2020-01-19T09:23:44.000Z</time>
      </trkpt>
      <trkpt lat="47.32702" lon="-2.4158">
        <ele>36.400001525879</ele>
        <time>2020-01-19T09:23:45.000Z</time>
      </trkpt>
      <trkpt lat="47.32704" lon="-2.41581">
        <ele>36</ele>
        <time>2020-01-19T09:23:46.000Z</time>
      </trkpt>
      <trkpt lat="47.32706" lon="-2.41584">
        <ele>35.200000762939</ele>
        <time>2020-01-19T09:23:47.000Z</time>
      </trkpt>
      <trkpt lat="47.32706" lon="-2.4159">
        <ele>34.799999237061</ele>
        <time>2020-01-19T09:23:48.000Z</time>
      </trkpt>
      <trkpt lat="47.32706" lon="-2.41595">
        <ele>34.799999237061</ele>
        <time>2020-01-19T09:23:49.000Z</time>
      </trkpt>
      <trkpt lat="47.32706" lon="-2.41602">
        <ele>34.799999237061</ele>
        <time>2020-01-19T09:23:50.000Z</time>
      </trkpt>
      <trkpt lat="47.32714" lon="-2.41619">
        <ele>34.799999237061</ele>
        <time>2020-01-19T09:23:53.000Z</time>
      </trkpt>
      <trkpt lat="47.32717" lon="-2.41624">
        <ele>34.799999237061</ele>
        <time>2020-01-19T09:23:54.000Z</time>
      </trkpt>
      <trkpt lat="47.32716" lon="-2.41627">
        <ele>34.799999237061</ele>
        <time>2020-01-19T09:23:55.000Z</time>
      </trkpt>
      <trkpt lat="47.32715" lon="-2.41629">
        <ele>34.799999237061</ele>
        <time>2020-01-19T09:23:56.000Z</time>
      </trkpt>
      <trkpt lat="47.32706" lon="-2.41628">
        <ele>34.799999237061</ele>
        <time>2020-01-19T09:23:59.000Z</time>
      </trkpt>
      <trkpt lat="47.32694" lon="-2.41628">
        <ele>34.799999237061</ele>
        <time>2020-01-19T09:24:02.000Z</time>
      </trkpt>
      <trkpt lat="47.3269" lon="-2.41627">
        <ele>34.799999237061</ele>
        <time>2020-01-19T09:24:03.000Z</time>
      </trkpt>
      <trkpt lat="47.32685" lon="-2.41627">
        <ele>34.799999237061</ele>
        <time>2020-01-19T09:24:04.000Z</time>
      </trkpt>
      <trkpt lat="47.32666" lon="-2.4162">
        <ele>34.799999237061</ele>
        <time>2020-01-19T09:24:08.000Z</time>
      </trkpt>
      <trkpt lat="47.32656" lon="-2.41617">
        <ele>34.799999237061</ele>
        <time>2020-01-19T09:24:10.000Z</time>
      </trkpt>
      <trkpt lat="47.32652" lon="-2.41615">
        <ele>35.200000762939</ele>
        <time>2020-01-19T09:24:11.000Z</time>
      </trkpt>
      <trkpt lat="47.32647" lon="-2.41613">
        <ele>36</ele>
        <time>2020-01-19T09:24:12.000Z</time>
      </trkpt>
      <trkpt lat="47.32642" lon="-2.41612">
        <ele>36.599998474121</ele>
        <time>2020-01-19T09:24:13.000Z</time>
      </trkpt>
      <trkpt lat="47.32637" lon="-2.4161">
        <ele>37</ele>
        <time>2020-01-19T09:24:14.000Z</time>
      </trkpt>
      <trkpt lat="47.32633" lon="-2.41608">
        <ele>37</ele>
        <time>2020-01-19T09:24:15.000Z</time>
      </trkpt>
      <trkpt lat="47.32621" lon="-2.41603">
        <ele>37</ele>
        <time>2020-01-19T09:24:18.000Z</time>
      </trkpt>
      <trkpt lat="47.32617" lon="-2.41602">
        <ele>37</ele>
        <time>2020-01-19T09:24:19.000Z</time>
      </trkpt>
      <trkpt lat="47.32613" lon="-2.41602">
        <ele>37.400001525879</ele>
        <time>2020-01-19T09:24:20.000Z</time>
      </trkpt>
      <trkpt lat="47.32609" lon="-2.41603">
        <ele>37.799999237061</ele>
        <time>2020-01-19T09:24:21.000Z</time>
      </trkpt>
      <trkpt lat="47.32604" lon="-2.41604">
        <ele>38.200000762939</ele>
        <time>2020-01-19T09:24:22.000Z</time>
      </trkpt>
      <trkpt lat="47.326" lon="-2.41605">
        <ele>38.799999237061</ele>
        <time>2020-01-19T09:24:23.000Z</time>
      </trkpt>
      <trkpt lat="47.32595" lon="-2.41605">
        <ele>39.200000762939</ele>
        <time>2020-01-19T09:24:24.000Z</time>
      </trkpt>
      <trkpt lat="47.32582" lon="-2.41603">
        <ele>39.200000762939</ele>
        <time>2020-01-19T09:24:27.000Z</time>
      </trkpt>
      <trkpt lat="47.3257" lon="-2.41591">
        <ele>39.200000762939</ele>
        <time>2020-01-19T09:24:30.000Z</time>
      </trkpt>
      <trkpt lat="47.32566" lon="-2.41587">
        <ele>39.200000762939</ele>
        <time>2020-01-19T09:24:31.000Z</time>
      </trkpt>
      <trkpt lat="47.32553" lon="-2.41577">
        <ele>39.200000762939</ele>
        <time>2020-01-19T09:24:34.000Z</time>
      </trkpt>
      <trkpt lat="47.32544" lon="-2.41576">
        <ele>39.200000762939</ele>
        <time>2020-01-19T09:24:36.000Z</time>
      </trkpt>
      <trkpt lat="47.32525" lon="-2.41582">
        <ele>39.200000762939</ele>
        <time>2020-01-19T09:24:40.000Z</time>
      </trkpt>
      <trkpt lat="47.32516" lon="-2.41586">
        <ele>39.200000762939</ele>
        <time>2020-01-19T09:24:42.000Z</time>
      </trkpt>
      <trkpt lat="47.32506" lon="-2.41588">
        <ele>39.200000762939</ele>
        <time>2020-01-19T09:24:44.000Z</time>
      </trkpt>
      <trkpt lat="47.32489" lon="-2.41585">
        <ele>39.200000762939</ele>
        <time>2020-01-19T09:24:47.000Z</time>
      </trkpt>
      <trkpt lat="47.32483" lon="-2.41583">
        <ele>39.200000762939</ele>
        <time>2020-01-19T09:24:48.000Z</time>
      </trkpt>
      <trkpt lat="47.32446" lon="-2.41567">
        <ele>39.200000762939</ele>
        <time>2020-01-19T09:24:55.000Z</time>
      </trkpt>
      <trkpt lat="47.32436" lon="-2.41565">
        <ele>39.200000762939</ele>
        <time>2020-01-19T09:24:57.000Z</time>
      </trkpt>
      <trkpt lat="47.3242" lon="-2.41566">
        <ele>39.200000762939</ele>
        <time>2020-01-19T09:25:00.000Z</time>
      </trkpt>
      <trkpt lat="47.32402" lon="-2.41565">
        <ele>39.200000762939</ele>
        <time>2020-01-19T09:25:03.000Z</time>
      </trkpt>
      <trkpt lat="47.3239" lon="-2.41558">
        <ele>39.200000762939</ele>
        <time>2020-01-19T09:25:05.000Z</time>
      </trkpt>
      <trkpt lat="47.32379" lon="-2.41551">
        <ele>39.200000762939</ele>
        <time>2020-01-19T09:25:07.000Z</time>
      </trkpt>
      <trkpt lat="47.32373" lon="-2.41549">
        <ele>39.200000762939</ele>
        <time>2020-01-19T09:25:08.000Z</time>
      </trkpt>
      <trkpt lat="47.32361" lon="-2.41545">
        <ele>39.200000762939</ele>
        <time>2020-01-19T09:25:10.000Z</time>
      </trkpt>
      <trkpt lat="47.32341" lon="-2.41551">
        <ele>39.200000762939</ele>
        <time>2020-01-19T09:25:14.000Z</time>
      </trkpt>
      <trkpt lat="47.32332" lon="-2.41559">
        <ele>39.200000762939</ele>
        <time>2020-01-19T09:25:17.000Z</time>
      </trkpt>
      <trkpt lat="47.32327" lon="-2.41565">
        <ele>39.200000762939</ele>
        <time>2020-01-19T09:25:19.000Z</time>
      </trkpt>
      <trkpt lat="47.32318" lon="-2.41587">
        <ele>39.200000762939</ele>
        <time>2020-01-19T09:25:24.000Z</time>
      </trkpt>
      <trkpt lat="47.32312" lon="-2.41613">
        <ele>39.200000762939</ele>
        <time>2020-01-19T09:25:29.000Z</time>
      </trkpt>
      <trkpt lat="47.32304" lon="-2.41633">
        <ele>39.200000762939</ele>
        <time>2020-01-19T09:25:34.000Z</time>
      </trkpt>
      <trkpt lat="47.32298" lon="-2.4166">
        <ele>39.200000762939</ele>
        <time>2020-01-19T09:25:39.000Z</time>
      </trkpt>
      <trkpt lat="47.32299" lon="-2.4169">
        <ele>39.200000762939</ele>
        <time>2020-01-19T09:25:43.000Z</time>
      </trkpt>
      <trkpt lat="47.323" lon="-2.41699">
        <ele>39.200000762939</ele>
        <time>2020-01-19T09:25:44.000Z</time>
      </trkpt>
      <trkpt lat="47.32297" lon="-2.41717">
        <ele>39.200000762939</ele>
        <time>2020-01-19T09:25:46.000Z</time>
      </trkpt>
      <trkpt lat="47.32292" lon="-2.41732">
        <ele>39.200000762939</ele>
        <time>2020-01-19T09:25:48.000Z</time>
      </trkpt>
      <trkpt lat="47.32284" lon="-2.41744">
        <ele>38.799999237061</ele>
        <time>2020-01-19T09:25:50.000Z</time>
      </trkpt>
      <trkpt lat="47.32283" lon="-2.41751">
        <ele>38</ele>
        <time>2020-01-19T09:25:51.000Z</time>
      </trkpt>
      <trkpt lat="47.32282" lon="-2.41758">
        <ele>37.599998474121</ele>
        <time>2020-01-19T09:25:52.000Z</time>
      </trkpt>
      <trkpt lat="47.32282" lon="-2.41765">
        <ele>37.200000762939</ele>
        <time>2020-01-19T09:25:53.000Z</time>
      </trkpt>
      <trkpt lat="47.32282" lon="-2.41776">
        <ele>37.200000762939</ele>
        <time>2020-01-19T09:25:55.000Z</time>
      </trkpt>
      <trkpt lat="47.32275" lon="-2.41795">
        <ele>37.200000762939</ele>
        <time>2020-01-19T09:25:59.000Z</time>
      </trkpt>
      <trkpt lat="47.32271" lon="-2.41801">
        <ele>37.200000762939</ele>
        <time>2020-01-19T09:26:00.000Z</time>
      </trkpt>
      <trkpt lat="47.32258" lon="-2.41827">
        <ele>37.200000762939</ele>
        <time>2020-01-19T09:26:04.000Z</time>
      </trkpt>
      <trkpt lat="47.32247" lon="-2.41855">
        <ele>37.200000762939</ele>
        <time>2020-01-19T09:26:08.000Z</time>
      </trkpt>
      <trkpt lat="47.32247" lon="-2.41861">
        <ele>37.200000762939</ele>
        <time>2020-01-19T09:26:09.000Z</time>
      </trkpt>
      <trkpt lat="47.3225" lon="-2.41866">
        <ele>36.799999237061</ele>
        <time>2020-01-19T09:26:11.000Z</time>
      </trkpt>
      <trkpt lat="47.32252" lon="-2.41869">
        <ele>36.400001525879</ele>
        <time>2020-01-19T09:26:12.000Z</time>
      </trkpt>
      <trkpt lat="47.32253" lon="-2.41873">
        <ele>35.799999237061</ele>
        <time>2020-01-19T09:26:13.000Z</time>
      </trkpt>
      <trkpt lat="47.32253" lon="-2.41879">
        <ele>35.400001525879</ele>
        <time>2020-01-19T09:26:14.000Z</time>
      </trkpt>
      <trkpt lat="47.32255" lon="-2.41884">
        <ele>35</ele>
        <time>2020-01-19T09:26:15.000Z</time>
      </trkpt>
      <trkpt lat="47.32264" lon="-2.41897">
        <ele>35</ele>
        <time>2020-01-19T09:26:18.000Z</time>
      </trkpt>
      <trkpt lat="47.32268" lon="-2.41902">
        <ele>35</ele>
        <time>2020-01-19T09:26:19.000Z</time>
      </trkpt>
      <trkpt lat="47.32281" lon="-2.41921">
        <ele>35</ele>
        <time>2020-01-19T09:26:23.000Z</time>
      </trkpt>
      <trkpt lat="47.32288" lon="-2.41928">
        <ele>35</ele>
        <time>2020-01-19T09:26:25.000Z</time>
      </trkpt>
      <trkpt lat="47.32292" lon="-2.41934">
        <ele>35</ele>
        <time>2020-01-19T09:26:26.000Z</time>
      </trkpt>
      <trkpt lat="47.32302" lon="-2.41952">
        <ele>35</ele>
        <time>2020-01-19T09:26:29.000Z</time>
      </trkpt>
      <trkpt lat="47.32306" lon="-2.41958">
        <ele>35</ele>
        <time>2020-01-19T09:26:30.000Z</time>
      </trkpt>
      <trkpt lat="47.32322" lon="-2.41976">
        <ele>35.599998474121</ele>
        <time>2020-01-19T09:26:34.000Z</time>
      </trkpt>
      <trkpt lat="47.32326" lon="-2.4198">
        <ele>36</ele>
        <time>2020-01-19T09:26:35.000Z</time>
      </trkpt>
      <trkpt lat="47.3233" lon="-2.41984">
        <ele>36.400001525879</ele>
        <time>2020-01-19T09:26:36.000Z</time>
      </trkpt>
      <trkpt lat="47.32335" lon="-2.41989">
        <ele>36.799999237061</ele>
        <time>2020-01-19T09:26:37.000Z</time>
      </trkpt>
      <trkpt lat="47.32339" lon="-2.41992">
        <ele>37.400001525879</ele>
        <time>2020-01-19T09:26:38.000Z</time>
      </trkpt>
      <trkpt lat="47.32352" lon="-2.42006">
        <ele>37.400001525879</ele>
        <time>2020-01-19T09:26:41.000Z</time>
      </trkpt>
      <trkpt lat="47.32357" lon="-2.42009">
        <ele>37.400001525879</ele>
        <time>2020-01-19T09:26:42.000Z</time>
      </trkpt>
      <trkpt lat="47.32371" lon="-2.42023">
        <ele>37.400001525879</ele>
        <time>2020-01-19T09:26:45.000Z</time>
      </trkpt>
      <trkpt lat="47.32393" lon="-2.42047">
        <ele>37.799999237061</ele>
        <time>2020-01-19T09:26:50.000Z</time>
      </trkpt>
      <trkpt lat="47.32398" lon="-2.42052">
        <ele>38.200000762939</ele>
        <time>2020-01-19T09:26:51.000Z</time>
      </trkpt>
      <trkpt lat="47.32402" lon="-2.42057">
        <ele>38.599998474121</ele>
        <time>2020-01-19T09:26:52.000Z</time>
      </trkpt>
      <trkpt lat="47.32406" lon="-2.42062">
        <ele>39</ele>
        <time>2020-01-19T09:26:53.000Z</time>
      </trkpt>
      <trkpt lat="47.3241" lon="-2.42066">
        <ele>39.400001525879</ele>
        <time>2020-01-19T09:26:54.000Z</time>
      </trkpt>
      <trkpt lat="47.32418" lon="-2.42075">
        <ele>39.799999237061</ele>
        <time>2020-01-19T09:26:56.000Z</time>
      </trkpt>
      <trkpt lat="47.32421" lon="-2.42079">
        <ele>40.200000762939</ele>
        <time>2020-01-19T09:26:57.000Z</time>
      </trkpt>
      <trkpt lat="47.32425" lon="-2.42083">
        <ele>40.599998474121</ele>
        <time>2020-01-19T09:26:58.000Z</time>
      </trkpt>
      <trkpt lat="47.32429" lon="-2.42087">
        <ele>41</ele>
        <time>2020-01-19T09:26:59.000Z</time>
      </trkpt>
      <trkpt lat="47.32432" lon="-2.42091">
        <ele>41.400001525879</ele>
        <time>2020-01-19T09:27:00.000Z</time>
      </trkpt>
      <trkpt lat="47.32449" lon="-2.42114">
        <ele>41.400001525879</ele>
        <time>2020-01-19T09:27:05.000Z</time>
      </trkpt>
      <trkpt lat="47.32453" lon="-2.42116">
        <ele>41.400001525879</ele>
        <time>2020-01-19T09:27:06.000Z</time>
      </trkpt>
      <trkpt lat="47.32465" lon="-2.42125">
        <ele>41.400001525879</ele>
        <time>2020-01-19T09:27:09.000Z</time>
      </trkpt>
      <trkpt lat="47.3249" lon="-2.42149">
        <ele>41.400001525879</ele>
        <time>2020-01-19T09:27:16.000Z</time>
      </trkpt>
      <trkpt lat="47.32493" lon="-2.42155">
        <ele>42</ele>
        <time>2020-01-19T09:27:17.000Z</time>
      </trkpt>
      <trkpt lat="47.32495" lon="-2.42161">
        <ele>42.400001525879</ele>
        <time>2020-01-19T09:27:18.000Z</time>
      </trkpt>
      <trkpt lat="47.32498" lon="-2.42167">
        <ele>42.799999237061</ele>
        <time>2020-01-19T09:27:19.000Z</time>
      </trkpt>
      <trkpt lat="47.32501" lon="-2.42173">
        <ele>43.200000762939</ele>
        <time>2020-01-19T09:27:20.000Z</time>
      </trkpt>
      <trkpt lat="47.32505" lon="-2.42179">
        <ele>43.599998474121</ele>
        <time>2020-01-19T09:27:21.000Z</time>
      </trkpt>
      <trkpt lat="47.32511" lon="-2.42195">
        <ele>43.200000762939</ele>
        <time>2020-01-19T09:27:23.000Z</time>
      </trkpt>
      <trkpt lat="47.32514" lon="-2.42202">
        <ele>42.599998474121</ele>
        <time>2020-01-19T09:27:24.000Z</time>
      </trkpt>
      <trkpt lat="47.32518" lon="-2.42209">
        <ele>42.200000762939</ele>
        <time>2020-01-19T09:27:25.000Z</time>
      </trkpt>
      <trkpt lat="47.32522" lon="-2.42216">
        <ele>41.599998474121</ele>
        <time>2020-01-19T09:27:26.000Z</time>
      </trkpt>
      <trkpt lat="47.32526" lon="-2.42223">
        <ele>41</ele>
        <time>2020-01-19T09:27:27.000Z</time>
      </trkpt>
      <trkpt lat="47.32535" lon="-2.42238">
        <ele>40.599998474121</ele>
        <time>2020-01-19T09:27:29.000Z</time>
      </trkpt>
      <trkpt lat="47.32539" lon="-2.42246">
        <ele>39.799999237061</ele>
        <time>2020-01-19T09:27:30.000Z</time>
      </trkpt>
      <trkpt lat="47.32543" lon="-2.42253">
        <ele>39.200000762939</ele>
        <time>2020-01-19T09:27:31.000Z</time>
      </trkpt>
      <trkpt lat="47.32547" lon="-2.42261">
        <ele>38.799999237061</ele>
        <time>2020-01-19T09:27:32.000Z</time>
      </trkpt>
      <trkpt lat="47.32575" lon="-2.42311">
        <ele>38.799999237061</ele>
        <time>2020-01-19T09:27:39.000Z</time>
      </trkpt>
      <trkpt lat="47.32595" lon="-2.42353">
        <ele>38.400001525879</ele>
        <time>2020-01-19T09:27:45.000Z</time>
      </trkpt>
      <trkpt lat="47.32599" lon="-2.4236">
        <ele>38</ele>
        <time>2020-01-19T09:27:46.000Z</time>
      </trkpt>
      <trkpt lat="47.32603" lon="-2.42367">
        <ele>37.400001525879</ele>
        <time>2020-01-19T09:27:47.000Z</time>
      </trkpt>
      <trkpt lat="47.32606" lon="-2.42374">
        <ele>37</ele>
        <time>2020-01-19T09:27:48.000Z</time>
      </trkpt>
      <trkpt lat="47.3261" lon="-2.4238">
        <ele>36.599998474121</ele>
        <time>2020-01-19T09:27:49.000Z</time>
      </trkpt>
      <trkpt lat="47.32623" lon="-2.42406">
        <ele>36.599998474121</ele>
        <time>2020-01-19T09:27:53.000Z</time>
      </trkpt>
      <trkpt lat="47.32641" lon="-2.42445">
        <ele>36.599998474121</ele>
        <time>2020-01-19T09:28:00.000Z</time>
      </trkpt>
      <trkpt lat="47.3265" lon="-2.42458">
        <ele>36.599998474121</ele>
        <time>2020-01-19T09:28:04.000Z</time>
      </trkpt>
      <trkpt lat="47.32658" lon="-2.42476">
        <ele>36.599998474121</ele>
        <time>2020-01-19T09:28:08.000Z</time>
      </trkpt>
      <trkpt lat="47.32662" lon="-2.42488">
        <ele>36.599998474121</ele>
        <time>2020-01-19T09:28:10.000Z</time>
      </trkpt>
      <trkpt lat="47.32665" lon="-2.42505">
        <ele>36.599998474121</ele>
        <time>2020-01-19T09:28:13.000Z</time>
      </trkpt>
      <trkpt lat="47.32666" lon="-2.4251">
        <ele>36.599998474121</ele>
        <time>2020-01-19T09:28:14.000Z</time>
      </trkpt>
      <trkpt lat="47.32672" lon="-2.42526">
        <ele>36.599998474121</ele>
        <time>2020-01-19T09:28:17.000Z</time>
      </trkpt>
      <trkpt lat="47.32674" lon="-2.42533">
        <ele>36.599998474121</ele>
        <time>2020-01-19T09:28:18.000Z</time>
      </trkpt>
      <trkpt lat="47.32684" lon="-2.42573">
        <ele>36.599998474121</ele>
        <time>2020-01-19T09:28:24.000Z</time>
      </trkpt>
      <trkpt lat="47.32699" lon="-2.42624">
        <ele>36.599998474121</ele>
        <time>2020-01-19T09:28:32.000Z</time>
      </trkpt>
      <trkpt lat="47.32712" lon="-2.42659">
        <ele>36.599998474121</ele>
        <time>2020-01-19T09:28:38.000Z</time>
      </trkpt>
      <trkpt lat="47.32715" lon="-2.42664">
        <ele>36.599998474121</ele>
        <time>2020-01-19T09:28:39.000Z</time>
      </trkpt>
      <trkpt lat="47.32725" lon="-2.42673">
        <ele>36.599998474121</ele>
        <time>2020-01-19T09:28:42.000Z</time>
      </trkpt>
      <trkpt lat="47.32739" lon="-2.42671">
        <ele>36.599998474121</ele>
        <time>2020-01-19T09:28:46.000Z</time>
      </trkpt>
      <trkpt lat="47.32745" lon="-2.42674">
        <ele>36.599998474121</ele>
        <time>2020-01-19T09:28:48.000Z</time>
      </trkpt>
      <trkpt lat="47.32745" lon="-2.42678">
        <ele>36.599998474121</ele>
        <time>2020-01-19T09:28:49.000Z</time>
      </trkpt>
      <trkpt lat="47.32739" lon="-2.42689">
        <ele>36.200000762939</ele>
        <time>2020-01-19T09:28:52.000Z</time>
      </trkpt>
      <trkpt lat="47.32736" lon="-2.42692">
        <ele>35.799999237061</ele>
        <time>2020-01-19T09:28:53.000Z</time>
      </trkpt>
      <trkpt lat="47.32732" lon="-2.42693">
        <ele>35.400001525879</ele>
        <time>2020-01-19T09:28:54.000Z</time>
      </trkpt>
      <trkpt lat="47.32728" lon="-2.42696">
        <ele>35</ele>
        <time>2020-01-19T09:28:55.000Z</time>
      </trkpt>
      <trkpt lat="47.32724" lon="-2.42699">
        <ele>34.400001525879</ele>
        <time>2020-01-19T09:28:56.000Z</time>
      </trkpt>
      <trkpt lat="47.32717" lon="-2.42696">
        <ele>34.400001525879</ele>
        <time>2020-01-19T09:28:59.000Z</time>
      </trkpt>
      <trkpt lat="47.3271" lon="-2.42701">
        <ele>34.400001525879</ele>
        <time>2020-01-19T09:29:02.000Z</time>
      </trkpt>
      <trkpt lat="47.32707" lon="-2.42704">
        <ele>34.400001525879</ele>
        <time>2020-01-19T09:29:03.000Z</time>
      </trkpt>
      <trkpt lat="47.32697" lon="-2.4272">
        <ele>34.400001525879</ele>
        <time>2020-01-19T09:29:07.000Z</time>
      </trkpt>
      <trkpt lat="47.32694" lon="-2.42725">
        <ele>34.400001525879</ele>
        <time>2020-01-19T09:29:08.000Z</time>
      </trkpt>
      <trkpt lat="47.32686" lon="-2.42739">
        <ele>34.400001525879</ele>
        <time>2020-01-19T09:29:11.000Z</time>
      </trkpt>
      <trkpt lat="47.32683" lon="-2.42745">
        <ele>34.400001525879</ele>
        <time>2020-01-19T09:29:12.000Z</time>
      </trkpt>
      <trkpt lat="47.3267" lon="-2.42766">
        <ele>34.400001525879</ele>
        <time>2020-01-19T09:29:16.000Z</time>
      </trkpt>
      <trkpt lat="47.32665" lon="-2.42777">
        <ele>34.400001525879</ele>
        <time>2020-01-19T09:29:18.000Z</time>
      </trkpt>
      <trkpt lat="47.32652" lon="-2.42803">
        <ele>34.400001525879</ele>
        <time>2020-01-19T09:29:23.000Z</time>
      </trkpt>
      <trkpt lat="47.32649" lon="-2.42817">
        <ele>34.400001525879</ele>
        <time>2020-01-19T09:29:25.000Z</time>
      </trkpt>
      <trkpt lat="47.32638" lon="-2.42863">
        <ele>34.400001525879</ele>
        <time>2020-01-19T09:29:32.000Z</time>
      </trkpt>
      <trkpt lat="47.32636" lon="-2.42875">
        <ele>34.400001525879</ele>
        <time>2020-01-19T09:29:34.000Z</time>
      </trkpt>
      <trkpt lat="47.32633" lon="-2.42896">
        <ele>34.400001525879</ele>
        <time>2020-01-19T09:29:37.000Z</time>
      </trkpt>
      <trkpt lat="47.3263" lon="-2.42917">
        <ele>34.400001525879</ele>
        <time>2020-01-19T09:29:40.000Z</time>
      </trkpt>
      <trkpt lat="47.32627" lon="-2.42936">
        <ele>34.400001525879</ele>
        <time>2020-01-19T09:29:43.000Z</time>
      </trkpt>
      <trkpt lat="47.32626" lon="-2.42942">
        <ele>34.400001525879</ele>
        <time>2020-01-19T09:29:44.000Z</time>
      </trkpt>
      <trkpt lat="47.3262" lon="-2.42971">
        <ele>34.400001525879</ele>
        <time>2020-01-19T09:29:48.000Z</time>
      </trkpt>
      <trkpt lat="47.32619" lon="-2.42999">
        <ele>34.400001525879</ele>
        <time>2020-01-19T09:29:52.000Z</time>
      </trkpt>
      <trkpt lat="47.3262" lon="-2.43023">
        <ele>34.400001525879</ele>
        <time>2020-01-19T09:29:55.000Z</time>
      </trkpt>
      <trkpt lat="47.32621" lon="-2.43036">
        <ele>34.400001525879</ele>
        <time>2020-01-19T09:29:57.000Z</time>
      </trkpt>
      <trkpt lat="47.32623" lon="-2.43053">
        <ele>34.400001525879</ele>
        <time>2020-01-19T09:29:59.000Z</time>
      </trkpt>
      <trkpt lat="47.32624" lon="-2.43062">
        <ele>34.400001525879</ele>
        <time>2020-01-19T09:30:01.000Z</time>
      </trkpt>
      <trkpt lat="47.32624" lon="-2.43068">
        <ele>34.400001525879</ele>
        <time>2020-01-19T09:30:04.000Z</time>
      </trkpt>
      <trkpt lat="47.32622" lon="-2.43072">
        <ele>34.400001525879</ele>
        <time>2020-01-19T09:30:06.000Z</time>
      </trkpt>
      <trkpt lat="47.32617" lon="-2.43075">
        <ele>34.400001525879</ele>
        <time>2020-01-19T09:30:09.000Z</time>
      </trkpt>
      <trkpt lat="47.32601" lon="-2.43074">
        <ele>34.400001525879</ele>
        <time>2020-01-19T09:30:13.000Z</time>
      </trkpt>
      <trkpt lat="47.32592" lon="-2.43077">
        <ele>34.400001525879</ele>
        <time>2020-01-19T09:30:15.000Z</time>
      </trkpt>
      <trkpt lat="47.32577" lon="-2.43081">
        <ele>34.400001525879</ele>
        <time>2020-01-19T09:30:18.000Z</time>
      </trkpt>
      <trkpt lat="47.32567" lon="-2.43082">
        <ele>34.400001525879</ele>
        <time>2020-01-19T09:30:20.000Z</time>
      </trkpt>
      <trkpt lat="47.3254" lon="-2.43084">
        <ele>34.400001525879</ele>
        <time>2020-01-19T09:30:25.000Z</time>
      </trkpt>
      <trkpt lat="47.32527" lon="-2.43083">
        <ele>34</ele>
        <time>2020-01-19T09:30:27.000Z</time>
      </trkpt>
      <trkpt lat="47.32521" lon="-2.43082">
        <ele>33.599998474121</ele>
        <time>2020-01-19T09:30:28.000Z</time>
      </trkpt>
      <trkpt lat="47.32514" lon="-2.43082">
        <ele>33</ele>
        <time>2020-01-19T09:30:29.000Z</time>
      </trkpt>
      <trkpt lat="47.32508" lon="-2.43082">
        <ele>32.599998474121</ele>
        <time>2020-01-19T09:30:30.000Z</time>
      </trkpt>
      <trkpt lat="47.32502" lon="-2.43081">
        <ele>32.200000762939</ele>
        <time>2020-01-19T09:30:31.000Z</time>
      </trkpt>
      <trkpt lat="47.32474" lon="-2.4308">
        <ele>32.200000762939</ele>
        <time>2020-01-19T09:30:35.000Z</time>
      </trkpt>
      <trkpt lat="47.32467" lon="-2.43079">
        <ele>31.799999237061</ele>
        <time>2020-01-19T09:30:36.000Z</time>
      </trkpt>
      <trkpt lat="47.32459" lon="-2.43078">
        <ele>31.39999961853</ele>
        <time>2020-01-19T09:30:37.000Z</time>
      </trkpt>
      <trkpt lat="47.32451" lon="-2.43078">
        <ele>31</ele>
        <time>2020-01-19T09:30:38.000Z</time>
      </trkpt>
      <trkpt lat="47.32442" lon="-2.43076">
        <ele>30.60000038147</ele>
        <time>2020-01-19T09:30:39.000Z</time>
      </trkpt>
      <trkpt lat="47.32434" lon="-2.43075">
        <ele>30.200000762939</ele>
        <time>2020-01-19T09:30:40.000Z</time>
      </trkpt>
      <trkpt lat="47.32418" lon="-2.43072">
        <ele>30.200000762939</ele>
        <time>2020-01-19T09:30:42.000Z</time>
      </trkpt>
      <trkpt lat="47.32402" lon="-2.43069">
        <ele>29.60000038147</ele>
        <time>2020-01-19T09:30:44.000Z</time>
      </trkpt>
      <trkpt lat="47.32393" lon="-2.43069">
        <ele>29</ele>
        <time>2020-01-19T09:30:45.000Z</time>
      </trkpt>
      <trkpt lat="47.32383" lon="-2.4307">
        <ele>28.39999961853</ele>
        <time>2020-01-19T09:30:46.000Z</time>
      </trkpt>
      <trkpt lat="47.32374" lon="-2.43073">
        <ele>27.799999237061</ele>
        <time>2020-01-19T09:30:47.000Z</time>
      </trkpt>
      <trkpt lat="47.32365" lon="-2.43076">
        <ele>26.60000038147</ele>
        <time>2020-01-19T09:30:48.000Z</time>
      </trkpt>
      <trkpt lat="47.32355" lon="-2.43078">
        <ele>26</ele>
        <time>2020-01-19T09:30:49.000Z</time>
      </trkpt>
      <trkpt lat="47.32346" lon="-2.43082">
        <ele>25.39999961853</ele>
        <time>2020-01-19T09:30:50.000Z</time>
      </trkpt>
      <trkpt lat="47.32319" lon="-2.43096">
        <ele>25.39999961853</ele>
        <time>2020-01-19T09:30:53.000Z</time>
      </trkpt>
      <trkpt lat="47.32302" lon="-2.43108">
        <ele>24.799999237061</ele>
        <time>2020-01-19T09:30:55.000Z</time>
      </trkpt>
      <trkpt lat="47.32293" lon="-2.43112">
        <ele>24.39999961853</ele>
        <time>2020-01-19T09:30:56.000Z</time>
      </trkpt>
      <trkpt lat="47.32286" lon="-2.43116">
        <ele>24</ele>
        <time>2020-01-19T09:30:57.000Z</time>
      </trkpt>
      <trkpt lat="47.32278" lon="-2.4312">
        <ele>23.60000038147</ele>
        <time>2020-01-19T09:30:58.000Z</time>
      </trkpt>
      <trkpt lat="47.32271" lon="-2.43124">
        <ele>23.200000762939</ele>
        <time>2020-01-19T09:30:59.000Z</time>
      </trkpt>
      <trkpt lat="47.32236" lon="-2.43137">
        <ele>23.200000762939</ele>
        <time>2020-01-19T09:31:04.000Z</time>
      </trkpt>
      <trkpt lat="47.32229" lon="-2.4314">
        <ele>22.799999237061</ele>
        <time>2020-01-19T09:31:05.000Z</time>
      </trkpt>
      <trkpt lat="47.32222" lon="-2.43144">
        <ele>22.39999961853</ele>
        <time>2020-01-19T09:31:06.000Z</time>
      </trkpt>
      <trkpt lat="47.32216" lon="-2.43148">
        <ele>22</ele>
        <time>2020-01-19T09:31:07.000Z</time>
      </trkpt>
      <trkpt lat="47.32209" lon="-2.43151">
        <ele>21.39999961853</ele>
        <time>2020-01-19T09:31:08.000Z</time>
      </trkpt>
      <trkpt lat="47.32202" lon="-2.43154">
        <ele>21</ele>
        <time>2020-01-19T09:31:09.000Z</time>
      </trkpt>
      <trkpt lat="47.32175" lon="-2.43166">
        <ele>20.60000038147</ele>
        <time>2020-01-19T09:31:13.000Z</time>
      </trkpt>
      <trkpt lat="47.32167" lon="-2.4317">
        <ele>20.200000762939</ele>
        <time>2020-01-19T09:31:14.000Z</time>
      </trkpt>
      <trkpt lat="47.3216" lon="-2.43173">
        <ele>19.60000038147</ele>
        <time>2020-01-19T09:31:15.000Z</time>
      </trkpt>
      <trkpt lat="47.32153" lon="-2.43176">
        <ele>19.200000762939</ele>
        <time>2020-01-19T09:31:16.000Z</time>
      </trkpt>
      <trkpt lat="47.32146" lon="-2.43179">
        <ele>18.799999237061</ele>
        <time>2020-01-19T09:31:17.000Z</time>
      </trkpt>
      <trkpt lat="47.32111" lon="-2.43196">
        <ele>18.39999961853</ele>
        <time>2020-01-19T09:31:22.000Z</time>
      </trkpt>
      <trkpt lat="47.32103" lon="-2.43198">
        <ele>17.799999237061</ele>
        <time>2020-01-19T09:31:23.000Z</time>
      </trkpt>
      <trkpt lat="47.32095" lon="-2.43202">
        <ele>17.39999961853</ele>
        <time>2020-01-19T09:31:24.000Z</time>
      </trkpt>
      <trkpt lat="47.32088" lon="-2.43207">
        <ele>17</ele>
        <time>2020-01-19T09:31:25.000Z</time>
      </trkpt>
      <trkpt lat="47.32081" lon="-2.43209">
        <ele>16.60000038147</ele>
        <time>2020-01-19T09:31:26.000Z</time>
      </trkpt>
      <trkpt lat="47.32051" lon="-2.43225">
        <ele>16.60000038147</ele>
        <time>2020-01-19T09:31:30.000Z</time>
      </trkpt>
      <trkpt lat="47.32045" lon="-2.43231">
        <ele>16.60000038147</ele>
        <time>2020-01-19T09:31:31.000Z</time>
      </trkpt>
      <trkpt lat="47.32022" lon="-2.43245">
        <ele>16.200000762939</ele>
        <time>2020-01-19T09:31:34.000Z</time>
      </trkpt>
      <trkpt lat="47.32014" lon="-2.43251">
        <ele>15.800000190735</ele>
        <time>2020-01-19T09:31:35.000Z</time>
      </trkpt>
      <trkpt lat="47.32006" lon="-2.43257">
        <ele>15.39999961853</ele>
        <time>2020-01-19T09:31:36.000Z</time>
      </trkpt>
      <trkpt lat="47.31998" lon="-2.43262">
        <ele>14.39999961853</ele>
        <time>2020-01-19T09:31:37.000Z</time>
      </trkpt>
      <trkpt lat="47.31991" lon="-2.43267">
        <ele>14</ele>
        <time>2020-01-19T09:31:38.000Z</time>
      </trkpt>
      <trkpt lat="47.31985" lon="-2.43272">
        <ele>13.39999961853</ele>
        <time>2020-01-19T09:31:39.000Z</time>
      </trkpt>
      <trkpt lat="47.3198" lon="-2.43276">
        <ele>12.800000190735</ele>
        <time>2020-01-19T09:31:40.000Z</time>
      </trkpt>
      <trkpt lat="47.31977" lon="-2.4328">
        <ele>12.199999809265</ele>
        <time>2020-01-19T09:31:41.000Z</time>
      </trkpt>
      <trkpt lat="47.31975" lon="-2.43287">
        <ele>11.60000038147</ele>
        <time>2020-01-19T09:31:42.000Z</time>
      </trkpt>
      <trkpt lat="47.31974" lon="-2.43295">
        <ele>11</ele>
        <time>2020-01-19T09:31:43.000Z</time>
      </trkpt>
      <trkpt lat="47.31974" lon="-2.43303">
        <ele>10.39999961853</ele>
        <time>2020-01-19T09:31:44.000Z</time>
      </trkpt>
      <trkpt lat="47.31971" lon="-2.43345">
        <ele>10.39999961853</ele>
        <time>2020-01-19T09:31:49.000Z</time>
      </trkpt>
      <trkpt lat="47.31964" lon="-2.43374">
        <ele>10.39999961853</ele>
        <time>2020-01-19T09:31:52.000Z</time>
      </trkpt>
      <trkpt lat="47.31958" lon="-2.43393">
        <ele>10</ele>
        <time>2020-01-19T09:31:54.000Z</time>
      </trkpt>
      <trkpt lat="47.31955" lon="-2.43403">
        <ele>9.6000003814697</ele>
        <time>2020-01-19T09:31:55.000Z</time>
      </trkpt>
      <trkpt lat="47.31952" lon="-2.43413">
        <ele>9.1999998092651</ele>
        <time>2020-01-19T09:31:56.000Z</time>
      </trkpt>
      <trkpt lat="47.31948" lon="-2.43423">
        <ele>8.8000001907349</ele>
        <time>2020-01-19T09:31:57.000Z</time>
      </trkpt>
      <trkpt lat="47.31945" lon="-2.43433">
        <ele>8.3999996185303</ele>
        <time>2020-01-19T09:31:58.000Z</time>
      </trkpt>
      <trkpt lat="47.31938" lon="-2.43454">
        <ele>7.8000001907349</ele>
        <time>2020-01-19T09:32:00.000Z</time>
      </trkpt>
      <trkpt lat="47.31935" lon="-2.43465">
        <ele>7.4000000953674</ele>
        <time>2020-01-19T09:32:01.000Z</time>
      </trkpt>
      <trkpt lat="47.31931" lon="-2.43476">
        <ele>6.4000000953674</ele>
        <time>2020-01-19T09:32:02.000Z</time>
      </trkpt>
      <trkpt lat="47.31929" lon="-2.43488">
        <ele>6</ele>
        <time>2020-01-19T09:32:03.000Z</time>
      </trkpt>
      <trkpt lat="47.31928" lon="-2.435">
        <ele>5.4000000953674</ele>
        <time>2020-01-19T09:32:04.000Z</time>
      </trkpt>
      <trkpt lat="47.31927" lon="-2.43512">
        <ele>4.8000001907349</ele>
        <time>2020-01-19T09:32:05.000Z</time>
      </trkpt>
      <trkpt lat="47.31927" lon="-2.43524">
        <ele>4.1999998092651</ele>
        <time>2020-01-19T09:32:06.000Z</time>
      </trkpt>
      <trkpt lat="47.31928" lon="-2.43536">
        <ele>3.7999999523163</ele>
        <time>2020-01-19T09:32:07.000Z</time>
      </trkpt>
      <trkpt lat="47.31929" lon="-2.43561">
        <ele>3.7999999523163</ele>
        <time>2020-01-19T09:32:09.000Z</time>
      </trkpt>
      <trkpt lat="47.31927" lon="-2.43584">
        <ele>3.7999999523163</ele>
        <time>2020-01-19T09:32:11.000Z</time>
      </trkpt>
      <trkpt lat="47.31919" lon="-2.436">
        <ele>3.2000000476837</ele>
        <time>2020-01-19T09:32:13.000Z</time>
      </trkpt>
      <trkpt lat="47.31914" lon="-2.43607">
        <ele>2.5999999046326</ele>
        <time>2020-01-19T09:32:14.000Z</time>
      </trkpt>
      <trkpt lat="47.31907" lon="-2.43613">
        <ele>2</ele>
        <time>2020-01-19T09:32:15.000Z</time>
      </trkpt>
      <trkpt lat="47.319" lon="-2.43617">
        <ele>1.3999999761581</ele>
        <time>2020-01-19T09:32:16.000Z</time>
      </trkpt>
      <trkpt lat="47.31895" lon="-2.43622">
        <ele>0.80000001192093</ele>
        <time>2020-01-19T09:32:17.000Z</time>
      </trkpt>
      <trkpt lat="47.3189" lon="-2.43629">
        <ele>0.20000000298023</ele>
        <time>2020-01-19T09:32:18.000Z</time>
      </trkpt>
      <trkpt lat="47.31888" lon="-2.43637">
        <ele>-0.40000000596046</ele>
        <time>2020-01-19T09:32:19.000Z</time>
      </trkpt>
      <trkpt lat="47.31888" lon="-2.43644">
        <ele>-1</ele>
        <time>2020-01-19T09:32:20.000Z</time>
      </trkpt>
      <trkpt lat="47.3189" lon="-2.43651">
        <ele>-1.6000000238419</ele>
        <time>2020-01-19T09:32:21.000Z</time>
      </trkpt>
      <trkpt lat="47.31893" lon="-2.43657">
        <ele>-2</ele>
        <time>2020-01-19T09:32:22.000Z</time>
      </trkpt>
      <trkpt lat="47.31897" lon="-2.43663">
        <ele>-2.4000000953674</ele>
        <time>2020-01-19T09:32:23.000Z</time>
      </trkpt>
      <trkpt lat="47.31901" lon="-2.43669">
        <ele>-2.7999999523163</ele>
        <time>2020-01-19T09:32:24.000Z</time>
      </trkpt>
      <trkpt lat="47.31904" lon="-2.43676">
        <ele>-3.2000000476837</ele>
        <time>2020-01-19T09:32:25.000Z</time>
      </trkpt>
      <trkpt lat="47.31908" lon="-2.43683">
        <ele>-3.5999999046326</ele>
        <time>2020-01-19T09:32:26.000Z</time>
      </trkpt>
      <trkpt lat="47.31919" lon="-2.43704">
        <ele>-3.5999999046326</ele>
        <time>2020-01-19T09:32:29.000Z</time>
      </trkpt>
      <trkpt lat="47.31925" lon="-2.43722">
        <ele>-3.5999999046326</ele>
        <time>2020-01-19T09:32:31.000Z</time>
      </trkpt>
      <trkpt lat="47.31934" lon="-2.43746">
        <ele>-3.5999999046326</ele>
        <time>2020-01-19T09:32:34.000Z</time>
      </trkpt>
      <trkpt lat="47.31955" lon="-2.43801">
        <ele>-3.5999999046326</ele>
        <time>2020-01-19T09:32:41.000Z</time>
      </trkpt>
      <trkpt lat="47.3197" lon="-2.43826">
        <ele>-3.2000000476837</ele>
        <time>2020-01-19T09:32:45.000Z</time>
      </trkpt>
      <trkpt lat="47.31974" lon="-2.43832">
        <ele>-2.7999999523163</ele>
        <time>2020-01-19T09:32:46.000Z</time>
      </trkpt>
      <trkpt lat="47.31978" lon="-2.43836">
        <ele>-2.4000000953674</ele>
        <time>2020-01-19T09:32:47.000Z</time>
      </trkpt>
      <trkpt lat="47.31983" lon="-2.43838">
        <ele>-2</ele>
        <time>2020-01-19T09:32:48.000Z</time>
      </trkpt>
      <trkpt lat="47.31989" lon="-2.43839">
        <ele>-1.6000000238419</ele>
        <time>2020-01-19T09:32:49.000Z</time>
      </trkpt>
      <trkpt lat="47.32001" lon="-2.43825">
        <ele>-1</ele>
        <time>2020-01-19T09:32:52.000Z</time>
      </trkpt>
      <trkpt lat="47.32005" lon="-2.43821">
        <ele>-0.60000002384186</ele>
        <time>2020-01-19T09:32:53.000Z</time>
      </trkpt>
      <trkpt lat="47.32008" lon="-2.43817">
        <ele>-0.20000000298023</ele>
        <time>2020-01-19T09:32:54.000Z</time>
      </trkpt>
      <trkpt lat="47.32012" lon="-2.43813">
        <ele>0.40000000596046</ele>
        <time>2020-01-19T09:32:55.000Z</time>
      </trkpt>
      <trkpt lat="47.32016" lon="-2.43809">
        <ele>0.80000001192093</ele>
        <time>2020-01-19T09:32:56.000Z</time>
      </trkpt>
      <trkpt lat="47.32026" lon="-2.43802">
        <ele>1.2000000476837</ele>
        <time>2020-01-19T09:32:59.000Z</time>
      </trkpt>
      <trkpt lat="47.3203" lon="-2.438">
        <ele>1.7999999523163</ele>
        <time>2020-01-19T09:33:00.000Z</time>
      </trkpt>
      <trkpt lat="47.32034" lon="-2.438">
        <ele>2.2000000476837</ele>
        <time>2020-01-19T09:33:01.000Z</time>
      </trkpt>
      <trkpt lat="47.32037" lon="-2.43801">
        <ele>2.7999999523163</ele>
        <time>2020-01-19T09:33:02.000Z</time>
      </trkpt>
      <trkpt lat="47.3204" lon="-2.43806">
        <ele>3.2000000476837</ele>
        <time>2020-01-19T09:33:03.000Z</time>
      </trkpt>
      <trkpt lat="47.32051" lon="-2.43826">
        <ele>3.2000000476837</ele>
        <time>2020-01-19T09:33:07.000Z</time>
      </trkpt>
      <trkpt lat="47.32054" lon="-2.43831">
        <ele>3.5999999046326</ele>
        <time>2020-01-19T09:33:08.000Z</time>
      </trkpt>
      <trkpt lat="47.32056" lon="-2.43837">
        <ele>4</ele>
        <time>2020-01-19T09:33:09.000Z</time>
      </trkpt>
      <trkpt lat="47.32059" lon="-2.43843">
        <ele>4.4000000953674</ele>
        <time>2020-01-19T09:33:10.000Z</time>
      </trkpt>
      <trkpt lat="47.32062" lon="-2.43849">
        <ele>4.8000001907349</ele>
        <time>2020-01-19T09:33:11.000Z</time>
      </trkpt>
      <trkpt lat="47.32064" lon="-2.43855">
        <ele>5.1999998092651</ele>
        <time>2020-01-19T09:33:12.000Z</time>
      </trkpt>
      <trkpt lat="47.32067" lon="-2.43861">
        <ele>5.1999998092651</ele>
        <time>2020-01-19T09:33:13.000Z</time>
      </trkpt>
      <trkpt lat="47.32089" lon="-2.43892">
        <ele>5.1999998092651</ele>
        <time>2020-01-19T09:33:19.000Z</time>
      </trkpt>
      <trkpt lat="47.32107" lon="-2.43903">
        <ele>5.1999998092651</ele>
        <time>2020-01-19T09:33:23.000Z</time>
      </trkpt>
      <trkpt lat="47.32115" lon="-2.43907">
        <ele>5.8000001907349</ele>
        <time>2020-01-19T09:33:25.000Z</time>
      </trkpt>
      <trkpt lat="47.32119" lon="-2.4391">
        <ele>6.1999998092651</ele>
        <time>2020-01-19T09:33:26.000Z</time>
      </trkpt>
      <trkpt lat="47.32123" lon="-2.43912">
        <ele>6.5999999046326</ele>
        <time>2020-01-19T09:33:27.000Z</time>
      </trkpt>
      <trkpt lat="47.32127" lon="-2.43915">
        <ele>7</ele>
        <time>2020-01-19T09:33:28.000Z</time>
      </trkpt>
      <trkpt lat="47.32131" lon="-2.43918">
        <ele>7.4000000953674</ele>
        <time>2020-01-19T09:33:29.000Z</time>
      </trkpt>
      <trkpt lat="47.32134" lon="-2.43922">
        <ele>7.4000000953674</ele>
        <time>2020-01-19T09:33:30.000Z</time>
      </trkpt>
      <trkpt lat="47.32143" lon="-2.43935">
        <ele>8</ele>
        <time>2020-01-19T09:33:33.000Z</time>
      </trkpt>
      <trkpt lat="47.32146" lon="-2.43938">
        <ele>8.3999996185303</ele>
        <time>2020-01-19T09:33:34.000Z</time>
      </trkpt>
      <trkpt lat="47.32148" lon="-2.43943">
        <ele>9</ele>
        <time>2020-01-19T09:33:35.000Z</time>
      </trkpt>
      <trkpt lat="47.3215" lon="-2.43947">
        <ele>9.3999996185303</ele>
        <time>2020-01-19T09:33:36.000Z</time>
      </trkpt>
      <trkpt lat="47.32153" lon="-2.43951">
        <ele>9.8000001907349</ele>
        <time>2020-01-19T09:33:37.000Z</time>
      </trkpt>
      <trkpt lat="47.32158" lon="-2.43959">
        <ele>9.8000001907349</ele>
        <time>2020-01-19T09:33:39.000Z</time>
      </trkpt>
      <trkpt lat="47.32167" lon="-2.43971">
        <ele>10.39999961853</ele>
        <time>2020-01-19T09:33:42.000Z</time>
      </trkpt>
      <trkpt lat="47.3217" lon="-2.43975">
        <ele>10.800000190735</ele>
        <time>2020-01-19T09:33:43.000Z</time>
      </trkpt>
      <trkpt lat="47.32173" lon="-2.43979">
        <ele>11.199999809265</ele>
        <time>2020-01-19T09:33:44.000Z</time>
      </trkpt>
      <trkpt lat="47.32176" lon="-2.43983">
        <ele>11.60000038147</ele>
        <time>2020-01-19T09:33:45.000Z</time>
      </trkpt>
      <trkpt lat="47.32178" lon="-2.43987">
        <ele>12</ele>
        <time>2020-01-19T09:33:46.000Z</time>
      </trkpt>
      <trkpt lat="47.32184" lon="-2.43995">
        <ele>12</ele>
        <time>2020-01-19T09:33:48.000Z</time>
      </trkpt>
      <trkpt lat="47.3219" lon="-2.44003">
        <ele>12</ele>
        <time>2020-01-19T09:33:50.000Z</time>
      </trkpt>
      <trkpt lat="47.32193" lon="-2.44007">
        <ele>12.39999961853</ele>
        <time>2020-01-19T09:33:51.000Z</time>
      </trkpt>
      <trkpt lat="47.32197" lon="-2.4401">
        <ele>12.800000190735</ele>
        <time>2020-01-19T09:33:52.000Z</time>
      </trkpt>
      <trkpt lat="47.322" lon="-2.44014">
        <ele>13.199999809265</ele>
        <time>2020-01-19T09:33:53.000Z</time>
      </trkpt>
      <trkpt lat="47.32203" lon="-2.44018">
        <ele>13.60000038147</ele>
        <time>2020-01-19T09:33:54.000Z</time>
      </trkpt>
      <trkpt lat="47.32206" lon="-2.44022">
        <ele>14</ele>
        <time>2020-01-19T09:33:55.000Z</time>
      </trkpt>
      <trkpt lat="47.32212" lon="-2.4403">
        <ele>14</ele>
        <time>2020-01-19T09:33:57.000Z</time>
      </trkpt>
      <trkpt lat="47.32222" lon="-2.4404">
        <ele>14</ele>
        <time>2020-01-19T09:34:00.000Z</time>
      </trkpt>
      <trkpt lat="47.32241" lon="-2.44047">
        <ele>14</ele>
        <time>2020-01-19T09:34:05.000Z</time>
      </trkpt>
      <trkpt lat="47.32245" lon="-2.44046">
        <ele>14.60000038147</ele>
        <time>2020-01-19T09:34:06.000Z</time>
      </trkpt>
      <trkpt lat="47.3225" lon="-2.44045">
        <ele>15</ele>
        <time>2020-01-19T09:34:07.000Z</time>
      </trkpt>
      <trkpt lat="47.32254" lon="-2.44046">
        <ele>15.39999961853</ele>
        <time>2020-01-19T09:34:08.000Z</time>
      </trkpt>
      <trkpt lat="47.32259" lon="-2.44046">
        <ele>15.800000190735</ele>
        <time>2020-01-19T09:34:09.000Z</time>
      </trkpt>
      <trkpt lat="47.32263" lon="-2.44048">
        <ele>16.200000762939</ele>
        <time>2020-01-19T09:34:10.000Z</time>
      </trkpt>
      <trkpt lat="47.32284" lon="-2.44053">
        <ele>16.200000762939</ele>
        <time>2020-01-19T09:34:16.000Z</time>
      </trkpt>
      <trkpt lat="47.32303" lon="-2.44061">
        <ele>16.200000762939</ele>
        <time>2020-01-19T09:34:21.000Z</time>
      </trkpt>
      <trkpt lat="47.32327" lon="-2.44069">
        <ele>16.200000762939</ele>
        <time>2020-01-19T09:34:27.000Z</time>
      </trkpt>
      <trkpt lat="47.32345" lon="-2.44072">
        <ele>16.200000762939</ele>
        <time>2020-01-19T09:34:32.000Z</time>
      </trkpt>
      <trkpt lat="47.32349" lon="-2.44073">
        <ele>16.799999237061</ele>
        <time>2020-01-19T09:34:33.000Z</time>
      </trkpt>
      <trkpt lat="47.32352" lon="-2.44073">
        <ele>17.200000762939</ele>
        <time>2020-01-19T09:34:34.000Z</time>
      </trkpt>
      <trkpt lat="47.32356" lon="-2.44072">
        <ele>17.60000038147</ele>
        <time>2020-01-19T09:34:35.000Z</time>
      </trkpt>
      <trkpt lat="47.3236" lon="-2.4407">
        <ele>18</ele>
        <time>2020-01-19T09:34:36.000Z</time>
      </trkpt>
      <trkpt lat="47.32365" lon="-2.44069">
        <ele>18.39999961853</ele>
        <time>2020-01-19T09:34:37.000Z</time>
      </trkpt>
      <trkpt lat="47.32369" lon="-2.44068">
        <ele>18.39999961853</ele>
        <time>2020-01-19T09:34:38.000Z</time>
      </trkpt>
      <trkpt lat="47.32384" lon="-2.44061">
        <ele>18.799999237061</ele>
        <time>2020-01-19T09:34:42.000Z</time>
      </trkpt>
      <trkpt lat="47.32388" lon="-2.44059">
        <ele>19.39999961853</ele>
        <time>2020-01-19T09:34:43.000Z</time>
      </trkpt>
      <trkpt lat="47.32392" lon="-2.44058">
        <ele>19.799999237061</ele>
        <time>2020-01-19T09:34:44.000Z</time>
      </trkpt>
      <trkpt lat="47.32395" lon="-2.44055">
        <ele>20.200000762939</ele>
        <time>2020-01-19T09:34:45.000Z</time>
      </trkpt>
      <trkpt lat="47.32398" lon="-2.44053">
        <ele>20.60000038147</ele>
        <time>2020-01-19T09:34:46.000Z</time>
      </trkpt>
      <trkpt lat="47.32409" lon="-2.44047">
        <ele>20.60000038147</ele>
        <time>2020-01-19T09:34:49.000Z</time>
      </trkpt>
      <trkpt lat="47.32427" lon="-2.44034">
        <ele>20.60000038147</ele>
        <time>2020-01-19T09:34:54.000Z</time>
      </trkpt>
      <trkpt lat="47.32434" lon="-2.4403">
        <ele>21</ele>
        <time>2020-01-19T09:34:56.000Z</time>
      </trkpt>
      <trkpt lat="47.32437" lon="-2.44027">
        <ele>21.39999961853</ele>
        <time>2020-01-19T09:34:57.000Z</time>
      </trkpt>
      <trkpt lat="47.32441" lon="-2.44025">
        <ele>21.799999237061</ele>
        <time>2020-01-19T09:34:58.000Z</time>
      </trkpt>
      <trkpt lat="47.32444" lon="-2.44022">
        <ele>22.200000762939</ele>
        <time>2020-01-19T09:34:59.000Z</time>
      </trkpt>
      <trkpt lat="47.32448" lon="-2.4402">
        <ele>22.60000038147</ele>
        <time>2020-01-19T09:35:00.000Z</time>
      </trkpt>
      <trkpt lat="47.32462" lon="-2.44011">
        <ele>22.60000038147</ele>
        <time>2020-01-19T09:35:04.000Z</time>
      </trkpt>
      <trkpt lat="47.32486" lon="-2.43995">
        <ele>22.60000038147</ele>
        <time>2020-01-19T09:35:11.000Z</time>
      </trkpt>
      <trkpt lat="47.32496" lon="-2.43989">
        <ele>23.200000762939</ele>
        <time>2020-01-19T09:35:14.000Z</time>
      </trkpt>
      <trkpt lat="47.32499" lon="-2.43988">
        <ele>23.60000038147</ele>
        <time>2020-01-19T09:35:15.000Z</time>
      </trkpt>
      <trkpt lat="47.32502" lon="-2.43986">
        <ele>24</ele>
        <time>2020-01-19T09:35:16.000Z</time>
      </trkpt>
      <trkpt lat="47.32505" lon="-2.43987">
        <ele>24.39999961853</ele>
        <time>2020-01-19T09:35:17.000Z</time>
      </trkpt>
      <trkpt lat="47.32508" lon="-2.43988">
        <ele>24.799999237061</ele>
        <time>2020-01-19T09:35:18.000Z</time>
      </trkpt>
      <trkpt lat="47.32511" lon="-2.43992">
        <ele>24.799999237061</ele>
        <time>2020-01-19T09:35:19.000Z</time>
      </trkpt>
      <trkpt lat="47.32516" lon="-2.44001">
        <ele>24.799999237061</ele>
        <time>2020-01-19T09:35:21.000Z</time>
      </trkpt>
      <trkpt lat="47.32523" lon="-2.44012">
        <ele>24.799999237061</ele>
        <time>2020-01-19T09:35:23.000Z</time>
      </trkpt>
      <trkpt lat="47.3253" lon="-2.4402">
        <ele>24.799999237061</ele>
        <time>2020-01-19T09:35:25.000Z</time>
      </trkpt>
      <trkpt lat="47.32538" lon="-2.44026">
        <ele>24.799999237061</ele>
        <time>2020-01-19T09:35:27.000Z</time>
      </trkpt>
      <trkpt lat="47.3255" lon="-2.44032">
        <ele>24.799999237061</ele>
        <time>2020-01-19T09:35:30.000Z</time>
      </trkpt>
      <trkpt lat="47.32561" lon="-2.44037">
        <ele>24.799999237061</ele>
        <time>2020-01-19T09:35:33.000Z</time>
      </trkpt>
      <trkpt lat="47.32572" lon="-2.44045">
        <ele>24.799999237061</ele>
        <time>2020-01-19T09:35:37.000Z</time>
      </trkpt>
      <trkpt lat="47.32571" lon="-2.44048">
        <ele>24.799999237061</ele>
        <time>2020-01-19T09:35:38.000Z</time>
      </trkpt>
      <trkpt lat="47.32566" lon="-2.44058">
        <ele>24.799999237061</ele>
        <time>2020-01-19T09:35:41.000Z</time>
      </trkpt>
      <trkpt lat="47.32564" lon="-2.44061">
        <ele>24.799999237061</ele>
        <time>2020-01-19T09:35:42.000Z</time>
      </trkpt>
      <trkpt lat="47.32554" lon="-2.4409">
        <ele>24.799999237061</ele>
        <time>2020-01-19T09:35:48.000Z</time>
      </trkpt>
      <trkpt lat="47.32552" lon="-2.44096">
        <ele>24.799999237061</ele>
        <time>2020-01-19T09:35:49.000Z</time>
      </trkpt>
      <trkpt lat="47.32549" lon="-2.44108">
        <ele>24.799999237061</ele>
        <time>2020-01-19T09:35:51.000Z</time>
      </trkpt>
      <trkpt lat="47.32547" lon="-2.4412">
        <ele>24.799999237061</ele>
        <time>2020-01-19T09:35:53.000Z</time>
      </trkpt>
      <trkpt lat="47.32544" lon="-2.44125">
        <ele>24.799999237061</ele>
        <time>2020-01-19T09:35:54.000Z</time>
      </trkpt>
      <trkpt lat="47.3253" lon="-2.44168">
        <ele>24.799999237061</ele>
        <time>2020-01-19T09:36:01.000Z</time>
      </trkpt>
      <trkpt lat="47.32526" lon="-2.44182">
        <ele>24.799999237061</ele>
        <time>2020-01-19T09:36:03.000Z</time>
      </trkpt>
      <trkpt lat="47.32525" lon="-2.44194">
        <ele>24.799999237061</ele>
        <time>2020-01-19T09:36:05.000Z</time>
      </trkpt>
      <trkpt lat="47.32532" lon="-2.44212">
        <ele>24.799999237061</ele>
        <time>2020-01-19T09:36:08.000Z</time>
      </trkpt>
      <trkpt lat="47.32534" lon="-2.44216">
        <ele>24.799999237061</ele>
        <time>2020-01-19T09:36:09.000Z</time>
      </trkpt>
      <trkpt lat="47.32537" lon="-2.44221">
        <ele>24.799999237061</ele>
        <time>2020-01-19T09:36:10.000Z</time>
      </trkpt>
      <trkpt lat="47.32547" lon="-2.44237">
        <ele>24.799999237061</ele>
        <time>2020-01-19T09:36:13.000Z</time>
      </trkpt>
      <trkpt lat="47.32562" lon="-2.44263">
        <ele>24.799999237061</ele>
        <time>2020-01-19T09:36:18.000Z</time>
      </trkpt>
      <trkpt lat="47.32563" lon="-2.4427">
        <ele>24.799999237061</ele>
        <time>2020-01-19T09:36:19.000Z</time>
      </trkpt>
      <trkpt lat="47.32569" lon="-2.44306">
        <ele>24.799999237061</ele>
        <time>2020-01-19T09:36:24.000Z</time>
      </trkpt>
      <trkpt lat="47.32575" lon="-2.44319">
        <ele>24.799999237061</ele>
        <time>2020-01-19T09:36:26.000Z</time>
      </trkpt>
      <trkpt lat="47.3258" lon="-2.44331">
        <ele>24.799999237061</ele>
        <time>2020-01-19T09:36:28.000Z</time>
      </trkpt>
      <trkpt lat="47.32589" lon="-2.44352">
        <ele>24.799999237061</ele>
        <time>2020-01-19T09:36:32.000Z</time>
      </trkpt>
      <trkpt lat="47.32592" lon="-2.44362">
        <ele>24.799999237061</ele>
        <time>2020-01-19T09:36:34.000Z</time>
      </trkpt>
      <trkpt lat="47.32595" lon="-2.44367">
        <ele>24.799999237061</ele>
        <time>2020-01-19T09:36:35.000Z</time>
      </trkpt>
      <trkpt lat="47.32598" lon="-2.44371">
        <ele>24.39999961853</ele>
        <time>2020-01-19T09:36:36.000Z</time>
      </trkpt>
      <trkpt lat="47.32601" lon="-2.44374">
        <ele>24</ele>
        <time>2020-01-19T09:36:37.000Z</time>
      </trkpt>
      <trkpt lat="47.32603" lon="-2.44377">
        <ele>23.60000038147</ele>
        <time>2020-01-19T09:36:38.000Z</time>
      </trkpt>
      <trkpt lat="47.32606" lon="-2.4438">
        <ele>23.200000762939</ele>
        <time>2020-01-19T09:36:39.000Z</time>
      </trkpt>
      <trkpt lat="47.32609" lon="-2.44382">
        <ele>22.799999237061</ele>
        <time>2020-01-19T09:36:40.000Z</time>
      </trkpt>
      <trkpt lat="47.32612" lon="-2.44385">
        <ele>22.799999237061</ele>
        <time>2020-01-19T09:36:41.000Z</time>
      </trkpt>
      <trkpt lat="47.32625" lon="-2.44405">
        <ele>23.200000762939</ele>
        <time>2020-01-19T09:36:46.000Z</time>
      </trkpt>
      <trkpt lat="47.32628" lon="-2.44409">
        <ele>23.60000038147</ele>
        <time>2020-01-19T09:36:47.000Z</time>
      </trkpt>
      <trkpt lat="47.32631" lon="-2.44415">
        <ele>24</ele>
        <time>2020-01-19T09:36:48.000Z</time>
      </trkpt>
      <trkpt lat="47.32633" lon="-2.4442">
        <ele>24.60000038147</ele>
        <time>2020-01-19T09:36:49.000Z</time>
      </trkpt>
      <trkpt lat="47.32636" lon="-2.44425">
        <ele>25</ele>
        <time>2020-01-19T09:36:50.000Z</time>
      </trkpt>
      <trkpt lat="47.32639" lon="-2.4443">
        <ele>25</ele>
        <time>2020-01-19T09:36:51.000Z</time>
      </trkpt>
      <trkpt lat="47.32645" lon="-2.44443">
        <ele>25</ele>
        <time>2020-01-19T09:36:53.000Z</time>
      </trkpt>
      <trkpt lat="47.32652" lon="-2.44464">
        <ele>25</ele>
        <time>2020-01-19T09:36:56.000Z</time>
      </trkpt>
      <trkpt lat="47.32656" lon="-2.44478">
        <ele>25</ele>
        <time>2020-01-19T09:36:58.000Z</time>
      </trkpt>
      <trkpt lat="47.32666" lon="-2.44492">
        <ele>25.39999961853</ele>
        <time>2020-01-19T09:37:01.000Z</time>
      </trkpt>
      <trkpt lat="47.32669" lon="-2.44494">
        <ele>25.799999237061</ele>
        <time>2020-01-19T09:37:02.000Z</time>
      </trkpt>
      <trkpt lat="47.32672" lon="-2.44498">
        <ele>26.200000762939</ele>
        <time>2020-01-19T09:37:03.000Z</time>
      </trkpt>
      <trkpt lat="47.32672" lon="-2.44502">
        <ele>26.60000038147</ele>
        <time>2020-01-19T09:37:04.000Z</time>
      </trkpt>
      <trkpt lat="47.32671" lon="-2.44506">
        <ele>27</ele>
        <time>2020-01-19T09:37:05.000Z</time>
      </trkpt>
      <trkpt lat="47.3267" lon="-2.44509">
        <ele>27</ele>
        <time>2020-01-19T09:37:06.000Z</time>
      </trkpt>
      <trkpt lat="47.32666" lon="-2.44517">
        <ele>27</ele>
        <time>2020-01-19T09:37:08.000Z</time>
      </trkpt>
      <trkpt lat="47.32663" lon="-2.44521">
        <ele>27</ele>
        <time>2020-01-19T09:37:09.000Z</time>
      </trkpt>
      <trkpt lat="47.32656" lon="-2.44535">
        <ele>27</ele>
        <time>2020-01-19T09:37:12.000Z</time>
      </trkpt>
      <trkpt lat="47.32652" lon="-2.44541">
        <ele>27</ele>
        <time>2020-01-19T09:37:13.000Z</time>
      </trkpt>
      <trkpt lat="47.32636" lon="-2.4457">
        <ele>27</ele>
        <time>2020-01-19T09:37:18.000Z</time>
      </trkpt>
      <trkpt lat="47.3263" lon="-2.44581">
        <ele>27</ele>
        <time>2020-01-19T09:37:20.000Z</time>
      </trkpt>
      <trkpt lat="47.32626" lon="-2.44586">
        <ele>26.60000038147</ele>
        <time>2020-01-19T09:37:21.000Z</time>
      </trkpt>
      <trkpt lat="47.32623" lon="-2.44592">
        <ele>26.200000762939</ele>
        <time>2020-01-19T09:37:22.000Z</time>
      </trkpt>
      <trkpt lat="47.32619" lon="-2.44598">
        <ele>25.799999237061</ele>
        <time>2020-01-19T09:37:23.000Z</time>
      </trkpt>
      <trkpt lat="47.32616" lon="-2.44604">
        <ele>24.799999237061</ele>
        <time>2020-01-19T09:37:24.000Z</time>
      </trkpt>
      <trkpt lat="47.32609" lon="-2.44616">
        <ele>24.799999237061</ele>
        <time>2020-01-19T09:37:26.000Z</time>
      </trkpt>
      <trkpt lat="47.326" lon="-2.44632">
        <ele>24.39999961853</ele>
        <time>2020-01-19T09:37:29.000Z</time>
      </trkpt>
      <trkpt lat="47.32596" lon="-2.44635">
        <ele>24</ele>
        <time>2020-01-19T09:37:30.000Z</time>
      </trkpt>
      <trkpt lat="47.32591" lon="-2.44639">
        <ele>23.60000038147</ele>
        <time>2020-01-19T09:37:31.000Z</time>
      </trkpt>
      <trkpt lat="47.32588" lon="-2.44643">
        <ele>23.200000762939</ele>
        <time>2020-01-19T09:37:32.000Z</time>
      </trkpt>
      <trkpt lat="47.32585" lon="-2.44647">
        <ele>22.799999237061</ele>
        <time>2020-01-19T09:37:33.000Z</time>
      </trkpt>
      <trkpt lat="47.32572" lon="-2.44665">
        <ele>22.39999961853</ele>
        <time>2020-01-19T09:37:37.000Z</time>
      </trkpt>
      <trkpt lat="47.32568" lon="-2.4467">
        <ele>22</ele>
        <time>2020-01-19T09:37:38.000Z</time>
      </trkpt>
      <trkpt lat="47.32565" lon="-2.44676">
        <ele>21.60000038147</ele>
        <time>2020-01-19T09:37:39.000Z</time>
      </trkpt>
      <trkpt lat="47.32561" lon="-2.44682">
        <ele>21.200000762939</ele>
        <time>2020-01-19T09:37:40.000Z</time>
      </trkpt>
      <trkpt lat="47.32558" lon="-2.44687">
        <ele>20.799999237061</ele>
        <time>2020-01-19T09:37:41.000Z</time>
      </trkpt>
      <trkpt lat="47.32546" lon="-2.44703">
        <ele>20.799999237061</ele>
        <time>2020-01-19T09:37:44.000Z</time>
      </trkpt>
      <trkpt lat="47.32542" lon="-2.44709">
        <ele>20.799999237061</ele>
        <time>2020-01-19T09:37:45.000Z</time>
      </trkpt>
      <trkpt lat="47.32539" lon="-2.44715">
        <ele>20.200000762939</ele>
        <time>2020-01-19T09:37:46.000Z</time>
      </trkpt>
      <trkpt lat="47.32536" lon="-2.4472">
        <ele>19.799999237061</ele>
        <time>2020-01-19T09:37:47.000Z</time>
      </trkpt>
      <trkpt lat="47.32535" lon="-2.44726">
        <ele>19</ele>
        <time>2020-01-19T09:37:48.000Z</time>
      </trkpt>
      <trkpt lat="47.32534" lon="-2.44733">
        <ele>18.60000038147</ele>
        <time>2020-01-19T09:37:49.000Z</time>
      </trkpt>
      <trkpt lat="47.32532" lon="-2.44738">
        <ele>18.200000762939</ele>
        <time>2020-01-19T09:37:50.000Z</time>
      </trkpt>
      <trkpt lat="47.3253" lon="-2.44744">
        <ele>17.60000038147</ele>
        <time>2020-01-19T09:37:51.000Z</time>
      </trkpt>
      <trkpt lat="47.32526" lon="-2.44749">
        <ele>17.200000762939</ele>
        <time>2020-01-19T09:37:52.000Z</time>
      </trkpt>
      <trkpt lat="47.32522" lon="-2.44753">
        <ele>16.799999237061</ele>
        <time>2020-01-19T09:37:53.000Z</time>
      </trkpt>
      <trkpt lat="47.32517" lon="-2.44757">
        <ele>16.39999961853</ele>
        <time>2020-01-19T09:37:54.000Z</time>
      </trkpt>
      <trkpt lat="47.32507" lon="-2.44765">
        <ele>16.39999961853</ele>
        <time>2020-01-19T09:37:56.000Z</time>
      </trkpt>
      <trkpt lat="47.3248" lon="-2.44785">
        <ele>16.39999961853</ele>
        <time>2020-01-19T09:38:00.000Z</time>
      </trkpt>
      <trkpt lat="47.32465" lon="-2.44795">
        <ele>16</ele>
        <time>2020-01-19T09:38:02.000Z</time>
      </trkpt>
      <trkpt lat="47.32458" lon="-2.448">
        <ele>15.60000038147</ele>
        <time>2020-01-19T09:38:03.000Z</time>
      </trkpt>
      <trkpt lat="47.3245" lon="-2.44805">
        <ele>15</ele>
        <time>2020-01-19T09:38:04.000Z</time>
      </trkpt>
      <trkpt lat="47.32442" lon="-2.4481">
        <ele>14.60000038147</ele>
        <time>2020-01-19T09:38:05.000Z</time>
      </trkpt>
      <trkpt lat="47.32433" lon="-2.44814">
        <ele>14.199999809265</ele>
        <time>2020-01-19T09:38:06.000Z</time>
      </trkpt>
      <trkpt lat="47.32425" lon="-2.44818">
        <ele>13.800000190735</ele>
        <time>2020-01-19T09:38:07.000Z</time>
      </trkpt>
      <trkpt lat="47.32417" lon="-2.44823">
        <ele>13.199999809265</ele>
        <time>2020-01-19T09:38:08.000Z</time>
      </trkpt>
      <trkpt lat="47.32409" lon="-2.44828">
        <ele>12.800000190735</ele>
        <time>2020-01-19T09:38:09.000Z</time>
      </trkpt>
      <trkpt lat="47.32401" lon="-2.44832">
        <ele>12.199999809265</ele>
        <time>2020-01-19T09:38:10.000Z</time>
      </trkpt>
      <trkpt lat="47.32393" lon="-2.44837">
        <ele>11.800000190735</ele>
        <time>2020-01-19T09:38:11.000Z</time>
      </trkpt>
      <trkpt lat="47.32379" lon="-2.44848">
        <ele>11</ele>
        <time>2020-01-19T09:38:13.000Z</time>
      </trkpt>
      <trkpt lat="47.32372" lon="-2.44854">
        <ele>10.60000038147</ele>
        <time>2020-01-19T09:38:14.000Z</time>
      </trkpt>
      <trkpt lat="47.32366" lon="-2.44859">
        <ele>10.199999809265</ele>
        <time>2020-01-19T09:38:15.000Z</time>
      </trkpt>
      <trkpt lat="47.32359" lon="-2.44864">
        <ele>9.8000001907349</ele>
        <time>2020-01-19T09:38:16.000Z</time>
      </trkpt>
      <trkpt lat="47.32347" lon="-2.44876">
        <ele>9.8000001907349</ele>
        <time>2020-01-19T09:38:18.000Z</time>
      </trkpt>
      <trkpt lat="47.32315" lon="-2.44917">
        <ele>9.8000001907349</ele>
        <time>2020-01-19T09:38:24.000Z</time>
      </trkpt>
      <trkpt lat="47.3231" lon="-2.44924">
        <ele>9.8000001907349</ele>
        <time>2020-01-19T09:38:25.000Z</time>
      </trkpt>
      <trkpt lat="47.32293" lon="-2.44945">
        <ele>9.1999998092651</ele>
        <time>2020-01-19T09:38:28.000Z</time>
      </trkpt>
      <trkpt lat="47.32287" lon="-2.44951">
        <ele>8.6000003814697</ele>
        <time>2020-01-19T09:38:29.000Z</time>
      </trkpt>
      <trkpt lat="47.32282" lon="-2.44957">
        <ele>8.1999998092651</ele>
        <time>2020-01-19T09:38:30.000Z</time>
      </trkpt>
      <trkpt lat="47.32277" lon="-2.44963">
        <ele>7.5999999046326</ele>
        <time>2020-01-19T09:38:31.000Z</time>
      </trkpt>
      <trkpt lat="47.32272" lon="-2.44969">
        <ele>7.1999998092651</ele>
        <time>2020-01-19T09:38:32.000Z</time>
      </trkpt>
      <trkpt lat="47.32256" lon="-2.44985">
        <ele>7.1999998092651</ele>
        <time>2020-01-19T09:38:35.000Z</time>
      </trkpt>
      <trkpt lat="47.32245" lon="-2.44997">
        <ele>6.5999999046326</ele>
        <time>2020-01-19T09:38:37.000Z</time>
      </trkpt>
      <trkpt lat="47.32239" lon="-2.45004">
        <ele>5.8000001907349</ele>
        <time>2020-01-19T09:38:38.000Z</time>
      </trkpt>
      <trkpt lat="47.32234" lon="-2.45009">
        <ele>5.1999998092651</ele>
        <time>2020-01-19T09:38:39.000Z</time>
      </trkpt>
      <trkpt lat="47.3223" lon="-2.45015">
        <ele>4.5999999046326</ele>
        <time>2020-01-19T09:38:40.000Z</time>
      </trkpt>
      <trkpt lat="47.32225" lon="-2.4502">
        <ele>3.7999999523163</ele>
        <time>2020-01-19T09:38:41.000Z</time>
      </trkpt>
      <trkpt lat="47.32221" lon="-2.45024">
        <ele>2.7999999523163</ele>
        <time>2020-01-19T09:38:42.000Z</time>
      </trkpt>
      <trkpt lat="47.32219" lon="-2.45029">
        <ele>2</ele>
        <time>2020-01-19T09:38:43.000Z</time>
      </trkpt>
      <trkpt lat="47.32218" lon="-2.45033">
        <ele>1.2000000476837</ele>
        <time>2020-01-19T09:38:44.000Z</time>
      </trkpt>
      <trkpt lat="47.32218" lon="-2.45038">
        <ele>0.20000000298023</ele>
        <time>2020-01-19T09:38:45.000Z</time>
      </trkpt>
      <trkpt lat="47.32219" lon="-2.45043">
        <ele>-0.20000000298023</ele>
        <time>2020-01-19T09:38:46.000Z</time>
      </trkpt>
      <trkpt lat="47.32222" lon="-2.45048">
        <ele>-0.60000002384186</ele>
        <time>2020-01-19T09:38:47.000Z</time>
      </trkpt>
      <trkpt lat="47.32224" lon="-2.45053">
        <ele>-1.2000000476837</ele>
        <time>2020-01-19T09:38:48.000Z</time>
      </trkpt>
      <trkpt lat="47.32227" lon="-2.45057">
        <ele>-1.6000000238419</ele>
        <time>2020-01-19T09:38:49.000Z</time>
      </trkpt>
      <trkpt lat="47.32229" lon="-2.45061">
        <ele>-2</ele>
        <time>2020-01-19T09:38:50.000Z</time>
      </trkpt>
      <trkpt lat="47.32232" lon="-2.45065">
        <ele>-2</ele>
        <time>2020-01-19T09:38:51.000Z</time>
      </trkpt>
      <trkpt lat="47.32246" lon="-2.45096">
        <ele>-2</ele>
        <time>2020-01-19T09:38:57.000Z</time>
      </trkpt>
      <trkpt lat="47.32263" lon="-2.45148">
        <ele>-2</ele>
        <time>2020-01-19T09:39:05.000Z</time>
      </trkpt>
      <trkpt lat="47.32272" lon="-2.45189">
        <ele>-2.5999999046326</ele>
        <time>2020-01-19T09:39:10.000Z</time>
      </trkpt>
      <trkpt lat="47.32275" lon="-2.45196">
        <ele>-3</ele>
        <time>2020-01-19T09:39:11.000Z</time>
      </trkpt>
      <trkpt lat="47.32278" lon="-2.45202">
        <ele>-3.4000000953674</ele>
        <time>2020-01-19T09:39:12.000Z</time>
      </trkpt>
      <trkpt lat="47.3228" lon="-2.45206">
        <ele>-4</ele>
        <time>2020-01-19T09:39:13.000Z</time>
      </trkpt>
      <trkpt lat="47.32282" lon="-2.45209">
        <ele>-4.5999999046326</ele>
        <time>2020-01-19T09:39:14.000Z</time>
      </trkpt>
      <trkpt lat="47.32284" lon="-2.45212">
        <ele>-5.1999998092651</ele>
        <time>2020-01-19T09:39:15.000Z</time>
      </trkpt>
      <trkpt lat="47.32285" lon="-2.45214">
        <ele>-6</ele>
        <time>2020-01-19T09:39:16.000Z</time>
      </trkpt>
      <trkpt lat="47.32286" lon="-2.45216">
        <ele>-6.4000000953674</ele>
        <time>2020-01-19T09:39:17.000Z</time>
      </trkpt>
      <trkpt lat="47.32288" lon="-2.45218">
        <ele>-7</ele>
        <time>2020-01-19T09:39:18.000Z</time>
      </trkpt>
      <trkpt lat="47.3229" lon="-2.45221">
        <ele>-7.5999999046326</ele>
        <time>2020-01-19T09:39:19.000Z</time>
      </trkpt>
      <trkpt lat="47.32292" lon="-2.45224">
        <ele>-8</ele>
        <time>2020-01-19T09:39:20.000Z</time>
      </trkpt>
      <trkpt lat="47.32294" lon="-2.45227">
        <ele>-8.6000003814697</ele>
        <time>2020-01-19T09:39:21.000Z</time>
      </trkpt>
      <trkpt lat="47.32299" lon="-2.45236">
        <ele>-8.6000003814697</ele>
        <time>2020-01-19T09:39:23.000Z</time>
      </trkpt>
      <trkpt lat="47.32308" lon="-2.45259">
        <ele>-8.1999998092651</ele>
        <time>2020-01-19T09:39:28.000Z</time>
      </trkpt>
      <trkpt lat="47.32309" lon="-2.45265">
        <ele>-7.8000001907349</ele>
        <time>2020-01-19T09:39:29.000Z</time>
      </trkpt>
      <trkpt lat="47.32311" lon="-2.4527">
        <ele>-7.1999998092651</ele>
        <time>2020-01-19T09:39:30.000Z</time>
      </trkpt>
      <trkpt lat="47.32312" lon="-2.45275">
        <ele>-6.8000001907349</ele>
        <time>2020-01-19T09:39:31.000Z</time>
      </trkpt>
      <trkpt lat="47.32313" lon="-2.45281">
        <ele>-6.4000000953674</ele>
        <time>2020-01-19T09:39:32.000Z</time>
      </trkpt>
      <trkpt lat="47.32317" lon="-2.45302">
        <ele>-6.4000000953674</ele>
        <time>2020-01-19T09:39:36.000Z</time>
      </trkpt>
      <trkpt lat="47.32318" lon="-2.45317">
        <ele>-6</ele>
        <time>2020-01-19T09:39:39.000Z</time>
      </trkpt>
      <trkpt lat="47.32318" lon="-2.45323">
        <ele>-5.5999999046326</ele>
        <time>2020-01-19T09:39:40.000Z</time>
      </trkpt>
      <trkpt lat="47.32317" lon="-2.45328">
        <ele>-5.1999998092651</ele>
        <time>2020-01-19T09:39:41.000Z</time>
      </trkpt>
      <trkpt lat="47.32317" lon="-2.45334">
        <ele>-4.8000001907349</ele>
        <time>2020-01-19T09:39:42.000Z</time>
      </trkpt>
      <trkpt lat="47.32317" lon="-2.4534">
        <ele>-4.4000000953674</ele>
        <time>2020-01-19T09:39:43.000Z</time>
      </trkpt>
      <trkpt lat="47.32317" lon="-2.45347">
        <ele>-4.4000000953674</ele>
        <time>2020-01-19T09:39:44.000Z</time>
      </trkpt>
      <trkpt lat="47.32319" lon="-2.45363">
        <ele>-4.4000000953674</ele>
        <time>2020-01-19T09:39:46.000Z</time>
      </trkpt>
      <trkpt lat="47.32322" lon="-2.45387">
        <ele>-4.8000001907349</ele>
        <time>2020-01-19T09:39:50.000Z</time>
      </trkpt>
      <trkpt lat="47.32321" lon="-2.45391">
        <ele>-6</ele>
        <time>2020-01-19T09:39:51.000Z</time>
      </trkpt>
      <trkpt lat="47.3232" lon="-2.45395">
        <ele>-6.4000000953674</ele>
        <time>2020-01-19T09:39:52.000Z</time>
      </trkpt>
      <trkpt lat="47.32319" lon="-2.454">
        <ele>-7</ele>
        <time>2020-01-19T09:39:53.000Z</time>
      </trkpt>
      <trkpt lat="47.32318" lon="-2.45407">
        <ele>-7.4000000953674</ele>
        <time>2020-01-19T09:39:54.000Z</time>
      </trkpt>
      <trkpt lat="47.32319" lon="-2.45415">
        <ele>-7.8000001907349</ele>
        <time>2020-01-19T09:39:55.000Z</time>
      </trkpt>
      <trkpt lat="47.32321" lon="-2.45422">
        <ele>-8.1999998092651</ele>
        <time>2020-01-19T09:39:56.000Z</time>
      </trkpt>
      <trkpt lat="47.32323" lon="-2.45428">
        <ele>-8.6000003814697</ele>
        <time>2020-01-19T09:39:57.000Z</time>
      </trkpt>
      <trkpt lat="47.32326" lon="-2.45433">
        <ele>-9</ele>
        <time>2020-01-19T09:39:58.000Z</time>
      </trkpt>
      <trkpt lat="47.32329" lon="-2.45437">
        <ele>-9</ele>
        <time>2020-01-19T09:39:59.000Z</time>
      </trkpt>
      <trkpt lat="47.32339" lon="-2.45454">
        <ele>-9</ele>
        <time>2020-01-19T09:40:04.000Z</time>
      </trkpt>
      <trkpt lat="47.32345" lon="-2.45463">
        <ele>-9</ele>
        <time>2020-01-19T09:40:09.000Z</time>
      </trkpt>
      <trkpt lat="47.32356" lon="-2.45477">
        <ele>-9</ele>
        <time>2020-01-19T09:40:18.000Z</time>
      </trkpt>
      <trkpt lat="47.32366" lon="-2.45493">
        <ele>-9</ele>
        <time>2020-01-19T09:40:25.000Z</time>
      </trkpt>
      <trkpt lat="47.32373" lon="-2.45507">
        <ele>-9</ele>
        <time>2020-01-19T09:40:31.000Z</time>
      </trkpt>
      <trkpt lat="47.32382" lon="-2.45527">
        <ele>-9</ele>
        <time>2020-01-19T09:40:38.000Z</time>
      </trkpt>
      <trkpt lat="47.32391" lon="-2.45544">
        <ele>-9</ele>
        <time>2020-01-19T09:40:44.000Z</time>
      </trkpt>
      <trkpt lat="47.32401" lon="-2.4556">
        <ele>-9</ele>
        <time>2020-01-19T09:40:51.000Z</time>
      </trkpt>
      <trkpt lat="47.32411" lon="-2.4558">
        <ele>-9</ele>
        <time>2020-01-19T09:40:58.000Z</time>
      </trkpt>
      <trkpt lat="47.32419" lon="-2.45605">
        <ele>-9</ele>
        <time>2020-01-19T09:41:04.000Z</time>
      </trkpt>
      <trkpt lat="47.3243" lon="-2.4563">
        <ele>-9</ele>
        <time>2020-01-19T09:41:10.000Z</time>
      </trkpt>
      <trkpt lat="47.32441" lon="-2.45646">
        <ele>-9</ele>
        <time>2020-01-19T09:41:14.000Z</time>
      </trkpt>
      <trkpt lat="47.32447" lon="-2.45655">
        <ele>-9</ele>
        <time>2020-01-19T09:41:16.000Z</time>
      </trkpt>
      <trkpt lat="47.3245" lon="-2.45659">
        <ele>-9</ele>
        <time>2020-01-19T09:41:17.000Z</time>
      </trkpt>
      <trkpt lat="47.32462" lon="-2.45678">
        <ele>-9</ele>
        <time>2020-01-19T09:41:21.000Z</time>
      </trkpt>
      <trkpt lat="47.32471" lon="-2.45692">
        <ele>-9</ele>
        <time>2020-01-19T09:41:24.000Z</time>
      </trkpt>
      <trkpt lat="47.32491" lon="-2.45725">
        <ele>-9</ele>
        <time>2020-01-19T09:41:31.000Z</time>
      </trkpt>
      <trkpt lat="47.32494" lon="-2.45731">
        <ele>-9</ele>
        <time>2020-01-19T09:41:32.000Z</time>
      </trkpt>
      <trkpt lat="47.32514" lon="-2.45769">
        <ele>-9</ele>
        <time>2020-01-19T09:41:39.000Z</time>
      </trkpt>
      <trkpt lat="47.32534" lon="-2.45802">
        <ele>-9</ele>
        <time>2020-01-19T09:41:45.000Z</time>
      </trkpt>
      <trkpt lat="47.32547" lon="-2.45823">
        <ele>-9</ele>
        <time>2020-01-19T09:41:49.000Z</time>
      </trkpt>
      <trkpt lat="47.3255" lon="-2.45828">
        <ele>-9</ele>
        <time>2020-01-19T09:41:50.000Z</time>
      </trkpt>
      <trkpt lat="47.32556" lon="-2.45837">
        <ele>-9</ele>
        <time>2020-01-19T09:41:52.000Z</time>
      </trkpt>
      <trkpt lat="47.32566" lon="-2.45857">
        <ele>-9</ele>
        <time>2020-01-19T09:41:56.000Z</time>
      </trkpt>
      <trkpt lat="47.32569" lon="-2.45863">
        <ele>-9</ele>
        <time>2020-01-19T09:41:57.000Z</time>
      </trkpt>
      <trkpt lat="47.32575" lon="-2.45874">
        <ele>-8.6000003814697</ele>
        <time>2020-01-19T09:41:59.000Z</time>
      </trkpt>
      <trkpt lat="47.32579" lon="-2.45879">
        <ele>-8</ele>
        <time>2020-01-19T09:42:00.000Z</time>
      </trkpt>
      <trkpt lat="47.32582" lon="-2.45883">
        <ele>-7.5999999046326</ele>
        <time>2020-01-19T09:42:01.000Z</time>
      </trkpt>
      <trkpt lat="47.32585" lon="-2.45887">
        <ele>-7</ele>
        <time>2020-01-19T09:42:02.000Z</time>
      </trkpt>
      <trkpt lat="47.32589" lon="-2.45891">
        <ele>-6.5999999046326</ele>
        <time>2020-01-19T09:42:03.000Z</time>
      </trkpt>
      <trkpt lat="47.32604" lon="-2.45909">
        <ele>-6.5999999046326</ele>
        <time>2020-01-19T09:42:07.000Z</time>
      </trkpt>
      <trkpt lat="47.32618" lon="-2.45926">
        <ele>-6.5999999046326</ele>
        <time>2020-01-19T09:42:11.000Z</time>
      </trkpt>
      <trkpt lat="47.32624" lon="-2.45936">
        <ele>-6.5999999046326</ele>
        <time>2020-01-19T09:42:13.000Z</time>
      </trkpt>
      <trkpt lat="47.32635" lon="-2.45956">
        <ele>-6.5999999046326</ele>
        <time>2020-01-19T09:42:17.000Z</time>
      </trkpt>
      <trkpt lat="47.32639" lon="-2.45961">
        <ele>-6.5999999046326</ele>
        <time>2020-01-19T09:42:18.000Z</time>
      </trkpt>
      <trkpt lat="47.32655" lon="-2.45976">
        <ele>-6.5999999046326</ele>
        <time>2020-01-19T09:42:22.000Z</time>
      </trkpt>
      <trkpt lat="47.32661" lon="-2.45982">
        <ele>-6.5999999046326</ele>
        <time>2020-01-19T09:42:24.000Z</time>
      </trkpt>
      <trkpt lat="47.3267" lon="-2.45988">
        <ele>-6.5999999046326</ele>
        <time>2020-01-19T09:42:28.000Z</time>
      </trkpt>
      <trkpt lat="47.32679" lon="-2.45997">
        <ele>-6.5999999046326</ele>
        <time>2020-01-19T09:42:34.000Z</time>
      </trkpt>
      <trkpt lat="47.32683" lon="-2.46003">
        <ele>-6.5999999046326</ele>
        <time>2020-01-19T09:42:38.000Z</time>
      </trkpt>
      <trkpt lat="47.32692" lon="-2.4602">
        <ele>-6.5999999046326</ele>
        <time>2020-01-19T09:42:45.000Z</time>
      </trkpt>
      <trkpt lat="47.32705" lon="-2.46037">
        <ele>-6.5999999046326</ele>
        <time>2020-01-19T09:42:52.000Z</time>
      </trkpt>
      <trkpt lat="47.32708" lon="-2.4604">
        <ele>-6.5999999046326</ele>
        <time>2020-01-19T09:42:54.000Z</time>
      </trkpt>
      <trkpt lat="47.32711" lon="-2.46043">
        <ele>-6.5999999046326</ele>
        <time>2020-01-19T09:42:56.000Z</time>
      </trkpt>
      <trkpt lat="47.32716" lon="-2.46051">
        <ele>-6.5999999046326</ele>
        <time>2020-01-19T09:43:01.000Z</time>
      </trkpt>
      <trkpt lat="47.32727" lon="-2.46062">
        <ele>-6.5999999046326</ele>
        <time>2020-01-19T09:43:07.000Z</time>
      </trkpt>
      <trkpt lat="47.32731" lon="-2.46068">
        <ele>-6.5999999046326</ele>
        <time>2020-01-19T09:43:11.000Z</time>
      </trkpt>
      <trkpt lat="47.32733" lon="-2.4607">
        <ele>-6.5999999046326</ele>
        <time>2020-01-19T09:43:12.000Z</time>
      </trkpt>
      <trkpt lat="47.3274" lon="-2.46078">
        <ele>-6.5999999046326</ele>
        <time>2020-01-19T09:43:16.000Z</time>
      </trkpt>
      <trkpt lat="47.32748" lon="-2.46087">
        <ele>-6.5999999046326</ele>
        <time>2020-01-19T09:43:22.000Z</time>
      </trkpt>
      <trkpt lat="47.32754" lon="-2.46097">
        <ele>-6.5999999046326</ele>
        <time>2020-01-19T09:43:28.000Z</time>
      </trkpt>
      <trkpt lat="47.32754" lon="-2.46099">
        <ele>-6.5999999046326</ele>
        <time>2020-01-19T09:43:29.000Z</time>
      </trkpt>
      <trkpt lat="47.3276" lon="-2.4611">
        <ele>-6.5999999046326</ele>
        <time>2020-01-19T09:43:34.000Z</time>
      </trkpt>
      <trkpt lat="47.32762" lon="-2.46114">
        <ele>-6.1999998092651</ele>
        <time>2020-01-19T09:43:36.000Z</time>
      </trkpt>
      <trkpt lat="47.32763" lon="-2.46117">
        <ele>-5.8000001907349</ele>
        <time>2020-01-19T09:43:37.000Z</time>
      </trkpt>
      <trkpt lat="47.32763" lon="-2.46119">
        <ele>-5.1999998092651</ele>
        <time>2020-01-19T09:43:38.000Z</time>
      </trkpt>
      <trkpt lat="47.32764" lon="-2.46121">
        <ele>-4.8000001907349</ele>
        <time>2020-01-19T09:43:39.000Z</time>
      </trkpt>
      <trkpt lat="47.32764" lon="-2.46122">
        <ele>-4.4000000953674</ele>
        <time>2020-01-19T09:43:40.000Z</time>
      </trkpt>
      <trkpt lat="47.32766" lon="-2.46128">
        <ele>-4.4000000953674</ele>
        <time>2020-01-19T09:43:46.000Z</time>
      </trkpt>
      <trkpt lat="47.32768" lon="-2.46142">
        <ele>-4.4000000953674</ele>
        <time>2020-01-19T09:43:52.000Z</time>
      </trkpt>
      <trkpt lat="47.32768" lon="-2.46142">
        <ele>-4.4000000953674</ele>
        <time>2020-01-19T09:43:53.000Z</time>
      </trkpt>
      <trkpt lat="47.32776" lon="-2.46159">
        <ele>-2.4000000953674</ele>
        <time>2020-01-19T09:45:04.000Z</time>
      </trkpt>
      <trkpt lat="47.32778" lon="-2.46162">
        <ele>-2.4000000953674</ele>
        <time>2020-01-19T09:45:06.000Z</time>
      </trkpt>
      <trkpt lat="47.32782" lon="-2.46164">
        <ele>-2.4000000953674</ele>
        <time>2020-01-19T09:45:08.000Z</time>
      </trkpt>
      <trkpt lat="47.32787" lon="-2.4617">
        <ele>-2.4000000953674</ele>
        <time>2020-01-19T09:45:11.000Z</time>
      </trkpt>
      <trkpt lat="47.32804" lon="-2.46183">
        <ele>-2.4000000953674</ele>
        <time>2020-01-19T09:45:17.000Z</time>
      </trkpt>
      <trkpt lat="47.32817" lon="-2.46189">
        <ele>-2</ele>
        <time>2020-01-19T09:45:21.000Z</time>
      </trkpt>
      <trkpt lat="47.32821" lon="-2.46188">
        <ele>-1.6000000238419</ele>
        <time>2020-01-19T09:45:22.000Z</time>
      </trkpt>
      <trkpt lat="47.32825" lon="-2.46188">
        <ele>-1.2000000476837</ele>
        <time>2020-01-19T09:45:23.000Z</time>
      </trkpt>
      <trkpt lat="47.32829" lon="-2.46187">
        <ele>-0.40000000596046</ele>
        <time>2020-01-19T09:45:24.000Z</time>
      </trkpt>
      <trkpt lat="47.32842" lon="-2.46181">
        <ele>-0.40000000596046</ele>
        <time>2020-01-19T09:45:28.000Z</time>
      </trkpt>
      <trkpt lat="47.32848" lon="-2.46177">
        <ele>19.7</ele>
        <time>2020-01-19T09:45:30.000Z</time>
      </trkpt>
      <trkpt lat="47.32852" lon="-2.46176">
        <ele>0.40000000596046</ele>
        <time>2020-01-19T09:45:31.000Z</time>
      </trkpt>
      <trkpt lat="47.32855" lon="-2.46174">
        <ele>0.80000001192093</ele>
        <time>2020-01-19T09:45:32.000Z</time>
      </trkpt>
      <trkpt lat="47.32858" lon="-2.46172">
        <ele>1.2000000476837</ele>
        <time>2020-01-19T09:45:33.000Z</time>
      </trkpt>
      <trkpt lat="47.32861" lon="-2.4617">
        <ele>1.6000000238419</ele>
        <time>2020-01-19T09:45:34.000Z</time>
      </trkpt>
      <trkpt lat="47.3287" lon="-2.46166">
        <ele>2</ele>
        <time>2020-01-19T09:45:37.000Z</time>
      </trkpt>
      <trkpt lat="47.32873" lon="-2.46164">
        <ele>2.4000000953674</ele>
        <time>2020-01-19T09:45:38.000Z</time>
      </trkpt>
      <trkpt lat="47.32876" lon="-2.46162">
        <ele>2.7999999523163</ele>
        <time>2020-01-19T09:45:39.000Z</time>
      </trkpt>
      <trkpt lat="47.32879" lon="-2.4616">
        <ele>3.2000000476837</ele>
        <time>2020-01-19T09:45:40.000Z</time>
      </trkpt>
      <trkpt lat="47.32882" lon="-2.46158">
        <ele>3.5999999046326</ele>
        <time>2020-01-19T09:45:41.000Z</time>
      </trkpt>
      <trkpt lat="47.32887" lon="-2.46155">
        <ele>4</ele>
        <time>2020-01-19T09:45:43.000Z</time>
      </trkpt>
      <trkpt lat="47.3289" lon="-2.46153">
        <ele>4.4000000953674</ele>
        <time>2020-01-19T09:45:44.000Z</time>
      </trkpt>
      <trkpt lat="47.32893" lon="-2.46152">
        <ele>4.8000001907349</ele>
        <time>2020-01-19T09:45:45.000Z</time>
      </trkpt>
      <trkpt lat="47.32895" lon="-2.46151">
        <ele>5.4000000953674</ele>
        <time>2020-01-19T09:45:46.000Z</time>
      </trkpt>
      <trkpt lat="47.32898" lon="-2.46152">
        <ele>5.8000001907349</ele>
        <time>2020-01-19T09:45:47.000Z</time>
      </trkpt>
      <trkpt lat="47.32901" lon="-2.46154">
        <ele>5.8000001907349</ele>
        <time>2020-01-19T09:45:49.000Z</time>
      </trkpt>
      <trkpt lat="47.32911" lon="-2.4617">
        <ele>5.8000001907349</ele>
        <time>2020-01-19T09:45:54.000Z</time>
      </trkpt>
      <trkpt lat="47.32913" lon="-2.46181">
        <ele>5.8000001907349</ele>
        <time>2020-01-19T09:45:56.000Z</time>
      </trkpt>
      <trkpt lat="47.32917" lon="-2.46191">
        <ele>5.8000001907349</ele>
        <time>2020-01-19T09:45:58.000Z</time>
      </trkpt>
      <trkpt lat="47.32928" lon="-2.46231">
        <ele>5.8000001907349</ele>
        <time>2020-01-19T09:46:04.000Z</time>
      </trkpt>
      <trkpt lat="47.3293" lon="-2.46237">
        <ele>5.8000001907349</ele>
        <time>2020-01-19T09:46:05.000Z</time>
      </trkpt>
      <trkpt lat="47.32939" lon="-2.46272">
        <ele>5.8000001907349</ele>
        <time>2020-01-19T09:46:10.000Z</time>
      </trkpt>
      <trkpt lat="47.32946" lon="-2.4629">
        <ele>5.8000001907349</ele>
        <time>2020-01-19T09:46:13.000Z</time>
      </trkpt>
      <trkpt lat="47.32951" lon="-2.46311">
        <ele>5.8000001907349</ele>
        <time>2020-01-19T09:46:16.000Z</time>
      </trkpt>
      <trkpt lat="47.32963" lon="-2.46357">
        <ele>5.8000001907349</ele>
        <time>2020-01-19T09:46:21.000Z</time>
      </trkpt>
      <trkpt lat="47.32966" lon="-2.46381">
        <ele>5.8000001907349</ele>
        <time>2020-01-19T09:46:23.000Z</time>
      </trkpt>
      <trkpt lat="47.32967" lon="-2.46408">
        <ele>5.4000000953674</ele>
        <time>2020-01-19T09:46:25.000Z</time>
      </trkpt>
      <trkpt lat="47.32967" lon="-2.46423">
        <ele>5</ele>
        <time>2020-01-19T09:46:26.000Z</time>
      </trkpt>
      <trkpt lat="47.32966" lon="-2.46438">
        <ele>4.5999999046326</ele>
        <time>2020-01-19T09:46:27.000Z</time>
      </trkpt>
      <trkpt lat="47.32965" lon="-2.46455">
        <ele>4</ele>
        <time>2020-01-19T09:46:28.000Z</time>
      </trkpt>
      <trkpt lat="47.32963" lon="-2.46469">
        <ele>3.4000000953674</ele>
        <time>2020-01-19T09:46:29.000Z</time>
      </trkpt>
      <trkpt lat="47.32963" lon="-2.46485">
        <ele>2.7999999523163</ele>
        <time>2020-01-19T09:46:30.000Z</time>
      </trkpt>
      <trkpt lat="47.32962" lon="-2.46502">
        <ele>2</ele>
        <time>2020-01-19T09:46:31.000Z</time>
      </trkpt>
      <trkpt lat="47.3296" lon="-2.46516">
        <ele>1.2000000476837</ele>
        <time>2020-01-19T09:46:32.000Z</time>
      </trkpt>
      <trkpt lat="47.32959" lon="-2.46529">
        <ele>0.40000000596046</ele>
        <time>2020-01-19T09:46:33.000Z</time>
      </trkpt>
      <trkpt lat="47.32959" lon="-2.46541">
        <ele>-0.60000002384186</ele>
        <time>2020-01-19T09:46:34.000Z</time>
      </trkpt>
      <trkpt lat="47.32959" lon="-2.46549">
        <ele>-1.6000000238419</ele>
        <time>2020-01-19T09:46:35.000Z</time>
      </trkpt>
      <trkpt lat="47.32962" lon="-2.46557">
        <ele>-2.5999999046326</ele>
        <time>2020-01-19T09:46:36.000Z</time>
      </trkpt>
      <trkpt lat="47.32965" lon="-2.46562">
        <ele>-3.5999999046326</ele>
        <time>2020-01-19T09:46:37.000Z</time>
      </trkpt>
      <trkpt lat="47.32969" lon="-2.46564">
        <ele>-5.8000001907349</ele>
        <time>2020-01-19T09:46:38.000Z</time>
      </trkpt>
      <trkpt lat="47.32973" lon="-2.46564">
        <ele>-6.8000001907349</ele>
        <time>2020-01-19T09:46:39.000Z</time>
      </trkpt>
      <trkpt lat="47.3298" lon="-2.4656">
        <ele>-6.8000001907349</ele>
        <time>2020-01-19T09:46:41.000Z</time>
      </trkpt>
      <trkpt lat="47.32988" lon="-2.46557">
        <ele>-6.8000001907349</ele>
        <time>2020-01-19T09:46:43.000Z</time>
      </trkpt>
      <trkpt lat="47.33006" lon="-2.46548">
        <ele>-6.4000000953674</ele>
        <time>2020-01-19T09:46:48.000Z</time>
      </trkpt>
      <trkpt lat="47.33009" lon="-2.46546">
        <ele>-5.8000001907349</ele>
        <time>2020-01-19T09:46:49.000Z</time>
      </trkpt>
      <trkpt lat="47.33013" lon="-2.46545">
        <ele>-5.4000000953674</ele>
        <time>2020-01-19T09:46:50.000Z</time>
      </trkpt>
      <trkpt lat="47.33016" lon="-2.46542">
        <ele>-5</ele>
        <time>2020-01-19T09:46:51.000Z</time>
      </trkpt>
      <trkpt lat="47.3302" lon="-2.4654">
        <ele>-4.4000000953674</ele>
        <time>2020-01-19T09:46:52.000Z</time>
      </trkpt>
      <trkpt lat="47.33027" lon="-2.46538">
        <ele>-4.4000000953674</ele>
        <time>2020-01-19T09:46:54.000Z</time>
      </trkpt>
      <trkpt lat="47.33042" lon="-2.46537">
        <ele>-4</ele>
        <time>2020-01-19T09:46:58.000Z</time>
      </trkpt>
      <trkpt lat="47.33046" lon="-2.46536">
        <ele>-3.5999999046326</ele>
        <time>2020-01-19T09:46:59.000Z</time>
      </trkpt>
      <trkpt lat="47.3305" lon="-2.46535">
        <ele>-3.2000000476837</ele>
        <time>2020-01-19T09:47:00.000Z</time>
      </trkpt>
      <trkpt lat="47.33053" lon="-2.46533">
        <ele>-2.7999999523163</ele>
        <time>2020-01-19T09:47:01.000Z</time>
      </trkpt>
      <trkpt lat="47.33057" lon="-2.46532">
        <ele>-2.4000000953674</ele>
        <time>2020-01-19T09:47:02.000Z</time>
      </trkpt>
      <trkpt lat="47.33072" lon="-2.46526">
        <ele>-2</ele>
        <time>2020-01-19T09:47:07.000Z</time>
      </trkpt>
      <trkpt lat="47.33075" lon="-2.46529">
        <ele>-1.6000000238419</ele>
        <time>2020-01-19T09:47:08.000Z</time>
      </trkpt>
      <trkpt lat="47.33078" lon="-2.46533">
        <ele>-1.2000000476837</ele>
        <time>2020-01-19T09:47:09.000Z</time>
      </trkpt>
      <trkpt lat="47.3308" lon="-2.46537">
        <ele>-0.80000001192093</ele>
        <time>2020-01-19T09:47:10.000Z</time>
      </trkpt>
      <trkpt lat="47.33081" lon="-2.46541">
        <ele>-0.40000000596046</ele>
        <time>2020-01-19T09:47:11.000Z</time>
      </trkpt>
      <trkpt lat="47.33083" lon="-2.46546">
        <ele>-0.40000000596046</ele>
        <time>2020-01-19T09:47:12.000Z</time>
      </trkpt>
      <trkpt lat="47.33088" lon="-2.46572">
        <ele>-0.40000000596046</ele>
        <time>2020-01-19T09:47:17.000Z</time>
      </trkpt>
      <trkpt lat="47.33097" lon="-2.46604">
        <ele>-0.40000000596046</ele>
        <time>2020-01-19T09:47:23.000Z</time>
      </trkpt>
      <trkpt lat="47.33112" lon="-2.4664">
        <ele>18.1</ele>
        <time>2020-01-19T09:47:30.000Z</time>
      </trkpt>
      <trkpt lat="47.33115" lon="-2.46645">
        <ele>0.40000000596046</ele>
        <time>2020-01-19T09:47:31.000Z</time>
      </trkpt>
      <trkpt lat="47.33118" lon="-2.4665">
        <ele>0.80000001192093</ele>
        <time>2020-01-19T09:47:32.000Z</time>
      </trkpt>
      <trkpt lat="47.3312" lon="-2.46655">
        <ele>1.2000000476837</ele>
        <time>2020-01-19T09:47:33.000Z</time>
      </trkpt>
      <trkpt lat="47.33124" lon="-2.46661">
        <ele>1.6000000238419</ele>
        <time>2020-01-19T09:47:34.000Z</time>
      </trkpt>
      <trkpt lat="47.33135" lon="-2.46683">
        <ele>1.6000000238419</ele>
        <time>2020-01-19T09:47:38.000Z</time>
      </trkpt>
      <trkpt lat="47.33157" lon="-2.4672">
        <ele>1.6000000238419</ele>
        <time>2020-01-19T09:47:45.000Z</time>
      </trkpt>
      <trkpt lat="47.33175" lon="-2.46745">
        <ele>2</ele>
        <time>2020-01-19T09:47:51.000Z</time>
      </trkpt>
      <trkpt lat="47.33178" lon="-2.46749">
        <ele>2.7999999523163</ele>
        <time>2020-01-19T09:47:52.000Z</time>
      </trkpt>
      <trkpt lat="47.33181" lon="-2.46753">
        <ele>3.4000000953674</ele>
        <time>2020-01-19T09:47:53.000Z</time>
      </trkpt>
      <trkpt lat="47.33185" lon="-2.46757">
        <ele>3.7999999523163</ele>
        <time>2020-01-19T09:47:54.000Z</time>
      </trkpt>
      <trkpt lat="47.33195" lon="-2.46769">
        <ele>3.7999999523163</ele>
        <time>2020-01-19T09:47:57.000Z</time>
      </trkpt>
      <trkpt lat="47.3322" lon="-2.46792">
        <ele>3.7999999523163</ele>
        <time>2020-01-19T09:48:04.000Z</time>
      </trkpt>
      <trkpt lat="47.33237" lon="-2.4679">
        <ele>3.7999999523163</ele>
        <time>2020-01-19T09:48:08.000Z</time>
      </trkpt>
      <trkpt lat="47.33242" lon="-2.46789">
        <ele>3.7999999523163</ele>
        <time>2020-01-19T09:48:09.000Z</time>
      </trkpt>
      <trkpt lat="47.3325" lon="-2.46785">
        <ele>4.1999998092651</ele>
        <time>2020-01-19T09:48:11.000Z</time>
      </trkpt>
      <trkpt lat="47.33253" lon="-2.46784">
        <ele>4.5999999046326</ele>
        <time>2020-01-19T09:48:12.000Z</time>
      </trkpt>
      <trkpt lat="47.33257" lon="-2.46783">
        <ele>5</ele>
        <time>2020-01-19T09:48:13.000Z</time>
      </trkpt>
      <trkpt lat="47.3326" lon="-2.46783">
        <ele>5.4000000953674</ele>
        <time>2020-01-19T09:48:14.000Z</time>
      </trkpt>
      <trkpt lat="47.33263" lon="-2.46784">
        <ele>5.8000001907349</ele>
        <time>2020-01-19T09:48:15.000Z</time>
      </trkpt>
      <trkpt lat="47.33278" lon="-2.46798">
        <ele>5.8000001907349</ele>
        <time>2020-01-19T09:48:20.000Z</time>
      </trkpt>
      <trkpt lat="47.3329" lon="-2.46823">
        <ele>5.8000001907349</ele>
        <time>2020-01-19T09:48:26.000Z</time>
      </trkpt>
      <trkpt lat="47.33306" lon="-2.46865">
        <ele>5.8000001907349</ele>
        <time>2020-01-19T09:48:34.000Z</time>
      </trkpt>
      <trkpt lat="47.33311" lon="-2.46885">
        <ele>5.8000001907349</ele>
        <time>2020-01-19T09:48:38.000Z</time>
      </trkpt>
      <trkpt lat="47.33317" lon="-2.46905">
        <ele>5.8000001907349</ele>
        <time>2020-01-19T09:48:41.000Z</time>
      </trkpt>
      <trkpt lat="47.3332" lon="-2.46919">
        <ele>5.4000000953674</ele>
        <time>2020-01-19T09:48:43.000Z</time>
      </trkpt>
      <trkpt lat="47.33323" lon="-2.46927">
        <ele>5</ele>
        <time>2020-01-19T09:48:44.000Z</time>
      </trkpt>
      <trkpt lat="47.33325" lon="-2.46934">
        <ele>4.5999999046326</ele>
        <time>2020-01-19T09:48:45.000Z</time>
      </trkpt>
      <trkpt lat="47.33327" lon="-2.46942">
        <ele>4.1999998092651</ele>
        <time>2020-01-19T09:48:46.000Z</time>
      </trkpt>
      <trkpt lat="47.33329" lon="-2.4695">
        <ele>3.7999999523163</ele>
        <time>2020-01-19T09:48:47.000Z</time>
      </trkpt>
      <trkpt lat="47.33333" lon="-2.46967">
        <ele>3.7999999523163</ele>
        <time>2020-01-19T09:48:49.000Z</time>
      </trkpt>
      <trkpt lat="47.33344" lon="-2.47013">
        <ele>3.7999999523163</ele>
        <time>2020-01-19T09:48:54.000Z</time>
      </trkpt>
      <trkpt lat="47.33346" lon="-2.47023">
        <ele>3.7999999523163</ele>
        <time>2020-01-19T09:48:55.000Z</time>
      </trkpt>
      <trkpt lat="47.33347" lon="-2.47034">
        <ele>3.4000000953674</ele>
        <time>2020-01-19T09:48:56.000Z</time>
      </trkpt>
      <trkpt lat="47.33348" lon="-2.47044">
        <ele>2.7999999523163</ele>
        <time>2020-01-19T09:48:57.000Z</time>
      </trkpt>
      <trkpt lat="47.33349" lon="-2.47055">
        <ele>2.4000000953674</ele>
        <time>2020-01-19T09:48:58.000Z</time>
      </trkpt>
      <trkpt lat="47.3335" lon="-2.47064">
        <ele>2</ele>
        <time>2020-01-19T09:48:59.000Z</time>
      </trkpt>
      <trkpt lat="47.33351" lon="-2.47073">
        <ele>1.3999999761581</ele>
        <time>2020-01-19T09:49:00.000Z</time>
      </trkpt>
      <trkpt lat="47.33357" lon="-2.47103">
        <ele>1.3999999761581</ele>
        <time>2020-01-19T09:49:04.000Z</time>
      </trkpt>
      <trkpt lat="47.33364" lon="-2.47126">
        <ele>1.3999999761581</ele>
        <time>2020-01-19T09:49:09.000Z</time>
      </trkpt>
      <trkpt lat="47.3337" lon="-2.47152">
        <ele>1.3999999761581</ele>
        <time>2020-01-19T09:49:15.000Z</time>
      </trkpt>
      <trkpt lat="47.33373" lon="-2.4718">
        <ele>1.3999999761581</ele>
        <time>2020-01-19T09:49:20.000Z</time>
      </trkpt>
      <trkpt lat="47.33375" lon="-2.47199">
        <ele>2</ele>
        <time>2020-01-19T09:49:23.000Z</time>
      </trkpt>
      <trkpt lat="47.33376" lon="-2.47205">
        <ele>2.4000000953674</ele>
        <time>2020-01-19T09:49:24.000Z</time>
      </trkpt>
      <trkpt lat="47.33377" lon="-2.47211">
        <ele>2.7999999523163</ele>
        <time>2020-01-19T09:49:25.000Z</time>
      </trkpt>
      <trkpt lat="47.33378" lon="-2.47218">
        <ele>3.2000000476837</ele>
        <time>2020-01-19T09:49:26.000Z</time>
      </trkpt>
      <trkpt lat="47.33379" lon="-2.47225">
        <ele>3.5999999046326</ele>
        <time>2020-01-19T09:49:27.000Z</time>
      </trkpt>
      <trkpt lat="47.33385" lon="-2.47267">
        <ele>3.5999999046326</ele>
        <time>2020-01-19T09:49:33.000Z</time>
      </trkpt>
      <trkpt lat="47.33387" lon="-2.47281">
        <ele>3.5999999046326</ele>
        <time>2020-01-19T09:49:35.000Z</time>
      </trkpt>
      <trkpt lat="47.3339" lon="-2.4732">
        <ele>3.5999999046326</ele>
        <time>2020-01-19T09:49:41.000Z</time>
      </trkpt>
      <trkpt lat="47.33398" lon="-2.47365">
        <ele>3.5999999046326</ele>
        <time>2020-01-19T09:49:48.000Z</time>
      </trkpt>
      <trkpt lat="47.3341" lon="-2.47404">
        <ele>3.5999999046326</ele>
        <time>2020-01-19T09:49:54.000Z</time>
      </trkpt>
      <trkpt lat="47.33412" lon="-2.47411">
        <ele>3.5999999046326</ele>
        <time>2020-01-19T09:49:55.000Z</time>
      </trkpt>
      <trkpt lat="47.33413" lon="-2.47418">
        <ele>3.5999999046326</ele>
        <time>2020-01-19T09:49:56.000Z</time>
      </trkpt>
      <trkpt lat="47.33418" lon="-2.47444">
        <ele>3.5999999046326</ele>
        <time>2020-01-19T09:50:00.000Z</time>
      </trkpt>
      <trkpt lat="47.33425" lon="-2.47467">
        <ele>3.5999999046326</ele>
        <time>2020-01-19T09:50:04.000Z</time>
      </trkpt>
      <trkpt lat="47.3343" lon="-2.47479">
        <ele>3.5999999046326</ele>
        <time>2020-01-19T09:50:06.000Z</time>
      </trkpt>
      <trkpt lat="47.33449" lon="-2.47527">
        <ele>3.5999999046326</ele>
        <time>2020-01-19T09:50:14.000Z</time>
      </trkpt>
      <trkpt lat="47.33466" lon="-2.47562">
        <ele>3.5999999046326</ele>
        <time>2020-01-19T09:50:20.000Z</time>
      </trkpt>
      <trkpt lat="47.33472" lon="-2.47574">
        <ele>3.5999999046326</ele>
        <time>2020-01-19T09:50:22.000Z</time>
      </trkpt>
      <trkpt lat="47.33489" lon="-2.47599">
        <ele>3.5999999046326</ele>
        <time>2020-01-19T09:50:26.000Z</time>
      </trkpt>
      <trkpt lat="47.33494" lon="-2.47604">
        <ele>3.5999999046326</ele>
        <time>2020-01-19T09:50:27.000Z</time>
      </trkpt>
      <trkpt lat="47.33508" lon="-2.4762">
        <ele>3.5999999046326</ele>
        <time>2020-01-19T09:50:30.000Z</time>
      </trkpt>
      <trkpt lat="47.33512" lon="-2.47627">
        <ele>3.5999999046326</ele>
        <time>2020-01-19T09:50:31.000Z</time>
      </trkpt>
      <trkpt lat="47.33531" lon="-2.4767">
        <ele>3.5999999046326</ele>
        <time>2020-01-19T09:50:37.000Z</time>
      </trkpt>
      <trkpt lat="47.33549" lon="-2.47681">
        <ele>3.5999999046326</ele>
        <time>2020-01-19T09:50:41.000Z</time>
      </trkpt>
      <trkpt lat="47.33558" lon="-2.47688">
        <ele>3.5999999046326</ele>
        <time>2020-01-19T09:50:43.000Z</time>
      </trkpt>
      <trkpt lat="47.33563" lon="-2.47693">
        <ele>3.5999999046326</ele>
        <time>2020-01-19T09:50:45.000Z</time>
      </trkpt>
      <trkpt lat="47.33577" lon="-2.47703">
        <ele>3.5999999046326</ele>
        <time>2020-01-19T09:50:50.000Z</time>
      </trkpt>
      <trkpt lat="47.3359" lon="-2.47703">
        <ele>3.5999999046326</ele>
        <time>2020-01-19T09:50:55.000Z</time>
      </trkpt>
      <trkpt lat="47.33599" lon="-2.47696">
        <ele>3.5999999046326</ele>
        <time>2020-01-19T09:51:00.000Z</time>
      </trkpt>
      <trkpt lat="47.33609" lon="-2.47685">
        <ele>3.5999999046326</ele>
        <time>2020-01-19T09:51:05.000Z</time>
      </trkpt>
      <trkpt lat="47.33621" lon="-2.47674">
        <ele>3.5999999046326</ele>
        <time>2020-01-19T09:51:11.000Z</time>
      </trkpt>
      <trkpt lat="47.33632" lon="-2.47667">
        <ele>3.5999999046326</ele>
        <time>2020-01-19T09:51:16.000Z</time>
      </trkpt>
      <trkpt lat="47.33647" lon="-2.47655">
        <ele>3.5999999046326</ele>
        <time>2020-01-19T09:51:22.000Z</time>
      </trkpt>
      <trkpt lat="47.3365" lon="-2.47653">
        <ele>4</ele>
        <time>2020-01-19T09:51:23.000Z</time>
      </trkpt>
      <trkpt lat="47.33653" lon="-2.47651">
        <ele>4.4000000953674</ele>
        <time>2020-01-19T09:51:24.000Z</time>
      </trkpt>
      <trkpt lat="47.33655" lon="-2.4765">
        <ele>5</ele>
        <time>2020-01-19T09:51:25.000Z</time>
      </trkpt>
      <trkpt lat="47.33658" lon="-2.47648">
        <ele>5.4000000953674</ele>
        <time>2020-01-19T09:51:26.000Z</time>
      </trkpt>
      <trkpt lat="47.33661" lon="-2.47646">
        <ele>5.8000001907349</ele>
        <time>2020-01-19T09:51:27.000Z</time>
      </trkpt>
      <trkpt lat="47.33665" lon="-2.47642">
        <ele>5.8000001907349</ele>
        <time>2020-01-19T09:51:29.000Z</time>
      </trkpt>
      <trkpt lat="47.3368" lon="-2.47631">
        <ele>5.8000001907349</ele>
        <time>2020-01-19T09:51:36.000Z</time>
      </trkpt>
      <trkpt lat="47.3369" lon="-2.47627">
        <ele>5.8000001907349</ele>
        <time>2020-01-19T09:51:41.000Z</time>
      </trkpt>
      <trkpt lat="47.33703" lon="-2.47624">
        <ele>5.8000001907349</ele>
        <time>2020-01-19T09:51:47.000Z</time>
      </trkpt>
      <trkpt lat="47.33713" lon="-2.47621">
        <ele>5.8000001907349</ele>
        <time>2020-01-19T09:51:52.000Z</time>
      </trkpt>
      <trkpt lat="47.33723" lon="-2.47622">
        <ele>5.8000001907349</ele>
        <time>2020-01-19T09:51:58.000Z</time>
      </trkpt>
      <trkpt lat="47.33724" lon="-2.47621">
        <ele>5.8000001907349</ele>
        <time>2020-01-19T09:51:59.000Z</time>
      </trkpt>
      <trkpt lat="47.3373" lon="-2.47617">
        <ele>5.8000001907349</ele>
        <time>2020-01-19T09:52:03.000Z</time>
      </trkpt>
      <trkpt lat="47.3373" lon="-2.47616">
        <ele>5.8000001907349</ele>
        <time>2020-01-19T09:52:04.000Z</time>
      </trkpt>
      <trkpt lat="47.3373" lon="-2.47612">
        <ele>5.8000001907349</ele>
        <time>2020-01-19T09:52:08.000Z</time>
      </trkpt>
      <trkpt lat="47.33734" lon="-2.47621">
        <ele>5.8000001907349</ele>
        <time>2020-01-19T09:52:21.000Z</time>
      </trkpt>
      <trkpt lat="47.33737" lon="-2.47624">
        <ele>5.8000001907349</ele>
        <time>2020-01-19T09:52:23.000Z</time>
      </trkpt>
      <trkpt lat="47.33751" lon="-2.47635">
        <ele>5.8000001907349</ele>
        <time>2020-01-19T09:52:30.000Z</time>
      </trkpt>
      <trkpt lat="47.33762" lon="-2.47655">
        <ele>5.8000001907349</ele>
        <time>2020-01-19T09:52:36.000Z</time>
      </trkpt>
      <trkpt lat="47.33773" lon="-2.47678">
        <ele>5.8000001907349</ele>
        <time>2020-01-19T09:52:42.000Z</time>
      </trkpt>
      <trkpt lat="47.33791" lon="-2.47699">
        <ele>5.8000001907349</ele>
        <time>2020-01-19T09:52:47.000Z</time>
      </trkpt>
      <trkpt lat="47.33794" lon="-2.47702">
        <ele>5.1999998092651</ele>
        <time>2020-01-19T09:52:48.000Z</time>
      </trkpt>
      <trkpt lat="47.33797" lon="-2.47706">
        <ele>4.8000001907349</ele>
        <time>2020-01-19T09:52:49.000Z</time>
      </trkpt>
      <trkpt lat="47.338" lon="-2.47709">
        <ele>4.4000000953674</ele>
        <time>2020-01-19T09:52:50.000Z</time>
      </trkpt>
      <trkpt lat="47.33802" lon="-2.47712">
        <ele>4</ele>
        <time>2020-01-19T09:52:51.000Z</time>
      </trkpt>
      <trkpt lat="47.33805" lon="-2.47715">
        <ele>3.4000000953674</ele>
        <time>2020-01-19T09:52:52.000Z</time>
      </trkpt>
      <trkpt lat="47.33808" lon="-2.47718">
        <ele>3.4000000953674</ele>
        <time>2020-01-19T09:52:53.000Z</time>
      </trkpt>
      <trkpt lat="47.33823" lon="-2.47737">
        <ele>3.4000000953674</ele>
        <time>2020-01-19T09:52:59.000Z</time>
      </trkpt>
      <trkpt lat="47.33837" lon="-2.47755">
        <ele>3.4000000953674</ele>
        <time>2020-01-19T09:53:05.000Z</time>
      </trkpt>
      <trkpt lat="47.3385" lon="-2.47775">
        <ele>3</ele>
        <time>2020-01-19T09:53:11.000Z</time>
      </trkpt>
      <trkpt lat="47.33851" lon="-2.47778">
        <ele>2.5999999046326</ele>
        <time>2020-01-19T09:53:12.000Z</time>
      </trkpt>
      <trkpt lat="47.33852" lon="-2.47782">
        <ele>1.7999999523163</ele>
        <time>2020-01-19T09:53:13.000Z</time>
      </trkpt>
      <trkpt lat="47.33851" lon="-2.47786">
        <ele>1.3999999761581</ele>
        <time>2020-01-19T09:53:14.000Z</time>
      </trkpt>
      <trkpt lat="47.33849" lon="-2.47796">
        <ele>1.3999999761581</ele>
        <time>2020-01-19T09:53:16.000Z</time>
      </trkpt>
      <trkpt lat="47.33841" lon="-2.47811">
        <ele>1.3999999761581</ele>
        <time>2020-01-19T09:53:19.000Z</time>
      </trkpt>
      <trkpt lat="47.33839" lon="-2.47815">
        <ele>1.3999999761581</ele>
        <time>2020-01-19T09:53:20.000Z</time>
      </trkpt>
      <trkpt lat="47.33836" lon="-2.47821">
        <ele>1.3999999761581</ele>
        <time>2020-01-19T09:53:21.000Z</time>
      </trkpt>
      <trkpt lat="47.33822" lon="-2.47844">
        <ele>1.3999999761581</ele>
        <time>2020-01-19T09:53:26.000Z</time>
      </trkpt>
      <trkpt lat="47.33806" lon="-2.47873">
        <ele>1.3999999761581</ele>
        <time>2020-01-19T09:53:31.000Z</time>
      </trkpt>
      <trkpt lat="47.33785" lon="-2.47908">
        <ele>1.3999999761581</ele>
        <time>2020-01-19T09:53:36.000Z</time>
      </trkpt>
      <trkpt lat="47.33778" lon="-2.47924">
        <ele>0.80000001192093</ele>
        <time>2020-01-19T09:53:38.000Z</time>
      </trkpt>
      <trkpt lat="47.33774" lon="-2.47931">
        <ele>0.40000000596046</ele>
        <time>2020-01-19T09:53:39.000Z</time>
      </trkpt>
      <trkpt lat="47.3377" lon="-2.47939">
        <ele>15.1</ele>
        <time>2020-01-19T09:53:40.000Z</time>
      </trkpt>
      <trkpt lat="47.33767" lon="-2.47949">
        <ele>-0.40000000596046</ele>
        <time>2020-01-19T09:53:41.000Z</time>
      </trkpt>
      <trkpt lat="47.33764" lon="-2.47958">
        <ele>-1</ele>
        <time>2020-01-19T09:53:42.000Z</time>
      </trkpt>
      <trkpt lat="47.33748" lon="-2.48025">
        <ele>-1</ele>
        <time>2020-01-19T09:53:49.000Z</time>
      </trkpt>
      <trkpt lat="47.33747" lon="-2.48036">
        <ele>-1</ele>
        <time>2020-01-19T09:53:50.000Z</time>
      </trkpt>
      <trkpt lat="47.3374" lon="-2.48073">
        <ele>-1</ele>
        <time>2020-01-19T09:53:54.000Z</time>
      </trkpt>
      <trkpt lat="47.33736" lon="-2.48092">
        <ele>-1.3999999761581</ele>
        <time>2020-01-19T09:53:56.000Z</time>
      </trkpt>
      <trkpt lat="47.33734" lon="-2.48102">
        <ele>-1.7999999523163</ele>
        <time>2020-01-19T09:53:57.000Z</time>
      </trkpt>
      <trkpt lat="47.33731" lon="-2.48112">
        <ele>-2.2000000476837</ele>
        <time>2020-01-19T09:53:58.000Z</time>
      </trkpt>
      <trkpt lat="47.3373" lon="-2.48123">
        <ele>-2.5999999046326</ele>
        <time>2020-01-19T09:53:59.000Z</time>
      </trkpt>
      <trkpt lat="47.33729" lon="-2.48134">
        <ele>-3</ele>
        <time>2020-01-19T09:54:00.000Z</time>
      </trkpt>
      <trkpt lat="47.33728" lon="-2.48164">
        <ele>-3.4000000953674</ele>
        <time>2020-01-19T09:54:03.000Z</time>
      </trkpt>
      <trkpt lat="47.33728" lon="-2.48173">
        <ele>-3.7999999523163</ele>
        <time>2020-01-19T09:54:04.000Z</time>
      </trkpt>
      <trkpt lat="47.33727" lon="-2.48184">
        <ele>-4.1999998092651</ele>
        <time>2020-01-19T09:54:05.000Z</time>
      </trkpt>
      <trkpt lat="47.33727" lon="-2.48195">
        <ele>-4.5999999046326</ele>
        <time>2020-01-19T09:54:06.000Z</time>
      </trkpt>
      <trkpt lat="47.33726" lon="-2.48206">
        <ele>-5.1999998092651</ele>
        <time>2020-01-19T09:54:07.000Z</time>
      </trkpt>
      <trkpt lat="47.33724" lon="-2.48247">
        <ele>-5.1999998092651</ele>
        <time>2020-01-19T09:54:11.000Z</time>
      </trkpt>
      <trkpt lat="47.33723" lon="-2.48291">
        <ele>-5.5999999046326</ele>
        <time>2020-01-19T09:54:15.000Z</time>
      </trkpt>
      <trkpt lat="47.33723" lon="-2.48301">
        <ele>-6</ele>
        <time>2020-01-19T09:54:16.000Z</time>
      </trkpt>
      <trkpt lat="47.33724" lon="-2.4831">
        <ele>-6.4000000953674</ele>
        <time>2020-01-19T09:54:17.000Z</time>
      </trkpt>
      <trkpt lat="47.33724" lon="-2.48317">
        <ele>-6.8000001907349</ele>
        <time>2020-01-19T09:54:18.000Z</time>
      </trkpt>
      <trkpt lat="47.33724" lon="-2.48322">
        <ele>-7.1999998092651</ele>
        <time>2020-01-19T09:54:19.000Z</time>
      </trkpt>
      <trkpt lat="47.33721" lon="-2.48328">
        <ele>-7.5999999046326</ele>
        <time>2020-01-19T09:54:21.000Z</time>
      </trkpt>
      <trkpt lat="47.33716" lon="-2.4833">
        <ele>-8</ele>
        <time>2020-01-19T09:54:22.000Z</time>
      </trkpt>
      <trkpt lat="47.33712" lon="-2.48331">
        <ele>-8.3999996185303</ele>
        <time>2020-01-19T09:54:23.000Z</time>
      </trkpt>
      <trkpt lat="47.33708" lon="-2.48332">
        <ele>-8.8000001907349</ele>
        <time>2020-01-19T09:54:24.000Z</time>
      </trkpt>
      <trkpt lat="47.33703" lon="-2.48334">
        <ele>-9.1999998092651</ele>
        <time>2020-01-19T09:54:25.000Z</time>
      </trkpt>
      <trkpt lat="47.33683" lon="-2.48339">
        <ele>-9.1999998092651</ele>
        <time>2020-01-19T09:54:28.000Z</time>
      </trkpt>
      <trkpt lat="47.33667" lon="-2.48344">
        <ele>-9.1999998092651</ele>
        <time>2020-01-19T09:54:30.000Z</time>
      </trkpt>
      <trkpt lat="47.33652" lon="-2.48353">
        <ele>-9.1999998092651</ele>
        <time>2020-01-19T09:54:32.000Z</time>
      </trkpt>
      <trkpt lat="47.33645" lon="-2.48361">
        <ele>-9.8000001907349</ele>
        <time>2020-01-19T09:54:33.000Z</time>
      </trkpt>
      <trkpt lat="47.33639" lon="-2.48368">
        <ele>-10.199999809265</ele>
        <time>2020-01-19T09:54:34.000Z</time>
      </trkpt>
      <trkpt lat="47.33634" lon="-2.48379">
        <ele>-10.800000190735</ele>
        <time>2020-01-19T09:54:35.000Z</time>
      </trkpt>
      <trkpt lat="47.3363" lon="-2.48389">
        <ele>-11.199999809265</ele>
        <time>2020-01-19T09:54:36.000Z</time>
      </trkpt>
      <trkpt lat="47.33627" lon="-2.48401">
        <ele>-11.800000190735</ele>
        <time>2020-01-19T09:54:37.000Z</time>
      </trkpt>
      <trkpt lat="47.33625" lon="-2.48412">
        <ele>-11.800000190735</ele>
        <time>2020-01-19T09:54:38.000Z</time>
      </trkpt>
      <trkpt lat="47.33612" lon="-2.48466">
        <ele>-11.800000190735</ele>
        <time>2020-01-19T09:54:43.000Z</time>
      </trkpt>
      <trkpt lat="47.33604" lon="-2.48487">
        <ele>-11.800000190735</ele>
        <time>2020-01-19T09:54:45.000Z</time>
      </trkpt>
      <trkpt lat="47.33596" lon="-2.48506">
        <ele>-11.800000190735</ele>
        <time>2020-01-19T09:54:47.000Z</time>
      </trkpt>
      <trkpt lat="47.33577" lon="-2.48543">
        <ele>-11.800000190735</ele>
        <time>2020-01-19T09:54:51.000Z</time>
      </trkpt>
      <trkpt lat="47.33543" lon="-2.48606">
        <ele>-11.800000190735</ele>
        <time>2020-01-19T09:54:58.000Z</time>
      </trkpt>
      <trkpt lat="47.33533" lon="-2.48623">
        <ele>-11.800000190735</ele>
        <time>2020-01-19T09:55:00.000Z</time>
      </trkpt>
      <trkpt lat="47.33509" lon="-2.48661">
        <ele>-12.199999809265</ele>
        <time>2020-01-19T09:55:05.000Z</time>
      </trkpt>
      <trkpt lat="47.33505" lon="-2.48667">
        <ele>-12.60000038147</ele>
        <time>2020-01-19T09:55:06.000Z</time>
      </trkpt>
      <trkpt lat="47.335" lon="-2.48674">
        <ele>-13</ele>
        <time>2020-01-19T09:55:07.000Z</time>
      </trkpt>
      <trkpt lat="47.33495" lon="-2.4868">
        <ele>-13.39999961853</ele>
        <time>2020-01-19T09:55:08.000Z</time>
      </trkpt>
      <trkpt lat="47.3349" lon="-2.48687">
        <ele>-13.800000190735</ele>
        <time>2020-01-19T09:55:09.000Z</time>
      </trkpt>
      <trkpt lat="47.33464" lon="-2.48718">
        <ele>-13.800000190735</ele>
        <time>2020-01-19T09:55:14.000Z</time>
      </trkpt>
      <trkpt lat="47.33422" lon="-2.4877">
        <ele>-13.800000190735</ele>
        <time>2020-01-19T09:55:22.000Z</time>
      </trkpt>
      <trkpt lat="47.33412" lon="-2.48782">
        <ele>-13.800000190735</ele>
        <time>2020-01-19T09:55:24.000Z</time>
      </trkpt>
      <trkpt lat="47.33379" lon="-2.48819">
        <ele>-13.800000190735</ele>
        <time>2020-01-19T09:55:30.000Z</time>
      </trkpt>
      <trkpt lat="47.33353" lon="-2.48831">
        <ele>-13.800000190735</ele>
        <time>2020-01-19T09:55:34.000Z</time>
      </trkpt>
      <trkpt lat="47.33347" lon="-2.48832">
        <ele>-13.800000190735</ele>
        <time>2020-01-19T09:55:35.000Z</time>
      </trkpt>
      <trkpt lat="47.33328" lon="-2.48832">
        <ele>-13.800000190735</ele>
        <time>2020-01-19T09:55:38.000Z</time>
      </trkpt>
      <trkpt lat="47.33316" lon="-2.4883">
        <ele>-13.800000190735</ele>
        <time>2020-01-19T09:55:40.000Z</time>
      </trkpt>
      <trkpt lat="47.33309" lon="-2.4883">
        <ele>-13.800000190735</ele>
        <time>2020-01-19T09:55:41.000Z</time>
      </trkpt>
      <trkpt lat="47.33291" lon="-2.48838">
        <ele>-13.800000190735</ele>
        <time>2020-01-19T09:55:44.000Z</time>
      </trkpt>
      <trkpt lat="47.33275" lon="-2.48853">
        <ele>-13.800000190735</ele>
        <time>2020-01-19T09:55:47.000Z</time>
      </trkpt>
      <trkpt lat="47.33266" lon="-2.48863">
        <ele>-13.800000190735</ele>
        <time>2020-01-19T09:55:49.000Z</time>
      </trkpt>
      <trkpt lat="47.33256" lon="-2.48876">
        <ele>-13.800000190735</ele>
        <time>2020-01-19T09:55:52.000Z</time>
      </trkpt>
      <trkpt lat="47.33252" lon="-2.48886">
        <ele>-13.800000190735</ele>
        <time>2020-01-19T09:55:54.000Z</time>
      </trkpt>
      <trkpt lat="47.33256" lon="-2.48913">
        <ele>-13.800000190735</ele>
        <time>2020-01-19T09:55:59.000Z</time>
      </trkpt>
      <trkpt lat="47.33266" lon="-2.48959">
        <ele>-13.800000190735</ele>
        <time>2020-01-19T09:56:07.000Z</time>
      </trkpt>
      <trkpt lat="47.33277" lon="-2.49003">
        <ele>-13.800000190735</ele>
        <time>2020-01-19T09:56:15.000Z</time>
      </trkpt>
      <trkpt lat="47.33285" lon="-2.49031">
        <ele>-13.800000190735</ele>
        <time>2020-01-19T09:56:21.000Z</time>
      </trkpt>
      <trkpt lat="47.33299" lon="-2.49065">
        <ele>-13.800000190735</ele>
        <time>2020-01-19T09:56:28.000Z</time>
      </trkpt>
      <trkpt lat="47.33322" lon="-2.49102">
        <ele>-13.800000190735</ele>
        <time>2020-01-19T09:56:35.000Z</time>
      </trkpt>
      <trkpt lat="47.33346" lon="-2.49136">
        <ele>-13.800000190735</ele>
        <time>2020-01-19T09:56:42.000Z</time>
      </trkpt>
      <trkpt lat="47.33365" lon="-2.49173">
        <ele>-13.800000190735</ele>
        <time>2020-01-19T09:56:49.000Z</time>
      </trkpt>
      <trkpt lat="47.33372" lon="-2.49189">
        <ele>-13.800000190735</ele>
        <time>2020-01-19T09:56:52.000Z</time>
      </trkpt>
      <trkpt lat="47.33381" lon="-2.49215">
        <ele>-13.800000190735</ele>
        <time>2020-01-19T09:56:56.000Z</time>
      </trkpt>
      <trkpt lat="47.33387" lon="-2.49259">
        <ele>-13.800000190735</ele>
        <time>2020-01-19T09:57:02.000Z</time>
      </trkpt>
      <trkpt lat="47.33389" lon="-2.49273">
        <ele>-13.800000190735</ele>
        <time>2020-01-19T09:57:04.000Z</time>
      </trkpt>
      <trkpt lat="47.33396" lon="-2.49292">
        <ele>-13.800000190735</ele>
        <time>2020-01-19T09:57:07.000Z</time>
      </trkpt>
      <trkpt lat="47.33413" lon="-2.49334">
        <ele>-13.800000190735</ele>
        <time>2020-01-19T09:57:14.000Z</time>
      </trkpt>
      <trkpt lat="47.33422" lon="-2.49377">
        <ele>-13.800000190735</ele>
        <time>2020-01-19T09:57:20.000Z</time>
      </trkpt>
      <trkpt lat="47.33429" lon="-2.49435">
        <ele>-13.800000190735</ele>
        <time>2020-01-19T09:57:28.000Z</time>
      </trkpt>
      <trkpt lat="47.33436" lon="-2.49496">
        <ele>-13.800000190735</ele>
        <time>2020-01-19T09:57:36.000Z</time>
      </trkpt>
      <trkpt lat="47.33443" lon="-2.49549">
        <ele>-13.800000190735</ele>
        <time>2020-01-19T09:57:43.000Z</time>
      </trkpt>
      <trkpt lat="47.3345" lon="-2.49608">
        <ele>-13.800000190735</ele>
        <time>2020-01-19T09:57:51.000Z</time>
      </trkpt>
      <trkpt lat="47.33461" lon="-2.49659">
        <ele>-13.800000190735</ele>
        <time>2020-01-19T09:57:58.000Z</time>
      </trkpt>
      <trkpt lat="47.33486" lon="-2.49723">
        <ele>-13.800000190735</ele>
        <time>2020-01-19T09:58:08.000Z</time>
      </trkpt>
      <trkpt lat="47.33509" lon="-2.49775">
        <ele>-13.800000190735</ele>
        <time>2020-01-19T09:58:16.000Z</time>
      </trkpt>
      <trkpt lat="47.33528" lon="-2.49824">
        <ele>-13.800000190735</ele>
        <time>2020-01-19T09:58:23.000Z</time>
      </trkpt>
      <trkpt lat="47.33549" lon="-2.49883">
        <ele>-13.800000190735</ele>
        <time>2020-01-19T09:58:31.000Z</time>
      </trkpt>
      <trkpt lat="47.33551" lon="-2.4989">
        <ele>-13.800000190735</ele>
        <time>2020-01-19T09:58:32.000Z</time>
      </trkpt>
      <trkpt lat="47.33569" lon="-2.4994">
        <ele>-13.800000190735</ele>
        <time>2020-01-19T09:58:39.000Z</time>
      </trkpt>
      <trkpt lat="47.3359" lon="-2.50007">
        <ele>-13.800000190735</ele>
        <time>2020-01-19T09:58:48.000Z</time>
      </trkpt>
      <trkpt lat="47.33609" lon="-2.50056">
        <ele>-13.800000190735</ele>
        <time>2020-01-19T09:58:55.000Z</time>
      </trkpt>
      <trkpt lat="47.33622" lon="-2.50088">
        <ele>-13.800000190735</ele>
        <time>2020-01-19T09:59:01.000Z</time>
      </trkpt>
      <trkpt lat="47.33626" lon="-2.501">
        <ele>-13.800000190735</ele>
        <time>2020-01-19T09:59:04.000Z</time>
      </trkpt>
      <trkpt lat="47.33624" lon="-2.50102">
        <ele>-13.800000190735</ele>
        <time>2020-01-19T09:59:05.000Z</time>
      </trkpt>
      <trkpt lat="47.33618" lon="-2.50103">
        <ele>-13.800000190735</ele>
        <time>2020-01-19T09:59:08.000Z</time>
      </trkpt>
      <trkpt lat="47.33615" lon="-2.50101">
        <ele>-13.800000190735</ele>
        <time>2020-01-19T09:59:09.000Z</time>
      </trkpt>
      <trkpt lat="47.33611" lon="-2.50098">
        <ele>-13.800000190735</ele>
        <time>2020-01-19T09:59:11.000Z</time>
      </trkpt>
      <trkpt lat="47.33608" lon="-2.50094">
        <ele>-13.800000190735</ele>
        <time>2020-01-19T09:59:13.000Z</time>
      </trkpt>
      <trkpt lat="47.33598" lon="-2.50083">
        <ele>-13.800000190735</ele>
        <time>2020-01-19T09:59:18.000Z</time>
      </trkpt>
      <trkpt lat="47.33585" lon="-2.50074">
        <ele>-13.800000190735</ele>
        <time>2020-01-19T09:59:23.000Z</time>
      </trkpt>
      <trkpt lat="47.33567" lon="-2.50056">
        <ele>-13.800000190735</ele>
        <time>2020-01-19T09:59:30.000Z</time>
      </trkpt>
      <trkpt lat="47.3356" lon="-2.50047">
        <ele>-13.800000190735</ele>
        <time>2020-01-19T09:59:35.000Z</time>
      </trkpt>
      <trkpt lat="47.33557" lon="-2.50053">
        <ele>-13.800000190735</ele>
        <time>2020-01-19T09:59:44.000Z</time>
      </trkpt>
      <trkpt lat="47.33555" lon="-2.50058">
        <ele>-13.800000190735</ele>
        <time>2020-01-19T09:59:47.000Z</time>
      </trkpt>
      <trkpt lat="47.33545" lon="-2.50067">
        <ele>-13.800000190735</ele>
        <time>2020-01-19T09:59:52.000Z</time>
      </trkpt>
      <trkpt lat="47.33531" lon="-2.50065">
        <ele>-13.800000190735</ele>
        <time>2020-01-19T09:59:56.000Z</time>
      </trkpt>
      <trkpt lat="47.33514" lon="-2.50058">
        <ele>-13.800000190735</ele>
        <time>2020-01-19T10:00:00.000Z</time>
      </trkpt>
      <trkpt lat="47.33489" lon="-2.50045">
        <ele>-13.800000190735</ele>
        <time>2020-01-19T10:00:06.000Z</time>
      </trkpt>
      <trkpt lat="47.33484" lon="-2.50044">
        <ele>-13.800000190735</ele>
        <time>2020-01-19T10:00:07.000Z</time>
      </trkpt>
      <trkpt lat="47.33459" lon="-2.5003">
        <ele>-13.800000190735</ele>
        <time>2020-01-19T10:00:13.000Z</time>
      </trkpt>
      <trkpt lat="47.33435" lon="-2.50018">
        <ele>-13.800000190735</ele>
        <time>2020-01-19T10:00:19.000Z</time>
      </trkpt>
      <trkpt lat="47.33415" lon="-2.50008">
        <ele>-13.800000190735</ele>
        <time>2020-01-19T10:00:23.000Z</time>
      </trkpt>
      <trkpt lat="47.33384" lon="-2.49996">
        <ele>-13.800000190735</ele>
        <time>2020-01-19T10:00:29.000Z</time>
      </trkpt>
      <trkpt lat="47.3337" lon="-2.49991">
        <ele>-13.800000190735</ele>
        <time>2020-01-19T10:00:32.000Z</time>
      </trkpt>
      <trkpt lat="47.33361" lon="-2.49988">
        <ele>-13.800000190735</ele>
        <time>2020-01-19T10:00:34.000Z</time>
      </trkpt>
      <trkpt lat="47.33356" lon="-2.49985">
        <ele>-13.800000190735</ele>
        <time>2020-01-19T10:00:35.000Z</time>
      </trkpt>
      <trkpt lat="47.33339" lon="-2.49972">
        <ele>-13.800000190735</ele>
        <time>2020-01-19T10:00:39.000Z</time>
      </trkpt>
      <trkpt lat="47.33325" lon="-2.49964">
        <ele>-13.800000190735</ele>
        <time>2020-01-19T10:00:42.000Z</time>
      </trkpt>
      <trkpt lat="47.33321" lon="-2.49962">
        <ele>-13.800000190735</ele>
        <time>2020-01-19T10:00:43.000Z</time>
      </trkpt>
      <trkpt lat="47.33306" lon="-2.49954">
        <ele>-13.800000190735</ele>
        <time>2020-01-19T10:00:46.000Z</time>
      </trkpt>
      <trkpt lat="47.33291" lon="-2.49945">
        <ele>-13.800000190735</ele>
        <time>2020-01-19T10:00:49.000Z</time>
      </trkpt>
      <trkpt lat="47.33281" lon="-2.4994">
        <ele>-13.800000190735</ele>
        <time>2020-01-19T10:00:51.000Z</time>
      </trkpt>
      <trkpt lat="47.33276" lon="-2.49936">
        <ele>-13.800000190735</ele>
        <time>2020-01-19T10:00:52.000Z</time>
      </trkpt>
      <trkpt lat="47.33257" lon="-2.49922">
        <ele>-13.800000190735</ele>
        <time>2020-01-19T10:00:56.000Z</time>
      </trkpt>
      <trkpt lat="47.33226" lon="-2.49905">
        <ele>-13.800000190735</ele>
        <time>2020-01-19T10:01:02.000Z</time>
      </trkpt>
      <trkpt lat="47.33195" lon="-2.49888">
        <ele>-13.800000190735</ele>
        <time>2020-01-19T10:01:08.000Z</time>
      </trkpt>
      <trkpt lat="47.3316" lon="-2.49869">
        <ele>-13.800000190735</ele>
        <time>2020-01-19T10:01:15.000Z</time>
      </trkpt>
      <trkpt lat="47.33143" lon="-2.49853">
        <ele>-13.800000190735</ele>
        <time>2020-01-19T10:01:19.000Z</time>
      </trkpt>
      <trkpt lat="47.33138" lon="-2.49849">
        <ele>-13.800000190735</ele>
        <time>2020-01-19T10:01:20.000Z</time>
      </trkpt>
      <trkpt lat="47.33107" lon="-2.49817">
        <ele>-13.800000190735</ele>
        <time>2020-01-19T10:01:28.000Z</time>
      </trkpt>
      <trkpt lat="47.33084" lon="-2.49793">
        <ele>-13.800000190735</ele>
        <time>2020-01-19T10:01:34.000Z</time>
      </trkpt>
      <trkpt lat="47.33065" lon="-2.49772">
        <ele>-13.800000190735</ele>
        <time>2020-01-19T10:01:39.000Z</time>
      </trkpt>
      <trkpt lat="47.33051" lon="-2.49752">
        <ele>-13.800000190735</ele>
        <time>2020-01-19T10:01:44.000Z</time>
      </trkpt>
      <trkpt lat="47.33041" lon="-2.49752">
        <ele>-13.800000190735</ele>
        <time>2020-01-19T10:01:47.000Z</time>
      </trkpt>
      <trkpt lat="47.33037" lon="-2.49753">
        <ele>-13.800000190735</ele>
        <time>2020-01-19T10:01:48.000Z</time>
      </trkpt>
      <trkpt lat="47.33029" lon="-2.49755">
        <ele>-13.800000190735</ele>
        <time>2020-01-19T10:01:50.000Z</time>
      </trkpt>
      <trkpt lat="47.33013" lon="-2.49761">
        <ele>-13.800000190735</ele>
        <time>2020-01-19T10:01:54.000Z</time>
      </trkpt>
      <trkpt lat="47.32991" lon="-2.49766">
        <ele>-13.800000190735</ele>
        <time>2020-01-19T10:02:00.000Z</time>
      </trkpt>
      <trkpt lat="47.32975" lon="-2.49771">
        <ele>-13.800000190735</ele>
        <time>2020-01-19T10:02:05.000Z</time>
      </trkpt>
      <trkpt lat="47.32965" lon="-2.49764">
        <ele>-13.800000190735</ele>
        <time>2020-01-19T10:02:08.000Z</time>
      </trkpt>
      <trkpt lat="47.3295" lon="-2.49757">
        <ele>-13.800000190735</ele>
        <time>2020-01-19T10:02:12.000Z</time>
      </trkpt>
      <trkpt lat="47.32936" lon="-2.49744">
        <ele>-13.800000190735</ele>
        <time>2020-01-19T10:02:16.000Z</time>
      </trkpt>
      <trkpt lat="47.32924" lon="-2.49739">
        <ele>-13.800000190735</ele>
        <time>2020-01-19T10:02:19.000Z</time>
      </trkpt>
      <trkpt lat="47.3292" lon="-2.49739">
        <ele>-13.800000190735</ele>
        <time>2020-01-19T10:02:20.000Z</time>
      </trkpt>
      <trkpt lat="47.32911" lon="-2.4974">
        <ele>-13.800000190735</ele>
        <time>2020-01-19T10:02:22.000Z</time>
      </trkpt>
      <trkpt lat="47.32903" lon="-2.49746">
        <ele>-13.800000190735</ele>
        <time>2020-01-19T10:02:24.000Z</time>
      </trkpt>
      <trkpt lat="47.32887" lon="-2.49759">
        <ele>-13.800000190735</ele>
        <time>2020-01-19T10:02:28.000Z</time>
      </trkpt>
      <trkpt lat="47.32867" lon="-2.49766">
        <ele>-13.800000190735</ele>
        <time>2020-01-19T10:02:32.000Z</time>
      </trkpt>
      <trkpt lat="47.32862" lon="-2.49766">
        <ele>-13.800000190735</ele>
        <time>2020-01-19T10:02:33.000Z</time>
      </trkpt>
      <trkpt lat="47.32848" lon="-2.49765">
        <ele>-13.39999961853</ele>
        <time>2020-01-19T10:02:36.000Z</time>
      </trkpt>
      <trkpt lat="47.32844" lon="-2.49764">
        <ele>-13</ele>
        <time>2020-01-19T10:02:37.000Z</time>
      </trkpt>
      <trkpt lat="47.32839" lon="-2.49762">
        <ele>-12.60000038147</ele>
        <time>2020-01-19T10:02:38.000Z</time>
      </trkpt>
      <trkpt lat="47.32835" lon="-2.49761">
        <ele>-12.199999809265</ele>
        <time>2020-01-19T10:02:39.000Z</time>
      </trkpt>
      <trkpt lat="47.3283" lon="-2.4976">
        <ele>-11.800000190735</ele>
        <time>2020-01-19T10:02:40.000Z</time>
      </trkpt>
      <trkpt lat="47.32826" lon="-2.49759">
        <ele>-11.800000190735</ele>
        <time>2020-01-19T10:02:41.000Z</time>
      </trkpt>
      <trkpt lat="47.32821" lon="-2.49759">
        <ele>-11.800000190735</ele>
        <time>2020-01-19T10:02:42.000Z</time>
      </trkpt>
      <trkpt lat="47.32802" lon="-2.49758">
        <ele>-11.800000190735</ele>
        <time>2020-01-19T10:02:46.000Z</time>
      </trkpt>
      <trkpt lat="47.3278" lon="-2.49754">
        <ele>-11.800000190735</ele>
        <time>2020-01-19T10:02:50.000Z</time>
      </trkpt>
      <trkpt lat="47.32775" lon="-2.49752">
        <ele>-11.800000190735</ele>
        <time>2020-01-19T10:02:51.000Z</time>
      </trkpt>
      <trkpt lat="47.3276" lon="-2.49745">
        <ele>-11.800000190735</ele>
        <time>2020-01-19T10:02:54.000Z</time>
      </trkpt>
      <trkpt lat="47.32749" lon="-2.49743">
        <ele>-11.800000190735</ele>
        <time>2020-01-19T10:02:56.000Z</time>
      </trkpt>
      <trkpt lat="47.32744" lon="-2.49742">
        <ele>-11.800000190735</ele>
        <time>2020-01-19T10:02:57.000Z</time>
      </trkpt>
      <trkpt lat="47.32723" lon="-2.49737">
        <ele>-11.800000190735</ele>
        <time>2020-01-19T10:03:01.000Z</time>
      </trkpt>
      <trkpt lat="47.32718" lon="-2.49735">
        <ele>-11.800000190735</ele>
        <time>2020-01-19T10:03:02.000Z</time>
      </trkpt>
      <trkpt lat="47.32713" lon="-2.49731">
        <ele>-11.800000190735</ele>
        <time>2020-01-19T10:03:03.000Z</time>
      </trkpt>
      <trkpt lat="47.32699" lon="-2.49723">
        <ele>-11.800000190735</ele>
        <time>2020-01-19T10:03:06.000Z</time>
      </trkpt>
      <trkpt lat="47.32684" lon="-2.4971">
        <ele>-11.800000190735</ele>
        <time>2020-01-19T10:03:10.000Z</time>
      </trkpt>
      <trkpt lat="47.3268" lon="-2.49706">
        <ele>-11.800000190735</ele>
        <time>2020-01-19T10:03:11.000Z</time>
      </trkpt>
      <trkpt lat="47.32672" lon="-2.49698">
        <ele>-11.800000190735</ele>
        <time>2020-01-19T10:03:13.000Z</time>
      </trkpt>
      <trkpt lat="47.3266" lon="-2.49688">
        <ele>-11.800000190735</ele>
        <time>2020-01-19T10:03:16.000Z</time>
      </trkpt>
      <trkpt lat="47.32656" lon="-2.49686">
        <ele>-11.39999961853</ele>
        <time>2020-01-19T10:03:17.000Z</time>
      </trkpt>
      <trkpt lat="47.32652" lon="-2.49683">
        <ele>-11</ele>
        <time>2020-01-19T10:03:18.000Z</time>
      </trkpt>
      <trkpt lat="47.32649" lon="-2.49681">
        <ele>-10.60000038147</ele>
        <time>2020-01-19T10:03:19.000Z</time>
      </trkpt>
      <trkpt lat="47.32645" lon="-2.49679">
        <ele>-10.199999809265</ele>
        <time>2020-01-19T10:03:20.000Z</time>
      </trkpt>
      <trkpt lat="47.32641" lon="-2.49677">
        <ele>-9.8000001907349</ele>
        <time>2020-01-19T10:03:21.000Z</time>
      </trkpt>
      <trkpt lat="47.32631" lon="-2.49673">
        <ele>-9.8000001907349</ele>
        <time>2020-01-19T10:03:23.000Z</time>
      </trkpt>
      <trkpt lat="47.32617" lon="-2.4967">
        <ele>-9.8000001907349</ele>
        <time>2020-01-19T10:03:26.000Z</time>
      </trkpt>
      <trkpt lat="47.32611" lon="-2.4967">
        <ele>-9.8000001907349</ele>
        <time>2020-01-19T10:03:27.000Z</time>
      </trkpt>
      <trkpt lat="47.32597" lon="-2.49673">
        <ele>-9.8000001907349</ele>
        <time>2020-01-19T10:03:30.000Z</time>
      </trkpt>
      <trkpt lat="47.32591" lon="-2.49674">
        <ele>-9.8000001907349</ele>
        <time>2020-01-19T10:03:31.000Z</time>
      </trkpt>
      <trkpt lat="47.32575" lon="-2.49691">
        <ele>-9.8000001907349</ele>
        <time>2020-01-19T10:03:35.000Z</time>
      </trkpt>
      <trkpt lat="47.32571" lon="-2.49698">
        <ele>-9.8000001907349</ele>
        <time>2020-01-19T10:03:36.000Z</time>
      </trkpt>
      <trkpt lat="47.32565" lon="-2.49711">
        <ele>-9.8000001907349</ele>
        <time>2020-01-19T10:03:38.000Z</time>
      </trkpt>
      <trkpt lat="47.32561" lon="-2.49727">
        <ele>-9.8000001907349</ele>
        <time>2020-01-19T10:03:40.000Z</time>
      </trkpt>
      <trkpt lat="47.32557" lon="-2.49745">
        <ele>-9.8000001907349</ele>
        <time>2020-01-19T10:03:42.000Z</time>
      </trkpt>
      <trkpt lat="47.32551" lon="-2.49761">
        <ele>-9.8000001907349</ele>
        <time>2020-01-19T10:03:44.000Z</time>
      </trkpt>
      <trkpt lat="47.32549" lon="-2.49768">
        <ele>-9.8000001907349</ele>
        <time>2020-01-19T10:03:45.000Z</time>
      </trkpt>
      <trkpt lat="47.32547" lon="-2.49793">
        <ele>-9.8000001907349</ele>
        <time>2020-01-19T10:03:48.000Z</time>
      </trkpt>
      <trkpt lat="47.32545" lon="-2.49823">
        <ele>-9.8000001907349</ele>
        <time>2020-01-19T10:03:52.000Z</time>
      </trkpt>
      <trkpt lat="47.32545" lon="-2.49832">
        <ele>-9.8000001907349</ele>
        <time>2020-01-19T10:03:53.000Z</time>
      </trkpt>
      <trkpt lat="47.32545" lon="-2.49852">
        <ele>-9.8000001907349</ele>
        <time>2020-01-19T10:03:56.000Z</time>
      </trkpt>
      <trkpt lat="47.32543" lon="-2.49859">
        <ele>-9.8000001907349</ele>
        <time>2020-01-19T10:03:57.000Z</time>
      </trkpt>
      <trkpt lat="47.32527" lon="-2.4988">
        <ele>-9.8000001907349</ele>
        <time>2020-01-19T10:04:01.000Z</time>
      </trkpt>
      <trkpt lat="47.32504" lon="-2.49895">
        <ele>-9.8000001907349</ele>
        <time>2020-01-19T10:04:06.000Z</time>
      </trkpt>
      <trkpt lat="47.32483" lon="-2.49894">
        <ele>-9.8000001907349</ele>
        <time>2020-01-19T10:04:10.000Z</time>
      </trkpt>
      <trkpt lat="47.32469" lon="-2.49904">
        <ele>-9.8000001907349</ele>
        <time>2020-01-19T10:04:13.000Z</time>
      </trkpt>
      <trkpt lat="47.32462" lon="-2.49914">
        <ele>-9.8000001907349</ele>
        <time>2020-01-19T10:04:16.000Z</time>
      </trkpt>
      <trkpt lat="47.32461" lon="-2.49917">
        <ele>-9.8000001907349</ele>
        <time>2020-01-19T10:04:17.000Z</time>
      </trkpt>
      <trkpt lat="47.32457" lon="-2.49921">
        <ele>-10.199999809265</ele>
        <time>2020-01-19T10:04:20.000Z</time>
      </trkpt>
      <trkpt lat="47.32455" lon="-2.49921">
        <ele>-10.60000038147</ele>
        <time>2020-01-19T10:04:21.000Z</time>
      </trkpt>
      <trkpt lat="47.32454" lon="-2.49921">
        <ele>-11</ele>
        <time>2020-01-19T10:04:22.000Z</time>
      </trkpt>
      <trkpt lat="47.32453" lon="-2.4992">
        <ele>-11.39999961853</ele>
        <time>2020-01-19T10:04:23.000Z</time>
      </trkpt>
      <trkpt lat="47.32451" lon="-2.49921">
        <ele>-11.800000190735</ele>
        <time>2020-01-19T10:04:24.000Z</time>
      </trkpt>
      <trkpt lat="47.32446" lon="-2.49926">
        <ele>-11.800000190735</ele>
        <time>2020-01-19T10:04:27.000Z</time>
      </trkpt>
      <trkpt lat="47.32437" lon="-2.49943">
        <ele>-11.800000190735</ele>
        <time>2020-01-19T10:04:32.000Z</time>
      </trkpt>
      <trkpt lat="47.32433" lon="-2.49946">
        <ele>-11.800000190735</ele>
        <time>2020-01-19T10:04:33.000Z</time>
      </trkpt>
      <trkpt lat="47.32425" lon="-2.49951">
        <ele>-11.800000190735</ele>
        <time>2020-01-19T10:04:35.000Z</time>
      </trkpt>
      <trkpt lat="47.32413" lon="-2.49959">
        <ele>-11.800000190735</ele>
        <time>2020-01-19T10:04:38.000Z</time>
      </trkpt>
      <trkpt lat="47.32391" lon="-2.49955">
        <ele>-11.800000190735</ele>
        <time>2020-01-19T10:04:42.000Z</time>
      </trkpt>
      <trkpt lat="47.32385" lon="-2.49952">
        <ele>-11.800000190735</ele>
        <time>2020-01-19T10:04:43.000Z</time>
      </trkpt>
      <trkpt lat="47.32368" lon="-2.49947">
        <ele>-11.800000190735</ele>
        <time>2020-01-19T10:04:46.000Z</time>
      </trkpt>
      <trkpt lat="47.32358" lon="-2.49946">
        <ele>-11.800000190735</ele>
        <time>2020-01-19T10:04:48.000Z</time>
      </trkpt>
      <trkpt lat="47.3235" lon="-2.49948">
        <ele>-11.800000190735</ele>
        <time>2020-01-19T10:04:50.000Z</time>
      </trkpt>
      <trkpt lat="47.32336" lon="-2.49947">
        <ele>-11.800000190735</ele>
        <time>2020-01-19T10:04:54.000Z</time>
      </trkpt>
      <trkpt lat="47.32323" lon="-2.49935">
        <ele>-11.800000190735</ele>
        <time>2020-01-19T10:04:58.000Z</time>
      </trkpt>
      <trkpt lat="47.32315" lon="-2.49926">
        <ele>-11.800000190735</ele>
        <time>2020-01-19T10:05:01.000Z</time>
      </trkpt>
      <trkpt lat="47.3231" lon="-2.49917">
        <ele>-11.800000190735</ele>
        <time>2020-01-19T10:05:03.000Z</time>
      </trkpt>
      <trkpt lat="47.32307" lon="-2.499">
        <ele>-11.800000190735</ele>
        <time>2020-01-19T10:05:06.000Z</time>
      </trkpt>
      <trkpt lat="47.32303" lon="-2.49875">
        <ele>-11.800000190735</ele>
        <time>2020-01-19T10:05:10.000Z</time>
      </trkpt>
      <trkpt lat="47.32302" lon="-2.49848">
        <ele>-11.39999961853</ele>
        <time>2020-01-19T10:05:14.000Z</time>
      </trkpt>
      <trkpt lat="47.32301" lon="-2.49841">
        <ele>-10.800000190735</ele>
        <time>2020-01-19T10:05:15.000Z</time>
      </trkpt>
      <trkpt lat="47.323" lon="-2.49833">
        <ele>-10.39999961853</ele>
        <time>2020-01-19T10:05:16.000Z</time>
      </trkpt>
      <trkpt lat="47.323" lon="-2.49826">
        <ele>-10</ele>
        <time>2020-01-19T10:05:17.000Z</time>
      </trkpt>
      <trkpt lat="47.32299" lon="-2.49819">
        <ele>-9.6000003814697</ele>
        <time>2020-01-19T10:05:18.000Z</time>
      </trkpt>
      <trkpt lat="47.32298" lon="-2.49796">
        <ele>-9.6000003814697</ele>
        <time>2020-01-19T10:05:21.000Z</time>
      </trkpt>
      <trkpt lat="47.32297" lon="-2.49772">
        <ele>-9.6000003814697</ele>
        <time>2020-01-19T10:05:24.000Z</time>
      </trkpt>
      <trkpt lat="47.32298" lon="-2.49757">
        <ele>-9.6000003814697</ele>
        <time>2020-01-19T10:05:26.000Z</time>
      </trkpt>
      <trkpt lat="47.32296" lon="-2.49738">
        <ele>-9.6000003814697</ele>
        <time>2020-01-19T10:05:28.000Z</time>
      </trkpt>
      <trkpt lat="47.32294" lon="-2.49719">
        <ele>-9.6000003814697</ele>
        <time>2020-01-19T10:05:30.000Z</time>
      </trkpt>
      <trkpt lat="47.32286" lon="-2.49686">
        <ele>-9.6000003814697</ele>
        <time>2020-01-19T10:05:34.000Z</time>
      </trkpt>
      <trkpt lat="47.32278" lon="-2.49646">
        <ele>-9.6000003814697</ele>
        <time>2020-01-19T10:05:39.000Z</time>
      </trkpt>
      <trkpt lat="47.32274" lon="-2.4959">
        <ele>-9.6000003814697</ele>
        <time>2020-01-19T10:05:45.000Z</time>
      </trkpt>
      <trkpt lat="47.32271" lon="-2.49555">
        <ele>-9.6000003814697</ele>
        <time>2020-01-19T10:05:49.000Z</time>
      </trkpt>
      <trkpt lat="47.3227" lon="-2.49546">
        <ele>-9.6000003814697</ele>
        <time>2020-01-19T10:05:50.000Z</time>
      </trkpt>
      <trkpt lat="47.3227" lon="-2.49538">
        <ele>-9.6000003814697</ele>
        <time>2020-01-19T10:05:51.000Z</time>
      </trkpt>
      <trkpt lat="47.32271" lon="-2.49517">
        <ele>-9.6000003814697</ele>
        <time>2020-01-19T10:05:54.000Z</time>
      </trkpt>
      <trkpt lat="47.32268" lon="-2.49488">
        <ele>-9.6000003814697</ele>
        <time>2020-01-19T10:05:58.000Z</time>
      </trkpt>
      <trkpt lat="47.32262" lon="-2.49467">
        <ele>-10</ele>
        <time>2020-01-19T10:06:01.000Z</time>
      </trkpt>
      <trkpt lat="47.32257" lon="-2.49462">
        <ele>-10.39999961853</ele>
        <time>2020-01-19T10:06:02.000Z</time>
      </trkpt>
      <trkpt lat="47.32252" lon="-2.49459">
        <ele>-10.800000190735</ele>
        <time>2020-01-19T10:06:03.000Z</time>
      </trkpt>
      <trkpt lat="47.32247" lon="-2.49455">
        <ele>-11.199999809265</ele>
        <time>2020-01-19T10:06:04.000Z</time>
      </trkpt>
      <trkpt lat="47.32242" lon="-2.4945">
        <ele>-11.60000038147</ele>
        <time>2020-01-19T10:06:05.000Z</time>
      </trkpt>
      <trkpt lat="47.32238" lon="-2.49444">
        <ele>-11.60000038147</ele>
        <time>2020-01-19T10:06:06.000Z</time>
      </trkpt>
      <trkpt lat="47.32227" lon="-2.49427">
        <ele>-11.60000038147</ele>
        <time>2020-01-19T10:06:09.000Z</time>
      </trkpt>
      <trkpt lat="47.32223" lon="-2.49422">
        <ele>-11.60000038147</ele>
        <time>2020-01-19T10:06:10.000Z</time>
      </trkpt>
      <trkpt lat="47.32206" lon="-2.49395">
        <ele>-11.60000038147</ele>
        <time>2020-01-19T10:06:15.000Z</time>
      </trkpt>
      <trkpt lat="47.32193" lon="-2.49373">
        <ele>-11.60000038147</ele>
        <time>2020-01-19T10:06:19.000Z</time>
      </trkpt>
      <trkpt lat="47.32191" lon="-2.49367">
        <ele>-11.60000038147</ele>
        <time>2020-01-19T10:06:20.000Z</time>
      </trkpt>
      <trkpt lat="47.32183" lon="-2.49348">
        <ele>-11.60000038147</ele>
        <time>2020-01-19T10:06:23.000Z</time>
      </trkpt>
      <trkpt lat="47.32179" lon="-2.49334">
        <ele>-11.60000038147</ele>
        <time>2020-01-19T10:06:25.000Z</time>
      </trkpt>
      <trkpt lat="47.32177" lon="-2.49328">
        <ele>-11.60000038147</ele>
        <time>2020-01-19T10:06:26.000Z</time>
      </trkpt>
      <trkpt lat="47.32162" lon="-2.49303">
        <ele>-11.60000038147</ele>
        <time>2020-01-19T10:06:31.000Z</time>
      </trkpt>
      <trkpt lat="47.32158" lon="-2.493">
        <ele>-11.60000038147</ele>
        <time>2020-01-19T10:06:32.000Z</time>
      </trkpt>
      <trkpt lat="47.32139" lon="-2.49287">
        <ele>-11.60000038147</ele>
        <time>2020-01-19T10:06:37.000Z</time>
      </trkpt>
      <trkpt lat="47.3213" lon="-2.49281">
        <ele>-11.60000038147</ele>
        <time>2020-01-19T10:06:39.000Z</time>
      </trkpt>
      <trkpt lat="47.32115" lon="-2.49272">
        <ele>-11.60000038147</ele>
        <time>2020-01-19T10:06:42.000Z</time>
      </trkpt>
      <trkpt lat="47.32111" lon="-2.49269">
        <ele>-11.60000038147</ele>
        <time>2020-01-19T10:06:43.000Z</time>
      </trkpt>
      <trkpt lat="47.32096" lon="-2.49257">
        <ele>-11.60000038147</ele>
        <time>2020-01-19T10:06:47.000Z</time>
      </trkpt>
      <trkpt lat="47.32089" lon="-2.49238">
        <ele>-11.60000038147</ele>
        <time>2020-01-19T10:06:51.000Z</time>
      </trkpt>
      <trkpt lat="47.32085" lon="-2.4923">
        <ele>-11.60000038147</ele>
        <time>2020-01-19T10:06:53.000Z</time>
      </trkpt>
      <trkpt lat="47.32082" lon="-2.49221">
        <ele>-11.60000038147</ele>
        <time>2020-01-19T10:06:56.000Z</time>
      </trkpt>
      <trkpt lat="47.32077" lon="-2.49217">
        <ele>-11.60000038147</ele>
        <time>2020-01-19T10:07:01.000Z</time>
      </trkpt>
      <trkpt lat="47.32074" lon="-2.49218">
        <ele>-11.60000038147</ele>
        <time>2020-01-19T10:07:03.000Z</time>
      </trkpt>
      <trkpt lat="47.3207" lon="-2.49217">
        <ele>-11.60000038147</ele>
        <time>2020-01-19T10:07:06.000Z</time>
      </trkpt>
      <trkpt lat="47.32066" lon="-2.49206">
        <ele>-11.60000038147</ele>
        <time>2020-01-19T10:07:10.000Z</time>
      </trkpt>
      <trkpt lat="47.32056" lon="-2.49201">
        <ele>-11.60000038147</ele>
        <time>2020-01-19T10:07:14.000Z</time>
      </trkpt>
      <trkpt lat="47.32053" lon="-2.49201">
        <ele>-11.60000038147</ele>
        <time>2020-01-19T10:07:15.000Z</time>
      </trkpt>
      <trkpt lat="47.3205" lon="-2.49203">
        <ele>-11.60000038147</ele>
        <time>2020-01-19T10:07:16.000Z</time>
      </trkpt>
      <trkpt lat="47.32043" lon="-2.4921">
        <ele>-11.60000038147</ele>
        <time>2020-01-19T10:07:18.000Z</time>
      </trkpt>
      <trkpt lat="47.32025" lon="-2.49236">
        <ele>-11.60000038147</ele>
        <time>2020-01-19T10:07:23.000Z</time>
      </trkpt>
      <trkpt lat="47.31998" lon="-2.49281">
        <ele>-11.60000038147</ele>
        <time>2020-01-19T10:07:30.000Z</time>
      </trkpt>
      <trkpt lat="47.31976" lon="-2.49315">
        <ele>-11.60000038147</ele>
        <time>2020-01-19T10:07:35.000Z</time>
      </trkpt>
      <trkpt lat="47.31972" lon="-2.49323">
        <ele>-11.60000038147</ele>
        <time>2020-01-19T10:07:36.000Z</time>
      </trkpt>
      <trkpt lat="47.31943" lon="-2.49364">
        <ele>-11.60000038147</ele>
        <time>2020-01-19T10:07:42.000Z</time>
      </trkpt>
      <trkpt lat="47.31917" lon="-2.49406">
        <ele>-11.60000038147</ele>
        <time>2020-01-19T10:07:48.000Z</time>
      </trkpt>
      <trkpt lat="47.3189" lon="-2.49448">
        <ele>-11.60000038147</ele>
        <time>2020-01-19T10:07:54.000Z</time>
      </trkpt>
      <trkpt lat="47.31862" lon="-2.49489">
        <ele>-11.60000038147</ele>
        <time>2020-01-19T10:08:00.000Z</time>
      </trkpt>
      <trkpt lat="47.31829" lon="-2.49539">
        <ele>-11.60000038147</ele>
        <time>2020-01-19T10:08:07.000Z</time>
      </trkpt>
      <trkpt lat="47.31802" lon="-2.49582">
        <ele>-11.60000038147</ele>
        <time>2020-01-19T10:08:13.000Z</time>
      </trkpt>
      <trkpt lat="47.31764" lon="-2.49639">
        <ele>-11.60000038147</ele>
        <time>2020-01-19T10:08:21.000Z</time>
      </trkpt>
      <trkpt lat="47.31759" lon="-2.49646">
        <ele>-11.60000038147</ele>
        <time>2020-01-19T10:08:22.000Z</time>
      </trkpt>
      <trkpt lat="47.31748" lon="-2.49661">
        <ele>-11.199999809265</ele>
        <time>2020-01-19T10:08:24.000Z</time>
      </trkpt>
      <trkpt lat="47.31743" lon="-2.4967">
        <ele>-10.800000190735</ele>
        <time>2020-01-19T10:08:25.000Z</time>
      </trkpt>
      <trkpt lat="47.31738" lon="-2.49679">
        <ele>-10.39999961853</ele>
        <time>2020-01-19T10:08:26.000Z</time>
      </trkpt>
      <trkpt lat="47.31732" lon="-2.49688">
        <ele>-9.3999996185303</ele>
        <time>2020-01-19T10:08:27.000Z</time>
      </trkpt>
      <trkpt lat="47.31727" lon="-2.49696">
        <ele>-9.3999996185303</ele>
        <time>2020-01-19T10:08:28.000Z</time>
      </trkpt>
      <trkpt lat="47.31688" lon="-2.49755">
        <ele>-9.3999996185303</ele>
        <time>2020-01-19T10:08:35.000Z</time>
      </trkpt>
      <trkpt lat="47.31648" lon="-2.49816">
        <ele>-9.3999996185303</ele>
        <time>2020-01-19T10:08:42.000Z</time>
      </trkpt>
      <trkpt lat="47.31637" lon="-2.49832">
        <ele>-9.3999996185303</ele>
        <time>2020-01-19T10:08:44.000Z</time>
      </trkpt>
      <trkpt lat="47.31599" lon="-2.49891">
        <ele>-9.3999996185303</ele>
        <time>2020-01-19T10:08:51.000Z</time>
      </trkpt>
      <trkpt lat="47.31593" lon="-2.49899">
        <ele>-9.3999996185303</ele>
        <time>2020-01-19T10:08:52.000Z</time>
      </trkpt>
      <trkpt lat="47.31557" lon="-2.49954">
        <ele>-9.3999996185303</ele>
        <time>2020-01-19T10:08:59.000Z</time>
      </trkpt>
      <trkpt lat="47.31518" lon="-2.50013">
        <ele>-9.3999996185303</ele>
        <time>2020-01-19T10:09:06.000Z</time>
      </trkpt>
      <trkpt lat="47.31478" lon="-2.50074">
        <ele>-9.3999996185303</ele>
        <time>2020-01-19T10:09:13.000Z</time>
      </trkpt>
      <trkpt lat="47.31472" lon="-2.50082">
        <ele>-9.3999996185303</ele>
        <time>2020-01-19T10:09:14.000Z</time>
      </trkpt>
      <trkpt lat="47.31431" lon="-2.50143">
        <ele>-9.3999996185303</ele>
        <time>2020-01-19T10:09:21.000Z</time>
      </trkpt>
      <trkpt lat="47.31426" lon="-2.50152">
        <ele>-9.3999996185303</ele>
        <time>2020-01-19T10:09:22.000Z</time>
      </trkpt>
      <trkpt lat="47.3142" lon="-2.5016">
        <ele>-10</ele>
        <time>2020-01-19T10:09:23.000Z</time>
      </trkpt>
      <trkpt lat="47.31414" lon="-2.50169">
        <ele>-10.39999961853</ele>
        <time>2020-01-19T10:09:24.000Z</time>
      </trkpt>
      <trkpt lat="47.31409" lon="-2.50177">
        <ele>-10.800000190735</ele>
        <time>2020-01-19T10:09:25.000Z</time>
      </trkpt>
      <trkpt lat="47.31403" lon="-2.50185">
        <ele>-11.199999809265</ele>
        <time>2020-01-19T10:09:26.000Z</time>
      </trkpt>
      <trkpt lat="47.31397" lon="-2.50194">
        <ele>-11.60000038147</ele>
        <time>2020-01-19T10:09:27.000Z</time>
      </trkpt>
      <trkpt lat="47.31386" lon="-2.5021">
        <ele>-11.60000038147</ele>
        <time>2020-01-19T10:09:29.000Z</time>
      </trkpt>
      <trkpt lat="47.31347" lon="-2.50269">
        <ele>-11.60000038147</ele>
        <time>2020-01-19T10:09:36.000Z</time>
      </trkpt>
      <trkpt lat="47.31311" lon="-2.50322">
        <ele>-11.60000038147</ele>
        <time>2020-01-19T10:09:43.000Z</time>
      </trkpt>
      <trkpt lat="47.31278" lon="-2.50368">
        <ele>-11.199999809265</ele>
        <time>2020-01-19T10:09:50.000Z</time>
      </trkpt>
      <trkpt lat="47.31273" lon="-2.50374">
        <ele>-10.60000038147</ele>
        <time>2020-01-19T10:09:51.000Z</time>
      </trkpt>
      <trkpt lat="47.31269" lon="-2.50379">
        <ele>-10.199999809265</ele>
        <time>2020-01-19T10:09:52.000Z</time>
      </trkpt>
      <trkpt lat="47.31264" lon="-2.50385">
        <ele>-9.8000001907349</ele>
        <time>2020-01-19T10:09:53.000Z</time>
      </trkpt>
      <trkpt lat="47.3126" lon="-2.50391">
        <ele>-9.3999996185303</ele>
        <time>2020-01-19T10:09:54.000Z</time>
      </trkpt>
      <trkpt lat="47.31247" lon="-2.50409">
        <ele>-9.3999996185303</ele>
        <time>2020-01-19T10:09:57.000Z</time>
      </trkpt>
      <trkpt lat="47.31227" lon="-2.50433">
        <ele>-9.3999996185303</ele>
        <time>2020-01-19T10:10:02.000Z</time>
      </trkpt>
      <trkpt lat="47.31225" lon="-2.5044">
        <ele>-9.3999996185303</ele>
        <time>2020-01-19T10:10:03.000Z</time>
      </trkpt>
      <trkpt lat="47.31226" lon="-2.50459">
        <ele>-9.3999996185303</ele>
        <time>2020-01-19T10:10:06.000Z</time>
      </trkpt>
      <trkpt lat="47.31218" lon="-2.50472">
        <ele>-9.3999996185303</ele>
        <time>2020-01-19T10:10:09.000Z</time>
      </trkpt>
      <trkpt lat="47.31212" lon="-2.50478">
        <ele>-9.3999996185303</ele>
        <time>2020-01-19T10:10:11.000Z</time>
      </trkpt>
      <trkpt lat="47.31206" lon="-2.50486">
        <ele>-9.3999996185303</ele>
        <time>2020-01-19T10:10:14.000Z</time>
      </trkpt>
      <trkpt lat="47.31206" lon="-2.50489">
        <ele>-9.3999996185303</ele>
        <time>2020-01-19T10:10:15.000Z</time>
      </trkpt>
      <trkpt lat="47.31208" lon="-2.50494">
        <ele>-9.3999996185303</ele>
        <time>2020-01-19T10:10:18.000Z</time>
      </trkpt>
      <trkpt lat="47.3121" lon="-2.50496">
        <ele>-9.3999996185303</ele>
        <time>2020-01-19T10:10:20.000Z</time>
      </trkpt>
      <trkpt lat="47.31214" lon="-2.50505">
        <ele>-9.3999996185303</ele>
        <time>2020-01-19T10:10:25.000Z</time>
      </trkpt>
      <trkpt lat="47.31219" lon="-2.50513">
        <ele>-9.3999996185303</ele>
        <time>2020-01-19T10:10:31.000Z</time>
      </trkpt>
      <trkpt lat="47.31226" lon="-2.50523">
        <ele>-9.3999996185303</ele>
        <time>2020-01-19T10:10:39.000Z</time>
      </trkpt>
      <trkpt lat="47.31237" lon="-2.50537">
        <ele>-9.3999996185303</ele>
        <time>2020-01-19T10:10:45.000Z</time>
      </trkpt>
      <trkpt lat="47.31253" lon="-2.50559">
        <ele>-9.3999996185303</ele>
        <time>2020-01-19T10:10:51.000Z</time>
      </trkpt>
      <trkpt lat="47.31254" lon="-2.50563">
        <ele>-9.3999996185303</ele>
        <time>2020-01-19T10:10:52.000Z</time>
      </trkpt>
      <trkpt lat="47.31252" lon="-2.50568">
        <ele>-9.3999996185303</ele>
        <time>2020-01-19T10:10:54.000Z</time>
      </trkpt>
      <trkpt lat="47.31247" lon="-2.50571">
        <ele>-9.3999996185303</ele>
        <time>2020-01-19T10:10:56.000Z</time>
      </trkpt>
      <trkpt lat="47.31242" lon="-2.50575">
        <ele>-9.3999996185303</ele>
        <time>2020-01-19T10:10:58.000Z</time>
      </trkpt>
      <trkpt lat="47.31216" lon="-2.50591">
        <ele>-9.3999996185303</ele>
        <time>2020-01-19T10:11:05.000Z</time>
      </trkpt>
      <trkpt lat="47.31204" lon="-2.50599">
        <ele>-9.3999996185303</ele>
        <time>2020-01-19T10:11:08.000Z</time>
      </trkpt>
      <trkpt lat="47.31191" lon="-2.50606">
        <ele>-9.3999996185303</ele>
        <time>2020-01-19T10:11:11.000Z</time>
      </trkpt>
      <trkpt lat="47.31158" lon="-2.50627">
        <ele>-9.3999996185303</ele>
        <time>2020-01-19T10:11:19.000Z</time>
      </trkpt>
      <trkpt lat="47.31131" lon="-2.50646">
        <ele>-9.3999996185303</ele>
        <time>2020-01-19T10:11:24.000Z</time>
      </trkpt>
      <trkpt lat="47.31109" lon="-2.50661">
        <ele>-9.3999996185303</ele>
        <time>2020-01-19T10:11:28.000Z</time>
      </trkpt>
      <trkpt lat="47.31105" lon="-2.50665">
        <ele>-9.3999996185303</ele>
        <time>2020-01-19T10:11:29.000Z</time>
      </trkpt>
      <trkpt lat="47.3109" lon="-2.50675">
        <ele>-9.3999996185303</ele>
        <time>2020-01-19T10:11:32.000Z</time>
      </trkpt>
      <trkpt lat="47.31085" lon="-2.50679">
        <ele>-9.3999996185303</ele>
        <time>2020-01-19T10:11:33.000Z</time>
      </trkpt>
      <trkpt lat="47.31051" lon="-2.50705">
        <ele>-9.3999996185303</ele>
        <time>2020-01-19T10:11:39.000Z</time>
      </trkpt>
      <trkpt lat="47.31002" lon="-2.50745">
        <ele>-9.3999996185303</ele>
        <time>2020-01-19T10:11:48.000Z</time>
      </trkpt>
      <trkpt lat="47.30963" lon="-2.50771">
        <ele>-9.3999996185303</ele>
        <time>2020-01-19T10:11:55.000Z</time>
      </trkpt>
      <trkpt lat="47.30933" lon="-2.50796">
        <ele>-9.3999996185303</ele>
        <time>2020-01-19T10:12:01.000Z</time>
      </trkpt>
      <trkpt lat="47.30913" lon="-2.50816">
        <ele>-9.3999996185303</ele>
        <time>2020-01-19T10:12:05.000Z</time>
      </trkpt>
      <trkpt lat="47.30908" lon="-2.5082">
        <ele>-9.3999996185303</ele>
        <time>2020-01-19T10:12:06.000Z</time>
      </trkpt>
      <trkpt lat="47.30895" lon="-2.50831">
        <ele>-9.3999996185303</ele>
        <time>2020-01-19T10:12:09.000Z</time>
      </trkpt>
      <trkpt lat="47.30891" lon="-2.50834">
        <ele>-9.3999996185303</ele>
        <time>2020-01-19T10:12:10.000Z</time>
      </trkpt>
      <trkpt lat="47.30866" lon="-2.50853">
        <ele>-9.3999996185303</ele>
        <time>2020-01-19T10:12:16.000Z</time>
      </trkpt>
      <trkpt lat="47.3084" lon="-2.50873">
        <ele>-9.3999996185303</ele>
        <time>2020-01-19T10:12:22.000Z</time>
      </trkpt>
      <trkpt lat="47.30831" lon="-2.5088">
        <ele>-9.3999996185303</ele>
        <time>2020-01-19T10:12:24.000Z</time>
      </trkpt>
      <trkpt lat="47.30819" lon="-2.50892">
        <ele>-9.3999996185303</ele>
        <time>2020-01-19T10:12:27.000Z</time>
      </trkpt>
      <trkpt lat="47.30814" lon="-2.50896">
        <ele>-9.3999996185303</ele>
        <time>2020-01-19T10:12:28.000Z</time>
      </trkpt>
      <trkpt lat="47.30787" lon="-2.50919">
        <ele>-9.3999996185303</ele>
        <time>2020-01-19T10:12:34.000Z</time>
      </trkpt>
      <trkpt lat="47.30748" lon="-2.50958">
        <ele>-9.3999996185303</ele>
        <time>2020-01-19T10:12:43.000Z</time>
      </trkpt>
      <trkpt lat="47.30716" lon="-2.5099">
        <ele>-9.3999996185303</ele>
        <time>2020-01-19T10:12:51.000Z</time>
      </trkpt>
      <trkpt lat="47.30683" lon="-2.51019">
        <ele>-9.3999996185303</ele>
        <time>2020-01-19T10:12:58.000Z</time>
      </trkpt>
      <trkpt lat="47.30673" lon="-2.51027">
        <ele>-9.3999996185303</ele>
        <time>2020-01-19T10:13:00.000Z</time>
      </trkpt>
      <trkpt lat="47.30658" lon="-2.51038">
        <ele>-9.3999996185303</ele>
        <time>2020-01-19T10:13:03.000Z</time>
      </trkpt>
      <trkpt lat="47.30635" lon="-2.51066">
        <ele>-9.3999996185303</ele>
        <time>2020-01-19T10:13:09.000Z</time>
      </trkpt>
      <trkpt lat="47.30623" lon="-2.51083">
        <ele>-9.3999996185303</ele>
        <time>2020-01-19T10:13:14.000Z</time>
      </trkpt>
      <trkpt lat="47.30623" lon="-2.51086">
        <ele>-9.3999996185303</ele>
        <time>2020-01-19T10:13:15.000Z</time>
      </trkpt>
      <trkpt lat="47.30621" lon="-2.51094">
        <ele>-9.3999996185303</ele>
        <time>2020-01-19T10:13:18.000Z</time>
      </trkpt>
      <trkpt lat="47.30613" lon="-2.51101">
        <ele>-9.3999996185303</ele>
        <time>2020-01-19T10:13:23.000Z</time>
      </trkpt>
      <trkpt lat="47.30611" lon="-2.51103">
        <ele>-9.3999996185303</ele>
        <time>2020-01-19T10:13:24.000Z</time>
      </trkpt>
      <trkpt lat="47.30599" lon="-2.51105">
        <ele>-9.3999996185303</ele>
        <time>2020-01-19T10:13:28.000Z</time>
      </trkpt>
      <trkpt lat="47.3059" lon="-2.51093">
        <ele>-9.3999996185303</ele>
        <time>2020-01-19T10:13:32.000Z</time>
      </trkpt>
      <trkpt lat="47.3058" lon="-2.51067">
        <ele>-9.3999996185303</ele>
        <time>2020-01-19T10:13:38.000Z</time>
      </trkpt>
      <trkpt lat="47.30568" lon="-2.51051">
        <ele>-9.3999996185303</ele>
        <time>2020-01-19T10:13:43.000Z</time>
      </trkpt>
      <trkpt lat="47.30557" lon="-2.51034">
        <ele>-9.3999996185303</ele>
        <time>2020-01-19T10:13:49.000Z</time>
      </trkpt>
      <trkpt lat="47.30555" lon="-2.51028">
        <ele>-9.3999996185303</ele>
        <time>2020-01-19T10:13:51.000Z</time>
      </trkpt>
      <trkpt lat="47.30558" lon="-2.51025">
        <ele>-9.3999996185303</ele>
        <time>2020-01-19T10:13:53.000Z</time>
      </trkpt>
      <trkpt lat="47.30567" lon="-2.51019">
        <ele>-9.3999996185303</ele>
        <time>2020-01-19T10:13:58.000Z</time>
      </trkpt>
      <trkpt lat="47.30569" lon="-2.51017">
        <ele>-9.3999996185303</ele>
        <time>2020-01-19T10:13:59.000Z</time>
      </trkpt>
      <trkpt lat="47.30582" lon="-2.51006">
        <ele>-9.3999996185303</ele>
        <time>2020-01-19T10:14:04.000Z</time>
      </trkpt>
      <trkpt lat="47.30596" lon="-2.50994">
        <ele>-9.3999996185303</ele>
        <time>2020-01-19T10:14:10.000Z</time>
      </trkpt>
      <trkpt lat="47.3061" lon="-2.50978">
        <ele>-9.3999996185303</ele>
        <time>2020-01-19T10:14:15.000Z</time>
      </trkpt>
      <trkpt lat="47.30608" lon="-2.50965">
        <ele>-9.3999996185303</ele>
        <time>2020-01-19T10:14:18.000Z</time>
      </trkpt>
      <trkpt lat="47.30605" lon="-2.50952">
        <ele>-9.3999996185303</ele>
        <time>2020-01-19T10:14:22.000Z</time>
      </trkpt>
      <trkpt lat="47.30594" lon="-2.5096">
        <ele>-9.3999996185303</ele>
        <time>2020-01-19T10:14:25.000Z</time>
      </trkpt>
      <trkpt lat="47.30584" lon="-2.50966">
        <ele>-9.3999996185303</ele>
        <time>2020-01-19T10:14:27.000Z</time>
      </trkpt>
      <trkpt lat="47.30565" lon="-2.50979">
        <ele>-9.3999996185303</ele>
        <time>2020-01-19T10:14:31.000Z</time>
      </trkpt>
      <trkpt lat="47.3053" lon="-2.50999">
        <ele>-9.3999996185303</ele>
        <time>2020-01-19T10:14:38.000Z</time>
      </trkpt>
      <trkpt lat="47.30504" lon="-2.51013">
        <ele>-9.3999996185303</ele>
        <time>2020-01-19T10:14:43.000Z</time>
      </trkpt>
      <trkpt lat="47.30466" lon="-2.51031">
        <ele>-9.3999996185303</ele>
        <time>2020-01-19T10:14:50.000Z</time>
      </trkpt>
      <trkpt lat="47.30426" lon="-2.51051">
        <ele>-9.3999996185303</ele>
        <time>2020-01-19T10:14:57.000Z</time>
      </trkpt>
      <trkpt lat="47.30421" lon="-2.51053">
        <ele>-9.3999996185303</ele>
        <time>2020-01-19T10:14:58.000Z</time>
      </trkpt>
      <trkpt lat="47.30387" lon="-2.51064">
        <ele>-9.3999996185303</ele>
        <time>2020-01-19T10:15:04.000Z</time>
      </trkpt>
      <trkpt lat="47.30382" lon="-2.51066">
        <ele>-9.3999996185303</ele>
        <time>2020-01-19T10:15:05.000Z</time>
      </trkpt>
      <trkpt lat="47.3037" lon="-2.5106">
        <ele>-9.3999996185303</ele>
        <time>2020-01-19T10:15:08.000Z</time>
      </trkpt>
      <trkpt lat="47.30354" lon="-2.51054">
        <ele>-9.3999996185303</ele>
        <time>2020-01-19T10:15:12.000Z</time>
      </trkpt>
      <trkpt lat="47.30349" lon="-2.51053">
        <ele>-9.3999996185303</ele>
        <time>2020-01-19T10:15:13.000Z</time>
      </trkpt>
      <trkpt lat="47.30338" lon="-2.51054">
        <ele>-9.3999996185303</ele>
        <time>2020-01-19T10:15:15.000Z</time>
      </trkpt>
      <trkpt lat="47.30333" lon="-2.51055">
        <ele>-9.3999996185303</ele>
        <time>2020-01-19T10:15:16.000Z</time>
      </trkpt>
      <trkpt lat="47.303" lon="-2.51054">
        <ele>-9.3999996185303</ele>
        <time>2020-01-19T10:15:22.000Z</time>
      </trkpt>
      <trkpt lat="47.30272" lon="-2.51059">
        <ele>-9.8000001907349</ele>
        <time>2020-01-19T10:15:27.000Z</time>
      </trkpt>
      <trkpt lat="47.30266" lon="-2.5106">
        <ele>-10.199999809265</ele>
        <time>2020-01-19T10:15:28.000Z</time>
      </trkpt>
      <trkpt lat="47.30261" lon="-2.51061">
        <ele>-10.60000038147</ele>
        <time>2020-01-19T10:15:29.000Z</time>
      </trkpt>
      <trkpt lat="47.30255" lon="-2.51063">
        <ele>-11</ele>
        <time>2020-01-19T10:15:30.000Z</time>
      </trkpt>
      <trkpt lat="47.30249" lon="-2.51065">
        <ele>-11.39999961853</ele>
        <time>2020-01-19T10:15:31.000Z</time>
      </trkpt>
      <trkpt lat="47.30215" lon="-2.51075">
        <ele>-11.39999961853</ele>
        <time>2020-01-19T10:15:37.000Z</time>
      </trkpt>
      <trkpt lat="47.30209" lon="-2.51077">
        <ele>-11.39999961853</ele>
        <time>2020-01-19T10:15:38.000Z</time>
      </trkpt>
      <trkpt lat="47.30189" lon="-2.51088">
        <ele>-11.39999961853</ele>
        <time>2020-01-19T10:15:42.000Z</time>
      </trkpt>
      <trkpt lat="47.30182" lon="-2.5109">
        <ele>-11.39999961853</ele>
        <time>2020-01-19T10:15:45.000Z</time>
      </trkpt>
      <trkpt lat="47.30182" lon="-2.51089">
        <ele>-11.39999961853</ele>
        <time>2020-01-19T10:15:46.000Z</time>
      </trkpt>
      <trkpt lat="47.30164" lon="-2.51097">
        <ele>-11.39999961853</ele>
        <time>2020-01-19T10:17:26.000Z</time>
      </trkpt>
      <trkpt lat="47.30163" lon="-2.511">
        <ele>-11.39999961853</ele>
        <time>2020-01-19T10:17:28.000Z</time>
      </trkpt>
      <trkpt lat="47.30164" lon="-2.51105">
        <ele>-11.39999961853</ele>
        <time>2020-01-19T10:17:33.000Z</time>
      </trkpt>
      <trkpt lat="47.30168" lon="-2.51112">
        <ele>-11.39999961853</ele>
        <time>2020-01-19T10:17:40.000Z</time>
      </trkpt>
      <trkpt lat="47.3017" lon="-2.51114">
        <ele>-11.39999961853</ele>
        <time>2020-01-19T10:17:44.000Z</time>
      </trkpt>
      <trkpt lat="47.30168" lon="-2.51121">
        <ele>-9.3999996185303</ele>
        <time>2020-01-19T10:28:44.000Z</time>
      </trkpt>
      <trkpt lat="47.30167" lon="-2.5112">
        <ele>-9.3999996185303</ele>
        <time>2020-01-19T10:28:45.000Z</time>
      </trkpt>
      <trkpt lat="47.30164" lon="-2.51116">
        <ele>-9.3999996185303</ele>
        <time>2020-01-19T10:28:51.000Z</time>
      </trkpt>
      <trkpt lat="47.30162" lon="-2.51104">
        <ele>-9.3999996185303</ele>
        <time>2020-01-19T10:30:20.000Z</time>
      </trkpt>
      <trkpt lat="47.30164" lon="-2.51098">
        <ele>-9.3999996185303</ele>
        <time>2020-01-19T10:30:22.000Z</time>
      </trkpt>
      <trkpt lat="47.30165" lon="-2.51095">
        <ele>-8.8000001907349</ele>
        <time>2020-01-19T10:30:23.000Z</time>
      </trkpt>
      <trkpt lat="47.30167" lon="-2.51094">
        <ele>-8.3999996185303</ele>
        <time>2020-01-19T10:30:24.000Z</time>
      </trkpt>
      <trkpt lat="47.30168" lon="-2.51093">
        <ele>-7.8000001907349</ele>
        <time>2020-01-19T10:30:25.000Z</time>
      </trkpt>
      <trkpt lat="47.30169" lon="-2.51093">
        <ele>-7.4000000953674</ele>
        <time>2020-01-19T10:30:26.000Z</time>
      </trkpt>
      <trkpt lat="47.30171" lon="-2.51094">
        <ele>-6.8000001907349</ele>
        <time>2020-01-19T10:30:27.000Z</time>
      </trkpt>
      <trkpt lat="47.30173" lon="-2.51094">
        <ele>-7.4000000953674</ele>
        <time>2020-01-19T10:30:28.000Z</time>
      </trkpt>
      <trkpt lat="47.30175" lon="-2.51094">
        <ele>-7.8000001907349</ele>
        <time>2020-01-19T10:30:29.000Z</time>
      </trkpt>
      <trkpt lat="47.30177" lon="-2.51094">
        <ele>-8.1999998092651</ele>
        <time>2020-01-19T10:30:30.000Z</time>
      </trkpt>
      <trkpt lat="47.30179" lon="-2.51093">
        <ele>-8.8000001907349</ele>
        <time>2020-01-19T10:30:31.000Z</time>
      </trkpt>
      <trkpt lat="47.30182" lon="-2.51092">
        <ele>-9.1999998092651</ele>
        <time>2020-01-19T10:30:32.000Z</time>
      </trkpt>
      <trkpt lat="47.302" lon="-2.51084">
        <ele>-9.1999998092651</ele>
        <time>2020-01-19T10:30:38.000Z</time>
      </trkpt>
      <trkpt lat="47.30203" lon="-2.51082">
        <ele>-8.6000003814697</ele>
        <time>2020-01-19T10:30:39.000Z</time>
      </trkpt>
      <trkpt lat="47.30207" lon="-2.51081">
        <ele>-8.1999998092651</ele>
        <time>2020-01-19T10:30:40.000Z</time>
      </trkpt>
      <trkpt lat="47.3021" lon="-2.5108">
        <ele>-7.5999999046326</ele>
        <time>2020-01-19T10:30:41.000Z</time>
      </trkpt>
      <trkpt lat="47.30213" lon="-2.51078">
        <ele>-6.5999999046326</ele>
        <time>2020-01-19T10:30:42.000Z</time>
      </trkpt>
      <trkpt lat="47.3022" lon="-2.51076">
        <ele>-7</ele>
        <time>2020-01-19T10:30:44.000Z</time>
      </trkpt>
      <trkpt lat="47.30223" lon="-2.51076">
        <ele>-7.4000000953674</ele>
        <time>2020-01-19T10:30:45.000Z</time>
      </trkpt>
      <trkpt lat="47.30227" lon="-2.51074">
        <ele>-7.8000001907349</ele>
        <time>2020-01-19T10:30:46.000Z</time>
      </trkpt>
      <trkpt lat="47.30231" lon="-2.51073">
        <ele>-8.1999998092651</ele>
        <time>2020-01-19T10:30:47.000Z</time>
      </trkpt>
      <trkpt lat="47.30234" lon="-2.51071">
        <ele>-8.6000003814697</ele>
        <time>2020-01-19T10:30:48.000Z</time>
      </trkpt>
      <trkpt lat="47.30244" lon="-2.51066">
        <ele>-8.6000003814697</ele>
        <time>2020-01-19T10:30:51.000Z</time>
      </trkpt>
      <trkpt lat="47.30263" lon="-2.5106">
        <ele>-8.6000003814697</ele>
        <time>2020-01-19T10:30:56.000Z</time>
      </trkpt>
      <trkpt lat="47.30272" lon="-2.5106">
        <ele>-8.6000003814697</ele>
        <time>2020-01-19T10:30:58.000Z</time>
      </trkpt>
      <trkpt lat="47.30304" lon="-2.51055">
        <ele>-8.6000003814697</ele>
        <time>2020-01-19T10:31:06.000Z</time>
      </trkpt>
      <trkpt lat="47.30313" lon="-2.51054">
        <ele>-8.6000003814697</ele>
        <time>2020-01-19T10:31:08.000Z</time>
      </trkpt>
      <trkpt lat="47.30322" lon="-2.51055">
        <ele>-8.6000003814697</ele>
        <time>2020-01-19T10:31:10.000Z</time>
      </trkpt>
      <trkpt lat="47.3034" lon="-2.51056">
        <ele>-8.1999998092651</ele>
        <time>2020-01-19T10:31:14.000Z</time>
      </trkpt>
      <trkpt lat="47.30345" lon="-2.51057">
        <ele>-7.5999999046326</ele>
        <time>2020-01-19T10:31:15.000Z</time>
      </trkpt>
      <trkpt lat="47.30349" lon="-2.51058">
        <ele>-7.1999998092651</ele>
        <time>2020-01-19T10:31:16.000Z</time>
      </trkpt>
      <trkpt lat="47.30354" lon="-2.51058">
        <ele>-6.5999999046326</ele>
        <time>2020-01-19T10:31:17.000Z</time>
      </trkpt>
      <trkpt lat="47.30358" lon="-2.51059">
        <ele>-6.1999998092651</ele>
        <time>2020-01-19T10:31:18.000Z</time>
      </trkpt>
      <trkpt lat="47.30362" lon="-2.51058">
        <ele>-6.5999999046326</ele>
        <time>2020-01-19T10:31:19.000Z</time>
      </trkpt>
      <trkpt lat="47.30366" lon="-2.51057">
        <ele>-7</ele>
        <time>2020-01-19T10:31:20.000Z</time>
      </trkpt>
      <trkpt lat="47.30369" lon="-2.51057">
        <ele>-7.4000000953674</ele>
        <time>2020-01-19T10:31:21.000Z</time>
      </trkpt>
      <trkpt lat="47.30372" lon="-2.51058">
        <ele>-8</ele>
        <time>2020-01-19T10:31:22.000Z</time>
      </trkpt>
      <trkpt lat="47.30375" lon="-2.5106">
        <ele>-8.3999996185303</ele>
        <time>2020-01-19T10:31:23.000Z</time>
      </trkpt>
      <trkpt lat="47.30384" lon="-2.51063">
        <ele>-8.3999996185303</ele>
        <time>2020-01-19T10:31:26.000Z</time>
      </trkpt>
      <trkpt lat="47.30408" lon="-2.51057">
        <ele>-8.3999996185303</ele>
        <time>2020-01-19T10:31:31.000Z</time>
      </trkpt>
      <trkpt lat="47.30439" lon="-2.51041">
        <ele>-8.3999996185303</ele>
        <time>2020-01-19T10:31:38.000Z</time>
      </trkpt>
      <trkpt lat="47.30458" lon="-2.51031">
        <ele>-8.3999996185303</ele>
        <time>2020-01-19T10:31:42.000Z</time>
      </trkpt>
      <trkpt lat="47.30463" lon="-2.51029">
        <ele>-8.3999996185303</ele>
        <time>2020-01-19T10:31:43.000Z</time>
      </trkpt>
      <trkpt lat="47.30491" lon="-2.51013">
        <ele>-8.3999996185303</ele>
        <time>2020-01-19T10:31:49.000Z</time>
      </trkpt>
      <trkpt lat="47.3052" lon="-2.50998">
        <ele>-8.3999996185303</ele>
        <time>2020-01-19T10:31:55.000Z</time>
      </trkpt>
      <trkpt lat="47.30551" lon="-2.50981">
        <ele>-8.3999996185303</ele>
        <time>2020-01-19T10:32:01.000Z</time>
      </trkpt>
      <trkpt lat="47.30575" lon="-2.50965">
        <ele>-8.3999996185303</ele>
        <time>2020-01-19T10:32:06.000Z</time>
      </trkpt>
      <trkpt lat="47.30585" lon="-2.50958">
        <ele>-8.3999996185303</ele>
        <time>2020-01-19T10:32:08.000Z</time>
      </trkpt>
      <trkpt lat="47.306" lon="-2.50947">
        <ele>-8.3999996185303</ele>
        <time>2020-01-19T10:32:11.000Z</time>
      </trkpt>
      <trkpt lat="47.30619" lon="-2.50933">
        <ele>-8</ele>
        <time>2020-01-19T10:32:15.000Z</time>
      </trkpt>
      <trkpt lat="47.30623" lon="-2.50929">
        <ele>-7.5999999046326</ele>
        <time>2020-01-19T10:32:16.000Z</time>
      </trkpt>
      <trkpt lat="47.30628" lon="-2.50925">
        <ele>-7.1999998092651</ele>
        <time>2020-01-19T10:32:17.000Z</time>
      </trkpt>
      <trkpt lat="47.30633" lon="-2.50921">
        <ele>-6.8000001907349</ele>
        <time>2020-01-19T10:32:18.000Z</time>
      </trkpt>
      <trkpt lat="47.30638" lon="-2.50917">
        <ele>-6.4000000953674</ele>
        <time>2020-01-19T10:32:19.000Z</time>
      </trkpt>
      <trkpt lat="47.30643" lon="-2.50914">
        <ele>-6.4000000953674</ele>
        <time>2020-01-19T10:32:20.000Z</time>
      </trkpt>
      <trkpt lat="47.30669" lon="-2.50892">
        <ele>-6.4000000953674</ele>
        <time>2020-01-19T10:32:26.000Z</time>
      </trkpt>
      <trkpt lat="47.30699" lon="-2.50871">
        <ele>-6.4000000953674</ele>
        <time>2020-01-19T10:32:32.000Z</time>
      </trkpt>
      <trkpt lat="47.30732" lon="-2.50848">
        <ele>-6.4000000953674</ele>
        <time>2020-01-19T10:32:39.000Z</time>
      </trkpt>
      <trkpt lat="47.3076" lon="-2.50826">
        <ele>-5.5999999046326</ele>
        <time>2020-01-19T10:32:45.000Z</time>
      </trkpt>
      <trkpt lat="47.30765" lon="-2.50822">
        <ele>-5.1999998092651</ele>
        <time>2020-01-19T10:32:46.000Z</time>
      </trkpt>
      <trkpt lat="47.3077" lon="-2.50819">
        <ele>-4.8000001907349</ele>
        <time>2020-01-19T10:32:47.000Z</time>
      </trkpt>
      <trkpt lat="47.30773" lon="-2.50815">
        <ele>-4.4000000953674</ele>
        <time>2020-01-19T10:32:48.000Z</time>
      </trkpt>
      <trkpt lat="47.30801" lon="-2.50796">
        <ele>-4.4000000953674</ele>
        <time>2020-01-19T10:32:54.000Z</time>
      </trkpt>
      <trkpt lat="47.3082" lon="-2.50782">
        <ele>-4.4000000953674</ele>
        <time>2020-01-19T10:32:58.000Z</time>
      </trkpt>
      <trkpt lat="47.30833" lon="-2.5077">
        <ele>-4.4000000953674</ele>
        <time>2020-01-19T10:33:01.000Z</time>
      </trkpt>
      <trkpt lat="47.30878" lon="-2.50736">
        <ele>-4.4000000953674</ele>
        <time>2020-01-19T10:33:10.000Z</time>
      </trkpt>
      <trkpt lat="47.30913" lon="-2.50708">
        <ele>-4.4000000953674</ele>
        <time>2020-01-19T10:33:17.000Z</time>
      </trkpt>
      <trkpt lat="47.30952" lon="-2.50678">
        <ele>-4.4000000953674</ele>
        <time>2020-01-19T10:33:25.000Z</time>
      </trkpt>
      <trkpt lat="47.30996" lon="-2.50643">
        <ele>-4.4000000953674</ele>
        <time>2020-01-19T10:33:34.000Z</time>
      </trkpt>
      <trkpt lat="47.31035" lon="-2.50613">
        <ele>-4.4000000953674</ele>
        <time>2020-01-19T10:33:42.000Z</time>
      </trkpt>
      <trkpt lat="47.31069" lon="-2.50586">
        <ele>-4.4000000953674</ele>
        <time>2020-01-19T10:33:49.000Z</time>
      </trkpt>
      <trkpt lat="47.31111" lon="-2.50554">
        <ele>-4.4000000953674</ele>
        <time>2020-01-19T10:33:57.000Z</time>
      </trkpt>
      <trkpt lat="47.31146" lon="-2.50525">
        <ele>-4.4000000953674</ele>
        <time>2020-01-19T10:34:04.000Z</time>
      </trkpt>
      <trkpt lat="47.3118" lon="-2.50488">
        <ele>-4.4000000953674</ele>
        <time>2020-01-19T10:34:11.000Z</time>
      </trkpt>
      <trkpt lat="47.31209" lon="-2.50453">
        <ele>-4.4000000953674</ele>
        <time>2020-01-19T10:34:17.000Z</time>
      </trkpt>
      <trkpt lat="47.31231" lon="-2.50424">
        <ele>-4.8000001907349</ele>
        <time>2020-01-19T10:34:22.000Z</time>
      </trkpt>
      <trkpt lat="47.31236" lon="-2.50418">
        <ele>-5.5999999046326</ele>
        <time>2020-01-19T10:34:23.000Z</time>
      </trkpt>
      <trkpt lat="47.3124" lon="-2.50412">
        <ele>-6</ele>
        <time>2020-01-19T10:34:24.000Z</time>
      </trkpt>
      <trkpt lat="47.31244" lon="-2.50406">
        <ele>-6.4000000953674</ele>
        <time>2020-01-19T10:34:25.000Z</time>
      </trkpt>
      <trkpt lat="47.31249" lon="-2.50401">
        <ele>-6.4000000953674</ele>
        <time>2020-01-19T10:34:26.000Z</time>
      </trkpt>
      <trkpt lat="47.3128" lon="-2.50361">
        <ele>-6.4000000953674</ele>
        <time>2020-01-19T10:34:33.000Z</time>
      </trkpt>
      <trkpt lat="47.3131" lon="-2.50319">
        <ele>-6.4000000953674</ele>
        <time>2020-01-19T10:34:40.000Z</time>
      </trkpt>
      <trkpt lat="47.31314" lon="-2.50312">
        <ele>-6.8000001907349</ele>
        <time>2020-01-19T10:34:41.000Z</time>
      </trkpt>
      <trkpt lat="47.31318" lon="-2.50306">
        <ele>-7.1999998092651</ele>
        <time>2020-01-19T10:34:42.000Z</time>
      </trkpt>
      <trkpt lat="47.31322" lon="-2.50299">
        <ele>-7.5999999046326</ele>
        <time>2020-01-19T10:34:43.000Z</time>
      </trkpt>
      <trkpt lat="47.31327" lon="-2.50293">
        <ele>-8</ele>
        <time>2020-01-19T10:34:44.000Z</time>
      </trkpt>
      <trkpt lat="47.31331" lon="-2.50287">
        <ele>-8.3999996185303</ele>
        <time>2020-01-19T10:34:45.000Z</time>
      </trkpt>
      <trkpt lat="47.31344" lon="-2.50267">
        <ele>-8.3999996185303</ele>
        <time>2020-01-19T10:34:48.000Z</time>
      </trkpt>
      <trkpt lat="47.31379" lon="-2.50215">
        <ele>-8.3999996185303</ele>
        <time>2020-01-19T10:34:56.000Z</time>
      </trkpt>
      <trkpt lat="47.31415" lon="-2.50158">
        <ele>-8.3999996185303</ele>
        <time>2020-01-19T10:35:05.000Z</time>
      </trkpt>
      <trkpt lat="47.31431" lon="-2.50133">
        <ele>-8.3999996185303</ele>
        <time>2020-01-19T10:35:09.000Z</time>
      </trkpt>
      <trkpt lat="47.31439" lon="-2.5012">
        <ele>-8.3999996185303</ele>
        <time>2020-01-19T10:35:11.000Z</time>
      </trkpt>
      <trkpt lat="47.31475" lon="-2.50066">
        <ele>-8.3999996185303</ele>
        <time>2020-01-19T10:35:20.000Z</time>
      </trkpt>
      <trkpt lat="47.31503" lon="-2.50022">
        <ele>-8.3999996185303</ele>
        <time>2020-01-19T10:35:27.000Z</time>
      </trkpt>
      <trkpt lat="47.3153" lon="-2.49978">
        <ele>-8.3999996185303</ele>
        <time>2020-01-19T10:35:34.000Z</time>
      </trkpt>
      <trkpt lat="47.31547" lon="-2.49955">
        <ele>-7.8000001907349</ele>
        <time>2020-01-19T10:35:38.000Z</time>
      </trkpt>
      <trkpt lat="47.3155" lon="-2.4995">
        <ele>-7.1999998092651</ele>
        <time>2020-01-19T10:35:39.000Z</time>
      </trkpt>
      <trkpt lat="47.31554" lon="-2.49944">
        <ele>-6.5999999046326</ele>
        <time>2020-01-19T10:35:40.000Z</time>
      </trkpt>
      <trkpt lat="47.31558" lon="-2.49937">
        <ele>-6</ele>
        <time>2020-01-19T10:35:41.000Z</time>
      </trkpt>
      <trkpt lat="47.31561" lon="-2.49932">
        <ele>-5.4000000953674</ele>
        <time>2020-01-19T10:35:42.000Z</time>
      </trkpt>
      <trkpt lat="47.31585" lon="-2.49897">
        <ele>-5.4000000953674</ele>
        <time>2020-01-19T10:35:48.000Z</time>
      </trkpt>
      <trkpt lat="47.31614" lon="-2.49854">
        <ele>-5.4000000953674</ele>
        <time>2020-01-19T10:35:55.000Z</time>
      </trkpt>
      <trkpt lat="47.31652" lon="-2.49798">
        <ele>-5.4000000953674</ele>
        <time>2020-01-19T10:36:04.000Z</time>
      </trkpt>
      <trkpt lat="47.31684" lon="-2.4975">
        <ele>-5.4000000953674</ele>
        <time>2020-01-19T10:36:12.000Z</time>
      </trkpt>
      <trkpt lat="47.31716" lon="-2.49703">
        <ele>-5.4000000953674</ele>
        <time>2020-01-19T10:36:20.000Z</time>
      </trkpt>
      <trkpt lat="47.3174" lon="-2.49667">
        <ele>-5.4000000953674</ele>
        <time>2020-01-19T10:36:26.000Z</time>
      </trkpt>
      <trkpt lat="47.31767" lon="-2.49625">
        <ele>-5.4000000953674</ele>
        <time>2020-01-19T10:36:33.000Z</time>
      </trkpt>
      <trkpt lat="47.31794" lon="-2.49583">
        <ele>-5.4000000953674</ele>
        <time>2020-01-19T10:36:40.000Z</time>
      </trkpt>
      <trkpt lat="47.31819" lon="-2.49546">
        <ele>-5.4000000953674</ele>
        <time>2020-01-19T10:36:46.000Z</time>
      </trkpt>
      <trkpt lat="47.31846" lon="-2.49505">
        <ele>-5.4000000953674</ele>
        <time>2020-01-19T10:36:53.000Z</time>
      </trkpt>
      <trkpt lat="47.31869" lon="-2.49467">
        <ele>-5.4000000953674</ele>
        <time>2020-01-19T10:36:59.000Z</time>
      </trkpt>
      <trkpt lat="47.31873" lon="-2.49461">
        <ele>-5.8000001907349</ele>
        <time>2020-01-19T10:37:00.000Z</time>
      </trkpt>
      <trkpt lat="47.31877" lon="-2.49455">
        <ele>-6.1999998092651</ele>
        <time>2020-01-19T10:37:01.000Z</time>
      </trkpt>
      <trkpt lat="47.31882" lon="-2.49448">
        <ele>-6.5999999046326</ele>
        <time>2020-01-19T10:37:02.000Z</time>
      </trkpt>
      <trkpt lat="47.31886" lon="-2.49442">
        <ele>-7</ele>
        <time>2020-01-19T10:37:03.000Z</time>
      </trkpt>
      <trkpt lat="47.3189" lon="-2.49436">
        <ele>-7.5999999046326</ele>
        <time>2020-01-19T10:37:04.000Z</time>
      </trkpt>
      <trkpt lat="47.31894" lon="-2.49429">
        <ele>-7.5999999046326</ele>
        <time>2020-01-19T10:37:05.000Z</time>
      </trkpt>
      <trkpt lat="47.31928" lon="-2.49378">
        <ele>-7.5999999046326</ele>
        <time>2020-01-19T10:37:13.000Z</time>
      </trkpt>
      <trkpt lat="47.3195" lon="-2.49341">
        <ele>-7.5999999046326</ele>
        <time>2020-01-19T10:37:19.000Z</time>
      </trkpt>
      <trkpt lat="47.31978" lon="-2.49296">
        <ele>-7.5999999046326</ele>
        <time>2020-01-19T10:37:26.000Z</time>
      </trkpt>
      <trkpt lat="47.32002" lon="-2.49258">
        <ele>-7.5999999046326</ele>
        <time>2020-01-19T10:37:32.000Z</time>
      </trkpt>
      <trkpt lat="47.32007" lon="-2.49251">
        <ele>-7.5999999046326</ele>
        <time>2020-01-19T10:37:33.000Z</time>
      </trkpt>
      <trkpt lat="47.3203" lon="-2.49213">
        <ele>-7.5999999046326</ele>
        <time>2020-01-19T10:37:39.000Z</time>
      </trkpt>
      <trkpt lat="47.32058" lon="-2.4917">
        <ele>-7.5999999046326</ele>
        <time>2020-01-19T10:37:46.000Z</time>
      </trkpt>
      <trkpt lat="47.32062" lon="-2.49164">
        <ele>-7.5999999046326</ele>
        <time>2020-01-19T10:37:47.000Z</time>
      </trkpt>
      <trkpt lat="47.32084" lon="-2.49135">
        <ele>-7.5999999046326</ele>
        <time>2020-01-19T10:37:52.000Z</time>
      </trkpt>
      <trkpt lat="47.32116" lon="-2.49095">
        <ele>-8</ele>
        <time>2020-01-19T10:37:59.000Z</time>
      </trkpt>
      <trkpt lat="47.3212" lon="-2.49088">
        <ele>-8.3999996185303</ele>
        <time>2020-01-19T10:38:00.000Z</time>
      </trkpt>
      <trkpt lat="47.32124" lon="-2.49081">
        <ele>-8.8000001907349</ele>
        <time>2020-01-19T10:38:01.000Z</time>
      </trkpt>
      <trkpt lat="47.32127" lon="-2.49073">
        <ele>-9.1999998092651</ele>
        <time>2020-01-19T10:38:02.000Z</time>
      </trkpt>
      <trkpt lat="47.3213" lon="-2.49065">
        <ele>-9.6000003814697</ele>
        <time>2020-01-19T10:38:03.000Z</time>
      </trkpt>
      <trkpt lat="47.32132" lon="-2.49057">
        <ele>-9.6000003814697</ele>
        <time>2020-01-19T10:38:04.000Z</time>
      </trkpt>
      <trkpt lat="47.32137" lon="-2.49041">
        <ele>-9.6000003814697</ele>
        <time>2020-01-19T10:38:06.000Z</time>
      </trkpt>
      <trkpt lat="47.32139" lon="-2.49014">
        <ele>-9.6000003814697</ele>
        <time>2020-01-19T10:38:09.000Z</time>
      </trkpt>
      <trkpt lat="47.32139" lon="-2.48995">
        <ele>-9.6000003814697</ele>
        <time>2020-01-19T10:38:11.000Z</time>
      </trkpt>
      <trkpt lat="47.32137" lon="-2.48969">
        <ele>-9.6000003814697</ele>
        <time>2020-01-19T10:38:14.000Z</time>
      </trkpt>
      <trkpt lat="47.32137" lon="-2.48952">
        <ele>-9.1999998092651</ele>
        <time>2020-01-19T10:38:16.000Z</time>
      </trkpt>
      <trkpt lat="47.32137" lon="-2.48944">
        <ele>-8.6000003814697</ele>
        <time>2020-01-19T10:38:17.000Z</time>
      </trkpt>
      <trkpt lat="47.32138" lon="-2.48935">
        <ele>-8.1999998092651</ele>
        <time>2020-01-19T10:38:18.000Z</time>
      </trkpt>
      <trkpt lat="47.3214" lon="-2.48928">
        <ele>-7.5999999046326</ele>
        <time>2020-01-19T10:38:19.000Z</time>
      </trkpt>
      <trkpt lat="47.32142" lon="-2.4892">
        <ele>-7.1999998092651</ele>
        <time>2020-01-19T10:38:20.000Z</time>
      </trkpt>
      <trkpt lat="47.32151" lon="-2.48898">
        <ele>-7.1999998092651</ele>
        <time>2020-01-19T10:38:23.000Z</time>
      </trkpt>
      <trkpt lat="47.32154" lon="-2.48891">
        <ele>-7.1999998092651</ele>
        <time>2020-01-19T10:38:24.000Z</time>
      </trkpt>
      <trkpt lat="47.3216" lon="-2.48878">
        <ele>-7.5999999046326</ele>
        <time>2020-01-19T10:38:26.000Z</time>
      </trkpt>
      <trkpt lat="47.32164" lon="-2.48871">
        <ele>-8</ele>
        <time>2020-01-19T10:38:27.000Z</time>
      </trkpt>
      <trkpt lat="47.32167" lon="-2.48865">
        <ele>-8.3999996185303</ele>
        <time>2020-01-19T10:38:28.000Z</time>
      </trkpt>
      <trkpt lat="47.32171" lon="-2.48859">
        <ele>-8.8000001907349</ele>
        <time>2020-01-19T10:38:29.000Z</time>
      </trkpt>
      <trkpt lat="47.32174" lon="-2.48852">
        <ele>-9.3999996185303</ele>
        <time>2020-01-19T10:38:30.000Z</time>
      </trkpt>
      <trkpt lat="47.32185" lon="-2.48833">
        <ele>-9.3999996185303</ele>
        <time>2020-01-19T10:38:33.000Z</time>
      </trkpt>
      <trkpt lat="47.3221" lon="-2.48793">
        <ele>-9.3999996185303</ele>
        <time>2020-01-19T10:38:40.000Z</time>
      </trkpt>
      <trkpt lat="47.32222" lon="-2.48766">
        <ele>-9</ele>
        <time>2020-01-19T10:38:44.000Z</time>
      </trkpt>
      <trkpt lat="47.32225" lon="-2.48759">
        <ele>-8.6000003814697</ele>
        <time>2020-01-19T10:38:45.000Z</time>
      </trkpt>
      <trkpt lat="47.32228" lon="-2.48751">
        <ele>-8</ele>
        <time>2020-01-19T10:38:46.000Z</time>
      </trkpt>
      <trkpt lat="47.32231" lon="-2.48744">
        <ele>-7.5999999046326</ele>
        <time>2020-01-19T10:38:47.000Z</time>
      </trkpt>
      <trkpt lat="47.32233" lon="-2.48736">
        <ele>-7.1999998092651</ele>
        <time>2020-01-19T10:38:48.000Z</time>
      </trkpt>
      <trkpt lat="47.32236" lon="-2.4872">
        <ele>-7.1999998092651</ele>
        <time>2020-01-19T10:38:50.000Z</time>
      </trkpt>
      <trkpt lat="47.32246" lon="-2.48683">
        <ele>-7.1999998092651</ele>
        <time>2020-01-19T10:38:55.000Z</time>
      </trkpt>
      <trkpt lat="47.32253" lon="-2.4867">
        <ele>-7.1999998092651</ele>
        <time>2020-01-19T10:38:57.000Z</time>
      </trkpt>
      <trkpt lat="47.32276" lon="-2.48644">
        <ele>-7.5999999046326</ele>
        <time>2020-01-19T10:39:02.000Z</time>
      </trkpt>
      <trkpt lat="47.32281" lon="-2.48641">
        <ele>-8.1999998092651</ele>
        <time>2020-01-19T10:39:03.000Z</time>
      </trkpt>
      <trkpt lat="47.32286" lon="-2.48637">
        <ele>-8.6000003814697</ele>
        <time>2020-01-19T10:39:04.000Z</time>
      </trkpt>
      <trkpt lat="47.32292" lon="-2.48633">
        <ele>-9</ele>
        <time>2020-01-19T10:39:05.000Z</time>
      </trkpt>
      <trkpt lat="47.32297" lon="-2.48629">
        <ele>-9.3999996185303</ele>
        <time>2020-01-19T10:39:06.000Z</time>
      </trkpt>
      <trkpt lat="47.32312" lon="-2.48618">
        <ele>-9.3999996185303</ele>
        <time>2020-01-19T10:39:09.000Z</time>
      </trkpt>
      <trkpt lat="47.32347" lon="-2.48593">
        <ele>-9.3999996185303</ele>
        <time>2020-01-19T10:39:16.000Z</time>
      </trkpt>
      <trkpt lat="47.32382" lon="-2.4857">
        <ele>-9.3999996185303</ele>
        <time>2020-01-19T10:39:23.000Z</time>
      </trkpt>
      <trkpt lat="47.32388" lon="-2.48568">
        <ele>-9.3999996185303</ele>
        <time>2020-01-19T10:39:24.000Z</time>
      </trkpt>
      <trkpt lat="47.32412" lon="-2.48567">
        <ele>-9.3999996185303</ele>
        <time>2020-01-19T10:39:28.000Z</time>
      </trkpt>
      <trkpt lat="47.32453" lon="-2.48577">
        <ele>-9.3999996185303</ele>
        <time>2020-01-19T10:39:35.000Z</time>
      </trkpt>
      <trkpt lat="47.3247" lon="-2.48585">
        <ele>-9.3999996185303</ele>
        <time>2020-01-19T10:39:38.000Z</time>
      </trkpt>
      <trkpt lat="47.32486" lon="-2.48597">
        <ele>-9.3999996185303</ele>
        <time>2020-01-19T10:39:41.000Z</time>
      </trkpt>
      <trkpt lat="47.32518" lon="-2.48629">
        <ele>-9.3999996185303</ele>
        <time>2020-01-19T10:39:47.000Z</time>
      </trkpt>
      <trkpt lat="47.32528" lon="-2.4864">
        <ele>-9.3999996185303</ele>
        <time>2020-01-19T10:39:49.000Z</time>
      </trkpt>
      <trkpt lat="47.32544" lon="-2.48654">
        <ele>-9.3999996185303</ele>
        <time>2020-01-19T10:39:52.000Z</time>
      </trkpt>
      <trkpt lat="47.32549" lon="-2.48658">
        <ele>-9.3999996185303</ele>
        <time>2020-01-19T10:39:53.000Z</time>
      </trkpt>
      <trkpt lat="47.3256" lon="-2.48666">
        <ele>-9.3999996185303</ele>
        <time>2020-01-19T10:39:55.000Z</time>
      </trkpt>
      <trkpt lat="47.32571" lon="-2.48671">
        <ele>-9.3999996185303</ele>
        <time>2020-01-19T10:39:57.000Z</time>
      </trkpt>
      <trkpt lat="47.32584" lon="-2.48673">
        <ele>-9.3999996185303</ele>
        <time>2020-01-19T10:39:59.000Z</time>
      </trkpt>
      <trkpt lat="47.32602" lon="-2.48672">
        <ele>-9.3999996185303</ele>
        <time>2020-01-19T10:40:02.000Z</time>
      </trkpt>
      <trkpt lat="47.32638" lon="-2.48662">
        <ele>-9.3999996185303</ele>
        <time>2020-01-19T10:40:08.000Z</time>
      </trkpt>
      <trkpt lat="47.32678" lon="-2.48643">
        <ele>-9.3999996185303</ele>
        <time>2020-01-19T10:40:15.000Z</time>
      </trkpt>
      <trkpt lat="47.3272" lon="-2.4862">
        <ele>-9.3999996185303</ele>
        <time>2020-01-19T10:40:23.000Z</time>
      </trkpt>
      <trkpt lat="47.3277" lon="-2.48593">
        <ele>-9.3999996185303</ele>
        <time>2020-01-19T10:40:32.000Z</time>
      </trkpt>
      <trkpt lat="47.32805" lon="-2.48589">
        <ele>-9.3999996185303</ele>
        <time>2020-01-19T10:40:38.000Z</time>
      </trkpt>
      <trkpt lat="47.32859" lon="-2.48591">
        <ele>-9.3999996185303</ele>
        <time>2020-01-19T10:40:47.000Z</time>
      </trkpt>
      <trkpt lat="47.32894" lon="-2.48584">
        <ele>-9.3999996185303</ele>
        <time>2020-01-19T10:40:53.000Z</time>
      </trkpt>
      <trkpt lat="47.32915" lon="-2.48565">
        <ele>-9.3999996185303</ele>
        <time>2020-01-19T10:40:57.000Z</time>
      </trkpt>
      <trkpt lat="47.32924" lon="-2.48553">
        <ele>-9.3999996185303</ele>
        <time>2020-01-19T10:40:59.000Z</time>
      </trkpt>
      <trkpt lat="47.32933" lon="-2.48542">
        <ele>-9.3999996185303</ele>
        <time>2020-01-19T10:41:01.000Z</time>
      </trkpt>
      <trkpt lat="47.32941" lon="-2.48532">
        <ele>-9.3999996185303</ele>
        <time>2020-01-19T10:41:03.000Z</time>
      </trkpt>
      <trkpt lat="47.3295" lon="-2.48522">
        <ele>-9</ele>
        <time>2020-01-19T10:41:05.000Z</time>
      </trkpt>
      <trkpt lat="47.32955" lon="-2.48518">
        <ele>-8.3999996185303</ele>
        <time>2020-01-19T10:41:06.000Z</time>
      </trkpt>
      <trkpt lat="47.3296" lon="-2.48514">
        <ele>-8</ele>
        <time>2020-01-19T10:41:07.000Z</time>
      </trkpt>
      <trkpt lat="47.32965" lon="-2.4851">
        <ele>-7.5999999046326</ele>
        <time>2020-01-19T10:41:08.000Z</time>
      </trkpt>
      <trkpt lat="47.3297" lon="-2.48505">
        <ele>-7.1999998092651</ele>
        <time>2020-01-19T10:41:09.000Z</time>
      </trkpt>
      <trkpt lat="47.33001" lon="-2.48481">
        <ele>-7.1999998092651</ele>
        <time>2020-01-19T10:41:15.000Z</time>
      </trkpt>
      <trkpt lat="47.33018" lon="-2.4847">
        <ele>-7.5999999046326</ele>
        <time>2020-01-19T10:41:18.000Z</time>
      </trkpt>
      <trkpt lat="47.33023" lon="-2.48467">
        <ele>-8</ele>
        <time>2020-01-19T10:41:19.000Z</time>
      </trkpt>
      <trkpt lat="47.33029" lon="-2.48463">
        <ele>-8.6000003814697</ele>
        <time>2020-01-19T10:41:20.000Z</time>
      </trkpt>
      <trkpt lat="47.33035" lon="-2.48459">
        <ele>-9.6000003814697</ele>
        <time>2020-01-19T10:41:21.000Z</time>
      </trkpt>
      <trkpt lat="47.3304" lon="-2.48456">
        <ele>-9.6000003814697</ele>
        <time>2020-01-19T10:41:22.000Z</time>
      </trkpt>
      <trkpt lat="47.33088" lon="-2.48424">
        <ele>-9.6000003814697</ele>
        <time>2020-01-19T10:41:31.000Z</time>
      </trkpt>
      <trkpt lat="47.33114" lon="-2.48407">
        <ele>-9.6000003814697</ele>
        <time>2020-01-19T10:41:36.000Z</time>
      </trkpt>
      <trkpt lat="47.33124" lon="-2.48396">
        <ele>-9.6000003814697</ele>
        <time>2020-01-19T10:41:38.000Z</time>
      </trkpt>
      <trkpt lat="47.33138" lon="-2.48369">
        <ele>-9.6000003814697</ele>
        <time>2020-01-19T10:41:42.000Z</time>
      </trkpt>
      <trkpt lat="47.33141" lon="-2.48361">
        <ele>-9.6000003814697</ele>
        <time>2020-01-19T10:41:43.000Z</time>
      </trkpt>
      <trkpt lat="47.33144" lon="-2.48347">
        <ele>-9.6000003814697</ele>
        <time>2020-01-19T10:41:45.000Z</time>
      </trkpt>
      <trkpt lat="47.33145" lon="-2.48332">
        <ele>-9.6000003814697</ele>
        <time>2020-01-19T10:41:47.000Z</time>
      </trkpt>
      <trkpt lat="47.33145" lon="-2.48281">
        <ele>-9.6000003814697</ele>
        <time>2020-01-19T10:41:53.000Z</time>
      </trkpt>
      <trkpt lat="47.33142" lon="-2.48213">
        <ele>-9.6000003814697</ele>
        <time>2020-01-19T10:42:01.000Z</time>
      </trkpt>
      <trkpt lat="47.33144" lon="-2.48153">
        <ele>-9.6000003814697</ele>
        <time>2020-01-19T10:42:08.000Z</time>
      </trkpt>
      <trkpt lat="47.33146" lon="-2.4808">
        <ele>-9.6000003814697</ele>
        <time>2020-01-19T10:42:16.000Z</time>
      </trkpt>
      <trkpt lat="47.33149" lon="-2.48018">
        <ele>-9.6000003814697</ele>
        <time>2020-01-19T10:42:23.000Z</time>
      </trkpt>
      <trkpt lat="47.33151" lon="-2.47956">
        <ele>-9.6000003814697</ele>
        <time>2020-01-19T10:42:30.000Z</time>
      </trkpt>
      <trkpt lat="47.33151" lon="-2.47938">
        <ele>-9.6000003814697</ele>
        <time>2020-01-19T10:42:32.000Z</time>
      </trkpt>
      <trkpt lat="47.33147" lon="-2.47912">
        <ele>-9.6000003814697</ele>
        <time>2020-01-19T10:42:35.000Z</time>
      </trkpt>
      <trkpt lat="47.33127" lon="-2.47855">
        <ele>-9.6000003814697</ele>
        <time>2020-01-19T10:42:42.000Z</time>
      </trkpt>
      <trkpt lat="47.33119" lon="-2.4784">
        <ele>-9.6000003814697</ele>
        <time>2020-01-19T10:42:44.000Z</time>
      </trkpt>
      <trkpt lat="47.33109" lon="-2.47828">
        <ele>-9.6000003814697</ele>
        <time>2020-01-19T10:42:46.000Z</time>
      </trkpt>
      <trkpt lat="47.33087" lon="-2.47813">
        <ele>-9.6000003814697</ele>
        <time>2020-01-19T10:42:50.000Z</time>
      </trkpt>
      <trkpt lat="47.33081" lon="-2.4781">
        <ele>-9.6000003814697</ele>
        <time>2020-01-19T10:42:51.000Z</time>
      </trkpt>
      <trkpt lat="47.33043" lon="-2.47799">
        <ele>-9.6000003814697</ele>
        <time>2020-01-19T10:42:57.000Z</time>
      </trkpt>
      <trkpt lat="47.33001" lon="-2.47778">
        <ele>-9.6000003814697</ele>
        <time>2020-01-19T10:43:04.000Z</time>
      </trkpt>
      <trkpt lat="47.32974" lon="-2.47754">
        <ele>-9.6000003814697</ele>
        <time>2020-01-19T10:43:09.000Z</time>
      </trkpt>
      <trkpt lat="47.32955" lon="-2.4773">
        <ele>-9</ele>
        <time>2020-01-19T10:43:13.000Z</time>
      </trkpt>
      <trkpt lat="47.32951" lon="-2.47723">
        <ele>-8.6000003814697</ele>
        <time>2020-01-19T10:43:14.000Z</time>
      </trkpt>
      <trkpt lat="47.32946" lon="-2.47715">
        <ele>-8.1999998092651</ele>
        <time>2020-01-19T10:43:15.000Z</time>
      </trkpt>
      <trkpt lat="47.32942" lon="-2.47708">
        <ele>-7.8000001907349</ele>
        <time>2020-01-19T10:43:16.000Z</time>
      </trkpt>
      <trkpt lat="47.32939" lon="-2.47699">
        <ele>-7.4000000953674</ele>
        <time>2020-01-19T10:43:17.000Z</time>
      </trkpt>
      <trkpt lat="47.32937" lon="-2.47691">
        <ele>-7.4000000953674</ele>
        <time>2020-01-19T10:43:18.000Z</time>
      </trkpt>
      <trkpt lat="47.32934" lon="-2.47673">
        <ele>-7.4000000953674</ele>
        <time>2020-01-19T10:43:20.000Z</time>
      </trkpt>
      <trkpt lat="47.32929" lon="-2.47647">
        <ele>-7.4000000953674</ele>
        <time>2020-01-19T10:43:23.000Z</time>
      </trkpt>
      <trkpt lat="47.32919" lon="-2.47584">
        <ele>-7.4000000953674</ele>
        <time>2020-01-19T10:43:30.000Z</time>
      </trkpt>
      <trkpt lat="47.32922" lon="-2.47529">
        <ele>-7.4000000953674</ele>
        <time>2020-01-19T10:43:36.000Z</time>
      </trkpt>
      <trkpt lat="47.32921" lon="-2.47511">
        <ele>-7.4000000953674</ele>
        <time>2020-01-19T10:43:38.000Z</time>
      </trkpt>
      <trkpt lat="47.32917" lon="-2.47494">
        <ele>-7.4000000953674</ele>
        <time>2020-01-19T10:43:40.000Z</time>
      </trkpt>
      <trkpt lat="47.32913" lon="-2.47468">
        <ele>-7.4000000953674</ele>
        <time>2020-01-19T10:43:44.000Z</time>
      </trkpt>
      <trkpt lat="47.32912" lon="-2.47463">
        <ele>-7.8000001907349</ele>
        <time>2020-01-19T10:43:45.000Z</time>
      </trkpt>
      <trkpt lat="47.32911" lon="-2.47457">
        <ele>-8.3999996185303</ele>
        <time>2020-01-19T10:43:46.000Z</time>
      </trkpt>
      <trkpt lat="47.32909" lon="-2.4745">
        <ele>-8.8000001907349</ele>
        <time>2020-01-19T10:43:47.000Z</time>
      </trkpt>
      <trkpt lat="47.32907" lon="-2.47443">
        <ele>-9.1999998092651</ele>
        <time>2020-01-19T10:43:48.000Z</time>
      </trkpt>
      <trkpt lat="47.32905" lon="-2.47435">
        <ele>-9.6000003814697</ele>
        <time>2020-01-19T10:43:49.000Z</time>
      </trkpt>
      <trkpt lat="47.32902" lon="-2.47419">
        <ele>-9.1999998092651</ele>
        <time>2020-01-19T10:43:51.000Z</time>
      </trkpt>
      <trkpt lat="47.329" lon="-2.4741">
        <ele>-8.6000003814697</ele>
        <time>2020-01-19T10:43:52.000Z</time>
      </trkpt>
      <trkpt lat="47.32899" lon="-2.47402">
        <ele>-8.1999998092651</ele>
        <time>2020-01-19T10:43:53.000Z</time>
      </trkpt>
      <trkpt lat="47.32897" lon="-2.47393">
        <ele>-7.5999999046326</ele>
        <time>2020-01-19T10:43:54.000Z</time>
      </trkpt>
      <trkpt lat="47.32897" lon="-2.47384">
        <ele>-7.1999998092651</ele>
        <time>2020-01-19T10:43:55.000Z</time>
      </trkpt>
      <trkpt lat="47.32895" lon="-2.47376">
        <ele>-7.1999998092651</ele>
        <time>2020-01-19T10:43:56.000Z</time>
      </trkpt>
      <trkpt lat="47.32891" lon="-2.4735">
        <ele>-7.1999998092651</ele>
        <time>2020-01-19T10:43:59.000Z</time>
      </trkpt>
      <trkpt lat="47.32881" lon="-2.47282">
        <ele>-7.1999998092651</ele>
        <time>2020-01-19T10:44:07.000Z</time>
      </trkpt>
      <trkpt lat="47.32874" lon="-2.4724">
        <ele>-7.1999998092651</ele>
        <time>2020-01-19T10:44:12.000Z</time>
      </trkpt>
      <trkpt lat="47.32861" lon="-2.47163">
        <ele>-7.1999998092651</ele>
        <time>2020-01-19T10:44:21.000Z</time>
      </trkpt>
      <trkpt lat="47.32851" lon="-2.47103">
        <ele>-7.1999998092651</ele>
        <time>2020-01-19T10:44:28.000Z</time>
      </trkpt>
      <trkpt lat="47.32847" lon="-2.47077">
        <ele>-7.5999999046326</ele>
        <time>2020-01-19T10:44:31.000Z</time>
      </trkpt>
      <trkpt lat="47.32845" lon="-2.47069">
        <ele>-8</ele>
        <time>2020-01-19T10:44:32.000Z</time>
      </trkpt>
      <trkpt lat="47.32843" lon="-2.4706">
        <ele>-8.3999996185303</ele>
        <time>2020-01-19T10:44:33.000Z</time>
      </trkpt>
      <trkpt lat="47.3284" lon="-2.47052">
        <ele>-8.8000001907349</ele>
        <time>2020-01-19T10:44:34.000Z</time>
      </trkpt>
      <trkpt lat="47.32838" lon="-2.47044">
        <ele>-9.1999998092651</ele>
        <time>2020-01-19T10:44:35.000Z</time>
      </trkpt>
      <trkpt lat="47.32826" lon="-2.47013">
        <ele>-8.8000001907349</ele>
        <time>2020-01-19T10:44:39.000Z</time>
      </trkpt>
      <trkpt lat="47.32823" lon="-2.47005">
        <ele>-7.8000001907349</ele>
        <time>2020-01-19T10:44:40.000Z</time>
      </trkpt>
      <trkpt lat="47.3282" lon="-2.46997">
        <ele>-7.4000000953674</ele>
        <time>2020-01-19T10:44:41.000Z</time>
      </trkpt>
      <trkpt lat="47.32816" lon="-2.46989">
        <ele>-7</ele>
        <time>2020-01-19T10:44:42.000Z</time>
      </trkpt>
      <trkpt lat="47.3279" lon="-2.46924">
        <ele>-7</ele>
        <time>2020-01-19T10:44:50.000Z</time>
      </trkpt>
      <trkpt lat="47.32781" lon="-2.46881">
        <ele>-7</ele>
        <time>2020-01-19T10:44:55.000Z</time>
      </trkpt>
      <trkpt lat="47.32766" lon="-2.4682">
        <ele>-7</ele>
        <time>2020-01-19T10:45:02.000Z</time>
      </trkpt>
      <trkpt lat="47.32759" lon="-2.46805">
        <ele>-7.8000001907349</ele>
        <time>2020-01-19T10:45:04.000Z</time>
      </trkpt>
      <trkpt lat="47.32755" lon="-2.46798">
        <ele>-8.1999998092651</ele>
        <time>2020-01-19T10:45:05.000Z</time>
      </trkpt>
      <trkpt lat="47.32751" lon="-2.46791">
        <ele>-8.6000003814697</ele>
        <time>2020-01-19T10:45:06.000Z</time>
      </trkpt>
      <trkpt lat="47.32748" lon="-2.46784">
        <ele>-9</ele>
        <time>2020-01-19T10:45:07.000Z</time>
      </trkpt>
      <trkpt lat="47.32744" lon="-2.46776">
        <ele>-9</ele>
        <time>2020-01-19T10:45:08.000Z</time>
      </trkpt>
      <trkpt lat="47.32724" lon="-2.4674">
        <ele>-9</ele>
        <time>2020-01-19T10:45:13.000Z</time>
      </trkpt>
      <trkpt lat="47.32715" lon="-2.46728">
        <ele>-9</ele>
        <time>2020-01-19T10:45:15.000Z</time>
      </trkpt>
      <trkpt lat="47.32679" lon="-2.46693">
        <ele>-9</ele>
        <time>2020-01-19T10:45:22.000Z</time>
      </trkpt>
      <trkpt lat="47.32645" lon="-2.46671">
        <ele>-9</ele>
        <time>2020-01-19T10:45:28.000Z</time>
      </trkpt>
      <trkpt lat="47.3262" lon="-2.46643">
        <ele>-9</ele>
        <time>2020-01-19T10:45:33.000Z</time>
      </trkpt>
      <trkpt lat="47.3259" lon="-2.46595">
        <ele>-9</ele>
        <time>2020-01-19T10:45:40.000Z</time>
      </trkpt>
      <trkpt lat="47.32574" lon="-2.46569">
        <ele>-9</ele>
        <time>2020-01-19T10:45:44.000Z</time>
      </trkpt>
      <trkpt lat="47.32559" lon="-2.46551">
        <ele>-9</ele>
        <time>2020-01-19T10:45:47.000Z</time>
      </trkpt>
      <trkpt lat="47.3254" lon="-2.46527">
        <ele>-9</ele>
        <time>2020-01-19T10:45:51.000Z</time>
      </trkpt>
      <trkpt lat="47.32533" lon="-2.46512">
        <ele>-9</ele>
        <time>2020-01-19T10:45:53.000Z</time>
      </trkpt>
      <trkpt lat="47.32515" lon="-2.46465">
        <ele>-9</ele>
        <time>2020-01-19T10:45:59.000Z</time>
      </trkpt>
      <trkpt lat="47.3249" lon="-2.46422">
        <ele>-9</ele>
        <time>2020-01-19T10:46:05.000Z</time>
      </trkpt>
      <trkpt lat="47.32458" lon="-2.46376">
        <ele>-8.6000003814697</ele>
        <time>2020-01-19T10:46:12.000Z</time>
      </trkpt>
      <trkpt lat="47.32454" lon="-2.46369">
        <ele>-8.1999998092651</ele>
        <time>2020-01-19T10:46:13.000Z</time>
      </trkpt>
      <trkpt lat="47.3245" lon="-2.46362">
        <ele>-7.8000001907349</ele>
        <time>2020-01-19T10:46:14.000Z</time>
      </trkpt>
      <trkpt lat="47.32447" lon="-2.46354">
        <ele>-7.4000000953674</ele>
        <time>2020-01-19T10:46:15.000Z</time>
      </trkpt>
      <trkpt lat="47.32444" lon="-2.46346">
        <ele>-7</ele>
        <time>2020-01-19T10:46:16.000Z</time>
      </trkpt>
      <trkpt lat="47.32437" lon="-2.4633">
        <ele>-7</ele>
        <time>2020-01-19T10:46:18.000Z</time>
      </trkpt>
      <trkpt lat="47.32435" lon="-2.46321">
        <ele>-7</ele>
        <time>2020-01-19T10:46:19.000Z</time>
      </trkpt>
      <trkpt lat="47.32427" lon="-2.46296">
        <ele>-7</ele>
        <time>2020-01-19T10:46:22.000Z</time>
      </trkpt>
      <trkpt lat="47.32412" lon="-2.46265">
        <ele>-7</ele>
        <time>2020-01-19T10:46:26.000Z</time>
      </trkpt>
      <trkpt lat="47.32381" lon="-2.46208">
        <ele>-7</ele>
        <time>2020-01-19T10:46:34.000Z</time>
      </trkpt>
      <trkpt lat="47.32352" lon="-2.46161">
        <ele>-7</ele>
        <time>2020-01-19T10:46:41.000Z</time>
      </trkpt>
      <trkpt lat="47.32317" lon="-2.46108">
        <ele>-7</ele>
        <time>2020-01-19T10:46:49.000Z</time>
      </trkpt>
      <trkpt lat="47.32291" lon="-2.46059">
        <ele>-7</ele>
        <time>2020-01-19T10:46:56.000Z</time>
      </trkpt>
      <trkpt lat="47.32278" lon="-2.4603">
        <ele>-7</ele>
        <time>2020-01-19T10:47:00.000Z</time>
      </trkpt>
      <trkpt lat="47.32272" lon="-2.46014">
        <ele>-7</ele>
        <time>2020-01-19T10:47:02.000Z</time>
      </trkpt>
      <trkpt lat="47.3226" lon="-2.45991">
        <ele>-7</ele>
        <time>2020-01-19T10:47:05.000Z</time>
      </trkpt>
      <trkpt lat="47.32251" lon="-2.4598">
        <ele>-7</ele>
        <time>2020-01-19T10:47:07.000Z</time>
      </trkpt>
      <trkpt lat="47.32224" lon="-2.45944">
        <ele>-7</ele>
        <time>2020-01-19T10:47:13.000Z</time>
      </trkpt>
      <trkpt lat="47.32208" lon="-2.45903">
        <ele>-7.4000000953674</ele>
        <time>2020-01-19T10:47:18.000Z</time>
      </trkpt>
      <trkpt lat="47.32205" lon="-2.45894">
        <ele>-7.8000001907349</ele>
        <time>2020-01-19T10:47:19.000Z</time>
      </trkpt>
      <trkpt lat="47.32202" lon="-2.45886">
        <ele>-8.1999998092651</ele>
        <time>2020-01-19T10:47:21.000Z</time>
      </trkpt>
      <trkpt lat="47.32199" lon="-2.45878">
        <ele>-8.6000003814697</ele>
        <time>2020-01-19T10:47:22.000Z</time>
      </trkpt>
      <trkpt lat="47.32196" lon="-2.45871">
        <ele>-9</ele>
        <time>2020-01-19T10:47:23.000Z</time>
      </trkpt>
      <trkpt lat="47.32189" lon="-2.45856">
        <ele>-9</ele>
        <time>2020-01-19T10:47:25.000Z</time>
      </trkpt>
      <trkpt lat="47.32181" lon="-2.45842">
        <ele>-9</ele>
        <time>2020-01-19T10:47:27.000Z</time>
      </trkpt>
      <trkpt lat="47.32166" lon="-2.45813">
        <ele>-9</ele>
        <time>2020-01-19T10:47:31.000Z</time>
      </trkpt>
      <trkpt lat="47.32142" lon="-2.45771">
        <ele>-9</ele>
        <time>2020-01-19T10:47:37.000Z</time>
      </trkpt>
      <trkpt lat="47.32137" lon="-2.45766">
        <ele>-9</ele>
        <time>2020-01-19T10:47:38.000Z</time>
      </trkpt>
      <trkpt lat="47.3212" lon="-2.45752">
        <ele>-9</ele>
        <time>2020-01-19T10:47:41.000Z</time>
      </trkpt>
      <trkpt lat="47.32114" lon="-2.45749">
        <ele>-9</ele>
        <time>2020-01-19T10:47:42.000Z</time>
      </trkpt>
      <trkpt lat="47.32108" lon="-2.45747">
        <ele>-9</ele>
        <time>2020-01-19T10:47:43.000Z</time>
      </trkpt>
      <trkpt lat="47.32089" lon="-2.45741">
        <ele>-9</ele>
        <time>2020-01-19T10:47:46.000Z</time>
      </trkpt>
      <trkpt lat="47.32083" lon="-2.45739">
        <ele>-9</ele>
        <time>2020-01-19T10:47:47.000Z</time>
      </trkpt>
      <trkpt lat="47.3206" lon="-2.45725">
        <ele>-9</ele>
        <time>2020-01-19T10:47:51.000Z</time>
      </trkpt>
      <trkpt lat="47.32021" lon="-2.45695">
        <ele>-9</ele>
        <time>2020-01-19T10:47:58.000Z</time>
      </trkpt>
      <trkpt lat="47.31993" lon="-2.4567">
        <ele>-9</ele>
        <time>2020-01-19T10:48:03.000Z</time>
      </trkpt>
      <trkpt lat="47.31984" lon="-2.45657">
        <ele>-9</ele>
        <time>2020-01-19T10:48:05.000Z</time>
      </trkpt>
      <trkpt lat="47.31961" lon="-2.45615">
        <ele>-9</ele>
        <time>2020-01-19T10:48:11.000Z</time>
      </trkpt>
      <trkpt lat="47.3194" lon="-2.4556">
        <ele>-9</ele>
        <time>2020-01-19T10:48:18.000Z</time>
      </trkpt>
      <trkpt lat="47.31929" lon="-2.45537">
        <ele>-9</ele>
        <time>2020-01-19T10:48:21.000Z</time>
      </trkpt>
      <trkpt lat="47.3192" lon="-2.45525">
        <ele>-9</ele>
        <time>2020-01-19T10:48:23.000Z</time>
      </trkpt>
      <trkpt lat="47.31888" lon="-2.45482">
        <ele>-9</ele>
        <time>2020-01-19T10:48:30.000Z</time>
      </trkpt>
      <trkpt lat="47.31849" lon="-2.45425">
        <ele>-9</ele>
        <time>2020-01-19T10:48:39.000Z</time>
      </trkpt>
      <trkpt lat="47.31818" lon="-2.45374">
        <ele>-9</ele>
        <time>2020-01-19T10:48:47.000Z</time>
      </trkpt>
      <trkpt lat="47.31807" lon="-2.4536">
        <ele>-9</ele>
        <time>2020-01-19T10:48:50.000Z</time>
      </trkpt>
      <trkpt lat="47.31794" lon="-2.45348">
        <ele>-9</ele>
        <time>2020-01-19T10:48:53.000Z</time>
      </trkpt>
      <trkpt lat="47.31773" lon="-2.45336">
        <ele>-9</ele>
        <time>2020-01-19T10:48:57.000Z</time>
      </trkpt>
      <trkpt lat="47.31762" lon="-2.45333">
        <ele>-9</ele>
        <time>2020-01-19T10:48:59.000Z</time>
      </trkpt>
      <trkpt lat="47.31745" lon="-2.4534">
        <ele>-9</ele>
        <time>2020-01-19T10:49:02.000Z</time>
      </trkpt>
      <trkpt lat="47.31714" lon="-2.45354">
        <ele>-9</ele>
        <time>2020-01-19T10:49:07.000Z</time>
      </trkpt>
      <trkpt lat="47.31702" lon="-2.45352">
        <ele>-9</ele>
        <time>2020-01-19T10:49:09.000Z</time>
      </trkpt>
      <trkpt lat="47.31686" lon="-2.45335">
        <ele>-9</ele>
        <time>2020-01-19T10:49:12.000Z</time>
      </trkpt>
      <trkpt lat="47.31677" lon="-2.45322">
        <ele>-9</ele>
        <time>2020-01-19T10:49:14.000Z</time>
      </trkpt>
      <trkpt lat="47.31668" lon="-2.45311">
        <ele>-9</ele>
        <time>2020-01-19T10:49:16.000Z</time>
      </trkpt>
      <trkpt lat="47.31663" lon="-2.45306">
        <ele>-9</ele>
        <time>2020-01-19T10:49:17.000Z</time>
      </trkpt>
      <trkpt lat="47.31645" lon="-2.45298">
        <ele>-9</ele>
        <time>2020-01-19T10:49:20.000Z</time>
      </trkpt>
      <trkpt lat="47.31639" lon="-2.45297">
        <ele>-9</ele>
        <time>2020-01-19T10:49:21.000Z</time>
      </trkpt>
      <trkpt lat="47.31616" lon="-2.45295">
        <ele>-9</ele>
        <time>2020-01-19T10:49:25.000Z</time>
      </trkpt>
      <trkpt lat="47.31583" lon="-2.4529">
        <ele>-9</ele>
        <time>2020-01-19T10:49:32.000Z</time>
      </trkpt>
      <trkpt lat="47.31564" lon="-2.45283">
        <ele>-9</ele>
        <time>2020-01-19T10:49:38.000Z</time>
      </trkpt>
      <trkpt lat="47.31551" lon="-2.45274">
        <ele>-9</ele>
        <time>2020-01-19T10:49:43.000Z</time>
      </trkpt>
      <trkpt lat="47.31527" lon="-2.45264">
        <ele>-9</ele>
        <time>2020-01-19T10:49:50.000Z</time>
      </trkpt>
      <trkpt lat="47.31507" lon="-2.45267">
        <ele>-9</ele>
        <time>2020-01-19T10:49:55.000Z</time>
      </trkpt>
      <trkpt lat="47.31503" lon="-2.45268">
        <ele>-9</ele>
        <time>2020-01-19T10:49:56.000Z</time>
      </trkpt>
      <trkpt lat="47.31487" lon="-2.45271">
        <ele>-9</ele>
        <time>2020-01-19T10:50:00.000Z</time>
      </trkpt>
      <trkpt lat="47.31483" lon="-2.45272">
        <ele>-9</ele>
        <time>2020-01-19T10:50:01.000Z</time>
      </trkpt>
      <trkpt lat="47.31467" lon="-2.45272">
        <ele>-9</ele>
        <time>2020-01-19T10:50:05.000Z</time>
      </trkpt>
      <trkpt lat="47.3145" lon="-2.45271">
        <ele>-9</ele>
        <time>2020-01-19T10:50:10.000Z</time>
      </trkpt>
      <trkpt lat="47.31426" lon="-2.45268">
        <ele>-9</ele>
        <time>2020-01-19T10:50:18.000Z</time>
      </trkpt>
      <trkpt lat="47.31403" lon="-2.45265">
        <ele>-9</ele>
        <time>2020-01-19T10:50:25.000Z</time>
      </trkpt>
      <trkpt lat="47.31385" lon="-2.45268">
        <ele>-9</ele>
        <time>2020-01-19T10:50:31.000Z</time>
      </trkpt>
      <trkpt lat="47.31365" lon="-2.45266">
        <ele>-9</ele>
        <time>2020-01-19T10:50:38.000Z</time>
      </trkpt>
      <trkpt lat="47.31363" lon="-2.45265">
        <ele>-9</ele>
        <time>2020-01-19T10:50:40.000Z</time>
      </trkpt>
      <trkpt lat="47.31362" lon="-2.45264">
        <ele>-9</ele>
        <time>2020-01-19T10:51:04.000Z</time>
      </trkpt>
      <trkpt lat="47.31359" lon="-2.45263">
        <ele>-9</ele>
        <time>2020-01-19T10:51:07.000Z</time>
      </trkpt>
      <trkpt lat="47.31357" lon="-2.45264">
        <ele>-9</ele>
        <time>2020-01-19T10:51:45.000Z</time>
      </trkpt>
      <trkpt lat="47.31344" lon="-2.45269">
        <ele>-9</ele>
        <time>2020-01-19T10:51:51.000Z</time>
      </trkpt>
      <trkpt lat="47.31326" lon="-2.45275">
        <ele>-9</ele>
        <time>2020-01-19T10:51:56.000Z</time>
      </trkpt>
      <trkpt lat="47.31322" lon="-2.45277">
        <ele>-9</ele>
        <time>2020-01-19T10:51:57.000Z</time>
      </trkpt>
      <trkpt lat="47.31298" lon="-2.45287">
        <ele>-9</ele>
        <time>2020-01-19T10:52:02.000Z</time>
      </trkpt>
      <trkpt lat="47.3126" lon="-2.45307">
        <ele>-9</ele>
        <time>2020-01-19T10:52:10.000Z</time>
      </trkpt>
      <trkpt lat="47.31241" lon="-2.45321">
        <ele>-9</ele>
        <time>2020-01-19T10:52:14.000Z</time>
      </trkpt>
      <trkpt lat="47.31234" lon="-2.45334">
        <ele>-9</ele>
        <time>2020-01-19T10:52:16.000Z</time>
      </trkpt>
      <trkpt lat="47.31226" lon="-2.45358">
        <ele>-9</ele>
        <time>2020-01-19T10:52:19.000Z</time>
      </trkpt>
      <trkpt lat="47.31222" lon="-2.45375">
        <ele>-9</ele>
        <time>2020-01-19T10:52:21.000Z</time>
      </trkpt>
      <trkpt lat="47.31206" lon="-2.45424">
        <ele>-9</ele>
        <time>2020-01-19T10:52:27.000Z</time>
      </trkpt>
      <trkpt lat="47.31177" lon="-2.45487">
        <ele>-9</ele>
        <time>2020-01-19T10:52:35.000Z</time>
      </trkpt>
      <trkpt lat="47.31154" lon="-2.45504">
        <ele>-9</ele>
        <time>2020-01-19T10:52:39.000Z</time>
      </trkpt>
      <trkpt lat="47.31148" lon="-2.45507">
        <ele>-9</ele>
        <time>2020-01-19T10:52:40.000Z</time>
      </trkpt>
      <trkpt lat="47.31119" lon="-2.45528">
        <ele>-9</ele>
        <time>2020-01-19T10:52:45.000Z</time>
      </trkpt>
      <trkpt lat="47.31106" lon="-2.45534">
        <ele>-9</ele>
        <time>2020-01-19T10:52:47.000Z</time>
      </trkpt>
      <trkpt lat="47.31093" lon="-2.45537">
        <ele>-9</ele>
        <time>2020-01-19T10:52:49.000Z</time>
      </trkpt>
      <trkpt lat="47.31087" lon="-2.45539">
        <ele>-8.6000003814697</ele>
        <time>2020-01-19T10:52:50.000Z</time>
      </trkpt>
      <trkpt lat="47.31081" lon="-2.45542">
        <ele>-8.1999998092651</ele>
        <time>2020-01-19T10:52:51.000Z</time>
      </trkpt>
      <trkpt lat="47.31074" lon="-2.45545">
        <ele>-7.8000001907349</ele>
        <time>2020-01-19T10:52:52.000Z</time>
      </trkpt>
      <trkpt lat="47.31068" lon="-2.45548">
        <ele>-7.4000000953674</ele>
        <time>2020-01-19T10:52:53.000Z</time>
      </trkpt>
      <trkpt lat="47.31062" lon="-2.45552">
        <ele>-7</ele>
        <time>2020-01-19T10:52:54.000Z</time>
      </trkpt>
      <trkpt lat="47.31042" lon="-2.45563">
        <ele>-7</ele>
        <time>2020-01-19T10:52:57.000Z</time>
      </trkpt>
      <trkpt lat="47.31022" lon="-2.45566">
        <ele>-7</ele>
        <time>2020-01-19T10:53:00.000Z</time>
      </trkpt>
      <trkpt lat="47.30983" lon="-2.45564">
        <ele>-7</ele>
        <time>2020-01-19T10:53:06.000Z</time>
      </trkpt>
      <trkpt lat="47.30942" lon="-2.45568">
        <ele>-7</ele>
        <time>2020-01-19T10:53:12.000Z</time>
      </trkpt>
      <trkpt lat="47.30936" lon="-2.45571">
        <ele>-7</ele>
        <time>2020-01-19T10:53:13.000Z</time>
      </trkpt>
      <trkpt lat="47.3089" lon="-2.45593">
        <ele>-7</ele>
        <time>2020-01-19T10:53:20.000Z</time>
      </trkpt>
      <trkpt lat="47.30884" lon="-2.45598">
        <ele>-7</ele>
        <time>2020-01-19T10:53:21.000Z</time>
      </trkpt>
      <trkpt lat="47.30858" lon="-2.45615">
        <ele>-7</ele>
        <time>2020-01-19T10:53:25.000Z</time>
      </trkpt>
      <trkpt lat="47.30814" lon="-2.45647">
        <ele>-7.4000000953674</ele>
        <time>2020-01-19T10:53:32.000Z</time>
      </trkpt>
      <trkpt lat="47.30808" lon="-2.45652">
        <ele>-7.8000001907349</ele>
        <time>2020-01-19T10:53:33.000Z</time>
      </trkpt>
      <trkpt lat="47.30802" lon="-2.45656">
        <ele>-8.1999998092651</ele>
        <time>2020-01-19T10:53:34.000Z</time>
      </trkpt>
      <trkpt lat="47.30795" lon="-2.45659">
        <ele>-8.6000003814697</ele>
        <time>2020-01-19T10:53:35.000Z</time>
      </trkpt>
      <trkpt lat="47.30788" lon="-2.45661">
        <ele>-9</ele>
        <time>2020-01-19T10:53:36.000Z</time>
      </trkpt>
      <trkpt lat="47.30781" lon="-2.45662">
        <ele>-9</ele>
        <time>2020-01-19T10:53:37.000Z</time>
      </trkpt>
      <trkpt lat="47.30774" lon="-2.45662">
        <ele>-9</ele>
        <time>2020-01-19T10:53:38.000Z</time>
      </trkpt>
      <trkpt lat="47.30754" lon="-2.45654">
        <ele>-8.6000003814697</ele>
        <time>2020-01-19T10:53:41.000Z</time>
      </trkpt>
      <trkpt lat="47.30747" lon="-2.4565">
        <ele>-8.1999998092651</ele>
        <time>2020-01-19T10:53:42.000Z</time>
      </trkpt>
      <trkpt lat="47.30741" lon="-2.45645">
        <ele>-7.5999999046326</ele>
        <time>2020-01-19T10:53:43.000Z</time>
      </trkpt>
      <trkpt lat="47.30735" lon="-2.4564">
        <ele>-6.8000001907349</ele>
        <time>2020-01-19T10:53:44.000Z</time>
      </trkpt>
      <trkpt lat="47.30713" lon="-2.4562">
        <ele>-6.8000001907349</ele>
        <time>2020-01-19T10:53:48.000Z</time>
      </trkpt>
      <trkpt lat="47.30671" lon="-2.45577">
        <ele>-6.8000001907349</ele>
        <time>2020-01-19T10:53:56.000Z</time>
      </trkpt>
      <trkpt lat="47.30654" lon="-2.45565">
        <ele>-6.8000001907349</ele>
        <time>2020-01-19T10:53:59.000Z</time>
      </trkpt>
      <trkpt lat="47.30642" lon="-2.4556">
        <ele>-6.8000001907349</ele>
        <time>2020-01-19T10:54:01.000Z</time>
      </trkpt>
      <trkpt lat="47.30622" lon="-2.45562">
        <ele>-6.8000001907349</ele>
        <time>2020-01-19T10:54:04.000Z</time>
      </trkpt>
      <trkpt lat="47.30615" lon="-2.45564">
        <ele>-7.1999998092651</ele>
        <time>2020-01-19T10:54:05.000Z</time>
      </trkpt>
      <trkpt lat="47.30609" lon="-2.45568">
        <ele>-7.5999999046326</ele>
        <time>2020-01-19T10:54:06.000Z</time>
      </trkpt>
      <trkpt lat="47.30603" lon="-2.45571">
        <ele>-8</ele>
        <time>2020-01-19T10:54:07.000Z</time>
      </trkpt>
      <trkpt lat="47.30598" lon="-2.45575">
        <ele>-8.3999996185303</ele>
        <time>2020-01-19T10:54:08.000Z</time>
      </trkpt>
      <trkpt lat="47.30594" lon="-2.4558">
        <ele>-8.8000001907349</ele>
        <time>2020-01-19T10:54:09.000Z</time>
      </trkpt>
      <trkpt lat="47.30578" lon="-2.45591">
        <ele>-8.8000001907349</ele>
        <time>2020-01-19T10:54:13.000Z</time>
      </trkpt>
      <trkpt lat="47.30573" lon="-2.45593">
        <ele>-8.8000001907349</ele>
        <time>2020-01-19T10:54:14.000Z</time>
      </trkpt>
      <trkpt lat="47.30559" lon="-2.45596">
        <ele>-8.8000001907349</ele>
        <time>2020-01-19T10:54:17.000Z</time>
      </trkpt>
      <trkpt lat="47.30549" lon="-2.45594">
        <ele>-8.8000001907349</ele>
        <time>2020-01-19T10:54:19.000Z</time>
      </trkpt>
      <trkpt lat="47.30535" lon="-2.45585">
        <ele>-8.8000001907349</ele>
        <time>2020-01-19T10:54:22.000Z</time>
      </trkpt>
      <trkpt lat="47.30525" lon="-2.45578">
        <ele>-8.8000001907349</ele>
        <time>2020-01-19T10:54:24.000Z</time>
      </trkpt>
      <trkpt lat="47.30485" lon="-2.45557">
        <ele>-8.8000001907349</ele>
        <time>2020-01-19T10:54:32.000Z</time>
      </trkpt>
      <trkpt lat="47.30469" lon="-2.45551">
        <ele>-8.8000001907349</ele>
        <time>2020-01-19T10:54:35.000Z</time>
      </trkpt>
      <trkpt lat="47.30458" lon="-2.45551">
        <ele>-8.8000001907349</ele>
        <time>2020-01-19T10:54:37.000Z</time>
      </trkpt>
      <trkpt lat="47.30452" lon="-2.45554">
        <ele>-8.8000001907349</ele>
        <time>2020-01-19T10:54:38.000Z</time>
      </trkpt>
      <trkpt lat="47.30424" lon="-2.45575">
        <ele>-8.8000001907349</ele>
        <time>2020-01-19T10:54:43.000Z</time>
      </trkpt>
      <trkpt lat="47.30394" lon="-2.45593">
        <ele>-8.8000001907349</ele>
        <time>2020-01-19T10:54:49.000Z</time>
      </trkpt>
      <trkpt lat="47.30385" lon="-2.45594">
        <ele>-8.8000001907349</ele>
        <time>2020-01-19T10:54:51.000Z</time>
      </trkpt>
      <trkpt lat="47.30377" lon="-2.45584">
        <ele>-8.8000001907349</ele>
        <time>2020-01-19T10:54:53.000Z</time>
      </trkpt>
      <trkpt lat="47.30375" lon="-2.45576">
        <ele>-8.1999998092651</ele>
        <time>2020-01-19T10:54:54.000Z</time>
      </trkpt>
      <trkpt lat="47.30374" lon="-2.45569">
        <ele>-7.5999999046326</ele>
        <time>2020-01-19T10:54:55.000Z</time>
      </trkpt>
      <trkpt lat="47.30374" lon="-2.45561">
        <ele>-7</ele>
        <time>2020-01-19T10:54:56.000Z</time>
      </trkpt>
      <trkpt lat="47.30375" lon="-2.45552">
        <ele>-6.4000000953674</ele>
        <time>2020-01-19T10:54:57.000Z</time>
      </trkpt>
      <trkpt lat="47.30376" lon="-2.45543">
        <ele>-5.8000001907349</ele>
        <time>2020-01-19T10:54:58.000Z</time>
      </trkpt>
      <trkpt lat="47.30379" lon="-2.45526">
        <ele>-5.8000001907349</ele>
        <time>2020-01-19T10:55:00.000Z</time>
      </trkpt>
      <trkpt lat="47.30383" lon="-2.45462">
        <ele>-5.8000001907349</ele>
        <time>2020-01-19T10:55:07.000Z</time>
      </trkpt>
      <trkpt lat="47.30382" lon="-2.45454">
        <ele>-5.8000001907349</ele>
        <time>2020-01-19T10:55:08.000Z</time>
      </trkpt>
      <trkpt lat="47.30376" lon="-2.45421">
        <ele>-5.8000001907349</ele>
        <time>2020-01-19T10:55:12.000Z</time>
      </trkpt>
      <trkpt lat="47.30362" lon="-2.45384">
        <ele>-5.8000001907349</ele>
        <time>2020-01-19T10:55:17.000Z</time>
      </trkpt>
      <trkpt lat="47.30341" lon="-2.45345">
        <ele>-5.8000001907349</ele>
        <time>2020-01-19T10:55:23.000Z</time>
      </trkpt>
      <trkpt lat="47.30316" lon="-2.45304">
        <ele>-5.8000001907349</ele>
        <time>2020-01-19T10:55:29.000Z</time>
      </trkpt>
      <trkpt lat="47.30287" lon="-2.45268">
        <ele>-5.8000001907349</ele>
        <time>2020-01-19T10:55:35.000Z</time>
      </trkpt>
      <trkpt lat="47.30267" lon="-2.45226">
        <ele>-5.8000001907349</ele>
        <time>2020-01-19T10:55:41.000Z</time>
      </trkpt>
      <trkpt lat="47.3024" lon="-2.45177">
        <ele>-6.4000000953674</ele>
        <time>2020-01-19T10:55:48.000Z</time>
      </trkpt>
      <trkpt lat="47.30236" lon="-2.45169">
        <ele>-6.8000001907349</ele>
        <time>2020-01-19T10:55:49.000Z</time>
      </trkpt>
      <trkpt lat="47.30232" lon="-2.45162">
        <ele>-7.1999998092651</ele>
        <time>2020-01-19T10:55:50.000Z</time>
      </trkpt>
      <trkpt lat="47.30228" lon="-2.45155">
        <ele>-7.5999999046326</ele>
        <time>2020-01-19T10:55:51.000Z</time>
      </trkpt>
      <trkpt lat="47.30224" lon="-2.45148">
        <ele>-8.1999998092651</ele>
        <time>2020-01-19T10:55:52.000Z</time>
      </trkpt>
      <trkpt lat="47.30211" lon="-2.45117">
        <ele>-8.1999998092651</ele>
        <time>2020-01-19T10:55:56.000Z</time>
      </trkpt>
      <trkpt lat="47.30198" lon="-2.45065">
        <ele>-8.1999998092651</ele>
        <time>2020-01-19T10:56:02.000Z</time>
      </trkpt>
      <trkpt lat="47.30194" lon="-2.45057">
        <ele>-8.1999998092651</ele>
        <time>2020-01-19T10:56:03.000Z</time>
      </trkpt>
      <trkpt lat="47.30183" lon="-2.45033">
        <ele>-8.1999998092651</ele>
        <time>2020-01-19T10:56:06.000Z</time>
      </trkpt>
      <trkpt lat="47.30174" lon="-2.45008">
        <ele>-8.1999998092651</ele>
        <time>2020-01-19T10:56:09.000Z</time>
      </trkpt>
      <trkpt lat="47.30171" lon="-2.4499">
        <ele>-7.5999999046326</ele>
        <time>2020-01-19T10:56:11.000Z</time>
      </trkpt>
      <trkpt lat="47.30169" lon="-2.44982">
        <ele>-7.1999998092651</ele>
        <time>2020-01-19T10:56:12.000Z</time>
      </trkpt>
      <trkpt lat="47.30167" lon="-2.44972">
        <ele>-6.8000001907349</ele>
        <time>2020-01-19T10:56:13.000Z</time>
      </trkpt>
      <trkpt lat="47.30164" lon="-2.44964">
        <ele>-6.4000000953674</ele>
        <time>2020-01-19T10:56:14.000Z</time>
      </trkpt>
      <trkpt lat="47.30163" lon="-2.44956">
        <ele>-6</ele>
        <time>2020-01-19T10:56:15.000Z</time>
      </trkpt>
      <trkpt lat="47.30157" lon="-2.4493">
        <ele>-6</ele>
        <time>2020-01-19T10:56:18.000Z</time>
      </trkpt>
      <trkpt lat="47.30143" lon="-2.44866">
        <ele>-6</ele>
        <time>2020-01-19T10:56:25.000Z</time>
      </trkpt>
      <trkpt lat="47.30132" lon="-2.44802">
        <ele>-6</ele>
        <time>2020-01-19T10:56:32.000Z</time>
      </trkpt>
      <trkpt lat="47.3012" lon="-2.44738">
        <ele>-6</ele>
        <time>2020-01-19T10:56:39.000Z</time>
      </trkpt>
      <trkpt lat="47.30104" lon="-2.44678">
        <ele>-6</ele>
        <time>2020-01-19T10:56:46.000Z</time>
      </trkpt>
      <trkpt lat="47.301" lon="-2.4467">
        <ele>-6</ele>
        <time>2020-01-19T10:56:47.000Z</time>
      </trkpt>
      <trkpt lat="47.30085" lon="-2.44641">
        <ele>-6</ele>
        <time>2020-01-19T10:56:51.000Z</time>
      </trkpt>
      <trkpt lat="47.30064" lon="-2.44596">
        <ele>-6</ele>
        <time>2020-01-19T10:56:57.000Z</time>
      </trkpt>
      <trkpt lat="47.30058" lon="-2.44579">
        <ele>-6</ele>
        <time>2020-01-19T10:56:59.000Z</time>
      </trkpt>
      <trkpt lat="47.30049" lon="-2.44554">
        <ele>-6</ele>
        <time>2020-01-19T10:57:02.000Z</time>
      </trkpt>
      <trkpt lat="47.30029" lon="-2.44494">
        <ele>-6</ele>
        <time>2020-01-19T10:57:09.000Z</time>
      </trkpt>
      <trkpt lat="47.3001" lon="-2.44445">
        <ele>-6</ele>
        <time>2020-01-19T10:57:15.000Z</time>
      </trkpt>
      <trkpt lat="47.29985" lon="-2.44398">
        <ele>-6</ele>
        <time>2020-01-19T10:57:21.000Z</time>
      </trkpt>
      <trkpt lat="47.29955" lon="-2.44347">
        <ele>-6</ele>
        <time>2020-01-19T10:57:28.000Z</time>
      </trkpt>
      <trkpt lat="47.29928" lon="-2.44303">
        <ele>-6</ele>
        <time>2020-01-19T10:57:34.000Z</time>
      </trkpt>
      <trkpt lat="47.29924" lon="-2.44295">
        <ele>-6</ele>
        <time>2020-01-19T10:57:35.000Z</time>
      </trkpt>
      <trkpt lat="47.29896" lon="-2.44243">
        <ele>-6</ele>
        <time>2020-01-19T10:57:42.000Z</time>
      </trkpt>
      <trkpt lat="47.29893" lon="-2.44234">
        <ele>-6</ele>
        <time>2020-01-19T10:57:43.000Z</time>
      </trkpt>
      <trkpt lat="47.29874" lon="-2.44173">
        <ele>-6</ele>
        <time>2020-01-19T10:57:50.000Z</time>
      </trkpt>
      <trkpt lat="47.29854" lon="-2.44115">
        <ele>-6</ele>
        <time>2020-01-19T10:57:57.000Z</time>
      </trkpt>
      <trkpt lat="47.2983" lon="-2.4404">
        <ele>-6</ele>
        <time>2020-01-19T10:58:06.000Z</time>
      </trkpt>
      <trkpt lat="47.29805" lon="-2.43967">
        <ele>-6</ele>
        <time>2020-01-19T10:58:15.000Z</time>
      </trkpt>
      <trkpt lat="47.29778" lon="-2.43902">
        <ele>-6</ele>
        <time>2020-01-19T10:58:23.000Z</time>
      </trkpt>
      <trkpt lat="47.29764" lon="-2.43879">
        <ele>-6</ele>
        <time>2020-01-19T10:58:26.000Z</time>
      </trkpt>
      <trkpt lat="47.29753" lon="-2.43867">
        <ele>-6</ele>
        <time>2020-01-19T10:58:28.000Z</time>
      </trkpt>
      <trkpt lat="47.29736" lon="-2.4385">
        <ele>-6</ele>
        <time>2020-01-19T10:58:31.000Z</time>
      </trkpt>
      <trkpt lat="47.29726" lon="-2.43836">
        <ele>-6</ele>
        <time>2020-01-19T10:58:33.000Z</time>
      </trkpt>
      <trkpt lat="47.29716" lon="-2.43811">
        <ele>-6</ele>
        <time>2020-01-19T10:58:36.000Z</time>
      </trkpt>
      <trkpt lat="47.29713" lon="-2.43803">
        <ele>-6</ele>
        <time>2020-01-19T10:58:37.000Z</time>
      </trkpt>
      <trkpt lat="47.297" lon="-2.43761">
        <ele>-6</ele>
        <time>2020-01-19T10:58:42.000Z</time>
      </trkpt>
      <trkpt lat="47.29682" lon="-2.43703">
        <ele>-6</ele>
        <time>2020-01-19T10:58:49.000Z</time>
      </trkpt>
      <trkpt lat="47.29666" lon="-2.43655">
        <ele>-6.5999999046326</ele>
        <time>2020-01-19T10:58:55.000Z</time>
      </trkpt>
      <trkpt lat="47.29664" lon="-2.43648">
        <ele>-7</ele>
        <time>2020-01-19T10:58:56.000Z</time>
      </trkpt>
      <trkpt lat="47.29661" lon="-2.4364">
        <ele>-7.4000000953674</ele>
        <time>2020-01-19T10:58:57.000Z</time>
      </trkpt>
      <trkpt lat="47.29659" lon="-2.43633">
        <ele>-7.8000001907349</ele>
        <time>2020-01-19T10:58:58.000Z</time>
      </trkpt>
      <trkpt lat="47.29657" lon="-2.43625">
        <ele>-8.1999998092651</ele>
        <time>2020-01-19T10:58:59.000Z</time>
      </trkpt>
      <trkpt lat="47.29645" lon="-2.43588">
        <ele>-8.1999998092651</ele>
        <time>2020-01-19T10:59:04.000Z</time>
      </trkpt>
      <trkpt lat="47.29638" lon="-2.43567">
        <ele>-8.1999998092651</ele>
        <time>2020-01-19T10:59:09.000Z</time>
      </trkpt>
      <trkpt lat="47.29631" lon="-2.43562">
        <ele>-8.1999998092651</ele>
        <time>2020-01-19T10:59:13.000Z</time>
      </trkpt>
      <trkpt lat="47.29628" lon="-2.43562">
        <ele>-8.1999998092651</ele>
        <time>2020-01-19T10:59:14.000Z</time>
      </trkpt>
      <trkpt lat="47.29612" lon="-2.43556">
        <ele>-8.1999998092651</ele>
        <time>2020-01-19T10:59:18.000Z</time>
      </trkpt>
      <trkpt lat="47.29597" lon="-2.4356">
        <ele>-8.1999998092651</ele>
        <time>2020-01-19T10:59:22.000Z</time>
      </trkpt>
      <trkpt lat="47.29584" lon="-2.43562">
        <ele>-8.1999998092651</ele>
        <time>2020-01-19T10:59:27.000Z</time>
      </trkpt>
      <trkpt lat="47.29567" lon="-2.43565">
        <ele>-8.1999998092651</ele>
        <time>2020-01-19T10:59:34.000Z</time>
      </trkpt>
      <trkpt lat="47.29547" lon="-2.43566">
        <ele>-8.1999998092651</ele>
        <time>2020-01-19T10:59:41.000Z</time>
      </trkpt>
      <trkpt lat="47.2953" lon="-2.43568">
        <ele>-8.1999998092651</ele>
        <time>2020-01-19T10:59:47.000Z</time>
      </trkpt>
      <trkpt lat="47.2951" lon="-2.4357">
        <ele>-8.1999998092651</ele>
        <time>2020-01-19T10:59:54.000Z</time>
      </trkpt>
      <trkpt lat="47.29484" lon="-2.43576">
        <ele>-8.1999998092651</ele>
        <time>2020-01-19T11:00:01.000Z</time>
      </trkpt>
      <trkpt lat="47.29446" lon="-2.43589">
        <ele>-8.1999998092651</ele>
        <time>2020-01-19T11:00:11.000Z</time>
      </trkpt>
      <trkpt lat="47.29416" lon="-2.43604">
        <ele>-8.1999998092651</ele>
        <time>2020-01-19T11:00:18.000Z</time>
      </trkpt>
      <trkpt lat="47.29384" lon="-2.43622">
        <ele>-8.1999998092651</ele>
        <time>2020-01-19T11:00:24.000Z</time>
      </trkpt>
      <trkpt lat="47.29354" lon="-2.43648">
        <ele>-8.1999998092651</ele>
        <time>2020-01-19T11:00:30.000Z</time>
      </trkpt>
      <trkpt lat="47.2934" lon="-2.43658">
        <ele>-8.1999998092651</ele>
        <time>2020-01-19T11:00:33.000Z</time>
      </trkpt>
      <trkpt lat="47.29322" lon="-2.43673">
        <ele>-8.1999998092651</ele>
        <time>2020-01-19T11:00:37.000Z</time>
      </trkpt>
      <trkpt lat="47.29319" lon="-2.43678">
        <ele>-8.6000003814697</ele>
        <time>2020-01-19T11:00:38.000Z</time>
      </trkpt>
      <trkpt lat="47.29315" lon="-2.43683">
        <ele>-9</ele>
        <time>2020-01-19T11:00:39.000Z</time>
      </trkpt>
      <trkpt lat="47.29311" lon="-2.43686">
        <ele>-9.3999996185303</ele>
        <time>2020-01-19T11:00:40.000Z</time>
      </trkpt>
      <trkpt lat="47.29306" lon="-2.4369">
        <ele>-9.8000001907349</ele>
        <time>2020-01-19T11:00:41.000Z</time>
      </trkpt>
      <trkpt lat="47.29302" lon="-2.43693">
        <ele>-10.199999809265</ele>
        <time>2020-01-19T11:00:42.000Z</time>
      </trkpt>
      <trkpt lat="47.29298" lon="-2.43697">
        <ele>-10.199999809265</ele>
        <time>2020-01-19T11:00:43.000Z</time>
      </trkpt>
      <trkpt lat="47.29265" lon="-2.43725">
        <ele>-10.199999809265</ele>
        <time>2020-01-19T11:00:50.000Z</time>
      </trkpt>
      <trkpt lat="47.29223" lon="-2.4376">
        <ele>-10.199999809265</ele>
        <time>2020-01-19T11:00:58.000Z</time>
      </trkpt>
      <trkpt lat="47.29178" lon="-2.438">
        <ele>-10.199999809265</ele>
        <time>2020-01-19T11:01:06.000Z</time>
      </trkpt>
      <trkpt lat="47.29137" lon="-2.43836">
        <ele>-10.199999809265</ele>
        <time>2020-01-19T11:01:13.000Z</time>
      </trkpt>
      <trkpt lat="47.29094" lon="-2.43864">
        <ele>-10.199999809265</ele>
        <time>2020-01-19T11:01:20.000Z</time>
      </trkpt>
      <trkpt lat="47.29076" lon="-2.43877">
        <ele>-10.199999809265</ele>
        <time>2020-01-19T11:01:23.000Z</time>
      </trkpt>
      <trkpt lat="47.29066" lon="-2.43888">
        <ele>-10.199999809265</ele>
        <time>2020-01-19T11:01:25.000Z</time>
      </trkpt>
      <trkpt lat="47.29054" lon="-2.43884">
        <ele>-10.199999809265</ele>
        <time>2020-01-19T11:01:27.000Z</time>
      </trkpt>
      <trkpt lat="47.29046" lon="-2.43868">
        <ele>-10.199999809265</ele>
        <time>2020-01-19T11:01:29.000Z</time>
      </trkpt>
      <trkpt lat="47.29025" lon="-2.43841">
        <ele>-10.199999809265</ele>
        <time>2020-01-19T11:01:33.000Z</time>
      </trkpt>
      <trkpt lat="47.29012" lon="-2.43832">
        <ele>-10.199999809265</ele>
        <time>2020-01-19T11:01:35.000Z</time>
      </trkpt>
      <trkpt lat="47.28992" lon="-2.43819">
        <ele>-10.199999809265</ele>
        <time>2020-01-19T11:01:38.000Z</time>
      </trkpt>
      <trkpt lat="47.28946" lon="-2.43799">
        <ele>-10.199999809265</ele>
        <time>2020-01-19T11:01:45.000Z</time>
      </trkpt>
      <trkpt lat="47.2894" lon="-2.43799">
        <ele>-10.199999809265</ele>
        <time>2020-01-19T11:01:46.000Z</time>
      </trkpt>
      <trkpt lat="47.28929" lon="-2.43799">
        <ele>-10.199999809265</ele>
        <time>2020-01-19T11:01:48.000Z</time>
      </trkpt>
      <trkpt lat="47.28924" lon="-2.43801">
        <ele>-10.199999809265</ele>
        <time>2020-01-19T11:01:49.000Z</time>
      </trkpt>
      <trkpt lat="47.289" lon="-2.43807">
        <ele>-10.199999809265</ele>
        <time>2020-01-19T11:01:54.000Z</time>
      </trkpt>
      <trkpt lat="47.28896" lon="-2.43809">
        <ele>-10.199999809265</ele>
        <time>2020-01-19T11:01:55.000Z</time>
      </trkpt>
      <trkpt lat="47.28883" lon="-2.43814">
        <ele>-10.199999809265</ele>
        <time>2020-01-19T11:01:58.000Z</time>
      </trkpt>
      <trkpt lat="47.28875" lon="-2.43818">
        <ele>-10.199999809265</ele>
        <time>2020-01-19T11:02:00.000Z</time>
      </trkpt>
      <trkpt lat="47.28848" lon="-2.43831">
        <ele>-10.199999809265</ele>
        <time>2020-01-19T11:02:06.000Z</time>
      </trkpt>
      <trkpt lat="47.28843" lon="-2.43832">
        <ele>-10.199999809265</ele>
        <time>2020-01-19T11:02:07.000Z</time>
      </trkpt>
      <trkpt lat="47.28832" lon="-2.43833">
        <ele>-10.199999809265</ele>
        <time>2020-01-19T11:02:09.000Z</time>
      </trkpt>
      <trkpt lat="47.28815" lon="-2.43829">
        <ele>-10.199999809265</ele>
        <time>2020-01-19T11:02:12.000Z</time>
      </trkpt>
      <trkpt lat="47.28794" lon="-2.43815">
        <ele>-10.199999809265</ele>
        <time>2020-01-19T11:02:16.000Z</time>
      </trkpt>
      <trkpt lat="47.28788" lon="-2.43811">
        <ele>-10.199999809265</ele>
        <time>2020-01-19T11:02:17.000Z</time>
      </trkpt>
      <trkpt lat="47.28768" lon="-2.43793">
        <ele>-9.8000001907349</ele>
        <time>2020-01-19T11:02:21.000Z</time>
      </trkpt>
      <trkpt lat="47.28762" lon="-2.43789">
        <ele>-9</ele>
        <time>2020-01-19T11:02:22.000Z</time>
      </trkpt>
      <trkpt lat="47.28746" lon="-2.43776">
        <ele>-8.1999998092651</ele>
        <time>2020-01-19T11:02:23.000Z</time>
      </trkpt>
      <trkpt lat="47.2871" lon="-2.4375">
        <ele>-8.1999998092651</ele>
        <time>2020-01-19T11:02:32.000Z</time>
      </trkpt>
      <trkpt lat="47.28673" lon="-2.43721">
        <ele>-8.1999998092651</ele>
        <time>2020-01-19T11:02:39.000Z</time>
      </trkpt>
      <trkpt lat="47.28635" lon="-2.4369">
        <ele>-8.1999998092651</ele>
        <time>2020-01-19T11:02:46.000Z</time>
      </trkpt>
      <trkpt lat="47.28596" lon="-2.4366">
        <ele>-8.1999998092651</ele>
        <time>2020-01-19T11:02:53.000Z</time>
      </trkpt>
      <trkpt lat="47.28555" lon="-2.43628">
        <ele>-8.1999998092651</ele>
        <time>2020-01-19T11:03:01.000Z</time>
      </trkpt>
      <trkpt lat="47.28527" lon="-2.43604">
        <ele>-8.1999998092651</ele>
        <time>2020-01-19T11:03:07.000Z</time>
      </trkpt>
      <trkpt lat="47.28505" lon="-2.43585">
        <ele>-8.1999998092651</ele>
        <time>2020-01-19T11:03:12.000Z</time>
      </trkpt>
      <trkpt lat="47.285" lon="-2.43582">
        <ele>-8.1999998092651</ele>
        <time>2020-01-19T11:03:13.000Z</time>
      </trkpt>
      <trkpt lat="47.28489" lon="-2.43576">
        <ele>-8.1999998092651</ele>
        <time>2020-01-19T11:03:15.000Z</time>
      </trkpt>
      <trkpt lat="47.28478" lon="-2.43568">
        <ele>-8.1999998092651</ele>
        <time>2020-01-19T11:03:17.000Z</time>
      </trkpt>
      <trkpt lat="47.28473" lon="-2.43564">
        <ele>-8.1999998092651</ele>
        <time>2020-01-19T11:03:18.000Z</time>
      </trkpt>
      <trkpt lat="47.28425" lon="-2.43526">
        <ele>-8.1999998092651</ele>
        <time>2020-01-19T11:03:27.000Z</time>
      </trkpt>
      <trkpt lat="47.28373" lon="-2.43486">
        <ele>-8.1999998092651</ele>
        <time>2020-01-19T11:03:37.000Z</time>
      </trkpt>
      <trkpt lat="47.28342" lon="-2.43461">
        <ele>-8.1999998092651</ele>
        <time>2020-01-19T11:03:43.000Z</time>
      </trkpt>
      <trkpt lat="47.28307" lon="-2.43431">
        <ele>-8.1999998092651</ele>
        <time>2020-01-19T11:03:50.000Z</time>
      </trkpt>
      <trkpt lat="47.28276" lon="-2.43406">
        <ele>-8.1999998092651</ele>
        <time>2020-01-19T11:03:57.000Z</time>
      </trkpt>
      <trkpt lat="47.28246" lon="-2.43381">
        <ele>-8.1999998092651</ele>
        <time>2020-01-19T11:04:04.000Z</time>
      </trkpt>
      <trkpt lat="47.28242" lon="-2.43377">
        <ele>-8.1999998092651</ele>
        <time>2020-01-19T11:04:05.000Z</time>
      </trkpt>
      <trkpt lat="47.28217" lon="-2.43339">
        <ele>-8.6000003814697</ele>
        <time>2020-01-19T11:04:12.000Z</time>
      </trkpt>
      <trkpt lat="47.28214" lon="-2.43333">
        <ele>-9</ele>
        <time>2020-01-19T11:04:13.000Z</time>
      </trkpt>
      <trkpt lat="47.28211" lon="-2.43328">
        <ele>-9.6000003814697</ele>
        <time>2020-01-19T11:04:14.000Z</time>
      </trkpt>
      <trkpt lat="47.28206" lon="-2.43326">
        <ele>-10</ele>
        <time>2020-01-19T11:04:15.000Z</time>
      </trkpt>
      <trkpt lat="47.28201" lon="-2.43325">
        <ele>-10.39999961853</ele>
        <time>2020-01-19T11:04:16.000Z</time>
      </trkpt>
      <trkpt lat="47.28183" lon="-2.43312">
        <ele>-10.39999961853</ele>
        <time>2020-01-19T11:04:20.000Z</time>
      </trkpt>
      <trkpt lat="47.28176" lon="-2.43286">
        <ele>-10.39999961853</ele>
        <time>2020-01-19T11:04:24.000Z</time>
      </trkpt>
      <trkpt lat="47.28172" lon="-2.43265">
        <ele>-10.39999961853</ele>
        <time>2020-01-19T11:04:28.000Z</time>
      </trkpt>
      <trkpt lat="47.28169" lon="-2.4326">
        <ele>-10.39999961853</ele>
        <time>2020-01-19T11:04:29.000Z</time>
      </trkpt>
      <trkpt lat="47.28159" lon="-2.43244">
        <ele>-10.39999961853</ele>
        <time>2020-01-19T11:04:33.000Z</time>
      </trkpt>
      <trkpt lat="47.28149" lon="-2.43228">
        <ele>-10.39999961853</ele>
        <time>2020-01-19T11:04:38.000Z</time>
      </trkpt>
      <trkpt lat="47.28136" lon="-2.43213">
        <ele>-10.39999961853</ele>
        <time>2020-01-19T11:04:44.000Z</time>
      </trkpt>
      <trkpt lat="47.28128" lon="-2.43198">
        <ele>-10.39999961853</ele>
        <time>2020-01-19T11:04:49.000Z</time>
      </trkpt>
      <trkpt lat="47.28116" lon="-2.4318">
        <ele>-10.39999961853</ele>
        <time>2020-01-19T11:04:56.000Z</time>
      </trkpt>
      <trkpt lat="47.28106" lon="-2.43162">
        <ele>-10.39999961853</ele>
        <time>2020-01-19T11:05:03.000Z</time>
      </trkpt>
      <trkpt lat="47.28099" lon="-2.43148">
        <ele>-10.39999961853</ele>
        <time>2020-01-19T11:05:08.000Z</time>
      </trkpt>
      <trkpt lat="47.2809" lon="-2.43132">
        <ele>-10.39999961853</ele>
        <time>2020-01-19T11:05:13.000Z</time>
      </trkpt>
      <trkpt lat="47.28088" lon="-2.43119">
        <ele>-10.39999961853</ele>
        <time>2020-01-19T11:05:16.000Z</time>
      </trkpt>
      <trkpt lat="47.2809" lon="-2.43113">
        <ele>-10.39999961853</ele>
        <time>2020-01-19T11:05:17.000Z</time>
      </trkpt>
      <trkpt lat="47.28099" lon="-2.43103">
        <ele>-10.39999961853</ele>
        <time>2020-01-19T11:05:20.000Z</time>
      </trkpt>
      <trkpt lat="47.28103" lon="-2.43101">
        <ele>-10.39999961853</ele>
        <time>2020-01-19T11:05:21.000Z</time>
      </trkpt>
      <trkpt lat="47.28107" lon="-2.43096">
        <ele>-10.39999961853</ele>
        <time>2020-01-19T11:05:22.000Z</time>
      </trkpt>
      <trkpt lat="47.2811" lon="-2.43084">
        <ele>-10.39999961853</ele>
        <time>2020-01-19T11:05:24.000Z</time>
      </trkpt>
      <trkpt lat="47.28111" lon="-2.43071">
        <ele>-10.39999961853</ele>
        <time>2020-01-19T11:05:26.000Z</time>
      </trkpt>
      <trkpt lat="47.28114" lon="-2.43044">
        <ele>-10</ele>
        <time>2020-01-19T11:05:30.000Z</time>
      </trkpt>
      <trkpt lat="47.28115" lon="-2.43038">
        <ele>-9.6000003814697</ele>
        <time>2020-01-19T11:05:31.000Z</time>
      </trkpt>
      <trkpt lat="47.28114" lon="-2.43031">
        <ele>-9.1999998092651</ele>
        <time>2020-01-19T11:05:32.000Z</time>
      </trkpt>
      <trkpt lat="47.28114" lon="-2.43025">
        <ele>-8.8000001907349</ele>
        <time>2020-01-19T11:05:33.000Z</time>
      </trkpt>
      <trkpt lat="47.28113" lon="-2.43018">
        <ele>-8.3999996185303</ele>
        <time>2020-01-19T11:05:34.000Z</time>
      </trkpt>
      <trkpt lat="47.28111" lon="-2.43005">
        <ele>-8.3999996185303</ele>
        <time>2020-01-19T11:05:36.000Z</time>
      </trkpt>
      <trkpt lat="47.28103" lon="-2.42965">
        <ele>-8.3999996185303</ele>
        <time>2020-01-19T11:05:42.000Z</time>
      </trkpt>
      <trkpt lat="47.28097" lon="-2.42914">
        <ele>-8.3999996185303</ele>
        <time>2020-01-19T11:05:49.000Z</time>
      </trkpt>
      <trkpt lat="47.28091" lon="-2.42894">
        <ele>-8.3999996185303</ele>
        <time>2020-01-19T11:05:52.000Z</time>
      </trkpt>
      <trkpt lat="47.28088" lon="-2.42889">
        <ele>-8.8000001907349</ele>
        <time>2020-01-19T11:05:53.000Z</time>
      </trkpt>
      <trkpt lat="47.28083" lon="-2.42884">
        <ele>-9.1999998092651</ele>
        <time>2020-01-19T11:05:54.000Z</time>
      </trkpt>
      <trkpt lat="47.28079" lon="-2.42878">
        <ele>-9.6000003814697</ele>
        <time>2020-01-19T11:05:55.000Z</time>
      </trkpt>
      <trkpt lat="47.28074" lon="-2.42872">
        <ele>-10</ele>
        <time>2020-01-19T11:05:56.000Z</time>
      </trkpt>
      <trkpt lat="47.2807" lon="-2.42867">
        <ele>-10.39999961853</ele>
        <time>2020-01-19T11:05:57.000Z</time>
      </trkpt>
      <trkpt lat="47.28049" lon="-2.4284">
        <ele>-10.39999961853</ele>
        <time>2020-01-19T11:06:02.000Z</time>
      </trkpt>
      <trkpt lat="47.28045" lon="-2.42834">
        <ele>-10.39999961853</ele>
        <time>2020-01-19T11:06:03.000Z</time>
      </trkpt>
      <trkpt lat="47.28032" lon="-2.42819">
        <ele>-10</ele>
        <time>2020-01-19T11:06:06.000Z</time>
      </trkpt>
      <trkpt lat="47.28027" lon="-2.42815">
        <ele>-9.6000003814697</ele>
        <time>2020-01-19T11:06:07.000Z</time>
      </trkpt>
      <trkpt lat="47.28023" lon="-2.42811">
        <ele>-9.1999998092651</ele>
        <time>2020-01-19T11:06:08.000Z</time>
      </trkpt>
      <trkpt lat="47.28017" lon="-2.42808">
        <ele>-8.8000001907349</ele>
        <time>2020-01-19T11:06:09.000Z</time>
      </trkpt>
      <trkpt lat="47.28012" lon="-2.42806">
        <ele>-8.3999996185303</ele>
        <time>2020-01-19T11:06:10.000Z</time>
      </trkpt>
      <trkpt lat="47.28" lon="-2.42803">
        <ele>-8.3999996185303</ele>
        <time>2020-01-19T11:06:12.000Z</time>
      </trkpt>
      <trkpt lat="47.27988" lon="-2.42802">
        <ele>-8.3999996185303</ele>
        <time>2020-01-19T11:06:14.000Z</time>
      </trkpt>
      <trkpt lat="47.27981" lon="-2.42802">
        <ele>-8.3999996185303</ele>
        <time>2020-01-19T11:06:15.000Z</time>
      </trkpt>
      <trkpt lat="47.2797" lon="-2.42805">
        <ele>-8.3999996185303</ele>
        <time>2020-01-19T11:06:17.000Z</time>
      </trkpt>
      <trkpt lat="47.2792" lon="-2.42815">
        <ele>-8.3999996185303</ele>
        <time>2020-01-19T11:06:26.000Z</time>
      </trkpt>
      <trkpt lat="47.27875" lon="-2.42817">
        <ele>-8.3999996185303</ele>
        <time>2020-01-19T11:06:34.000Z</time>
      </trkpt>
      <trkpt lat="47.27856" lon="-2.42819">
        <ele>-8.3999996185303</ele>
        <time>2020-01-19T11:06:39.000Z</time>
      </trkpt>
      <trkpt lat="47.27838" lon="-2.42821">
        <ele>-8.3999996185303</ele>
        <time>2020-01-19T11:06:47.000Z</time>
      </trkpt>
      <trkpt lat="47.27828" lon="-2.42819">
        <ele>-8.3999996185303</ele>
        <time>2020-01-19T11:06:51.000Z</time>
      </trkpt>
      <trkpt lat="47.27827" lon="-2.42813">
        <ele>-8.3999996185303</ele>
        <time>2020-01-19T11:06:52.000Z</time>
      </trkpt>
      <trkpt lat="47.27828" lon="-2.42791">
        <ele>-8.3999996185303</ele>
        <time>2020-01-19T11:06:56.000Z</time>
      </trkpt>
      <trkpt lat="47.27827" lon="-2.42754">
        <ele>-8.3999996185303</ele>
        <time>2020-01-19T11:07:03.000Z</time>
      </trkpt>
      <trkpt lat="47.27826" lon="-2.42747">
        <ele>-8</ele>
        <time>2020-01-19T11:07:04.000Z</time>
      </trkpt>
      <trkpt lat="47.27826" lon="-2.4274">
        <ele>-7.4000000953674</ele>
        <time>2020-01-19T11:07:05.000Z</time>
      </trkpt>
      <trkpt lat="47.27826" lon="-2.42732">
        <ele>-7</ele>
        <time>2020-01-19T11:07:06.000Z</time>
      </trkpt>
      <trkpt lat="47.27826" lon="-2.42724">
        <ele>-6.5999999046326</ele>
        <time>2020-01-19T11:07:07.000Z</time>
      </trkpt>
      <trkpt lat="47.27826" lon="-2.42715">
        <ele>-6</ele>
        <time>2020-01-19T11:07:08.000Z</time>
      </trkpt>
      <trkpt lat="47.27825" lon="-2.42706">
        <ele>-6</ele>
        <time>2020-01-19T11:07:09.000Z</time>
      </trkpt>
      <trkpt lat="47.27824" lon="-2.42687">
        <ele>-6</ele>
        <time>2020-01-19T11:07:11.000Z</time>
      </trkpt>
      <trkpt lat="47.27819" lon="-2.42647">
        <ele>-6</ele>
        <time>2020-01-19T11:07:15.000Z</time>
      </trkpt>
      <trkpt lat="47.27818" lon="-2.42636">
        <ele>-6</ele>
        <time>2020-01-19T11:07:16.000Z</time>
      </trkpt>
      <trkpt lat="47.27809" lon="-2.42595">
        <ele>-6</ele>
        <time>2020-01-19T11:07:20.000Z</time>
      </trkpt>
      <trkpt lat="47.27794" lon="-2.4255">
        <ele>-6</ele>
        <time>2020-01-19T11:07:25.000Z</time>
      </trkpt>
      <trkpt lat="47.27781" lon="-2.42516">
        <ele>-6.5999999046326</ele>
        <time>2020-01-19T11:07:29.000Z</time>
      </trkpt>
      <trkpt lat="47.27778" lon="-2.42509">
        <ele>-7</ele>
        <time>2020-01-19T11:07:30.000Z</time>
      </trkpt>
      <trkpt lat="47.27775" lon="-2.42501">
        <ele>-7.4000000953674</ele>
        <time>2020-01-19T11:07:31.000Z</time>
      </trkpt>
      <trkpt lat="47.27772" lon="-2.42493">
        <ele>-8</ele>
        <time>2020-01-19T11:07:32.000Z</time>
      </trkpt>
      <trkpt lat="47.2777" lon="-2.42484">
        <ele>-8.3999996185303</ele>
        <time>2020-01-19T11:07:33.000Z</time>
      </trkpt>
      <trkpt lat="47.27757" lon="-2.42441">
        <ele>-8.3999996185303</ele>
        <time>2020-01-19T11:07:38.000Z</time>
      </trkpt>
      <trkpt lat="47.27748" lon="-2.42395">
        <ele>-8.3999996185303</ele>
        <time>2020-01-19T11:07:44.000Z</time>
      </trkpt>
      <trkpt lat="47.27746" lon="-2.42371">
        <ele>-8.3999996185303</ele>
        <time>2020-01-19T11:07:47.000Z</time>
      </trkpt>
      <trkpt lat="47.27742" lon="-2.42337">
        <ele>-8.3999996185303</ele>
        <time>2020-01-19T11:07:51.000Z</time>
      </trkpt>
      <trkpt lat="47.27735" lon="-2.42284">
        <ele>-8.3999996185303</ele>
        <time>2020-01-19T11:07:57.000Z</time>
      </trkpt>
      <trkpt lat="47.27731" lon="-2.42224">
        <ele>-8.3999996185303</ele>
        <time>2020-01-19T11:08:04.000Z</time>
      </trkpt>
      <trkpt lat="47.2773" lon="-2.42174">
        <ele>-8.3999996185303</ele>
        <time>2020-01-19T11:08:10.000Z</time>
      </trkpt>
      <trkpt lat="47.27731" lon="-2.42117">
        <ele>-8.3999996185303</ele>
        <time>2020-01-19T11:08:17.000Z</time>
      </trkpt>
      <trkpt lat="47.27735" lon="-2.42071">
        <ele>-8.3999996185303</ele>
        <time>2020-01-19T11:08:23.000Z</time>
      </trkpt>
      <trkpt lat="47.27745" lon="-2.42028">
        <ele>-8.3999996185303</ele>
        <time>2020-01-19T11:08:29.000Z</time>
      </trkpt>
      <trkpt lat="47.27758" lon="-2.41976">
        <ele>-8.3999996185303</ele>
        <time>2020-01-19T11:08:37.000Z</time>
      </trkpt>
      <trkpt lat="47.2776" lon="-2.4197">
        <ele>-8.3999996185303</ele>
        <time>2020-01-19T11:08:38.000Z</time>
      </trkpt>
      <trkpt lat="47.27764" lon="-2.4195">
        <ele>-8.3999996185303</ele>
        <time>2020-01-19T11:08:41.000Z</time>
      </trkpt>
      <trkpt lat="47.27766" lon="-2.41943">
        <ele>-8.3999996185303</ele>
        <time>2020-01-19T11:08:42.000Z</time>
      </trkpt>
      <trkpt lat="47.27769" lon="-2.41931">
        <ele>-8.3999996185303</ele>
        <time>2020-01-19T11:08:44.000Z</time>
      </trkpt>
      <trkpt lat="47.27773" lon="-2.4192">
        <ele>-8.3999996185303</ele>
        <time>2020-01-19T11:08:46.000Z</time>
      </trkpt>
      <trkpt lat="47.27778" lon="-2.41907">
        <ele>-8.3999996185303</ele>
        <time>2020-01-19T11:08:48.000Z</time>
      </trkpt>
      <trkpt lat="47.27787" lon="-2.41882">
        <ele>-8.3999996185303</ele>
        <time>2020-01-19T11:08:52.000Z</time>
      </trkpt>
      <trkpt lat="47.27805" lon="-2.41837">
        <ele>-8.3999996185303</ele>
        <time>2020-01-19T11:08:59.000Z</time>
      </trkpt>
      <trkpt lat="47.27809" lon="-2.41824">
        <ele>-8.3999996185303</ele>
        <time>2020-01-19T11:09:01.000Z</time>
      </trkpt>
      <trkpt lat="47.27813" lon="-2.4181">
        <ele>-8.3999996185303</ele>
        <time>2020-01-19T11:09:03.000Z</time>
      </trkpt>
      <trkpt lat="47.27817" lon="-2.418">
        <ele>-8.3999996185303</ele>
        <time>2020-01-19T11:09:05.000Z</time>
      </trkpt>
      <trkpt lat="47.27819" lon="-2.41795">
        <ele>-8.3999996185303</ele>
        <time>2020-01-19T11:09:06.000Z</time>
      </trkpt>
      <trkpt lat="47.27822" lon="-2.41789">
        <ele>-8.3999996185303</ele>
        <time>2020-01-19T11:09:07.000Z</time>
      </trkpt>
      <trkpt lat="47.27824" lon="-2.41783">
        <ele>-8.3999996185303</ele>
        <time>2020-01-19T11:09:08.000Z</time>
      </trkpt>
      <trkpt lat="47.27837" lon="-2.41757">
        <ele>-8.3999996185303</ele>
        <time>2020-01-19T11:09:12.000Z</time>
      </trkpt>
      <trkpt lat="47.27859" lon="-2.41711">
        <ele>-8.3999996185303</ele>
        <time>2020-01-19T11:09:19.000Z</time>
      </trkpt>
      <trkpt lat="47.27879" lon="-2.41674">
        <ele>-8.3999996185303</ele>
        <time>2020-01-19T11:09:25.000Z</time>
      </trkpt>
      <trkpt lat="47.27902" lon="-2.41627">
        <ele>-8.3999996185303</ele>
        <time>2020-01-19T11:09:33.000Z</time>
      </trkpt>
      <trkpt lat="47.27917" lon="-2.41591">
        <ele>-8.3999996185303</ele>
        <time>2020-01-19T11:09:39.000Z</time>
      </trkpt>
      <trkpt lat="47.27935" lon="-2.41548">
        <ele>-8.3999996185303</ele>
        <time>2020-01-19T11:09:46.000Z</time>
      </trkpt>
      <trkpt lat="47.2795" lon="-2.41513">
        <ele>-8.3999996185303</ele>
        <time>2020-01-19T11:09:52.000Z</time>
      </trkpt>
      <trkpt lat="47.27959" lon="-2.41494">
        <ele>-8.3999996185303</ele>
        <time>2020-01-19T11:09:55.000Z</time>
      </trkpt>
      <trkpt lat="47.27965" lon="-2.41474">
        <ele>-8.3999996185303</ele>
        <time>2020-01-19T11:09:58.000Z</time>
      </trkpt>
      <trkpt lat="47.27979" lon="-2.41417">
        <ele>-8.3999996185303</ele>
        <time>2020-01-19T11:10:06.000Z</time>
      </trkpt>
      <trkpt lat="47.27988" lon="-2.41364">
        <ele>-8.3999996185303</ele>
        <time>2020-01-19T11:10:13.000Z</time>
      </trkpt>
      <trkpt lat="47.27996" lon="-2.41317">
        <ele>-8.3999996185303</ele>
        <time>2020-01-19T11:10:19.000Z</time>
      </trkpt>
      <trkpt lat="47.28007" lon="-2.41265">
        <ele>-8.3999996185303</ele>
        <time>2020-01-19T11:10:25.000Z</time>
      </trkpt>
      <trkpt lat="47.28024" lon="-2.41203">
        <ele>-8.3999996185303</ele>
        <time>2020-01-19T11:10:32.000Z</time>
      </trkpt>
      <trkpt lat="47.28036" lon="-2.41159">
        <ele>-8.3999996185303</ele>
        <time>2020-01-19T11:10:37.000Z</time>
      </trkpt>
      <trkpt lat="47.28038" lon="-2.4115">
        <ele>-8.3999996185303</ele>
        <time>2020-01-19T11:10:38.000Z</time>
      </trkpt>
      <trkpt lat="47.2804" lon="-2.41141">
        <ele>-8.3999996185303</ele>
        <time>2020-01-19T11:10:39.000Z</time>
      </trkpt>
      <trkpt lat="47.28047" lon="-2.41103">
        <ele>-8.3999996185303</ele>
        <time>2020-01-19T11:10:43.000Z</time>
      </trkpt>
      <trkpt lat="47.28055" lon="-2.41051">
        <ele>-8.3999996185303</ele>
        <time>2020-01-19T11:10:49.000Z</time>
      </trkpt>
      <trkpt lat="47.28069" lon="-2.40987">
        <ele>-8.3999996185303</ele>
        <time>2020-01-19T11:10:57.000Z</time>
      </trkpt>
      <trkpt lat="47.28081" lon="-2.40936">
        <ele>-8.3999996185303</ele>
        <time>2020-01-19T11:11:04.000Z</time>
      </trkpt>
      <trkpt lat="47.28076" lon="-2.40916">
        <ele>-8.3999996185303</ele>
        <time>2020-01-19T11:11:07.000Z</time>
      </trkpt>
      <trkpt lat="47.28073" lon="-2.40909">
        <ele>-8.3999996185303</ele>
        <time>2020-01-19T11:11:08.000Z</time>
      </trkpt>
      <trkpt lat="47.28054" lon="-2.4087">
        <ele>-8.3999996185303</ele>
        <time>2020-01-19T11:11:14.000Z</time>
      </trkpt>
      <trkpt lat="47.28039" lon="-2.40835">
        <ele>-8.3999996185303</ele>
        <time>2020-01-19T11:11:20.000Z</time>
      </trkpt>
      <trkpt lat="47.28029" lon="-2.40812">
        <ele>-8.3999996185303</ele>
        <time>2020-01-19T11:11:24.000Z</time>
      </trkpt>
      <trkpt lat="47.2803" lon="-2.40805">
        <ele>-8</ele>
        <time>2020-01-19T11:11:25.000Z</time>
      </trkpt>
      <trkpt lat="47.28032" lon="-2.40798">
        <ele>-7.1999998092651</ele>
        <time>2020-01-19T11:11:26.000Z</time>
      </trkpt>
      <trkpt lat="47.28034" lon="-2.40791">
        <ele>-6.5999999046326</ele>
        <time>2020-01-19T11:11:27.000Z</time>
      </trkpt>
      <trkpt lat="47.28035" lon="-2.40784">
        <ele>-6.1999998092651</ele>
        <time>2020-01-19T11:11:28.000Z</time>
      </trkpt>
      <trkpt lat="47.28038" lon="-2.40777">
        <ele>-6.1999998092651</ele>
        <time>2020-01-19T11:11:29.000Z</time>
      </trkpt>
      <trkpt lat="47.2805" lon="-2.4073">
        <ele>-6.1999998092651</ele>
        <time>2020-01-19T11:11:36.000Z</time>
      </trkpt>
      <trkpt lat="47.28054" lon="-2.40712">
        <ele>-6.1999998092651</ele>
        <time>2020-01-19T11:11:39.000Z</time>
      </trkpt>
      <trkpt lat="47.28056" lon="-2.40698">
        <ele>-6.1999998092651</ele>
        <time>2020-01-19T11:11:41.000Z</time>
      </trkpt>
      <trkpt lat="47.28058" lon="-2.40674">
        <ele>-6.1999998092651</ele>
        <time>2020-01-19T11:11:44.000Z</time>
      </trkpt>
      <trkpt lat="47.28057" lon="-2.40658">
        <ele>-6.1999998092651</ele>
        <time>2020-01-19T11:11:46.000Z</time>
      </trkpt>
      <trkpt lat="47.28056" lon="-2.40651">
        <ele>-6.1999998092651</ele>
        <time>2020-01-19T11:11:47.000Z</time>
      </trkpt>
      <trkpt lat="47.28051" lon="-2.4063">
        <ele>-6.1999998092651</ele>
        <time>2020-01-19T11:11:50.000Z</time>
      </trkpt>
      <trkpt lat="47.28051" lon="-2.406">
        <ele>-6.1999998092651</ele>
        <time>2020-01-19T11:11:54.000Z</time>
      </trkpt>
      <trkpt lat="47.28061" lon="-2.40554">
        <ele>-6.1999998092651</ele>
        <time>2020-01-19T11:12:01.000Z</time>
      </trkpt>
      <trkpt lat="47.28073" lon="-2.40497">
        <ele>-6.1999998092651</ele>
        <time>2020-01-19T11:12:09.000Z</time>
      </trkpt>
      <trkpt lat="47.28076" lon="-2.40483">
        <ele>-6.1999998092651</ele>
        <time>2020-01-19T11:12:11.000Z</time>
      </trkpt>
      <trkpt lat="47.28086" lon="-2.40467">
        <ele>-6.1999998092651</ele>
        <time>2020-01-19T11:12:14.000Z</time>
      </trkpt>
      <trkpt lat="47.281" lon="-2.40442">
        <ele>-6.1999998092651</ele>
        <time>2020-01-19T11:12:20.000Z</time>
      </trkpt>
      <trkpt lat="47.28109" lon="-2.4042">
        <ele>-6.1999998092651</ele>
        <time>2020-01-19T11:12:26.000Z</time>
      </trkpt>
      <trkpt lat="47.28114" lon="-2.40399">
        <ele>-6.1999998092651</ele>
        <time>2020-01-19T11:12:32.000Z</time>
      </trkpt>
      <trkpt lat="47.28119" lon="-2.40364">
        <ele>-6.1999998092651</ele>
        <time>2020-01-19T11:12:39.000Z</time>
      </trkpt>
      <trkpt lat="47.28123" lon="-2.40329">
        <ele>-6.1999998092651</ele>
        <time>2020-01-19T11:12:44.000Z</time>
      </trkpt>
      <trkpt lat="47.28128" lon="-2.40294">
        <ele>-6.1999998092651</ele>
        <time>2020-01-19T11:12:49.000Z</time>
      </trkpt>
      <trkpt lat="47.28132" lon="-2.40259">
        <ele>-6.1999998092651</ele>
        <time>2020-01-19T11:12:55.000Z</time>
      </trkpt>
      <trkpt lat="47.28138" lon="-2.40205">
        <ele>-6.1999998092651</ele>
        <time>2020-01-19T11:13:03.000Z</time>
      </trkpt>
      <trkpt lat="47.28142" lon="-2.40154">
        <ele>-6.1999998092651</ele>
        <time>2020-01-19T11:13:10.000Z</time>
      </trkpt>
      <trkpt lat="47.28142" lon="-2.40148">
        <ele>-6.1999998092651</ele>
        <time>2020-01-19T11:13:11.000Z</time>
      </trkpt>
      <trkpt lat="47.28143" lon="-2.40134">
        <ele>-6.1999998092651</ele>
        <time>2020-01-19T11:13:13.000Z</time>
      </trkpt>
      <trkpt lat="47.28144" lon="-2.40119">
        <ele>-6.1999998092651</ele>
        <time>2020-01-19T11:13:15.000Z</time>
      </trkpt>
      <trkpt lat="47.28149" lon="-2.40067">
        <ele>-6.1999998092651</ele>
        <time>2020-01-19T11:13:23.000Z</time>
      </trkpt>
      <trkpt lat="47.28151" lon="-2.40054">
        <ele>-6.1999998092651</ele>
        <time>2020-01-19T11:13:25.000Z</time>
      </trkpt>
      <trkpt lat="47.28154" lon="-2.40027">
        <ele>-6.1999998092651</ele>
        <time>2020-01-19T11:13:29.000Z</time>
      </trkpt>
      <trkpt lat="47.28155" lon="-2.40014">
        <ele>-6.1999998092651</ele>
        <time>2020-01-19T11:13:31.000Z</time>
      </trkpt>
      <trkpt lat="47.28155" lon="-2.39999">
        <ele>-6.1999998092651</ele>
        <time>2020-01-19T11:13:33.000Z</time>
      </trkpt>
      <trkpt lat="47.28156" lon="-2.39992">
        <ele>-6.1999998092651</ele>
        <time>2020-01-19T11:13:34.000Z</time>
      </trkpt>
      <trkpt lat="47.28159" lon="-2.39971">
        <ele>-6.1999998092651</ele>
        <time>2020-01-19T11:13:37.000Z</time>
      </trkpt>
      <trkpt lat="47.28159" lon="-2.39956">
        <ele>-6.1999998092651</ele>
        <time>2020-01-19T11:13:39.000Z</time>
      </trkpt>
      <trkpt lat="47.2816" lon="-2.3991">
        <ele>-5.5999999046326</ele>
        <time>2020-01-19T11:13:45.000Z</time>
      </trkpt>
      <trkpt lat="47.28161" lon="-2.39902">
        <ele>-5</ele>
        <time>2020-01-19T11:13:46.000Z</time>
      </trkpt>
      <trkpt lat="47.28161" lon="-2.39895">
        <ele>-4.4000000953674</ele>
        <time>2020-01-19T11:13:47.000Z</time>
      </trkpt>
      <trkpt lat="47.28162" lon="-2.39888">
        <ele>-3.7999999523163</ele>
        <time>2020-01-19T11:13:48.000Z</time>
      </trkpt>
      <trkpt lat="47.28162" lon="-2.39881">
        <ele>-3.2000000476837</ele>
        <time>2020-01-19T11:13:49.000Z</time>
      </trkpt>
      <trkpt lat="47.28164" lon="-2.3985">
        <ele>-3.2000000476837</ele>
        <time>2020-01-19T11:13:53.000Z</time>
      </trkpt>
      <trkpt lat="47.28167" lon="-2.39777">
        <ele>-3.2000000476837</ele>
        <time>2020-01-19T11:14:02.000Z</time>
      </trkpt>
      <trkpt lat="47.2817" lon="-2.39711">
        <ele>-3.2000000476837</ele>
        <time>2020-01-19T11:14:10.000Z</time>
      </trkpt>
      <trkpt lat="47.28174" lon="-2.39659">
        <ele>-3.2000000476837</ele>
        <time>2020-01-19T11:14:17.000Z</time>
      </trkpt>
      <trkpt lat="47.28174" lon="-2.39646">
        <ele>-3.2000000476837</ele>
        <time>2020-01-19T11:14:19.000Z</time>
      </trkpt>
      <trkpt lat="47.28173" lon="-2.39632">
        <ele>-3.2000000476837</ele>
        <time>2020-01-19T11:14:21.000Z</time>
      </trkpt>
      <trkpt lat="47.28173" lon="-2.39618">
        <ele>-3.2000000476837</ele>
        <time>2020-01-19T11:14:23.000Z</time>
      </trkpt>
      <trkpt lat="47.28175" lon="-2.3957">
        <ele>-3.2000000476837</ele>
        <time>2020-01-19T11:14:29.000Z</time>
      </trkpt>
      <trkpt lat="47.28177" lon="-2.395">
        <ele>-3.2000000476837</ele>
        <time>2020-01-19T11:14:38.000Z</time>
      </trkpt>
      <trkpt lat="47.28178" lon="-2.39435">
        <ele>-3.2000000476837</ele>
        <time>2020-01-19T11:14:46.000Z</time>
      </trkpt>
      <trkpt lat="47.28177" lon="-2.39381">
        <ele>-3.2000000476837</ele>
        <time>2020-01-19T11:14:52.000Z</time>
      </trkpt>
      <trkpt lat="47.28175" lon="-2.39314">
        <ele>-3.2000000476837</ele>
        <time>2020-01-19T11:15:00.000Z</time>
      </trkpt>
      <trkpt lat="47.28175" lon="-2.39272">
        <ele>-3.2000000476837</ele>
        <time>2020-01-19T11:15:06.000Z</time>
      </trkpt>
      <trkpt lat="47.28174" lon="-2.39254">
        <ele>-3.2000000476837</ele>
        <time>2020-01-19T11:15:11.000Z</time>
      </trkpt>
      <trkpt lat="47.28174" lon="-2.39248">
        <ele>-3.2000000476837</ele>
        <time>2020-01-19T11:15:16.000Z</time>
      </trkpt>
      <trkpt lat="47.28174" lon="-2.39246">
        <ele>-3.2000000476837</ele>
        <time>2020-01-19T11:15:29.000Z</time>
      </trkpt>
      <trkpt lat="47.28173" lon="-2.39231">
        <ele>-3.2000000476837</ele>
        <time>2020-01-19T11:15:33.000Z</time>
      </trkpt>
      <trkpt lat="47.28172" lon="-2.392">
        <ele>-3.2000000476837</ele>
        <time>2020-01-19T11:15:38.000Z</time>
      </trkpt>
      <trkpt lat="47.28168" lon="-2.39138">
        <ele>-3.2000000476837</ele>
        <time>2020-01-19T11:15:46.000Z</time>
      </trkpt>
      <trkpt lat="47.28164" lon="-2.39072">
        <ele>-3.2000000476837</ele>
        <time>2020-01-19T11:15:54.000Z</time>
      </trkpt>
      <trkpt lat="47.28157" lon="-2.38999">
        <ele>-3.2000000476837</ele>
        <time>2020-01-19T11:16:02.000Z</time>
      </trkpt>
      <trkpt lat="47.28147" lon="-2.38939">
        <ele>-3.2000000476837</ele>
        <time>2020-01-19T11:16:09.000Z</time>
      </trkpt>
      <trkpt lat="47.28134" lon="-2.38877">
        <ele>-3.2000000476837</ele>
        <time>2020-01-19T11:16:16.000Z</time>
      </trkpt>
      <trkpt lat="47.28127" lon="-2.38803">
        <ele>-3.2000000476837</ele>
        <time>2020-01-19T11:16:24.000Z</time>
      </trkpt>
      <trkpt lat="47.2812" lon="-2.38732">
        <ele>-3.2000000476837</ele>
        <time>2020-01-19T11:16:32.000Z</time>
      </trkpt>
      <trkpt lat="47.28115" lon="-2.38667">
        <ele>-3.2000000476837</ele>
        <time>2020-01-19T11:16:40.000Z</time>
      </trkpt>
      <trkpt lat="47.2811" lon="-2.38618">
        <ele>-3.2000000476837</ele>
        <time>2020-01-19T11:16:47.000Z</time>
      </trkpt>
      <trkpt lat="47.28105" lon="-2.38563">
        <ele>-3.2000000476837</ele>
        <time>2020-01-19T11:16:54.000Z</time>
      </trkpt>
      <trkpt lat="47.28098" lon="-2.38506">
        <ele>-3.2000000476837</ele>
        <time>2020-01-19T11:17:01.000Z</time>
      </trkpt>
      <trkpt lat="47.28087" lon="-2.38447">
        <ele>-3.2000000476837</ele>
        <time>2020-01-19T11:17:08.000Z</time>
      </trkpt>
      <trkpt lat="47.28074" lon="-2.3837">
        <ele>-3.2000000476837</ele>
        <time>2020-01-19T11:17:17.000Z</time>
      </trkpt>
      <trkpt lat="47.28062" lon="-2.38312">
        <ele>-3.2000000476837</ele>
        <time>2020-01-19T11:17:24.000Z</time>
      </trkpt>
      <trkpt lat="47.28046" lon="-2.38235">
        <ele>-3.2000000476837</ele>
        <time>2020-01-19T11:17:33.000Z</time>
      </trkpt>
      <trkpt lat="47.28045" lon="-2.38226">
        <ele>-3.2000000476837</ele>
        <time>2020-01-19T11:17:34.000Z</time>
      </trkpt>
      <trkpt lat="47.28033" lon="-2.38167">
        <ele>-3.2000000476837</ele>
        <time>2020-01-19T11:17:41.000Z</time>
      </trkpt>
      <trkpt lat="47.28026" lon="-2.38125">
        <ele>-2.7999999523163</ele>
        <time>2020-01-19T11:17:46.000Z</time>
      </trkpt>
      <trkpt lat="47.28024" lon="-2.38117">
        <ele>-2.4000000953674</ele>
        <time>2020-01-19T11:17:47.000Z</time>
      </trkpt>
      <trkpt lat="47.28022" lon="-2.38109">
        <ele>-2</ele>
        <time>2020-01-19T11:17:48.000Z</time>
      </trkpt>
      <trkpt lat="47.28021" lon="-2.381">
        <ele>-1.6000000238419</ele>
        <time>2020-01-19T11:17:49.000Z</time>
      </trkpt>
      <trkpt lat="47.28019" lon="-2.38091">
        <ele>-1.2000000476837</ele>
        <time>2020-01-19T11:17:50.000Z</time>
      </trkpt>
      <trkpt lat="47.28016" lon="-2.38074">
        <ele>-1.6000000238419</ele>
        <time>2020-01-19T11:17:52.000Z</time>
      </trkpt>
      <trkpt lat="47.28014" lon="-2.38065">
        <ele>-2</ele>
        <time>2020-01-19T11:17:53.000Z</time>
      </trkpt>
      <trkpt lat="47.28013" lon="-2.38057">
        <ele>-2.5999999046326</ele>
        <time>2020-01-19T11:17:54.000Z</time>
      </trkpt>
      <trkpt lat="47.28011" lon="-2.38048">
        <ele>-3</ele>
        <time>2020-01-19T11:17:55.000Z</time>
      </trkpt>
      <trkpt lat="47.2801" lon="-2.38039">
        <ele>-3.4000000953674</ele>
        <time>2020-01-19T11:17:56.000Z</time>
      </trkpt>
      <trkpt lat="47.28006" lon="-2.38022">
        <ele>-3.4000000953674</ele>
        <time>2020-01-19T11:17:58.000Z</time>
      </trkpt>
      <trkpt lat="47.28003" lon="-2.38005">
        <ele>-3</ele>
        <time>2020-01-19T11:18:00.000Z</time>
      </trkpt>
      <trkpt lat="47.28001" lon="-2.37997">
        <ele>-2.4000000953674</ele>
        <time>2020-01-19T11:18:01.000Z</time>
      </trkpt>
      <trkpt lat="47.27999" lon="-2.37988">
        <ele>-1.6000000238419</ele>
        <time>2020-01-19T11:18:02.000Z</time>
      </trkpt>
      <trkpt lat="47.27997" lon="-2.3798">
        <ele>-1.2000000476837</ele>
        <time>2020-01-19T11:18:03.000Z</time>
      </trkpt>
      <trkpt lat="47.27991" lon="-2.37947">
        <ele>-1.2000000476837</ele>
        <time>2020-01-19T11:18:07.000Z</time>
      </trkpt>
      <trkpt lat="47.2798" lon="-2.3789">
        <ele>-1.2000000476837</ele>
        <time>2020-01-19T11:18:14.000Z</time>
      </trkpt>
      <trkpt lat="47.27971" lon="-2.37826">
        <ele>-1.2000000476837</ele>
        <time>2020-01-19T11:18:22.000Z</time>
      </trkpt>
      <trkpt lat="47.27965" lon="-2.37805">
        <ele>-1.2000000476837</ele>
        <time>2020-01-19T11:18:25.000Z</time>
      </trkpt>
      <trkpt lat="47.27964" lon="-2.3779">
        <ele>-1.2000000476837</ele>
        <time>2020-01-19T11:18:27.000Z</time>
      </trkpt>
      <trkpt lat="47.27963" lon="-2.37781">
        <ele>-1.2000000476837</ele>
        <time>2020-01-19T11:18:28.000Z</time>
      </trkpt>
      <trkpt lat="47.27956" lon="-2.37759">
        <ele>-1.2000000476837</ele>
        <time>2020-01-19T11:18:31.000Z</time>
      </trkpt>
      <trkpt lat="47.27953" lon="-2.37751">
        <ele>-1.2000000476837</ele>
        <time>2020-01-19T11:18:32.000Z</time>
      </trkpt>
      <trkpt lat="47.27944" lon="-2.3771">
        <ele>-1.2000000476837</ele>
        <time>2020-01-19T11:18:37.000Z</time>
      </trkpt>
      <trkpt lat="47.2793" lon="-2.37652">
        <ele>-1.2000000476837</ele>
        <time>2020-01-19T11:18:44.000Z</time>
      </trkpt>
      <trkpt lat="47.27912" lon="-2.37574">
        <ele>-1.2000000476837</ele>
        <time>2020-01-19T11:18:53.000Z</time>
      </trkpt>
      <trkpt lat="47.27902" lon="-2.37533">
        <ele>-1.2000000476837</ele>
        <time>2020-01-19T11:18:58.000Z</time>
      </trkpt>
      <trkpt lat="47.27897" lon="-2.37517">
        <ele>-1.2000000476837</ele>
        <time>2020-01-19T11:19:00.000Z</time>
      </trkpt>
      <trkpt lat="47.27885" lon="-2.37465">
        <ele>-1.2000000476837</ele>
        <time>2020-01-19T11:19:06.000Z</time>
      </trkpt>
      <trkpt lat="47.27866" lon="-2.37386">
        <ele>-1.2000000476837</ele>
        <time>2020-01-19T11:19:15.000Z</time>
      </trkpt>
      <trkpt lat="47.27848" lon="-2.37316">
        <ele>-1.2000000476837</ele>
        <time>2020-01-19T11:19:23.000Z</time>
      </trkpt>
      <trkpt lat="47.27829" lon="-2.37244">
        <ele>-1.2000000476837</ele>
        <time>2020-01-19T11:19:31.000Z</time>
      </trkpt>
      <trkpt lat="47.27825" lon="-2.37227">
        <ele>-1.2000000476837</ele>
        <time>2020-01-19T11:19:33.000Z</time>
      </trkpt>
      <trkpt lat="47.27822" lon="-2.37212">
        <ele>-0.80000001192093</ele>
        <time>2020-01-19T11:19:35.000Z</time>
      </trkpt>
      <trkpt lat="47.2782" lon="-2.37206">
        <ele>-0.40000000596046</ele>
        <time>2020-01-19T11:19:36.000Z</time>
      </trkpt>
      <trkpt lat="47.27818" lon="-2.372">
        <ele>0.20000000298023</ele>
        <time>2020-01-19T11:19:37.000Z</time>
      </trkpt>
      <trkpt lat="47.27815" lon="-2.37193">
        <ele>0.60000002384186</ele>
        <time>2020-01-19T11:19:38.000Z</time>
      </trkpt>
      <trkpt lat="47.27814" lon="-2.37187">
        <ele>1</ele>
        <time>2020-01-19T11:19:39.000Z</time>
      </trkpt>
      <trkpt lat="47.27814" lon="-2.37181">
        <ele>0.40000000596046</ele>
        <time>2020-01-19T11:19:40.000Z</time>
      </trkpt>
      <trkpt lat="47.27814" lon="-2.37176">
        <ele>7.1</ele>
        <time>2020-01-19T11:19:41.000Z</time>
      </trkpt>
      <trkpt lat="47.27814" lon="-2.37174">
        <ele>-1</ele>
        <time>2020-01-19T11:19:42.000Z</time>
      </trkpt>
      <trkpt lat="47.27814" lon="-2.37172">
        <ele>-1.3999999761581</ele>
        <time>2020-01-19T11:19:43.000Z</time>
      </trkpt>
      <trkpt lat="47.27811" lon="-2.37164">
        <ele>-1.3999999761581</ele>
        <time>2020-01-19T11:19:46.000Z</time>
      </trkpt>
      <trkpt lat="47.27809" lon="-2.37161">
        <ele>-1.7999999523163</ele>
        <time>2020-01-19T11:19:47.000Z</time>
      </trkpt>
      <trkpt lat="47.27807" lon="-2.37156">
        <ele>-2.4000000953674</ele>
        <time>2020-01-19T11:19:48.000Z</time>
      </trkpt>
      <trkpt lat="47.27805" lon="-2.3715">
        <ele>-2.7999999523163</ele>
        <time>2020-01-19T11:19:49.000Z</time>
      </trkpt>
      <trkpt lat="47.27803" lon="-2.37144">
        <ele>-3.2000000476837</ele>
        <time>2020-01-19T11:19:50.000Z</time>
      </trkpt>
      <trkpt lat="47.27801" lon="-2.37138">
        <ele>-3.5999999046326</ele>
        <time>2020-01-19T11:19:51.000Z</time>
      </trkpt>
      <trkpt lat="47.27792" lon="-2.37105">
        <ele>-3.5999999046326</ele>
        <time>2020-01-19T11:19:56.000Z</time>
      </trkpt>
      <trkpt lat="47.27779" lon="-2.37054">
        <ele>-3.5999999046326</ele>
        <time>2020-01-19T11:20:03.000Z</time>
      </trkpt>
      <trkpt lat="47.2777" lon="-2.37021">
        <ele>-3.2000000476837</ele>
        <time>2020-01-19T11:20:07.000Z</time>
      </trkpt>
      <trkpt lat="47.27768" lon="-2.37013">
        <ele>-2.7999999523163</ele>
        <time>2020-01-19T11:20:08.000Z</time>
      </trkpt>
      <trkpt lat="47.27765" lon="-2.37005">
        <ele>-2.2000000476837</ele>
        <time>2020-01-19T11:20:09.000Z</time>
      </trkpt>
      <trkpt lat="47.27763" lon="-2.36997">
        <ele>-1.7999999523163</ele>
        <time>2020-01-19T11:20:10.000Z</time>
      </trkpt>
      <trkpt lat="47.27761" lon="-2.36989">
        <ele>-1.3999999761581</ele>
        <time>2020-01-19T11:20:11.000Z</time>
      </trkpt>
      <trkpt lat="47.27758" lon="-2.3698">
        <ele>-1.3999999761581</ele>
        <time>2020-01-19T11:20:12.000Z</time>
      </trkpt>
      <trkpt lat="47.27739" lon="-2.36912">
        <ele>-1.3999999761581</ele>
        <time>2020-01-19T11:20:20.000Z</time>
      </trkpt>
      <trkpt lat="47.27718" lon="-2.3684">
        <ele>-1.3999999761581</ele>
        <time>2020-01-19T11:20:28.000Z</time>
      </trkpt>
      <trkpt lat="47.27698" lon="-2.36774">
        <ele>-1.3999999761581</ele>
        <time>2020-01-19T11:20:36.000Z</time>
      </trkpt>
      <trkpt lat="47.27673" lon="-2.367">
        <ele>-1.3999999761581</ele>
        <time>2020-01-19T11:20:45.000Z</time>
      </trkpt>
      <trkpt lat="47.2765" lon="-2.36637">
        <ele>-1.3999999761581</ele>
        <time>2020-01-19T11:20:53.000Z</time>
      </trkpt>
      <trkpt lat="47.27626" lon="-2.36567">
        <ele>-1.3999999761581</ele>
        <time>2020-01-19T11:21:01.000Z</time>
      </trkpt>
      <trkpt lat="47.27599" lon="-2.3649">
        <ele>-1.3999999761581</ele>
        <time>2020-01-19T11:21:10.000Z</time>
      </trkpt>
      <trkpt lat="47.27574" lon="-2.36422">
        <ele>-1.3999999761581</ele>
        <time>2020-01-19T11:21:18.000Z</time>
      </trkpt>
      <trkpt lat="47.27553" lon="-2.36362">
        <ele>-1.3999999761581</ele>
        <time>2020-01-19T11:21:25.000Z</time>
      </trkpt>
      <trkpt lat="47.27545" lon="-2.36346">
        <ele>-1.3999999761581</ele>
        <time>2020-01-19T11:21:27.000Z</time>
      </trkpt>
      <trkpt lat="47.27521" lon="-2.36285">
        <ele>-1.3999999761581</ele>
        <time>2020-01-19T11:21:34.000Z</time>
      </trkpt>
      <trkpt lat="47.27494" lon="-2.36215">
        <ele>-1.3999999761581</ele>
        <time>2020-01-19T11:21:42.000Z</time>
      </trkpt>
      <trkpt lat="47.27491" lon="-2.36206">
        <ele>-1.3999999761581</ele>
        <time>2020-01-19T11:21:43.000Z</time>
      </trkpt>
      <trkpt lat="47.27469" lon="-2.36147">
        <ele>-1.3999999761581</ele>
        <time>2020-01-19T11:21:50.000Z</time>
      </trkpt>
      <trkpt lat="47.27466" lon="-2.36138">
        <ele>-1.3999999761581</ele>
        <time>2020-01-19T11:21:51.000Z</time>
      </trkpt>
      <trkpt lat="47.27459" lon="-2.36113">
        <ele>-1.3999999761581</ele>
        <time>2020-01-19T11:21:54.000Z</time>
      </trkpt>
      <trkpt lat="47.27455" lon="-2.36105">
        <ele>-1.3999999761581</ele>
        <time>2020-01-19T11:21:55.000Z</time>
      </trkpt>
      <trkpt lat="47.27442" lon="-2.36075">
        <ele>-1.3999999761581</ele>
        <time>2020-01-19T11:21:59.000Z</time>
      </trkpt>
      <trkpt lat="47.2744" lon="-2.36067">
        <ele>-1.3999999761581</ele>
        <time>2020-01-19T11:22:00.000Z</time>
      </trkpt>
      <trkpt lat="47.27434" lon="-2.36051">
        <ele>-1.3999999761581</ele>
        <time>2020-01-19T11:22:02.000Z</time>
      </trkpt>
      <trkpt lat="47.27426" lon="-2.36035">
        <ele>-1.3999999761581</ele>
        <time>2020-01-19T11:22:04.000Z</time>
      </trkpt>
      <trkpt lat="47.27409" lon="-2.35993">
        <ele>-1.7999999523163</ele>
        <time>2020-01-19T11:22:09.000Z</time>
      </trkpt>
      <trkpt lat="47.27405" lon="-2.35984">
        <ele>-2.5999999046326</ele>
        <time>2020-01-19T11:22:10.000Z</time>
      </trkpt>
      <trkpt lat="47.27401" lon="-2.35975">
        <ele>-3</ele>
        <time>2020-01-19T11:22:11.000Z</time>
      </trkpt>
      <trkpt lat="47.27397" lon="-2.35966">
        <ele>-3.4000000953674</ele>
        <time>2020-01-19T11:22:12.000Z</time>
      </trkpt>
      <trkpt lat="47.27377" lon="-2.35914">
        <ele>-3</ele>
        <time>2020-01-19T11:22:18.000Z</time>
      </trkpt>
      <trkpt lat="47.27374" lon="-2.35906">
        <ele>-2.4000000953674</ele>
        <time>2020-01-19T11:22:19.000Z</time>
      </trkpt>
      <trkpt lat="47.27371" lon="-2.35898">
        <ele>-2</ele>
        <time>2020-01-19T11:22:20.000Z</time>
      </trkpt>
      <trkpt lat="47.27367" lon="-2.3589">
        <ele>-1.3999999761581</ele>
        <time>2020-01-19T11:22:21.000Z</time>
      </trkpt>
      <trkpt lat="47.27364" lon="-2.35882">
        <ele>-1</ele>
        <time>2020-01-19T11:22:22.000Z</time>
      </trkpt>
      <trkpt lat="47.27352" lon="-2.35848">
        <ele>-1</ele>
        <time>2020-01-19T11:22:26.000Z</time>
      </trkpt>
      <trkpt lat="47.27329" lon="-2.35791">
        <ele>-1.3999999761581</ele>
        <time>2020-01-19T11:22:33.000Z</time>
      </trkpt>
      <trkpt lat="47.27326" lon="-2.35783">
        <ele>-1.7999999523163</ele>
        <time>2020-01-19T11:22:34.000Z</time>
      </trkpt>
      <trkpt lat="47.27324" lon="-2.35774">
        <ele>-2.5999999046326</ele>
        <time>2020-01-19T11:22:35.000Z</time>
      </trkpt>
      <trkpt lat="47.27321" lon="-2.35765">
        <ele>-3</ele>
        <time>2020-01-19T11:22:36.000Z</time>
      </trkpt>
      <trkpt lat="47.27318" lon="-2.35758">
        <ele>-3</ele>
        <time>2020-01-19T11:22:37.000Z</time>
      </trkpt>
      <trkpt lat="47.27309" lon="-2.35744">
        <ele>-3</ele>
        <time>2020-01-19T11:22:39.000Z</time>
      </trkpt>
      <trkpt lat="47.27306" lon="-2.35736">
        <ele>-3</ele>
        <time>2020-01-19T11:22:40.000Z</time>
      </trkpt>
      <trkpt lat="47.27303" lon="-2.35727">
        <ele>-3</ele>
        <time>2020-01-19T11:22:41.000Z</time>
      </trkpt>
      <trkpt lat="47.27294" lon="-2.35702">
        <ele>-3.4000000953674</ele>
        <time>2020-01-19T11:22:44.000Z</time>
      </trkpt>
      <trkpt lat="47.2729" lon="-2.35694">
        <ele>-3.7999999523163</ele>
        <time>2020-01-19T11:22:45.000Z</time>
      </trkpt>
      <trkpt lat="47.27285" lon="-2.35687">
        <ele>-4.1999998092651</ele>
        <time>2020-01-19T11:22:46.000Z</time>
      </trkpt>
      <trkpt lat="47.27281" lon="-2.35679">
        <ele>-4.5999999046326</ele>
        <time>2020-01-19T11:22:47.000Z</time>
      </trkpt>
      <trkpt lat="47.27278" lon="-2.35671">
        <ele>-5</ele>
        <time>2020-01-19T11:22:48.000Z</time>
      </trkpt>
      <trkpt lat="47.27267" lon="-2.35647">
        <ele>-5</ele>
        <time>2020-01-19T11:22:51.000Z</time>
      </trkpt>
      <trkpt lat="47.27239" lon="-2.35586">
        <ele>-4.5999999046326</ele>
        <time>2020-01-19T11:22:59.000Z</time>
      </trkpt>
      <trkpt lat="47.27236" lon="-2.35578">
        <ele>-3.5999999046326</ele>
        <time>2020-01-19T11:23:00.000Z</time>
      </trkpt>
      <trkpt lat="47.27232" lon="-2.35571">
        <ele>-3.2000000476837</ele>
        <time>2020-01-19T11:23:01.000Z</time>
      </trkpt>
      <trkpt lat="47.27229" lon="-2.35563">
        <ele>-2.7999999523163</ele>
        <time>2020-01-19T11:23:02.000Z</time>
      </trkpt>
      <trkpt lat="47.27201" lon="-2.35502">
        <ele>-2.7999999523163</ele>
        <time>2020-01-19T11:23:10.000Z</time>
      </trkpt>
      <trkpt lat="47.27178" lon="-2.35457">
        <ele>-2.7999999523163</ele>
        <time>2020-01-19T11:23:16.000Z</time>
      </trkpt>
      <trkpt lat="47.27158" lon="-2.35414">
        <ele>-2.7999999523163</ele>
        <time>2020-01-19T11:23:22.000Z</time>
      </trkpt>
      <trkpt lat="47.27133" lon="-2.35371">
        <ele>-2.7999999523163</ele>
        <time>2020-01-19T11:23:28.000Z</time>
      </trkpt>
      <trkpt lat="47.27097" lon="-2.35312">
        <ele>-2.7999999523163</ele>
        <time>2020-01-19T11:23:36.000Z</time>
      </trkpt>
      <trkpt lat="47.27064" lon="-2.35261">
        <ele>-2.7999999523163</ele>
        <time>2020-01-19T11:23:43.000Z</time>
      </trkpt>
      <trkpt lat="47.27026" lon="-2.35202">
        <ele>-2.7999999523163</ele>
        <time>2020-01-19T11:23:51.000Z</time>
      </trkpt>
      <trkpt lat="47.27011" lon="-2.35181">
        <ele>-2.7999999523163</ele>
        <time>2020-01-19T11:23:54.000Z</time>
      </trkpt>
      <trkpt lat="47.26978" lon="-2.35129">
        <ele>-2.7999999523163</ele>
        <time>2020-01-19T11:24:01.000Z</time>
      </trkpt>
      <trkpt lat="47.26941" lon="-2.35073">
        <ele>-2.7999999523163</ele>
        <time>2020-01-19T11:24:09.000Z</time>
      </trkpt>
      <trkpt lat="47.26904" lon="-2.35015">
        <ele>-2.7999999523163</ele>
        <time>2020-01-19T11:24:17.000Z</time>
      </trkpt>
      <trkpt lat="47.26899" lon="-2.35008">
        <ele>-2.7999999523163</ele>
        <time>2020-01-19T11:24:18.000Z</time>
      </trkpt>
      <trkpt lat="47.2688" lon="-2.34979">
        <ele>-3.2000000476837</ele>
        <time>2020-01-19T11:24:22.000Z</time>
      </trkpt>
      <trkpt lat="47.26875" lon="-2.34972">
        <ele>-3.5999999046326</ele>
        <time>2020-01-19T11:24:23.000Z</time>
      </trkpt>
      <trkpt lat="47.2687" lon="-2.34965">
        <ele>-4</ele>
        <time>2020-01-19T11:24:24.000Z</time>
      </trkpt>
      <trkpt lat="47.26865" lon="-2.34958">
        <ele>-4.4000000953674</ele>
        <time>2020-01-19T11:24:25.000Z</time>
      </trkpt>
      <trkpt lat="47.2686" lon="-2.3495">
        <ele>-4.8000001907349</ele>
        <time>2020-01-19T11:24:26.000Z</time>
      </trkpt>
      <trkpt lat="47.26822" lon="-2.34893">
        <ele>-4.8000001907349</ele>
        <time>2020-01-19T11:24:34.000Z</time>
      </trkpt>
      <trkpt lat="47.2678" lon="-2.34832">
        <ele>-4.8000001907349</ele>
        <time>2020-01-19T11:24:43.000Z</time>
      </trkpt>
      <trkpt lat="47.26756" lon="-2.34802">
        <ele>-4.8000001907349</ele>
        <time>2020-01-19T11:24:48.000Z</time>
      </trkpt>
      <trkpt lat="47.26747" lon="-2.34789">
        <ele>-4.8000001907349</ele>
        <time>2020-01-19T11:24:50.000Z</time>
      </trkpt>
      <trkpt lat="47.26708" lon="-2.34741">
        <ele>-4.8000001907349</ele>
        <time>2020-01-19T11:24:58.000Z</time>
      </trkpt>
      <trkpt lat="47.26678" lon="-2.34703">
        <ele>-4.8000001907349</ele>
        <time>2020-01-19T11:25:04.000Z</time>
      </trkpt>
      <trkpt lat="47.26668" lon="-2.34691">
        <ele>-4.8000001907349</ele>
        <time>2020-01-19T11:25:06.000Z</time>
      </trkpt>
      <trkpt lat="47.26627" lon="-2.34641">
        <ele>-4.8000001907349</ele>
        <time>2020-01-19T11:25:14.000Z</time>
      </trkpt>
      <trkpt lat="47.26604" lon="-2.34612">
        <ele>-4.8000001907349</ele>
        <time>2020-01-19T11:25:19.000Z</time>
      </trkpt>
      <trkpt lat="47.266" lon="-2.34606">
        <ele>-4.8000001907349</ele>
        <time>2020-01-19T11:25:23.000Z</time>
      </trkpt>
      <trkpt lat="47.26593" lon="-2.34597">
        <ele>-4.8000001907349</ele>
        <time>2020-01-19T11:25:26.000Z</time>
      </trkpt>
      <trkpt lat="47.26589" lon="-2.34594">
        <ele>-4.8000001907349</ele>
        <time>2020-01-19T11:25:27.000Z</time>
      </trkpt>
      <trkpt lat="47.26576" lon="-2.34582">
        <ele>-4.8000001907349</ele>
        <time>2020-01-19T11:25:30.000Z</time>
      </trkpt>
      <trkpt lat="47.26571" lon="-2.34578">
        <ele>-4.8000001907349</ele>
        <time>2020-01-19T11:25:31.000Z</time>
      </trkpt>
      <trkpt lat="47.26533" lon="-2.34536">
        <ele>-4.8000001907349</ele>
        <time>2020-01-19T11:25:39.000Z</time>
      </trkpt>
      <trkpt lat="47.26489" lon="-2.34502">
        <ele>-4.8000001907349</ele>
        <time>2020-01-19T11:25:47.000Z</time>
      </trkpt>
      <trkpt lat="47.26438" lon="-2.34465">
        <ele>-4.8000001907349</ele>
        <time>2020-01-19T11:25:56.000Z</time>
      </trkpt>
      <trkpt lat="47.26389" lon="-2.34426">
        <ele>-4.8000001907349</ele>
        <time>2020-01-19T11:26:05.000Z</time>
      </trkpt>
      <trkpt lat="47.26339" lon="-2.34383">
        <ele>-4.8000001907349</ele>
        <time>2020-01-19T11:26:14.000Z</time>
      </trkpt>
      <trkpt lat="47.26321" lon="-2.34378">
        <ele>-4.8000001907349</ele>
        <time>2020-01-19T11:26:17.000Z</time>
      </trkpt>
      <trkpt lat="47.26312" lon="-2.34358">
        <ele>-4.8000001907349</ele>
        <time>2020-01-19T11:26:20.000Z</time>
      </trkpt>
      <trkpt lat="47.26308" lon="-2.34352">
        <ele>-4.8000001907349</ele>
        <time>2020-01-19T11:26:21.000Z</time>
      </trkpt>
      <trkpt lat="47.26298" lon="-2.34342">
        <ele>-4.8000001907349</ele>
        <time>2020-01-19T11:26:23.000Z</time>
      </trkpt>
      <trkpt lat="47.26262" lon="-2.34306">
        <ele>-4.8000001907349</ele>
        <time>2020-01-19T11:26:30.000Z</time>
      </trkpt>
      <trkpt lat="47.26224" lon="-2.34266">
        <ele>-4.8000001907349</ele>
        <time>2020-01-19T11:26:37.000Z</time>
      </trkpt>
      <trkpt lat="47.26191" lon="-2.34231">
        <ele>-4.8000001907349</ele>
        <time>2020-01-19T11:26:43.000Z</time>
      </trkpt>
      <trkpt lat="47.26153" lon="-2.34192">
        <ele>-4.8000001907349</ele>
        <time>2020-01-19T11:26:50.000Z</time>
      </trkpt>
      <trkpt lat="47.2614" lon="-2.34184">
        <ele>-4.8000001907349</ele>
        <time>2020-01-19T11:26:52.000Z</time>
      </trkpt>
      <trkpt lat="47.26128" lon="-2.34177">
        <ele>-4.8000001907349</ele>
        <time>2020-01-19T11:26:54.000Z</time>
      </trkpt>
      <trkpt lat="47.26105" lon="-2.34158">
        <ele>-4.8000001907349</ele>
        <time>2020-01-19T11:26:58.000Z</time>
      </trkpt>
      <trkpt lat="47.26055" lon="-2.34133">
        <ele>-4.8000001907349</ele>
        <time>2020-01-19T11:27:06.000Z</time>
      </trkpt>
      <trkpt lat="47.26012" lon="-2.34113">
        <ele>-4.8000001907349</ele>
        <time>2020-01-19T11:27:13.000Z</time>
      </trkpt>
      <trkpt lat="47.25964" lon="-2.3409">
        <ele>-4.8000001907349</ele>
        <time>2020-01-19T11:27:21.000Z</time>
      </trkpt>
      <trkpt lat="47.25933" lon="-2.34075">
        <ele>-4.8000001907349</ele>
        <time>2020-01-19T11:27:27.000Z</time>
      </trkpt>
      <trkpt lat="47.25928" lon="-2.34074">
        <ele>-4.8000001907349</ele>
        <time>2020-01-19T11:27:28.000Z</time>
      </trkpt>
      <trkpt lat="47.25912" lon="-2.3408">
        <ele>-5.4000000953674</ele>
        <time>2020-01-19T11:27:31.000Z</time>
      </trkpt>
      <trkpt lat="47.25907" lon="-2.34085">
        <ele>-5.8000001907349</ele>
        <time>2020-01-19T11:27:32.000Z</time>
      </trkpt>
      <trkpt lat="47.25903" lon="-2.34091">
        <ele>-6.8000001907349</ele>
        <time>2020-01-19T11:27:33.000Z</time>
      </trkpt>
      <trkpt lat="47.25899" lon="-2.34098">
        <ele>-7.1999998092651</ele>
        <time>2020-01-19T11:27:34.000Z</time>
      </trkpt>
      <trkpt lat="47.25895" lon="-2.34105">
        <ele>-7.1999998092651</ele>
        <time>2020-01-19T11:27:35.000Z</time>
      </trkpt>
      <trkpt lat="47.25892" lon="-2.34113">
        <ele>-7.1999998092651</ele>
        <time>2020-01-19T11:27:36.000Z</time>
      </trkpt>
      <trkpt lat="47.25882" lon="-2.34144">
        <ele>-7.1999998092651</ele>
        <time>2020-01-19T11:27:40.000Z</time>
      </trkpt>
      <trkpt lat="47.25879" lon="-2.34157">
        <ele>-7.5999999046326</ele>
        <time>2020-01-19T11:27:42.000Z</time>
      </trkpt>
      <trkpt lat="47.25878" lon="-2.34161">
        <ele>-8</ele>
        <time>2020-01-19T11:27:43.000Z</time>
      </trkpt>
      <trkpt lat="47.25877" lon="-2.34164">
        <ele>-8.3999996185303</ele>
        <time>2020-01-19T11:27:44.000Z</time>
      </trkpt>
      <trkpt lat="47.25876" lon="-2.34167">
        <ele>-9</ele>
        <time>2020-01-19T11:27:45.000Z</time>
      </trkpt>
      <trkpt lat="47.25875" lon="-2.3417">
        <ele>-9.3999996185303</ele>
        <time>2020-01-19T11:27:46.000Z</time>
      </trkpt>
      <trkpt lat="47.25873" lon="-2.34171">
        <ele>-9.3999996185303</ele>
        <time>2020-01-19T11:27:47.000Z</time>
      </trkpt>
      <trkpt lat="47.25871" lon="-2.34169">
        <ele>-9.3999996185303</ele>
        <time>2020-01-19T11:27:48.000Z</time>
      </trkpt>
      <trkpt lat="47.2586" lon="-2.34162">
        <ele>-9.3999996185303</ele>
        <time>2020-01-19T11:27:52.000Z</time>
      </trkpt>
      <trkpt lat="47.25843" lon="-2.34156">
        <ele>-8.3999996185303</ele>
        <time>2020-01-19T11:27:57.000Z</time>
      </trkpt>
      <trkpt lat="47.25839" lon="-2.34156">
        <ele>-8</ele>
        <time>2020-01-19T11:27:58.000Z</time>
      </trkpt>
      <trkpt lat="47.25837" lon="-2.34159">
        <ele>-7.5999999046326</ele>
        <time>2020-01-19T11:27:59.000Z</time>
      </trkpt>
      <trkpt lat="47.25836" lon="-2.34163">
        <ele>-7.1999998092651</ele>
        <time>2020-01-19T11:28:00.000Z</time>
      </trkpt>
      <trkpt lat="47.25833" lon="-2.34173">
        <ele>-7.1999998092651</ele>
        <time>2020-01-19T11:28:02.000Z</time>
      </trkpt>
      <trkpt lat="47.25826" lon="-2.34181">
        <ele>-7.1999998092651</ele>
        <time>2020-01-19T11:28:05.000Z</time>
      </trkpt>
      <trkpt lat="47.25818" lon="-2.3418">
        <ele>-7.1999998092651</ele>
        <time>2020-01-19T11:28:07.000Z</time>
      </trkpt>
      <trkpt lat="47.2581" lon="-2.34177">
        <ele>-7.1999998092651</ele>
        <time>2020-01-19T11:28:09.000Z</time>
      </trkpt>
      <trkpt lat="47.25786" lon="-2.34175">
        <ele>-7.1999998092651</ele>
        <time>2020-01-19T11:28:14.000Z</time>
      </trkpt>
      <trkpt lat="47.25777" lon="-2.34175">
        <ele>-7.1999998092651</ele>
        <time>2020-01-19T11:28:16.000Z</time>
      </trkpt>
      <trkpt lat="47.25733" lon="-2.34182">
        <ele>-7.1999998092651</ele>
        <time>2020-01-19T11:28:24.000Z</time>
      </trkpt>
      <trkpt lat="47.25692" lon="-2.3419">
        <ele>-7.1999998092651</ele>
        <time>2020-01-19T11:28:32.000Z</time>
      </trkpt>
      <trkpt lat="47.25672" lon="-2.34188">
        <ele>-7.1999998092651</ele>
        <time>2020-01-19T11:28:36.000Z</time>
      </trkpt>
      <trkpt lat="47.25668" lon="-2.34185">
        <ele>-7.1999998092651</ele>
        <time>2020-01-19T11:28:37.000Z</time>
      </trkpt>
      <trkpt lat="47.25656" lon="-2.3416">
        <ele>-7.1999998092651</ele>
        <time>2020-01-19T11:28:41.000Z</time>
      </trkpt>
      <trkpt lat="47.25643" lon="-2.3413">
        <ele>-6.5999999046326</ele>
        <time>2020-01-19T11:28:46.000Z</time>
      </trkpt>
      <trkpt lat="47.25642" lon="-2.34124">
        <ele>-5.8000001907349</ele>
        <time>2020-01-19T11:28:47.000Z</time>
      </trkpt>
      <trkpt lat="47.25641" lon="-2.34118">
        <ele>-5.4000000953674</ele>
        <time>2020-01-19T11:28:48.000Z</time>
      </trkpt>
      <trkpt lat="47.25639" lon="-2.34111">
        <ele>-5</ele>
        <time>2020-01-19T11:28:49.000Z</time>
      </trkpt>
      <trkpt lat="47.25638" lon="-2.34097">
        <ele>-5</ele>
        <time>2020-01-19T11:28:51.000Z</time>
      </trkpt>
      <trkpt lat="47.25638" lon="-2.34078">
        <ele>-4.5999999046326</ele>
        <time>2020-01-19T11:28:54.000Z</time>
      </trkpt>
      <trkpt lat="47.25639" lon="-2.34071">
        <ele>-4</ele>
        <time>2020-01-19T11:28:55.000Z</time>
      </trkpt>
      <trkpt lat="47.2564" lon="-2.34065">
        <ele>-3.5999999046326</ele>
        <time>2020-01-19T11:28:56.000Z</time>
      </trkpt>
      <trkpt lat="47.25641" lon="-2.34057">
        <ele>-3.2000000476837</ele>
        <time>2020-01-19T11:28:57.000Z</time>
      </trkpt>
      <trkpt lat="47.25642" lon="-2.3405">
        <ele>-2.5999999046326</ele>
        <time>2020-01-19T11:28:58.000Z</time>
      </trkpt>
      <trkpt lat="47.25644" lon="-2.34043">
        <ele>-2.5999999046326</ele>
        <time>2020-01-19T11:28:59.000Z</time>
      </trkpt>
      <trkpt lat="47.25655" lon="-2.33983">
        <ele>-2.5999999046326</ele>
        <time>2020-01-19T11:29:08.000Z</time>
      </trkpt>
      <trkpt lat="47.25661" lon="-2.33955">
        <ele>-2.5999999046326</ele>
        <time>2020-01-19T11:29:12.000Z</time>
      </trkpt>
      <trkpt lat="47.2566" lon="-2.33941">
        <ele>-2.5999999046326</ele>
        <time>2020-01-19T11:29:14.000Z</time>
      </trkpt>
      <trkpt lat="47.25658" lon="-2.33925">
        <ele>-2.5999999046326</ele>
        <time>2020-01-19T11:29:16.000Z</time>
      </trkpt>
      <trkpt lat="47.25653" lon="-2.33895">
        <ele>-2.5999999046326</ele>
        <time>2020-01-19T11:29:20.000Z</time>
      </trkpt>
      <trkpt lat="47.25648" lon="-2.33874">
        <ele>-2.5999999046326</ele>
        <time>2020-01-19T11:29:23.000Z</time>
      </trkpt>
      <trkpt lat="47.25642" lon="-2.33854">
        <ele>-2.5999999046326</ele>
        <time>2020-01-19T11:29:26.000Z</time>
      </trkpt>
      <trkpt lat="47.25635" lon="-2.33809">
        <ele>-2.5999999046326</ele>
        <time>2020-01-19T11:29:32.000Z</time>
      </trkpt>
      <trkpt lat="47.2563" lon="-2.33789">
        <ele>-2.5999999046326</ele>
        <time>2020-01-19T11:29:35.000Z</time>
      </trkpt>
      <trkpt lat="47.25624" lon="-2.33778">
        <ele>-2.5999999046326</ele>
        <time>2020-01-19T11:29:37.000Z</time>
      </trkpt>
      <trkpt lat="47.25613" lon="-2.33766">
        <ele>-2.5999999046326</ele>
        <time>2020-01-19T11:29:40.000Z</time>
      </trkpt>
      <trkpt lat="47.25603" lon="-2.33762">
        <ele>-2.5999999046326</ele>
        <time>2020-01-19T11:29:42.000Z</time>
      </trkpt>
      <trkpt lat="47.25593" lon="-2.33759">
        <ele>-2.5999999046326</ele>
        <time>2020-01-19T11:29:44.000Z</time>
      </trkpt>
      <trkpt lat="47.25577" lon="-2.33759">
        <ele>-2.5999999046326</ele>
        <time>2020-01-19T11:29:47.000Z</time>
      </trkpt>
      <trkpt lat="47.25541" lon="-2.33759">
        <ele>-2.5999999046326</ele>
        <time>2020-01-19T11:29:53.000Z</time>
      </trkpt>
      <trkpt lat="47.25505" lon="-2.33758">
        <ele>-3.2000000476837</ele>
        <time>2020-01-19T11:29:59.000Z</time>
      </trkpt>
      <trkpt lat="47.25498" lon="-2.33758">
        <ele>-3.5999999046326</ele>
        <time>2020-01-19T11:30:00.000Z</time>
      </trkpt>
      <trkpt lat="47.25492" lon="-2.33757">
        <ele>-4.4000000953674</ele>
        <time>2020-01-19T11:30:01.000Z</time>
      </trkpt>
      <trkpt lat="47.25485" lon="-2.33757">
        <ele>-4.8000001907349</ele>
        <time>2020-01-19T11:30:02.000Z</time>
      </trkpt>
      <trkpt lat="47.25467" lon="-2.33749">
        <ele>-4.8000001907349</ele>
        <time>2020-01-19T11:30:05.000Z</time>
      </trkpt>
      <trkpt lat="47.25462" lon="-2.33745">
        <ele>-4.8000001907349</ele>
        <time>2020-01-19T11:30:06.000Z</time>
      </trkpt>
      <trkpt lat="47.25457" lon="-2.33739">
        <ele>-4.8000001907349</ele>
        <time>2020-01-19T11:30:07.000Z</time>
      </trkpt>
      <trkpt lat="47.25453" lon="-2.33723">
        <ele>-4.8000001907349</ele>
        <time>2020-01-19T11:30:09.000Z</time>
      </trkpt>
      <trkpt lat="47.25451" lon="-2.33706">
        <ele>-4.8000001907349</ele>
        <time>2020-01-19T11:30:11.000Z</time>
      </trkpt>
      <trkpt lat="47.25448" lon="-2.33682">
        <ele>-4.8000001907349</ele>
        <time>2020-01-19T11:30:14.000Z</time>
      </trkpt>
      <trkpt lat="47.25444" lon="-2.33652">
        <ele>-4.8000001907349</ele>
        <time>2020-01-19T11:30:18.000Z</time>
      </trkpt>
      <trkpt lat="47.25442" lon="-2.33644">
        <ele>-4.8000001907349</ele>
        <time>2020-01-19T11:30:19.000Z</time>
      </trkpt>
      <trkpt lat="47.2544" lon="-2.33629">
        <ele>-4.8000001907349</ele>
        <time>2020-01-19T11:30:21.000Z</time>
      </trkpt>
      <trkpt lat="47.25441" lon="-2.33614">
        <ele>-4.8000001907349</ele>
        <time>2020-01-19T11:30:23.000Z</time>
      </trkpt>
      <trkpt lat="47.25441" lon="-2.33597">
        <ele>-4.8000001907349</ele>
        <time>2020-01-19T11:30:26.000Z</time>
      </trkpt>
      <trkpt lat="47.25441" lon="-2.33592">
        <ele>-4.8000001907349</ele>
        <time>2020-01-19T11:30:27.000Z</time>
      </trkpt>
      <trkpt lat="47.25442" lon="-2.33583">
        <ele>-4.8000001907349</ele>
        <time>2020-01-19T11:30:29.000Z</time>
      </trkpt>
      <trkpt lat="47.25447" lon="-2.33581">
        <ele>-4.8000001907349</ele>
        <time>2020-01-19T11:30:31.000Z</time>
      </trkpt>
      <trkpt lat="47.25458" lon="-2.33574">
        <ele>-4.8000001907349</ele>
        <time>2020-01-19T11:30:36.000Z</time>
      </trkpt>
      <trkpt lat="47.25455" lon="-2.33561">
        <ele>-4.8000001907349</ele>
        <time>2020-01-19T11:30:39.000Z</time>
      </trkpt>
      <trkpt lat="47.25454" lon="-2.33556">
        <ele>-4.8000001907349</ele>
        <time>2020-01-19T11:30:40.000Z</time>
      </trkpt>
      <trkpt lat="47.25448" lon="-2.33533">
        <ele>-4.8000001907349</ele>
        <time>2020-01-19T11:30:45.000Z</time>
      </trkpt>
      <trkpt lat="47.25441" lon="-2.33498">
        <ele>-4.8000001907349</ele>
        <time>2020-01-19T11:30:51.000Z</time>
      </trkpt>
      <trkpt lat="47.25437" lon="-2.3348">
        <ele>-4.8000001907349</ele>
        <time>2020-01-19T11:30:54.000Z</time>
      </trkpt>
      <trkpt lat="47.25432" lon="-2.33463">
        <ele>-4.8000001907349</ele>
        <time>2020-01-19T11:30:57.000Z</time>
      </trkpt>
      <trkpt lat="47.25431" lon="-2.33428">
        <ele>-4.8000001907349</ele>
        <time>2020-01-19T11:31:02.000Z</time>
      </trkpt>
      <trkpt lat="47.2543" lon="-2.33407">
        <ele>-4.8000001907349</ele>
        <time>2020-01-19T11:31:05.000Z</time>
      </trkpt>
      <trkpt lat="47.25431" lon="-2.33379">
        <ele>-4.8000001907349</ele>
        <time>2020-01-19T11:31:09.000Z</time>
      </trkpt>
      <trkpt lat="47.25431" lon="-2.33351">
        <ele>-4.8000001907349</ele>
        <time>2020-01-19T11:31:13.000Z</time>
      </trkpt>
      <trkpt lat="47.25433" lon="-2.33338">
        <ele>-4.4000000953674</ele>
        <time>2020-01-19T11:31:15.000Z</time>
      </trkpt>
      <trkpt lat="47.25435" lon="-2.33332">
        <ele>-3.5999999046326</ele>
        <time>2020-01-19T11:31:16.000Z</time>
      </trkpt>
      <trkpt lat="47.25437" lon="-2.33326">
        <ele>-3.2000000476837</ele>
        <time>2020-01-19T11:31:17.000Z</time>
      </trkpt>
      <trkpt lat="47.25439" lon="-2.3332">
        <ele>-2.7999999523163</ele>
        <time>2020-01-19T11:31:18.000Z</time>
      </trkpt>
      <trkpt lat="47.25443" lon="-2.33309">
        <ele>-2.7999999523163</ele>
        <time>2020-01-19T11:31:20.000Z</time>
      </trkpt>
      <trkpt lat="47.25447" lon="-2.33296">
        <ele>-2.7999999523163</ele>
        <time>2020-01-19T11:31:22.000Z</time>
      </trkpt>
      <trkpt lat="47.25446" lon="-2.33276">
        <ele>-2.7999999523163</ele>
        <time>2020-01-19T11:31:25.000Z</time>
      </trkpt>
      <trkpt lat="47.25439" lon="-2.33259">
        <ele>-2.7999999523163</ele>
        <time>2020-01-19T11:31:28.000Z</time>
      </trkpt>
      <trkpt lat="47.25433" lon="-2.33248">
        <ele>-2.7999999523163</ele>
        <time>2020-01-19T11:31:30.000Z</time>
      </trkpt>
      <trkpt lat="47.25413" lon="-2.33201">
        <ele>-2.7999999523163</ele>
        <time>2020-01-19T11:31:38.000Z</time>
      </trkpt>
      <trkpt lat="47.25399" lon="-2.33165">
        <ele>-2.7999999523163</ele>
        <time>2020-01-19T11:31:44.000Z</time>
      </trkpt>
      <trkpt lat="47.25396" lon="-2.33159">
        <ele>-3.2000000476837</ele>
        <time>2020-01-19T11:31:45.000Z</time>
      </trkpt>
      <trkpt lat="47.25394" lon="-2.33154">
        <ele>-3.5999999046326</ele>
        <time>2020-01-19T11:31:46.000Z</time>
      </trkpt>
      <trkpt lat="47.25391" lon="-2.3315">
        <ele>-4</ele>
        <time>2020-01-19T11:31:47.000Z</time>
      </trkpt>
      <trkpt lat="47.25389" lon="-2.33147">
        <ele>-4.4000000953674</ele>
        <time>2020-01-19T11:31:48.000Z</time>
      </trkpt>
      <trkpt lat="47.25386" lon="-2.33145">
        <ele>-4.8000001907349</ele>
        <time>2020-01-19T11:31:49.000Z</time>
      </trkpt>
      <trkpt lat="47.25381" lon="-2.33129">
        <ele>-4.8000001907349</ele>
        <time>2020-01-19T11:31:53.000Z</time>
      </trkpt>
      <trkpt lat="47.25374" lon="-2.33112">
        <ele>-4.8000001907349</ele>
        <time>2020-01-19T11:31:58.000Z</time>
      </trkpt>
      <trkpt lat="47.25373" lon="-2.33111">
        <ele>-4.8000001907349</ele>
        <time>2020-01-19T11:31:59.000Z</time>
      </trkpt>
      <trkpt lat="47.25373" lon="-2.33111">
        <ele>-4.8000001907349</ele>
        <time>2020-01-19T11:32:00.000Z</time>
      </trkpt>
      <trkpt lat="47.25367" lon="-2.33093">
        <ele>-4.8000001907349</ele>
        <time>2020-01-19T11:37:53.000Z</time>
      </trkpt>
      <trkpt lat="47.25364" lon="-2.33088">
        <ele>-4.8000001907349</ele>
        <time>2020-01-19T11:37:55.000Z</time>
      </trkpt>
      <trkpt lat="47.2536" lon="-2.3308">
        <ele>-4.8000001907349</ele>
        <time>2020-01-19T11:37:57.000Z</time>
      </trkpt>
      <trkpt lat="47.25357" lon="-2.33071">
        <ele>-4.8000001907349</ele>
        <time>2020-01-19T11:37:59.000Z</time>
      </trkpt>
      <trkpt lat="47.25346" lon="-2.33044">
        <ele>-4.8000001907349</ele>
        <time>2020-01-19T11:38:05.000Z</time>
      </trkpt>
      <trkpt lat="47.25339" lon="-2.33024">
        <ele>-4.4000000953674</ele>
        <time>2020-01-19T11:38:09.000Z</time>
      </trkpt>
      <trkpt lat="47.25337" lon="-2.33018">
        <ele>-4</ele>
        <time>2020-01-19T11:38:10.000Z</time>
      </trkpt>
      <trkpt lat="47.25334" lon="-2.33012">
        <ele>-3.5999999046326</ele>
        <time>2020-01-19T11:38:11.000Z</time>
      </trkpt>
      <trkpt lat="47.25332" lon="-2.33007">
        <ele>-3.2000000476837</ele>
        <time>2020-01-19T11:38:12.000Z</time>
      </trkpt>
      <trkpt lat="47.2533" lon="-2.33002">
        <ele>-2.7999999523163</ele>
        <time>2020-01-19T11:38:13.000Z</time>
      </trkpt>
      <trkpt lat="47.25315" lon="-2.32962">
        <ele>-2.7999999523163</ele>
        <time>2020-01-19T11:38:20.000Z</time>
      </trkpt>
      <trkpt lat="47.25307" lon="-2.32932">
        <ele>-2.7999999523163</ele>
        <time>2020-01-19T11:38:25.000Z</time>
      </trkpt>
      <trkpt lat="47.25308" lon="-2.32926">
        <ele>-2.7999999523163</ele>
        <time>2020-01-19T11:38:26.000Z</time>
      </trkpt>
      <trkpt lat="47.25317" lon="-2.32912">
        <ele>-2.7999999523163</ele>
        <time>2020-01-19T11:38:29.000Z</time>
      </trkpt>
      <trkpt lat="47.25324" lon="-2.32906">
        <ele>-2.7999999523163</ele>
        <time>2020-01-19T11:38:31.000Z</time>
      </trkpt>
      <trkpt lat="47.25334" lon="-2.32894">
        <ele>-2.7999999523163</ele>
        <time>2020-01-19T11:38:34.000Z</time>
      </trkpt>
      <trkpt lat="47.25362" lon="-2.32868">
        <ele>-2.7999999523163</ele>
        <time>2020-01-19T11:38:41.000Z</time>
      </trkpt>
      <trkpt lat="47.25369" lon="-2.3286">
        <ele>-2.4000000953674</ele>
        <time>2020-01-19T11:38:43.000Z</time>
      </trkpt>
      <trkpt lat="47.25373" lon="-2.32856">
        <ele>-2</ele>
        <time>2020-01-19T11:38:44.000Z</time>
      </trkpt>
      <trkpt lat="47.25377" lon="-2.32852">
        <ele>-1.6000000238419</ele>
        <time>2020-01-19T11:38:45.000Z</time>
      </trkpt>
      <trkpt lat="47.25381" lon="-2.32847">
        <ele>-1.2000000476837</ele>
        <time>2020-01-19T11:38:46.000Z</time>
      </trkpt>
      <trkpt lat="47.25384" lon="-2.32843">
        <ele>-0.60000002384186</ele>
        <time>2020-01-19T11:38:47.000Z</time>
      </trkpt>
      <trkpt lat="47.25388" lon="-2.32839">
        <ele>-0.60000002384186</ele>
        <time>2020-01-19T11:38:48.000Z</time>
      </trkpt>
      <trkpt lat="47.25409" lon="-2.32814">
        <ele>-0.60000002384186</ele>
        <time>2020-01-19T11:38:54.000Z</time>
      </trkpt>
      <trkpt lat="47.25411" lon="-2.3281">
        <ele>-0.60000002384186</ele>
        <time>2020-01-19T11:38:55.000Z</time>
      </trkpt>
      <trkpt lat="47.25429" lon="-2.32778">
        <ele>-0.60000002384186</ele>
        <time>2020-01-19T11:39:02.000Z</time>
      </trkpt>
      <trkpt lat="47.25437" lon="-2.32763">
        <ele>-0.60000002384186</ele>
        <time>2020-01-19T11:39:06.000Z</time>
      </trkpt>
      <trkpt lat="47.2545" lon="-2.32746">
        <ele>-0.20000000298023</ele>
        <time>2020-01-19T11:39:10.000Z</time>
      </trkpt>
      <trkpt lat="47.25453" lon="-2.32742">
        <ele>0.20000000298023</ele>
        <time>2020-01-19T11:39:11.000Z</time>
      </trkpt>
      <trkpt lat="47.25456" lon="-2.32738">
        <ele>0.60000002384186</ele>
        <time>2020-01-19T11:39:12.000Z</time>
      </trkpt>
      <trkpt lat="47.25459" lon="-2.32734">
        <ele>1</ele>
        <time>2020-01-19T11:39:13.000Z</time>
      </trkpt>
      <trkpt lat="47.25462" lon="-2.3273">
        <ele>1.3999999761581</ele>
        <time>2020-01-19T11:39:14.000Z</time>
      </trkpt>
      <trkpt lat="47.25469" lon="-2.32721">
        <ele>1.3999999761581</ele>
        <time>2020-01-19T11:39:16.000Z</time>
      </trkpt>
      <trkpt lat="47.25476" lon="-2.32713">
        <ele>1.3999999761581</ele>
        <time>2020-01-19T11:39:18.000Z</time>
      </trkpt>
      <trkpt lat="47.25491" lon="-2.32686">
        <ele>1.3999999761581</ele>
        <time>2020-01-19T11:39:24.000Z</time>
      </trkpt>
      <trkpt lat="47.25491" lon="-2.3266">
        <ele>1.3999999761581</ele>
        <time>2020-01-19T11:39:28.000Z</time>
      </trkpt>
      <trkpt lat="47.2549" lon="-2.32654">
        <ele>1.3999999761581</ele>
        <time>2020-01-19T11:39:29.000Z</time>
      </trkpt>
      <trkpt lat="47.25483" lon="-2.32623">
        <ele>1.3999999761581</ele>
        <time>2020-01-19T11:39:34.000Z</time>
      </trkpt>
      <trkpt lat="47.25478" lon="-2.32598">
        <ele>1.3999999761581</ele>
        <time>2020-01-19T11:39:38.000Z</time>
      </trkpt>
      <trkpt lat="47.25478" lon="-2.32574">
        <ele>1.3999999761581</ele>
        <time>2020-01-19T11:39:42.000Z</time>
      </trkpt>
      <trkpt lat="47.25479" lon="-2.32569">
        <ele>1.3999999761581</ele>
        <time>2020-01-19T11:39:43.000Z</time>
      </trkpt>
      <trkpt lat="47.25489" lon="-2.32555">
        <ele>1.3999999761581</ele>
        <time>2020-01-19T11:39:46.000Z</time>
      </trkpt>
      <trkpt lat="47.25493" lon="-2.3255">
        <ele>1.3999999761581</ele>
        <time>2020-01-19T11:39:47.000Z</time>
      </trkpt>
      <trkpt lat="47.25514" lon="-2.32529">
        <ele>1.3999999761581</ele>
        <time>2020-01-19T11:39:52.000Z</time>
      </trkpt>
      <trkpt lat="47.25554" lon="-2.32493">
        <ele>1.3999999761581</ele>
        <time>2020-01-19T11:40:00.000Z</time>
      </trkpt>
      <trkpt lat="47.25588" lon="-2.32461">
        <ele>1.3999999761581</ele>
        <time>2020-01-19T11:40:06.000Z</time>
      </trkpt>
      <trkpt lat="47.25594" lon="-2.32455">
        <ele>1</ele>
        <time>2020-01-19T11:40:07.000Z</time>
      </trkpt>
      <trkpt lat="47.25599" lon="-2.32449">
        <ele>0.60000002384186</ele>
        <time>2020-01-19T11:40:08.000Z</time>
      </trkpt>
      <trkpt lat="47.25605" lon="-2.32443">
        <ele>0.20000000298023</ele>
        <time>2020-01-19T11:40:09.000Z</time>
      </trkpt>
      <trkpt lat="47.2561" lon="-2.32437">
        <ele>-0.20000000298023</ele>
        <time>2020-01-19T11:40:10.000Z</time>
      </trkpt>
      <trkpt lat="47.25615" lon="-2.32432">
        <ele>-0.60000002384186</ele>
        <time>2020-01-19T11:40:11.000Z</time>
      </trkpt>
      <trkpt lat="47.2562" lon="-2.32426">
        <ele>-1</ele>
        <time>2020-01-19T11:40:12.000Z</time>
      </trkpt>
      <trkpt lat="47.25626" lon="-2.32421">
        <ele>-1.6000000238419</ele>
        <time>2020-01-19T11:40:13.000Z</time>
      </trkpt>
      <trkpt lat="47.25631" lon="-2.32415">
        <ele>-2.2000000476837</ele>
        <time>2020-01-19T11:40:14.000Z</time>
      </trkpt>
      <trkpt lat="47.25636" lon="-2.3241">
        <ele>-2.5999999046326</ele>
        <time>2020-01-19T11:40:15.000Z</time>
      </trkpt>
      <trkpt lat="47.25641" lon="-2.32404">
        <ele>-3.2000000476837</ele>
        <time>2020-01-19T11:40:16.000Z</time>
      </trkpt>
      <trkpt lat="47.2565" lon="-2.32398">
        <ele>-3.2000000476837</ele>
        <time>2020-01-19T11:40:18.000Z</time>
      </trkpt>
      <trkpt lat="47.25656" lon="-2.32398">
        <ele>-3.2000000476837</ele>
        <time>2020-01-19T11:40:19.000Z</time>
      </trkpt>
      <trkpt lat="47.25669" lon="-2.324">
        <ele>-3.2000000476837</ele>
        <time>2020-01-19T11:40:22.000Z</time>
      </trkpt>
      <trkpt lat="47.25673" lon="-2.32405">
        <ele>-3.2000000476837</ele>
        <time>2020-01-19T11:40:23.000Z</time>
      </trkpt>
      <trkpt lat="47.25677" lon="-2.3241">
        <ele>-3.5999999046326</ele>
        <time>2020-01-19T11:40:24.000Z</time>
      </trkpt>
      <trkpt lat="47.25682" lon="-2.32415">
        <ele>-4.1999998092651</ele>
        <time>2020-01-19T11:40:25.000Z</time>
      </trkpt>
      <trkpt lat="47.25687" lon="-2.32416">
        <ele>-4.5999999046326</ele>
        <time>2020-01-19T11:40:26.000Z</time>
      </trkpt>
      <trkpt lat="47.25693" lon="-2.32417">
        <ele>-5.1999998092651</ele>
        <time>2020-01-19T11:40:27.000Z</time>
      </trkpt>
      <trkpt lat="47.25699" lon="-2.32418">
        <ele>-5.5999999046326</ele>
        <time>2020-01-19T11:40:28.000Z</time>
      </trkpt>
      <trkpt lat="47.25728" lon="-2.3242">
        <ele>-5.5999999046326</ele>
        <time>2020-01-19T11:40:33.000Z</time>
      </trkpt>
      <trkpt lat="47.25764" lon="-2.32419">
        <ele>-5.5999999046326</ele>
        <time>2020-01-19T11:40:40.000Z</time>
      </trkpt>
      <trkpt lat="47.25776" lon="-2.32413">
        <ele>-5.5999999046326</ele>
        <time>2020-01-19T11:40:43.000Z</time>
      </trkpt>
      <trkpt lat="47.25791" lon="-2.32426">
        <ele>-5.5999999046326</ele>
        <time>2020-01-19T11:40:47.000Z</time>
      </trkpt>
      <trkpt lat="47.25797" lon="-2.32437">
        <ele>-5.5999999046326</ele>
        <time>2020-01-19T11:40:49.000Z</time>
      </trkpt>
      <trkpt lat="47.25805" lon="-2.32447">
        <ele>-5.5999999046326</ele>
        <time>2020-01-19T11:40:51.000Z</time>
      </trkpt>
      <trkpt lat="47.25809" lon="-2.32451">
        <ele>-5.5999999046326</ele>
        <time>2020-01-19T11:40:52.000Z</time>
      </trkpt>
      <trkpt lat="47.2584" lon="-2.32469">
        <ele>-5.5999999046326</ele>
        <time>2020-01-19T11:40:58.000Z</time>
      </trkpt>
      <trkpt lat="47.25856" lon="-2.32473">
        <ele>-5.5999999046326</ele>
        <time>2020-01-19T11:41:01.000Z</time>
      </trkpt>
      <trkpt lat="47.25872" lon="-2.32472">
        <ele>-5.5999999046326</ele>
        <time>2020-01-19T11:41:04.000Z</time>
      </trkpt>
      <trkpt lat="47.25891" lon="-2.32467">
        <ele>-5.5999999046326</ele>
        <time>2020-01-19T11:41:08.000Z</time>
      </trkpt>
      <trkpt lat="47.25901" lon="-2.32458">
        <ele>-5.5999999046326</ele>
        <time>2020-01-19T11:41:10.000Z</time>
      </trkpt>
      <trkpt lat="47.25925" lon="-2.32428">
        <ele>-5.5999999046326</ele>
        <time>2020-01-19T11:41:16.000Z</time>
      </trkpt>
      <trkpt lat="47.25949" lon="-2.32395">
        <ele>-5.5999999046326</ele>
        <time>2020-01-19T11:41:22.000Z</time>
      </trkpt>
      <trkpt lat="47.25969" lon="-2.3237">
        <ele>-5.5999999046326</ele>
        <time>2020-01-19T11:41:27.000Z</time>
      </trkpt>
      <trkpt lat="47.26002" lon="-2.32329">
        <ele>-5.5999999046326</ele>
        <time>2020-01-19T11:41:35.000Z</time>
      </trkpt>
      <trkpt lat="47.26025" lon="-2.32298">
        <ele>-5.5999999046326</ele>
        <time>2020-01-19T11:41:41.000Z</time>
      </trkpt>
      <trkpt lat="47.26053" lon="-2.32266">
        <ele>-5.5999999046326</ele>
        <time>2020-01-19T11:41:48.000Z</time>
      </trkpt>
      <trkpt lat="47.26071" lon="-2.32245">
        <ele>-5.5999999046326</ele>
        <time>2020-01-19T11:41:53.000Z</time>
      </trkpt>
      <trkpt lat="47.2609" lon="-2.32222">
        <ele>-5.5999999046326</ele>
        <time>2020-01-19T11:41:58.000Z</time>
      </trkpt>
      <trkpt lat="47.26111" lon="-2.32179">
        <ele>-5.5999999046326</ele>
        <time>2020-01-19T11:42:05.000Z</time>
      </trkpt>
      <trkpt lat="47.26124" lon="-2.3214">
        <ele>-5.5999999046326</ele>
        <time>2020-01-19T11:42:11.000Z</time>
      </trkpt>
      <trkpt lat="47.26138" lon="-2.321">
        <ele>-5.5999999046326</ele>
        <time>2020-01-19T11:42:17.000Z</time>
      </trkpt>
      <trkpt lat="47.26154" lon="-2.32051">
        <ele>-5.5999999046326</ele>
        <time>2020-01-19T11:42:24.000Z</time>
      </trkpt>
      <trkpt lat="47.2616" lon="-2.3203">
        <ele>-5.5999999046326</ele>
        <time>2020-01-19T11:42:27.000Z</time>
      </trkpt>
      <trkpt lat="47.26165" lon="-2.32001">
        <ele>-5.5999999046326</ele>
        <time>2020-01-19T11:42:31.000Z</time>
      </trkpt>
      <trkpt lat="47.26165" lon="-2.31994">
        <ele>-5.5999999046326</ele>
        <time>2020-01-19T11:42:32.000Z</time>
      </trkpt>
      <trkpt lat="47.26161" lon="-2.31973">
        <ele>-5.5999999046326</ele>
        <time>2020-01-19T11:42:35.000Z</time>
      </trkpt>
      <trkpt lat="47.26158" lon="-2.31958">
        <ele>-5.5999999046326</ele>
        <time>2020-01-19T11:42:37.000Z</time>
      </trkpt>
      <trkpt lat="47.26154" lon="-2.31928">
        <ele>-5.5999999046326</ele>
        <time>2020-01-19T11:42:41.000Z</time>
      </trkpt>
      <trkpt lat="47.26145" lon="-2.31871">
        <ele>-5.5999999046326</ele>
        <time>2020-01-19T11:42:49.000Z</time>
      </trkpt>
      <trkpt lat="47.2614" lon="-2.31838">
        <ele>-5.5999999046326</ele>
        <time>2020-01-19T11:42:54.000Z</time>
      </trkpt>
      <trkpt lat="47.2614" lon="-2.3183">
        <ele>-5.5999999046326</ele>
        <time>2020-01-19T11:42:55.000Z</time>
      </trkpt>
      <trkpt lat="47.26133" lon="-2.31769">
        <ele>-5.5999999046326</ele>
        <time>2020-01-19T11:43:03.000Z</time>
      </trkpt>
      <trkpt lat="47.26129" lon="-2.31728">
        <ele>-5.5999999046326</ele>
        <time>2020-01-19T11:43:09.000Z</time>
      </trkpt>
      <trkpt lat="47.26127" lon="-2.31714">
        <ele>-5.5999999046326</ele>
        <time>2020-01-19T11:43:11.000Z</time>
      </trkpt>
      <trkpt lat="47.26124" lon="-2.31695">
        <ele>-5.5999999046326</ele>
        <time>2020-01-19T11:43:14.000Z</time>
      </trkpt>
      <trkpt lat="47.26121" lon="-2.31674">
        <ele>-5.5999999046326</ele>
        <time>2020-01-19T11:43:17.000Z</time>
      </trkpt>
      <trkpt lat="47.26116" lon="-2.31638">
        <ele>-5.5999999046326</ele>
        <time>2020-01-19T11:43:22.000Z</time>
      </trkpt>
      <trkpt lat="47.26117" lon="-2.31625">
        <ele>-5.5999999046326</ele>
        <time>2020-01-19T11:43:24.000Z</time>
      </trkpt>
      <trkpt lat="47.2613" lon="-2.31613">
        <ele>-5.5999999046326</ele>
        <time>2020-01-19T11:43:28.000Z</time>
      </trkpt>
      <trkpt lat="47.26135" lon="-2.31612">
        <ele>-5.5999999046326</ele>
        <time>2020-01-19T11:43:29.000Z</time>
      </trkpt>
      <trkpt lat="47.26152" lon="-2.31608">
        <ele>-5.5999999046326</ele>
        <time>2020-01-19T11:43:33.000Z</time>
      </trkpt>
      <trkpt lat="47.26158" lon="-2.31605">
        <ele>-5.5999999046326</ele>
        <time>2020-01-19T11:43:34.000Z</time>
      </trkpt>
      <trkpt lat="47.26194" lon="-2.31592">
        <ele>-5.5999999046326</ele>
        <time>2020-01-19T11:43:42.000Z</time>
      </trkpt>
      <trkpt lat="47.26208" lon="-2.31589">
        <ele>-5.5999999046326</ele>
        <time>2020-01-19T11:43:45.000Z</time>
      </trkpt>
      <trkpt lat="47.26216" lon="-2.31589">
        <ele>-5.5999999046326</ele>
        <time>2020-01-19T11:43:47.000Z</time>
      </trkpt>
      <trkpt lat="47.26235" lon="-2.31599">
        <ele>-5.5999999046326</ele>
        <time>2020-01-19T11:43:52.000Z</time>
      </trkpt>
      <trkpt lat="47.26239" lon="-2.31602">
        <ele>-5.5999999046326</ele>
        <time>2020-01-19T11:43:53.000Z</time>
      </trkpt>
      <trkpt lat="47.26252" lon="-2.31621">
        <ele>-5.5999999046326</ele>
        <time>2020-01-19T11:43:57.000Z</time>
      </trkpt>
      <trkpt lat="47.26261" lon="-2.31642">
        <ele>-5.5999999046326</ele>
        <time>2020-01-19T11:44:01.000Z</time>
      </trkpt>
      <trkpt lat="47.26266" lon="-2.31652">
        <ele>-5.5999999046326</ele>
        <time>2020-01-19T11:44:03.000Z</time>
      </trkpt>
      <trkpt lat="47.26275" lon="-2.3167">
        <ele>-5.5999999046326</ele>
        <time>2020-01-19T11:44:06.000Z</time>
      </trkpt>
      <trkpt lat="47.26283" lon="-2.31687">
        <ele>-5.5999999046326</ele>
        <time>2020-01-19T11:44:09.000Z</time>
      </trkpt>
      <trkpt lat="47.26289" lon="-2.31698">
        <ele>-5.5999999046326</ele>
        <time>2020-01-19T11:44:11.000Z</time>
      </trkpt>
      <trkpt lat="47.263" lon="-2.31709">
        <ele>-5.5999999046326</ele>
        <time>2020-01-19T11:44:14.000Z</time>
      </trkpt>
      <trkpt lat="47.26309" lon="-2.3171">
        <ele>-5.5999999046326</ele>
        <time>2020-01-19T11:44:16.000Z</time>
      </trkpt>
      <trkpt lat="47.26313" lon="-2.31707">
        <ele>-5.5999999046326</ele>
        <time>2020-01-19T11:44:17.000Z</time>
      </trkpt>
      <trkpt lat="47.26316" lon="-2.31705">
        <ele>-5.5999999046326</ele>
        <time>2020-01-19T11:44:18.000Z</time>
      </trkpt>
      <trkpt lat="47.26329" lon="-2.31696">
        <ele>-5.5999999046326</ele>
        <time>2020-01-19T11:44:22.000Z</time>
      </trkpt>
      <trkpt lat="47.26334" lon="-2.31685">
        <ele>-5.1999998092651</ele>
        <time>2020-01-19T11:44:25.000Z</time>
      </trkpt>
      <trkpt lat="47.26335" lon="-2.31683">
        <ele>-4.8000001907349</ele>
        <time>2020-01-19T11:44:26.000Z</time>
      </trkpt>
      <trkpt lat="47.26337" lon="-2.31683">
        <ele>-4.4000000953674</ele>
        <time>2020-01-19T11:44:27.000Z</time>
      </trkpt>
      <trkpt lat="47.26339" lon="-2.31682">
        <ele>-4</ele>
        <time>2020-01-19T11:44:28.000Z</time>
      </trkpt>
      <trkpt lat="47.26343" lon="-2.3168">
        <ele>-3.5999999046326</ele>
        <time>2020-01-19T11:44:29.000Z</time>
      </trkpt>
      <trkpt lat="47.26351" lon="-2.31677">
        <ele>-3.5999999046326</ele>
        <time>2020-01-19T11:44:31.000Z</time>
      </trkpt>
      <trkpt lat="47.2637" lon="-2.3167">
        <ele>-3.2000000476837</ele>
        <time>2020-01-19T11:44:36.000Z</time>
      </trkpt>
      <trkpt lat="47.26374" lon="-2.31669">
        <ele>-2.7999999523163</ele>
        <time>2020-01-19T11:44:37.000Z</time>
      </trkpt>
      <trkpt lat="47.26377" lon="-2.31667">
        <ele>-2.4000000953674</ele>
        <time>2020-01-19T11:44:38.000Z</time>
      </trkpt>
      <trkpt lat="47.2638" lon="-2.31666">
        <ele>-2</ele>
        <time>2020-01-19T11:44:39.000Z</time>
      </trkpt>
      <trkpt lat="47.26383" lon="-2.31664">
        <ele>-1.6000000238419</ele>
        <time>2020-01-19T11:44:40.000Z</time>
      </trkpt>
      <trkpt lat="47.26399" lon="-2.31656">
        <ele>-1.6000000238419</ele>
        <time>2020-01-19T11:44:45.000Z</time>
      </trkpt>
      <trkpt lat="47.26411" lon="-2.31645">
        <ele>-1.6000000238419</ele>
        <time>2020-01-19T11:44:50.000Z</time>
      </trkpt>
      <trkpt lat="47.2641" lon="-2.3163">
        <ele>-1.6000000238419</ele>
        <time>2020-01-19T11:44:53.000Z</time>
      </trkpt>
      <trkpt lat="47.26411" lon="-2.31599">
        <ele>-1.6000000238419</ele>
        <time>2020-01-19T11:44:59.000Z</time>
      </trkpt>
      <trkpt lat="47.26411" lon="-2.3158">
        <ele>-1</ele>
        <time>2020-01-19T11:45:03.000Z</time>
      </trkpt>
      <trkpt lat="47.26411" lon="-2.31576">
        <ele>-0.60000002384186</ele>
        <time>2020-01-19T11:45:04.000Z</time>
      </trkpt>
      <trkpt lat="47.2641" lon="-2.31571">
        <ele>-0.20000000298023</ele>
        <time>2020-01-19T11:45:05.000Z</time>
      </trkpt>
      <trkpt lat="47.26411" lon="-2.31567">
        <ele>0.20000000298023</ele>
        <time>2020-01-19T11:45:06.000Z</time>
      </trkpt>
      <trkpt lat="47.26411" lon="-2.31562">
        <ele>0.60000002384186</ele>
        <time>2020-01-19T11:45:07.000Z</time>
      </trkpt>
      <trkpt lat="47.26413" lon="-2.31554">
        <ele>0.60000002384186</ele>
        <time>2020-01-19T11:45:09.000Z</time>
      </trkpt>
      <trkpt lat="47.26418" lon="-2.31554">
        <ele>0.60000002384186</ele>
        <time>2020-01-19T11:45:12.000Z</time>
      </trkpt>
      <trkpt lat="47.26418" lon="-2.31553">
        <ele>0.60000002384186</ele>
        <time>2020-01-19T11:45:13.000Z</time>
      </trkpt>
    </trkseg>
  </trk>
</gpx>